<?xml version='1.0' encoding='UTF-8'?><gpx version="1.1" creator="JPX - https://github.com/jenetics/jpx" xmlns="http://www.topografix.com/GPX/1/1"><trk><trkseg><trkpt lat="45.653186415118384" lon="8.840929082886522"><ele>251.00000000000003</ele><time>2026-03-28T11:17:28.999Z</time></trkpt><trkpt lat="45.65326353706889" lon="8.840940711897716"><ele>251.0</ele><time>2026-03-28T11:17:30.999Z</time></trkpt><trkpt lat="45.65332907128543" lon="8.840969733527423"><ele>251.0</ele><time>2026-03-28T11:17:33.999Z</time></trkpt><trkpt lat="45.65341765256058" lon="8.840997251171668"><ele>251.0</ele><time>2026-03-28T11:17:35.999Z</time></trkpt><trkpt lat="45.65349452583476" lon="8.841005501139833"><ele>251.00000000000003</ele><time>2026-03-28T11:17:37.999Z</time></trkpt><trkpt lat="45.653565235236044" lon="8.840978226160484"><ele>251.0</ele><time>2026-03-28T11:17:40.999Z</time></trkpt><trkpt lat="45.65358853187333" lon="8.840882955113198"><ele>251.16666666666669</ele><time>2026-03-28T11:17:44.999Z</time></trkpt><trkpt lat="45.65363969234952" lon="8.840811638546798"><ele>251.33333333333334</ele><time>2026-03-28T11:18:03.999Z</time></trkpt><trkpt lat="45.6537125882789" lon="8.840663138627594"><ele>251.5</ele><time>2026-03-28T11:18:05.999Z</time></trkpt><trkpt lat="45.6537506521249" lon="8.840564152194911"><ele>251.66666666666669</ele><time>2026-03-28T11:18:06.999Z</time></trkpt><trkpt lat="45.65379560807726" lon="8.840486591516193"><ele>251.83333333333334</ele><time>2026-03-28T11:18:07.999Z</time></trkpt><trkpt lat="45.65386582017708" lon="8.840415792429436"><ele>252.0</ele><time>2026-03-28T11:18:08.999Z</time></trkpt><trkpt lat="45.65395038686093" lon="8.840360872489995"><ele>252.0</ele><time>2026-03-28T11:18:09.999Z</time></trkpt><trkpt lat="45.65404202325223" lon="8.84032550224963"><ele>252.0</ele><time>2026-03-28T11:18:10.999Z</time></trkpt><trkpt lat="45.65413755652773" lon="8.840313326615469"><ele>252.0</ele><time>2026-03-28T11:18:11.999Z</time></trkpt><trkpt lat="45.65423147873702" lon="8.84031193431657"><ele>252.0</ele><time>2026-03-28T11:18:12.999Z</time></trkpt><trkpt lat="45.65431922460473" lon="8.84031600876664"><ele>252.0</ele><time>2026-03-28T11:18:13.999Z</time></trkpt><trkpt lat="45.654417331084396" lon="8.840312246769228"><ele>252.66666666666666</ele><time>2026-03-28T11:18:14.999Z</time></trkpt><trkpt lat="45.654512839433046" lon="8.840300300343014"><ele>253.33333333333331</ele><time>2026-03-28T11:18:15.999Z</time></trkpt><trkpt lat="45.65459776123836" lon="8.840285604391067"><ele>254.0</ele><time>2026-03-28T11:18:16.999Z</time></trkpt><trkpt lat="45.654663437381636" lon="8.840272133419404"><ele>254.66666666666666</ele><time>2026-03-28T11:18:17.999Z</time></trkpt><trkpt lat="45.6547377389485" lon="8.840263426875127"><ele>255.33333333333331</ele><time>2026-03-28T11:18:18.999Z</time></trkpt><trkpt lat="45.65481322136796" lon="8.840258161721179"><ele>256.0</ele><time>2026-03-28T11:18:19.999Z</time></trkpt><trkpt lat="45.654884242318104" lon="8.840254571525612"><ele>255.99999999999997</ele><time>2026-03-28T11:18:21.999Z</time></trkpt><trkpt lat="45.65496292002827" lon="8.840298224038118"><ele>256.0</ele><time>2026-03-28T11:18:24.999Z</time></trkpt><trkpt lat="45.654975042686154" lon="8.840394671445287"><ele>256.0</ele><time>2026-03-28T11:18:26.999Z</time></trkpt><trkpt lat="45.654971026401725" lon="8.840538672791638"><ele>256.0</ele><time>2026-03-28T11:18:28.999Z</time></trkpt><trkpt lat="45.65492616423741" lon="8.840654890709338"><ele>255.99999999999997</ele><time>2026-03-28T11:18:30.999Z</time></trkpt><trkpt lat="45.654956730537734" lon="8.840765955748461"><ele>256.0</ele><time>2026-03-28T11:18:33.998Z</time></trkpt><trkpt lat="45.65503173331312" lon="8.840819945793326"><ele>255.99999999999997</ele><time>2026-03-28T11:18:35.998Z</time></trkpt><trkpt lat="45.65507620255592" lon="8.840901927139013"><ele>256.0</ele><time>2026-03-28T11:18:37.998Z</time></trkpt><trkpt lat="45.65506059902133" lon="8.84099633385289"><ele>256.0</ele><time>2026-03-28T11:18:39.998Z</time></trkpt><trkpt lat="45.65499902568647" lon="8.841039828260094"><ele>256.0</ele><time>2026-03-28T11:18:41.998Z</time></trkpt><trkpt lat="45.654918208231976" lon="8.840984696316875"><ele>255.99999999999997</ele><time>2026-03-28T11:18:44.998Z</time></trkpt><trkpt lat="45.65490003880134" lon="8.840873190015262"><ele>256.0</ele><time>2026-03-28T11:18:46.998Z</time></trkpt><trkpt lat="45.65487391728963" lon="8.840732709994231"><ele>255.99999999999997</ele><time>2026-03-28T11:18:48.998Z</time></trkpt><trkpt lat="45.65484427894167" lon="8.84064571679341"><ele>256.0</ele><time>2026-03-28T11:18:49.998Z</time></trkpt><trkpt lat="45.654819229951165" lon="8.84055478406038"><ele>256.0</ele><time>2026-03-28T11:18:50.998Z</time></trkpt><trkpt lat="45.65476939275243" lon="8.840427941974133"><ele>256.0</ele><time>2026-03-28T11:18:52.998Z</time></trkpt><trkpt lat="45.65468633088445" lon="8.84036069439862"><ele>255.99999999999997</ele><time>2026-03-28T11:18:54.998Z</time></trkpt><trkpt lat="45.65459259706397" lon="8.840386770978284"><ele>256.0</ele><time>2026-03-28T11:18:56.998Z</time></trkpt><trkpt lat="45.65448893205862" lon="8.84048413374449"><ele>255.33333333333331</ele><time>2026-03-28T11:18:58.998Z</time></trkpt><trkpt lat="45.65442663845123" lon="8.840518878891132"><ele>254.66666666666666</ele><time>2026-03-28T11:18:59.998Z</time></trkpt><trkpt lat="45.65435884803919" lon="8.84052743044711"><ele>254.0</ele><time>2026-03-28T11:19:00.998Z</time></trkpt><trkpt lat="45.65426863394261" lon="8.840518297723234"><ele>253.33333333333331</ele><time>2026-03-28T11:19:01.998Z</time></trkpt><trkpt lat="45.65417656598378" lon="8.84050424036948"><ele>252.66666666666666</ele><time>2026-03-28T11:19:02.998Z</time></trkpt><trkpt lat="45.654087143342494" lon="8.84049791690843"><ele>252.0</ele><time>2026-03-28T11:19:03.998Z</time></trkpt><trkpt lat="45.65401770754027" lon="8.84050167403249"><ele>252.0</ele><time>2026-03-28T11:19:04.998Z</time></trkpt><trkpt lat="45.65391306027792" lon="8.840522755695822"><ele>252.0</ele><time>2026-03-28T11:19:06.998Z</time></trkpt><trkpt lat="45.653862110298114" lon="8.840582345243368"><ele>252.0</ele><time>2026-03-28T11:19:08.998Z</time></trkpt><trkpt lat="45.653867977952295" lon="8.840684779852154"><ele>252.0</ele><time>2026-03-28T11:19:10.998Z</time></trkpt><trkpt lat="45.65395740946645" lon="8.840718662842468"><ele>252.0</ele><time>2026-03-28T11:19:13.998Z</time></trkpt><trkpt lat="45.65401772626805" lon="8.840642747514151"><ele>252.0</ele><time>2026-03-28T11:19:15.998Z</time></trkpt><trkpt lat="45.654095276871445" lon="8.840589068132124"><ele>252.0</ele><time>2026-03-28T11:19:17.998Z</time></trkpt><trkpt lat="45.654197914321635" lon="8.840599447983143"><ele>252.0</ele><time>2026-03-28T11:19:19.998Z</time></trkpt><trkpt lat="45.654277264857896" lon="8.840634705674065"><ele>252.0</ele><time>2026-03-28T11:19:21.998Z</time></trkpt><trkpt lat="45.654339774705065" lon="8.840648062080414"><ele>252.0</ele><time>2026-03-28T11:19:22.998Z</time></trkpt><trkpt lat="45.65441377764938" lon="8.840610057813079"><ele>252.0</ele><time>2026-03-28T11:19:24.998Z</time></trkpt><trkpt lat="45.65448181130014" lon="8.840644345832231"><ele>252.0</ele><time>2026-03-28T11:19:33.998Z</time></trkpt><trkpt lat="45.65444900540432" lon="8.840732765808191"><ele>252.0</ele><time>2026-03-28T11:19:38.998Z</time></trkpt><trkpt lat="45.654343224671976" lon="8.84076676945195"><ele>252.0</ele><time>2026-03-28T11:19:40.998Z</time></trkpt><trkpt lat="45.65430383149713" lon="8.840877809172817"><ele>252.0</ele><time>2026-03-28T11:19:42.998Z</time></trkpt><trkpt lat="45.65432030067145" lon="8.840975262327346"><ele>252.0</ele><time>2026-03-28T11:19:45.998Z</time></trkpt><trkpt lat="45.65440342627756" lon="8.84091428671496"><ele>252.0</ele><time>2026-03-28T11:19:49.998Z</time></trkpt><trkpt lat="45.65443896409406" lon="8.840805016427977"><ele>252.0</ele><time>2026-03-28T11:19:51.998Z</time></trkpt><trkpt lat="45.654516956091086" lon="8.840783478537627"><ele>252.66666666666666</ele><time>2026-03-28T11:19:53.998Z</time></trkpt><trkpt lat="45.65457089584306" lon="8.840682226830781"><ele>253.33333333333331</ele><time>2026-03-28T11:19:56.998Z</time></trkpt><trkpt lat="45.654590527896374" lon="8.840572429362055"><ele>254.0</ele><time>2026-03-28T11:19:58.998Z</time></trkpt><trkpt lat="45.654643623684784" lon="8.840492818871143"><ele>254.66666666666666</ele><time>2026-03-28T11:20:00.998Z</time></trkpt><trkpt lat="45.65470988201748" lon="8.840523795405499"><ele>255.33333333333331</ele><time>2026-03-28T11:20:02.998Z</time></trkpt><trkpt lat="45.654769956102285" lon="8.840626797805317"><ele>256.0</ele><time>2026-03-28T11:20:04.998Z</time></trkpt><trkpt lat="45.65482722398233" lon="8.840774414619005"><ele>255.99999999999997</ele><time>2026-03-28T11:20:06.998Z</time></trkpt><trkpt lat="45.65487060383646" lon="8.84091829690278"><ele>256.0</ele><time>2026-03-28T11:20:08.998Z</time></trkpt><trkpt lat="45.654893707269316" lon="8.841006311230231"><ele>256.0</ele><time>2026-03-28T11:20:09.998Z</time></trkpt><trkpt lat="45.654913781375335" lon="8.841092031490092"><ele>256.0</ele><time>2026-03-28T11:20:11.998Z</time></trkpt><trkpt lat="45.65484633180521" lon="8.841123363047297"><ele>255.99999999999997</ele><time>2026-03-28T11:20:15.998Z</time></trkpt><trkpt lat="45.654792048712125" lon="8.841018531836498"><ele>256.0</ele><time>2026-03-28T11:20:18.998Z</time></trkpt><trkpt lat="45.65476738541219" lon="8.840929404398752"><ele>255.99999999999997</ele><time>2026-03-28T11:20:19.998Z</time></trkpt><trkpt lat="45.65471499574297" lon="8.840844730420542"><ele>256.0</ele><time>2026-03-28T11:20:21.998Z</time></trkpt><trkpt lat="45.65463398851372" lon="8.84083103384712"><ele>256.0</ele><time>2026-03-28T11:20:23.997Z</time></trkpt><trkpt lat="45.65452943805894" lon="8.84088868567235"><ele>256.0</ele><time>2026-03-28T11:20:25.997Z</time></trkpt><trkpt lat="45.65447302944502" lon="8.840955868760828"><ele>255.99999999999997</ele><time>2026-03-28T11:20:28.997Z</time></trkpt><trkpt lat="45.65453345849723" lon="8.841009503901496"><ele>256.0</ele><time>2026-03-28T11:20:38.997Z</time></trkpt><trkpt lat="45.654599533334405" lon="8.840968560146294"><ele>255.99999999999997</ele><time>2026-03-28T11:20:40.997Z</time></trkpt><trkpt lat="45.654651733771246" lon="8.840896560401788"><ele>256.0</ele><time>2026-03-28T11:20:42.997Z</time></trkpt><trkpt lat="45.65472399920054" lon="8.840944067684488"><ele>256.0</ele><time>2026-03-28T11:20:45.997Z</time></trkpt><trkpt lat="45.654710275529936" lon="8.8410424278631"><ele>256.0</ele><time>2026-03-28T11:20:47.997Z</time></trkpt><trkpt lat="45.65463442872166" lon="8.841075489335632"><ele>255.99999999999997</ele><time>2026-03-28T11:20:49.997Z</time></trkpt><trkpt lat="45.654497887973626" lon="8.841068122764447"><ele>256.0</ele><time>2026-03-28T11:20:51.998Z</time></trkpt><trkpt lat="45.65441545143875" lon="8.841073421526406"><ele>255.83333333333331</ele><time>2026-03-28T11:20:52.998Z</time></trkpt><trkpt lat="45.65432619307951" lon="8.841084222053183"><ele>255.66666666666666</ele><time>2026-03-28T11:20:53.998Z</time></trkpt><trkpt lat="45.654255902791604" lon="8.841097380682916"><ele>255.5</ele><time>2026-03-28T11:20:54.998Z</time></trkpt><trkpt lat="45.654169640823554" lon="8.84111982658216"><ele>255.33333333333331</ele><time>2026-03-28T11:20:56.998Z</time></trkpt><trkpt lat="45.65411937182613" lon="8.841176031706045"><ele>255.16666666666666</ele><time>2026-03-28T11:20:58.998Z</time></trkpt><trkpt lat="45.65410502725904" lon="8.841274913091931"><ele>255.0</ele><time>2026-03-28T11:21:01.998Z</time></trkpt><trkpt lat="45.654173311735065" lon="8.84129327270315"><ele>255.0</ele><time>2026-03-28T11:21:11.999Z</time></trkpt><trkpt lat="45.65426035511808" lon="8.841217969761157"><ele>255.0</ele><time>2026-03-28T11:21:15.999Z</time></trkpt><trkpt lat="45.654332952893405" lon="8.841163699145575"><ele>255.0</ele><time>2026-03-28T11:21:17.999Z</time></trkpt><trkpt lat="45.654399119152565" lon="8.841148533466324"><ele>255.0</ele><time>2026-03-28T11:21:18.999Z</time></trkpt><trkpt lat="45.65448308620467" lon="8.841143423656625"><ele>255.0</ele><time>2026-03-28T11:21:19.999Z</time></trkpt><trkpt lat="45.65456999346635" lon="8.841144839672086"><ele>255.0</ele><time>2026-03-28T11:21:20.999Z</time></trkpt><trkpt lat="45.65463879801416" lon="8.841128294987044"><ele>255.33333333333334</ele><time>2026-03-28T11:21:21.999Z</time></trkpt><trkpt lat="45.654701405292826" lon="8.841104968806544"><ele>255.66666666666669</ele><time>2026-03-28T11:21:22.999Z</time></trkpt><trkpt lat="45.65478071909808" lon="8.841058254316707"><ele>256.0</ele><time>2026-03-28T11:21:24.999Z</time></trkpt><trkpt lat="45.65482832161205" lon="8.841164244792301"><ele>256.33333333333337</ele><time>2026-03-28T11:21:27.999Z</time></trkpt><trkpt lat="45.65476282302448" lon="8.84126179399017"><ele>256.6666666666667</ele><time>2026-03-28T11:21:29.999Z</time></trkpt><trkpt lat="45.65469940120197" lon="8.841283838969336"><ele>257.0</ele><time>2026-03-28T11:21:30.999Z</time></trkpt><trkpt lat="45.65461303908826" lon="8.841299951193692"><ele>257.0</ele><time>2026-03-28T11:21:31.999Z</time></trkpt><trkpt lat="45.65451956927737" lon="8.841313176297996"><ele>257.0</ele><time>2026-03-28T11:21:32.999Z</time></trkpt><trkpt lat="45.65441633912469" lon="8.841328922360734"><ele>257.0</ele><time>2026-03-28T11:21:33.999Z</time></trkpt><trkpt lat="45.6543225056516" lon="8.841368440112394"><ele>257.0</ele><time>2026-03-28T11:21:34.999Z</time></trkpt><trkpt lat="45.65421661696005" lon="8.84141076882775"><ele>257.0</ele><time>2026-03-28T11:21:35.999Z</time></trkpt><trkpt lat="45.65410877537457" lon="8.841448042722623"><ele>256.6666666666667</ele><time>2026-03-28T11:21:36.999Z</time></trkpt><trkpt lat="45.65401496528429" lon="8.84147943847262"><ele>256.33333333333337</ele><time>2026-03-28T11:21:37.999Z</time></trkpt><trkpt lat="45.65394860917989" lon="8.84149478223468"><ele>256.0</ele><time>2026-03-28T11:21:38.999Z</time></trkpt><trkpt lat="45.65384386836107" lon="8.841518679690745"><ele>255.66666666666669</ele><time>2026-03-28T11:21:40.999Z</time></trkpt><trkpt lat="45.65375800851267" lon="8.841510751569826"><ele>255.33333333333334</ele><time>2026-03-28T11:21:42.999Z</time></trkpt><trkpt lat="45.65370075723513" lon="8.84140518135051"><ele>255.0</ele><time>2026-03-28T11:21:44.999Z</time></trkpt><trkpt lat="45.65369149683044" lon="8.841313043727181"><ele>255.0</ele><time>2026-03-28T11:21:45.999Z</time></trkpt><trkpt lat="45.65369083064937" lon="8.841206957150993"><ele>255.0</ele><time>2026-03-28T11:21:46.999Z</time></trkpt><trkpt lat="45.65368319113719" lon="8.841085505876313"><ele>255.0</ele><time>2026-03-28T11:21:47.999Z</time></trkpt><trkpt lat="45.65367478571487" lon="8.84096080687383"><ele>255.0</ele><time>2026-03-28T11:21:48.999Z</time></trkpt><trkpt lat="45.6536752396828" lon="8.840846474466531"><ele>255.0</ele><time>2026-03-28T11:21:49.999Z</time></trkpt><trkpt lat="45.653691453705065" lon="8.840729854115793"><ele>255.0</ele><time>2026-03-28T11:21:50.999Z</time></trkpt><trkpt lat="45.65372262063134" lon="8.840608203512648"><ele>254.4</ele><time>2026-03-28T11:21:51.999Z</time></trkpt><trkpt lat="45.65377205476784" lon="8.840511603213917"><ele>253.8</ele><time>2026-03-28T11:21:52.999Z</time></trkpt><trkpt lat="45.65385250713784" lon="8.840430265673813"><ele>253.2</ele><time>2026-03-28T11:21:53.999Z</time></trkpt><trkpt lat="45.65393509369277" lon="8.840376601008725"><ele>252.6</ele><time>2026-03-28T11:21:54.999Z</time></trkpt><trkpt lat="45.65403657967616" lon="8.84032855782437"><ele>252.0</ele><time>2026-03-28T11:21:55.999Z</time></trkpt><trkpt lat="45.65414335553128" lon="8.84030940821759"><ele>252.0</ele><time>2026-03-28T11:21:56.999Z</time></trkpt><trkpt lat="45.65425738313375" lon="8.840310965511106"><ele>252.0</ele><time>2026-03-28T11:21:57.999Z</time></trkpt><trkpt lat="45.65438163944666" lon="8.84031914957415"><ele>252.0</ele><time>2026-03-28T11:21:58.999Z</time></trkpt><trkpt lat="45.65448832710541" lon="8.840312029151603"><ele>252.0</ele><time>2026-03-28T11:21:59.999Z</time></trkpt><trkpt lat="45.65458958651048" lon="8.84029507259538"><ele>252.0</ele><time>2026-03-28T11:22:00.999Z</time></trkpt><trkpt lat="45.654672883947086" lon="8.840276448190965"><ele>252.66666666666666</ele><time>2026-03-28T11:22:01.999Z</time></trkpt><trkpt lat="45.6547635191385" lon="8.84026314013907"><ele>253.33333333333331</ele><time>2026-03-28T11:22:02.999Z</time></trkpt><trkpt lat="45.65483177519882" lon="8.840258769238634"><ele>254.0</ele><time>2026-03-28T11:22:03.999Z</time></trkpt><trkpt lat="45.654910209385136" lon="8.840255083705829"><ele>254.66666666666666</ele><time>2026-03-28T11:22:05.999Z</time></trkpt><trkpt lat="45.6549787195409" lon="8.840332799337363"><ele>255.33333333333331</ele><time>2026-03-28T11:22:08.999Z</time></trkpt><trkpt lat="45.65498638663531" lon="8.840455687796702"><ele>256.0</ele><time>2026-03-28T11:22:10.999Z</time></trkpt><trkpt lat="45.6549620444871" lon="8.84059940305039"><ele>255.99999999999997</ele><time>2026-03-28T11:22:12.999Z</time></trkpt><trkpt lat="45.65493081143173" lon="8.840705113427331"><ele>256.0</ele><time>2026-03-28T11:22:14.999Z</time></trkpt><trkpt lat="45.6550084728847" lon="8.840810261590406"><ele>256.0</ele><time>2026-03-28T11:22:17.999Z</time></trkpt><trkpt lat="45.655068557811155" lon="8.840876862013712"><ele>256.0</ele><time>2026-03-28T11:22:19.999Z</time></trkpt><trkpt lat="45.65506230196285" lon="8.840981836208044"><ele>255.99999999999997</ele><time>2026-03-28T11:22:21.999Z</time></trkpt><trkpt lat="45.65501134649494" lon="8.841037061365622"><ele>256.0</ele><time>2026-03-28T11:22:23.999Z</time></trkpt><trkpt lat="45.654947412128855" lon="8.841016358572876"><ele>255.99999999999997</ele><time>2026-03-28T11:22:25.999Z</time></trkpt><trkpt lat="45.65490957789306" lon="8.840903491554196"><ele>256.0</ele><time>2026-03-28T11:22:27.999Z</time></trkpt><trkpt lat="45.6548928924819" lon="8.840807592795239"><ele>256.0</ele><time>2026-03-28T11:22:28.999Z</time></trkpt><trkpt lat="45.654863867755864" lon="8.840697892759035"><ele>256.0</ele><time>2026-03-28T11:22:29.999Z</time></trkpt><trkpt lat="45.65483692641053" lon="8.840588292927949"><ele>255.99999999999997</ele><time>2026-03-28T11:22:30.999Z</time></trkpt><trkpt lat="45.65480439836664" lon="8.840486937654061"><ele>256.0</ele><time>2026-03-28T11:22:31.999Z</time></trkpt><trkpt lat="45.654741575179855" lon="8.840381987610952"><ele>255.99999999999997</ele><time>2026-03-28T11:22:33.999Z</time></trkpt><trkpt lat="45.65465133038731" lon="8.840355170927475"><ele>256.0</ele><time>2026-03-28T11:22:35.999Z</time></trkpt><trkpt lat="45.65454915543418" lon="8.840418869027403"><ele>256.0</ele><time>2026-03-28T11:22:37.999Z</time></trkpt><trkpt lat="45.654492858974926" lon="8.840468610543276"><ele>256.0</ele><time>2026-03-28T11:22:38.999Z</time></trkpt><trkpt lat="45.65442511503599" lon="8.84051000063704"><ele>255.99999999999997</ele><time>2026-03-28T11:22:39.999Z</time></trkpt><trkpt lat="45.65436166464142" lon="8.840524163310096"><ele>256.0</ele><time>2026-03-28T11:22:40.999Z</time></trkpt><trkpt lat="45.65427595014396" lon="8.840517205757775"><ele>255.33333333333331</ele><time>2026-03-28T11:22:41.999Z</time></trkpt><trkpt lat="45.6541807612472" lon="8.840504958438123"><ele>254.66666666666666</ele><time>2026-03-28T11:22:42.999Z</time></trkpt><trkpt lat="45.65408416141981" lon="8.84049303902586"><ele>254.0</ele><time>2026-03-28T11:22:43.999Z</time></trkpt><trkpt lat="45.653998279376495" lon="8.84049587674178"><ele>253.33333333333331</ele><time>2026-03-28T11:22:44.999Z</time></trkpt><trkpt lat="45.653925824385304" lon="8.840513394382215"><ele>252.66666666666666</ele><time>2026-03-28T11:22:45.998Z</time></trkpt><trkpt lat="45.65386764142696" lon="8.84056145462571"><ele>252.0</ele><time>2026-03-28T11:22:47.998Z</time></trkpt><trkpt lat="45.653865060737736" lon="8.84066719163599"><ele>252.0</ele><time>2026-03-28T11:22:49.998Z</time></trkpt><trkpt lat="45.65392976449739" lon="8.840721415760541"><ele>252.0</ele><time>2026-03-28T11:22:51.998Z</time></trkpt><trkpt lat="45.65400432871001" lon="8.840674479032078"><ele>252.0</ele><time>2026-03-28T11:22:53.998Z</time></trkpt><trkpt lat="45.65406710731099" lon="8.84058976919808"><ele>252.0</ele><time>2026-03-28T11:22:55.999Z</time></trkpt><trkpt lat="45.65417437854606" lon="8.840594208402875"><ele>252.0</ele><time>2026-03-28T11:22:57.999Z</time></trkpt><trkpt lat="45.65428710269153" lon="8.840637361696345"><ele>252.0</ele><time>2026-03-28T11:22:59.999Z</time></trkpt><trkpt lat="45.65439323568069" lon="8.840627508247566"><ele>252.0</ele><time>2026-03-28T11:23:01.999Z</time></trkpt><trkpt lat="45.65446692771936" lon="8.840575493755978"><ele>252.0</ele><time>2026-03-28T11:23:03.999Z</time></trkpt><trkpt lat="45.65450347390529" lon="8.840652575847006"><ele>252.0</ele><time>2026-03-28T11:23:06.999Z</time></trkpt><trkpt lat="45.65445083772389" lon="8.840729822320979"><ele>252.0</ele><time>2026-03-28T11:23:08.999Z</time></trkpt><trkpt lat="45.65434697754761" lon="8.840744821967421"><ele>252.0</ele><time>2026-03-28T11:23:10.999Z</time></trkpt><trkpt lat="45.65430322619137" lon="8.84084675030458"><ele>252.0</ele><time>2026-03-28T11:23:12.999Z</time></trkpt><trkpt lat="45.65429248638948" lon="8.840942455408952"><ele>252.0</ele><time>2026-03-28T11:23:14.999Z</time></trkpt><trkpt lat="45.654338894721946" lon="8.841011626967365"><ele>252.0</ele><time>2026-03-28T11:23:29.999Z</time></trkpt><trkpt lat="45.65441175426943" lon="8.84087882300513"><ele>252.0</ele><time>2026-03-28T11:23:32.999Z</time></trkpt><trkpt lat="45.65445867267907" lon="8.840788373383235"><ele>252.0</ele><time>2026-03-28T11:23:34.999Z</time></trkpt><trkpt lat="45.654528915212744" lon="8.840778561275219"><ele>252.0</ele><time>2026-03-28T11:23:36.999Z</time></trkpt><trkpt lat="45.65456973365131" lon="8.840697527853097"><ele>252.66666666666666</ele><time>2026-03-28T11:23:38.999Z</time></trkpt><trkpt lat="45.65458672851862" lon="8.840565772063787"><ele>253.33333333333331</ele><time>2026-03-28T11:23:41.999Z</time></trkpt><trkpt lat="45.654655633970194" lon="8.840493910886138"><ele>254.0</ele><time>2026-03-28T11:23:43.999Z</time></trkpt><trkpt lat="45.65473732598813" lon="8.840556718737606"><ele>254.66666666666666</ele><time>2026-03-28T11:23:45.999Z</time></trkpt><trkpt lat="45.654773723934554" lon="8.840631027526381"><ele>255.33333333333331</ele><time>2026-03-28T11:23:46.999Z</time></trkpt><trkpt lat="45.65481246179305" lon="8.840728172399112"><ele>256.0</ele><time>2026-03-28T11:23:47.999Z</time></trkpt><trkpt lat="45.65484145878831" lon="8.840826777063459"><ele>256.0</ele><time>2026-03-28T11:23:48.999Z</time></trkpt><trkpt lat="45.65488460077406" lon="8.84098783013863"><ele>256.0</ele><time>2026-03-28T11:23:50.999Z</time></trkpt><trkpt lat="45.6549130644482" lon="8.841088752010872"><ele>256.0</ele><time>2026-03-28T11:23:52.999Z</time></trkpt><trkpt lat="45.65485838876942" lon="8.841136120476449"><ele>256.0</ele><time>2026-03-28T11:23:55.999Z</time></trkpt><trkpt lat="45.65478133426174" lon="8.840990796699371"><ele>256.0</ele><time>2026-03-28T11:23:58.999Z</time></trkpt><trkpt lat="45.65475878599919" lon="8.840903250151475"><ele>255.99999999999997</ele><time>2026-03-28T11:23:59.999Z</time></trkpt><trkpt lat="45.6547019245268" lon="8.840831125914118"><ele>256.0</ele><time>2026-03-28T11:24:01.999Z</time></trkpt><trkpt lat="45.65460028341996" lon="8.8408395086692"><ele>256.0</ele><time>2026-03-28T11:24:03.999Z</time></trkpt><trkpt lat="45.65453841129288" lon="8.840878172208095"><ele>256.0</ele><time>2026-03-28T11:24:04.999Z</time></trkpt><trkpt lat="45.65447491397859" lon="8.840935886634798"><ele>255.99999999999997</ele><time>2026-03-28T11:24:06.999Z</time></trkpt><trkpt lat="45.654518735941004" lon="8.841009937876072"><ele>256.0</ele><time>2026-03-28T11:24:11.999Z</time></trkpt><trkpt lat="45.65460155820971" lon="8.840980007582138"><ele>255.99999999999997</ele><time>2026-03-28T11:24:13.999Z</time></trkpt><trkpt lat="45.65464116869851" lon="8.840904403387041"><ele>256.0</ele><time>2026-03-28T11:24:14.999Z</time></trkpt><trkpt lat="45.65472106618785" lon="8.84094252484045"><ele>256.0</ele><time>2026-03-28T11:24:17.999Z</time></trkpt><trkpt lat="45.65470674823125" lon="8.841043412728228"><ele>256.0</ele><time>2026-03-28T11:24:19.999Z</time></trkpt><trkpt lat="45.65460898853212" lon="8.841079029981646"><ele>255.99999999999997</ele><time>2026-03-28T11:24:21.999Z</time></trkpt><trkpt lat="45.65453358086669" lon="8.841074202332798"><ele>256.0</ele><time>2026-03-28T11:24:22.999Z</time></trkpt><trkpt lat="45.65443985374638" lon="8.841077507011413"><ele>255.83333333333331</ele><time>2026-03-28T11:24:23.999Z</time></trkpt><trkpt lat="45.65435101706183" lon="8.841087023720565"><ele>255.66666666666666</ele><time>2026-03-28T11:24:24.999Z</time></trkpt><trkpt lat="45.65427466836738" lon="8.841098956824752"><ele>255.5</ele><time>2026-03-28T11:24:25.999Z</time></trkpt><trkpt lat="45.6541645431571" lon="8.841122040972344"><ele>255.33333333333331</ele><time>2026-03-28T11:24:27.999Z</time></trkpt><trkpt lat="45.65410876999407" lon="8.841187052225404"><ele>255.16666666666666</ele><time>2026-03-28T11:24:29.999Z</time></trkpt><trkpt lat="45.65410815297582" lon="8.841297034228333"><ele>255.0</ele><time>2026-03-28T11:24:32.999Z</time></trkpt><trkpt lat="45.65417370302177" lon="8.841297262170725"><ele>255.0</ele><time>2026-03-28T11:24:41Z</time></trkpt><trkpt lat="45.65423573608101" lon="8.841238036808482"><ele>255.0</ele><time>2026-03-28T11:24:49Z</time></trkpt><trkpt lat="45.65433578125335" lon="8.841165120872866"><ele>255.0</ele><time>2026-03-28T11:24:51Z</time></trkpt><trkpt lat="45.65440091763715" lon="8.841151905301546"><ele>255.0</ele><time>2026-03-28T11:24:51.999Z</time></trkpt><trkpt lat="45.65453864697973" lon="8.841147267465807"><ele>255.0</ele><time>2026-03-28T11:24:53.999Z</time></trkpt><trkpt lat="45.65461533509572" lon="8.84113287808895"><ele>255.4</ele><time>2026-03-28T11:24:54.999Z</time></trkpt><trkpt lat="45.65472277684286" lon="8.841086058827281"><ele>255.8</ele><time>2026-03-28T11:24:56.999Z</time></trkpt><trkpt lat="45.654788882645576" lon="8.841074056455119"><ele>256.2</ele><time>2026-03-28T11:24:58.999Z</time></trkpt><trkpt lat="45.654802904769184" lon="8.841210860415075"><ele>256.6</ele><time>2026-03-28T11:25:01.999Z</time></trkpt><trkpt lat="45.65469230847466" lon="8.841277724138148"><ele>257.0</ele><time>2026-03-28T11:25:03.999Z</time></trkpt><trkpt lat="45.654604887789816" lon="8.841291654226131"><ele>257.0</ele><time>2026-03-28T11:25:04.999Z</time></trkpt><trkpt lat="45.654493957270496" lon="8.841310670174186"><ele>257.0</ele><time>2026-03-28T11:25:05.999Z</time></trkpt><trkpt lat="45.654390931960414" lon="8.84133785867371"><ele>257.0</ele><time>2026-03-28T11:25:06.999Z</time></trkpt><trkpt lat="45.654311401873926" lon="8.841370545513326"><ele>257.0</ele><time>2026-03-28T11:25:07.999Z</time></trkpt><trkpt lat="45.65421272366443" lon="8.841408464562093"><ele>257.0</ele><time>2026-03-28T11:25:08.999Z</time></trkpt><trkpt lat="45.65410498434188" lon="8.84144648445356"><ele>256.6666666666667</ele><time>2026-03-28T11:25:09.999Z</time></trkpt><trkpt lat="45.654018641318196" lon="8.84146930318809"><ele>256.33333333333337</ele><time>2026-03-28T11:25:10.999Z</time></trkpt><trkpt lat="45.65395364274626" lon="8.841488807318228"><ele>256.0</ele><time>2026-03-28T11:25:11.999Z</time></trkpt><trkpt lat="45.65384943446572" lon="8.841518241110192"><ele>255.66666666666669</ele><time>2026-03-28T11:25:13.999Z</time></trkpt><trkpt lat="45.653761740755" lon="8.84150164944714"><ele>255.33333333333334</ele><time>2026-03-28T11:25:15.999Z</time></trkpt><trkpt lat="45.6537134258674" lon="8.841383579689337"><ele>255.0</ele><time>2026-03-28T11:25:17.999Z</time></trkpt><trkpt lat="45.65370851752439" lon="8.841285244753537"><ele>255.0</ele><time>2026-03-28T11:25:18.999Z</time></trkpt><trkpt lat="45.653704413150066" lon="8.84116308849287"><ele>255.0</ele><time>2026-03-28T11:25:19.999Z</time></trkpt><trkpt lat="45.65369071255643" lon="8.841032638459243"><ele>255.0</ele><time>2026-03-28T11:25:20.999Z</time></trkpt><trkpt lat="45.653678002217596" lon="8.840909029196439"><ele>255.0</ele><time>2026-03-28T11:25:21.999Z</time></trkpt><trkpt lat="45.65368692528778" lon="8.84076407783423"><ele>255.0</ele><time>2026-03-28T11:25:22.999Z</time></trkpt><trkpt lat="45.65371563473547" lon="8.84064436176615"><ele>254.4</ele><time>2026-03-28T11:25:24Z</time></trkpt><trkpt lat="45.65375811744568" lon="8.840546598366789"><ele>253.8</ele><time>2026-03-28T11:25:25Z</time></trkpt><trkpt lat="45.653824875777055" lon="8.840462625881168"><ele>253.2</ele><time>2026-03-28T11:25:26Z</time></trkpt><trkpt lat="45.653903207114794" lon="8.840395859366133"><ele>252.6</ele><time>2026-03-28T11:25:27Z</time></trkpt><trkpt lat="45.654000437046065" lon="8.84034835568283"><ele>252.0</ele><time>2026-03-28T11:25:28Z</time></trkpt><trkpt lat="45.65411388431734" lon="8.84031452914271"><ele>252.0</ele><time>2026-03-28T11:25:29Z</time></trkpt><trkpt lat="45.65421724009493" lon="8.840309377067403"><ele>252.0</ele><time>2026-03-28T11:25:30Z</time></trkpt><trkpt lat="45.65432683729839" lon="8.840322044768826"><ele>252.0</ele><time>2026-03-28T11:25:31Z</time></trkpt><trkpt lat="45.65444468250192" lon="8.840321946621156"><ele>252.0</ele><time>2026-03-28T11:25:32Z</time></trkpt><trkpt lat="45.65455717998937" lon="8.840300962970462"><ele>252.0</ele><time>2026-03-28T11:25:33Z</time></trkpt><trkpt lat="45.65465107829643" lon="8.840278247854362"><ele>252.66666666666666</ele><time>2026-03-28T11:25:34Z</time></trkpt><trkpt lat="45.65473440889286" lon="8.84026430176537"><ele>253.33333333333331</ele><time>2026-03-28T11:25:35Z</time></trkpt><trkpt lat="45.654805209257276" lon="8.840258994896423"><ele>254.0</ele><time>2026-03-28T11:25:36Z</time></trkpt><trkpt lat="45.654897207574855" lon="8.840249011124406"><ele>254.66666666666666</ele><time>2026-03-28T11:25:38Z</time></trkpt><trkpt lat="45.65495517579299" lon="8.84028484171127"><ele>255.33333333333331</ele><time>2026-03-28T11:25:40Z</time></trkpt><trkpt lat="45.65498138252927" lon="8.840374681109438"><ele>256.0</ele><time>2026-03-28T11:25:42Z</time></trkpt><trkpt lat="45.65497648824969" lon="8.840518629638469"><ele>255.99999999999997</ele><time>2026-03-28T11:25:44Z</time></trkpt><trkpt lat="45.654938106774644" lon="8.840646011577753"><ele>256.0</ele><time>2026-03-28T11:25:46Z</time></trkpt><trkpt lat="45.65496201912324" lon="8.840775471880852"><ele>256.0</ele><time>2026-03-28T11:25:49Z</time></trkpt><trkpt lat="45.655042702540975" lon="8.840825059937858"><ele>256.0</ele><time>2026-03-28T11:25:51Z</time></trkpt><trkpt lat="45.6550736748149" lon="8.840934696897616"><ele>255.99999999999997</ele><time>2026-03-28T11:25:53Z</time></trkpt><trkpt lat="45.655042033838484" lon="8.84102741779456"><ele>256.0</ele><time>2026-03-28T11:25:55Z</time></trkpt><trkpt lat="45.65496449001675" lon="8.841026641712862"><ele>255.99999999999997</ele><time>2026-03-28T11:25:57Z</time></trkpt><trkpt lat="45.65490714476409" lon="8.840934300607785"><ele>256.0</ele><time>2026-03-28T11:25:59Z</time></trkpt><trkpt lat="45.65487760397237" lon="8.840778970733"><ele>256.0</ele><time>2026-03-28T11:26:01Z</time></trkpt><trkpt lat="45.65485191220648" lon="8.840670911591832"><ele>256.0</ele><time>2026-03-28T11:26:02Z</time></trkpt><trkpt lat="45.65482518245515" lon="8.840571046144772"><ele>255.99999999999997</ele><time>2026-03-28T11:26:03Z</time></trkpt><trkpt lat="45.654794493669186" lon="8.840477433333689"><ele>256.0</ele><time>2026-03-28T11:26:04Z</time></trkpt><trkpt lat="45.654730639181516" lon="8.840379115441214"><ele>255.99999999999997</ele><time>2026-03-28T11:26:06Z</time></trkpt><trkpt lat="45.65463075584189" lon="8.840361924200263"><ele>256.0</ele><time>2026-03-28T11:26:08Z</time></trkpt><trkpt lat="45.65452933338337" lon="8.84043720500732"><ele>256.0</ele><time>2026-03-28T11:26:10Z</time></trkpt><trkpt lat="45.654467641276156" lon="8.840488454738999"><ele>256.0</ele><time>2026-03-28T11:26:11Z</time></trkpt><trkpt lat="45.654407178767606" lon="8.840524815858807"><ele>255.99999999999997</ele><time>2026-03-28T11:26:12Z</time></trkpt><trkpt lat="45.65433570160878" lon="8.840524488797557"><ele>256.0</ele><time>2026-03-28T11:26:13Z</time></trkpt><trkpt lat="45.65423433934703" lon="8.840516935869601"><ele>255.33333333333331</ele><time>2026-03-28T11:26:14Z</time></trkpt><trkpt lat="45.654134382289996" lon="8.840503062813351"><ele>254.66666666666666</ele><time>2026-03-28T11:26:15Z</time></trkpt><trkpt lat="45.654047610925765" lon="8.84050931393342"><ele>254.0</ele><time>2026-03-28T11:26:16Z</time></trkpt><trkpt lat="45.653969990186184" lon="8.840515720321093"><ele>253.33333333333331</ele><time>2026-03-28T11:26:17Z</time></trkpt><trkpt lat="45.653877714926345" lon="8.840545326086017"><ele>252.66666666666666</ele><time>2026-03-28T11:26:19Z</time></trkpt><trkpt lat="45.653857238034156" lon="8.840637554680587"><ele>252.0</ele><time>2026-03-28T11:26:21Z</time></trkpt><trkpt lat="45.65390968397183" lon="8.84072193377334"><ele>252.0</ele><time>2026-03-28T11:26:24Z</time></trkpt><trkpt lat="45.65399730485076" lon="8.840689091699849"><ele>252.0</ele><time>2026-03-28T11:26:27Z</time></trkpt><trkpt lat="45.654059508691304" lon="8.840599472108494"><ele>252.0</ele><time>2026-03-28T11:26:29Z</time></trkpt><trkpt lat="45.654154698998866" lon="8.840599498760888"><ele>252.0</ele><time>2026-03-28T11:26:31Z</time></trkpt><trkpt lat="45.654263580323345" lon="8.840631135028376"><ele>252.0</ele><time>2026-03-28T11:26:33Z</time></trkpt><trkpt lat="45.65437168490713" lon="8.840639545073733"><ele>252.0</ele><time>2026-03-28T11:26:35Z</time></trkpt><trkpt lat="45.654436350089775" lon="8.840585433859736"><ele>252.0</ele><time>2026-03-28T11:26:37Z</time></trkpt><trkpt lat="45.654510188545025" lon="8.840636332118525"><ele>252.0</ele><time>2026-03-28T11:26:40Z</time></trkpt><trkpt lat="45.65446799193628" lon="8.840737180424446"><ele>252.0</ele><time>2026-03-28T11:26:42Z</time></trkpt><trkpt lat="45.6543656464571" lon="8.84074460217495"><ele>252.0</ele><time>2026-03-28T11:26:44Z</time></trkpt><trkpt lat="45.654302099102566" lon="8.840833444756766"><ele>252.0</ele><time>2026-03-28T11:26:46Z</time></trkpt><trkpt lat="45.65429251256433" lon="8.840951189840652"><ele>252.0</ele><time>2026-03-28T11:26:48Z</time></trkpt><trkpt lat="45.654340783453655" lon="8.841009171289965"><ele>252.0</ele><time>2026-03-28T11:27:04Z</time></trkpt><trkpt lat="45.65439796599663" lon="8.840916320696437"><ele>252.0</ele><time>2026-03-28T11:27:07Z</time></trkpt><trkpt lat="45.654457973240945" lon="8.840817833530132"><ele>252.0</ele><time>2026-03-28T11:27:09Z</time></trkpt><trkpt lat="45.65454703355639" lon="8.84076700510547"><ele>252.0</ele><time>2026-03-28T11:27:11Z</time></trkpt><trkpt lat="45.65457183523434" lon="8.840677312734275"><ele>252.0</ele><time>2026-03-28T11:27:13Z</time></trkpt><trkpt lat="45.65459461351023" lon="8.840547862123454"><ele>252.66666666666666</ele><time>2026-03-28T11:27:16Z</time></trkpt><trkpt lat="45.65467670469807" lon="8.840493275198092"><ele>253.33333333333331</ele><time>2026-03-28T11:27:18Z</time></trkpt><trkpt lat="45.654758198963464" lon="8.840593003381262"><ele>254.0</ele><time>2026-03-28T11:27:20Z</time></trkpt><trkpt lat="45.65478904787723" lon="8.840673149424697"><ele>254.66666666666666</ele><time>2026-03-28T11:27:21Z</time></trkpt><trkpt lat="45.654820505206125" lon="8.840766755836627"><ele>255.33333333333331</ele><time>2026-03-28T11:27:22Z</time></trkpt><trkpt lat="45.65484766691235" lon="8.840851864022033"><ele>256.0</ele><time>2026-03-28T11:27:23Z</time></trkpt><trkpt lat="45.65489534422843" lon="8.841022433433544"><ele>255.99999999999997</ele><time>2026-03-28T11:27:25Z</time></trkpt><trkpt lat="45.65491174446563" lon="8.84111850780194"><ele>256.0</ele><time>2026-03-28T11:27:27Z</time></trkpt><trkpt lat="45.65482318502713" lon="8.841108623876966"><ele>256.0</ele><time>2026-03-28T11:27:30Z</time></trkpt><trkpt lat="45.6547837004034" lon="8.840984346555459"><ele>256.0</ele><time>2026-03-28T11:27:32Z</time></trkpt><trkpt lat="45.65475521531006" lon="8.840900360850616"><ele>255.99999999999997</ele><time>2026-03-28T11:27:33Z</time></trkpt><trkpt lat="45.65468524212216" lon="8.840824605858252"><ele>256.0</ele><time>2026-03-28T11:27:35Z</time></trkpt><trkpt lat="45.65459362937433" lon="8.840844269067823"><ele>255.99999999999997</ele><time>2026-03-28T11:27:37Z</time></trkpt><trkpt lat="45.654527248099164" lon="8.840890983130524"><ele>256.0</ele><time>2026-03-28T11:27:38Z</time></trkpt><trkpt lat="45.654479381636484" lon="8.840960185103576"><ele>256.0</ele><time>2026-03-28T11:27:41Z</time></trkpt><trkpt lat="45.65455200973182" lon="8.841019233544515"><ele>256.0</ele><time>2026-03-28T11:27:46Z</time></trkpt><trkpt lat="45.654639427681644" lon="8.840914740251684"><ele>255.99999999999997</ele><time>2026-03-28T11:27:48Z</time></trkpt><trkpt lat="45.65472296473464" lon="8.840944162056285"><ele>256.0</ele><time>2026-03-28T11:27:51Z</time></trkpt><trkpt lat="45.6547029202732" lon="8.841060741478364"><ele>256.16666666666663</ele><time>2026-03-28T11:27:53Z</time></trkpt><trkpt lat="45.65460337790802" lon="8.841075924691049"><ele>256.3333333333333</ele><time>2026-03-28T11:27:55Z</time></trkpt><trkpt lat="45.6545312612988" lon="8.841073489489991"><ele>256.5</ele><time>2026-03-28T11:27:56Z</time></trkpt><trkpt lat="45.654440240783536" lon="8.841077514170399"><ele>256.6666666666667</ele><time>2026-03-28T11:27:57Z</time></trkpt><trkpt lat="45.65435263132376" lon="8.841088569788237"><ele>256.83333333333337</ele><time>2026-03-28T11:27:58Z</time></trkpt><trkpt lat="45.654268639457214" lon="8.841100564169395"><ele>257.0</ele><time>2026-03-28T11:27:59Z</time></trkpt><trkpt lat="45.65416073065834" lon="8.841124985715409"><ele>256.6666666666667</ele><time>2026-03-28T11:28:01Z</time></trkpt><trkpt lat="45.65410757820103" lon="8.841193965672195"><ele>256.33333333333337</ele><time>2026-03-28T11:28:03Z</time></trkpt><trkpt lat="45.65411295884428" lon="8.841294137913723"><ele>256.0</ele><time>2026-03-28T11:28:06Z</time></trkpt><trkpt lat="45.65417811479528" lon="8.841307379057943"><ele>255.66666666666669</ele><time>2026-03-28T11:28:09Z</time></trkpt><trkpt lat="45.65424743284314" lon="8.841255998399228"><ele>255.33333333333334</ele><time>2026-03-28T11:28:11Z</time></trkpt><trkpt lat="45.65434937737563" lon="8.841166393550669"><ele>255.0</ele><time>2026-03-28T11:28:13Z</time></trkpt><trkpt lat="45.65442331768353" lon="8.841151465679694"><ele>255.33333333333334</ele><time>2026-03-28T11:28:14Z</time></trkpt><trkpt lat="45.65451816417599" lon="8.841145696939956"><ele>255.66666666666669</ele><time>2026-03-28T11:28:15Z</time></trkpt><trkpt lat="45.65459235284196" lon="8.841143129119827"><ele>256.0</ele><time>2026-03-28T11:28:16Z</time></trkpt><trkpt lat="45.65466124675478" lon="8.841122376821673"><ele>256.33333333333337</ele><time>2026-03-28T11:28:17Z</time></trkpt><trkpt lat="45.6547632608948" lon="8.841071102011131"><ele>256.6666666666667</ele><time>2026-03-28T11:28:19Z</time></trkpt><trkpt lat="45.654818525705" lon="8.841151129454804"><ele>257.0</ele><time>2026-03-28T11:28:22Z</time></trkpt><trkpt lat="45.65476153199202" lon="8.841256189922609"><ele>257.0</ele><time>2026-03-28T11:28:24Z</time></trkpt><trkpt lat="45.65469811674619" lon="8.841278032777973"><ele>257.0</ele><time>2026-03-28T11:28:25Z</time></trkpt><trkpt lat="45.654632044531304" lon="8.841285535667247"><ele>257.0</ele><time>2026-03-28T11:28:26Z</time></trkpt><trkpt lat="45.654530504036025" lon="8.841299904791892"><ele>257.0</ele><time>2026-03-28T11:28:27Z</time></trkpt><trkpt lat="45.65442138632241" lon="8.841330604634061"><ele>257.0</ele><time>2026-03-28T11:28:28Z</time></trkpt><trkpt lat="45.65431745011922" lon="8.841373060490202"><ele>256.6</ele><time>2026-03-28T11:28:29Z</time></trkpt><trkpt lat="45.6542092809196" lon="8.841416570189152"><ele>256.2</ele><time>2026-03-28T11:28:30Z</time></trkpt><trkpt lat="45.65409610249216" lon="8.84144844855118"><ele>255.8</ele><time>2026-03-28T11:28:31Z</time></trkpt><trkpt lat="45.65399488929939" lon="8.84147470424276"><ele>255.4</ele><time>2026-03-28T11:28:32Z</time></trkpt><trkpt lat="45.65391333117009" lon="8.841500088509386"><ele>255.0</ele><time>2026-03-28T11:28:33Z</time></trkpt><trkpt lat="45.6538062328298" lon="8.841517391568692"><ele>255.0</ele><time>2026-03-28T11:28:35Z</time></trkpt><trkpt lat="45.65373181070238" lon="8.84146854089187"><ele>255.0</ele><time>2026-03-28T11:28:37Z</time></trkpt><trkpt lat="45.653703265146085" lon="8.841292890781563"><ele>255.0</ele><time>2026-03-28T11:28:39Z</time></trkpt><trkpt lat="45.653702666074516" lon="8.841181954156674"><ele>255.0</ele><time>2026-03-28T11:28:40Z</time></trkpt><trkpt lat="45.6536899039147" lon="8.84104859436652"><ele>255.0</ele><time>2026-03-28T11:28:41Z</time></trkpt><trkpt lat="45.653675682976335" lon="8.840923563125752"><ele>254.4</ele><time>2026-03-28T11:28:42Z</time></trkpt><trkpt lat="45.65368611678228" lon="8.840789010911235"><ele>253.8</ele><time>2026-03-28T11:28:43Z</time></trkpt><trkpt lat="45.653707387332446" lon="8.840654721939071"><ele>253.2</ele><time>2026-03-28T11:28:44Z</time></trkpt><trkpt lat="45.65375018436934" lon="8.84054538421573"><ele>252.6</ele><time>2026-03-28T11:28:45Z</time></trkpt><trkpt lat="45.653817630842354" lon="8.840462762052502"><ele>252.0</ele><time>2026-03-28T11:28:46Z</time></trkpt><trkpt lat="45.65389946492376" lon="8.840396098880799"><ele>252.0</ele><time>2026-03-28T11:28:47Z</time></trkpt><trkpt lat="45.65399917626247" lon="8.840345157618504"><ele>252.0</ele><time>2026-03-28T11:28:48Z</time></trkpt><trkpt lat="45.654109505399575" lon="8.840314880928094"><ele>252.0</ele><time>2026-03-28T11:28:49Z</time></trkpt><trkpt lat="45.65422568062464" lon="8.84031079701047"><ele>252.0</ele><time>2026-03-28T11:28:50Z</time></trkpt><trkpt lat="45.65434532153145" lon="8.840312271225121"><ele>252.8</ele><time>2026-03-28T11:28:51Z</time></trkpt><trkpt lat="45.65446734721236" lon="8.840313242769584"><ele>253.6</ele><time>2026-03-28T11:28:52Z</time></trkpt><trkpt lat="45.654576651307515" lon="8.840295829136997"><ele>254.40000000000003</ele><time>2026-03-28T11:28:53Z</time></trkpt><trkpt lat="45.65466711702172" lon="8.84027932110226"><ele>255.20000000000002</ele><time>2026-03-28T11:28:54Z</time></trkpt><trkpt lat="45.65474225776334" lon="8.840267408442594"><ele>256.0</ele><time>2026-03-28T11:28:55Z</time></trkpt><trkpt lat="45.654811175025266" lon="8.840255377639043"><ele>255.99999999999997</ele><time>2026-03-28T11:28:56Z</time></trkpt><trkpt lat="45.654883834512894" lon="8.84024828154506"><ele>256.0</ele><time>2026-03-28T11:28:58Z</time></trkpt><trkpt lat="45.65494704089524" lon="8.840276503290898"><ele>256.0</ele><time>2026-03-28T11:29:00Z</time></trkpt><trkpt lat="45.65497761424338" lon="8.84036227832545"><ele>256.0</ele><time>2026-03-28T11:29:02Z</time></trkpt><trkpt lat="45.6549697600495" lon="8.84048086152403"><ele>255.99999999999997</ele><time>2026-03-28T11:29:04Z</time></trkpt><trkpt lat="45.654945632626664" lon="8.84060762325647"><ele>256.0</ele><time>2026-03-28T11:29:06Z</time></trkpt><trkpt lat="45.65492267333052" lon="8.840701006415584"><ele>255.99999999999997</ele><time>2026-03-28T11:29:08Z</time></trkpt><trkpt lat="45.65497693501951" lon="8.840781972333296"><ele>256.0</ele><time>2026-03-28T11:29:10Z</time></trkpt><trkpt lat="45.65506416469247" lon="8.840850124648158"><ele>256.0</ele><time>2026-03-28T11:29:12Z</time></trkpt><trkpt lat="45.65506654240833" lon="8.84095504474935"><ele>256.0</ele><time>2026-03-28T11:29:14Z</time></trkpt><trkpt lat="45.655017955787734" lon="8.841027983666057"><ele>255.99999999999997</ele><time>2026-03-28T11:29:16Z</time></trkpt><trkpt lat="45.6549475526471" lon="8.8410166682016"><ele>256.0</ele><time>2026-03-28T11:29:18Z</time></trkpt><trkpt lat="45.654908671725956" lon="8.840906862752913"><ele>255.99999999999997</ele><time>2026-03-28T11:29:20Z</time></trkpt><trkpt lat="45.65488906363526" lon="8.84079974116462"><ele>256.0</ele><time>2026-03-28T11:29:21Z</time></trkpt><trkpt lat="45.65484210800473" lon="8.8406190234612"><ele>256.0</ele><time>2026-03-28T11:29:23Z</time></trkpt><trkpt lat="45.654812538564585" lon="8.840522720378374"><ele>256.0</ele><time>2026-03-28T11:29:24Z</time></trkpt><trkpt lat="45.65477865669988" lon="8.840444814997568"><ele>255.99999999999997</ele><time>2026-03-28T11:29:25Z</time></trkpt><trkpt lat="45.65470746338548" lon="8.840357711924849"><ele>256.0</ele><time>2026-03-28T11:29:27Z</time></trkpt><trkpt lat="45.65461123063632" lon="8.84036951507376"><ele>256.0</ele><time>2026-03-28T11:29:29Z</time></trkpt><trkpt lat="45.6545065689997" lon="8.840450948913695"><ele>256.0</ele><time>2026-03-28T11:29:31Z</time></trkpt><trkpt lat="45.654441774031646" lon="8.840505904225182"><ele>256.0</ele><time>2026-03-28T11:29:32Z</time></trkpt><trkpt lat="45.654372624771824" lon="8.84052903427488"><ele>256.0</ele><time>2026-03-28T11:29:33Z</time></trkpt><trkpt lat="45.65427669723424" lon="8.840520169212839"><ele>256.0</ele><time>2026-03-28T11:29:34Z</time></trkpt><trkpt lat="45.65417333230754" lon="8.840506026057984"><ele>255.33333333333331</ele><time>2026-03-28T11:29:35Z</time></trkpt><trkpt lat="45.65408345812921" lon="8.840502829303174"><ele>254.66666666666666</ele><time>2026-03-28T11:29:36Z</time></trkpt><trkpt lat="45.65400225979666" lon="8.84051023510693"><ele>254.0</ele><time>2026-03-28T11:29:37Z</time></trkpt><trkpt lat="45.65393506907351" lon="8.840512652717662"><ele>253.33333333333331</ele><time>2026-03-28T11:29:38Z</time></trkpt><trkpt lat="45.65386617670479" lon="8.840559413606302"><ele>252.66666666666666</ele><time>2026-03-28T11:29:40Z</time></trkpt><trkpt lat="45.653862681305334" lon="8.840657844270622"><ele>252.0</ele><time>2026-03-28T11:29:42Z</time></trkpt><trkpt lat="45.65394823908626" lon="8.84072205213628"><ele>252.0</ele><time>2026-03-28T11:29:45Z</time></trkpt><trkpt lat="45.6540067090038" lon="8.840660425958012"><ele>252.0</ele><time>2026-03-28T11:29:47Z</time></trkpt><trkpt lat="45.654085167804126" lon="8.840585812376988"><ele>252.0</ele><time>2026-03-28T11:29:49Z</time></trkpt><trkpt lat="45.65418524573177" lon="8.84060539414999"><ele>252.0</ele><time>2026-03-28T11:29:51Z</time></trkpt><trkpt lat="45.65424955086406" lon="8.840624609998242"><ele>252.0</ele><time>2026-03-28T11:29:52Z</time></trkpt><trkpt lat="45.654356755996304" lon="8.840642934882029"><ele>252.0</ele><time>2026-03-28T11:29:54Z</time></trkpt><trkpt lat="45.654438683265234" lon="8.84057964551788"><ele>252.0</ele><time>2026-03-28T11:29:56Z</time></trkpt><trkpt lat="45.65450275246888" lon="8.840656754481966"><ele>252.0</ele><time>2026-03-28T11:29:59Z</time></trkpt><trkpt lat="45.65445279438703" lon="8.840738774563073"><ele>252.0</ele><time>2026-03-28T11:30:01Z</time></trkpt><trkpt lat="45.65435328451381" lon="8.84074534243338"><ele>252.0</ele><time>2026-03-28T11:30:03Z</time></trkpt><trkpt lat="45.65430031434236" lon="8.840855159829262"><ele>252.0</ele><time>2026-03-28T11:30:05Z</time></trkpt><trkpt lat="45.65430620036966" lon="8.840961711303457"><ele>252.0</ele><time>2026-03-28T11:30:07Z</time></trkpt><trkpt lat="45.65436924022705" lon="8.84096370808403"><ele>252.0</ele><time>2026-03-28T11:30:10Z</time></trkpt><trkpt lat="45.65441055343338" lon="8.84089132410916"><ele>252.0</ele><time>2026-03-28T11:30:12Z</time></trkpt><trkpt lat="45.65446699909573" lon="8.84078560779354"><ele>252.0</ele><time>2026-03-28T11:30:14Z</time></trkpt><trkpt lat="45.65454571138704" lon="8.840768991781152"><ele>252.0</ele><time>2026-03-28T11:30:16Z</time></trkpt><trkpt lat="45.65457743919817" lon="8.840666968349625"><ele>252.0</ele><time>2026-03-28T11:30:18Z</time></trkpt><trkpt lat="45.65460354206451" lon="8.840545174956784"><ele>252.0</ele><time>2026-03-28T11:30:20Z</time></trkpt><trkpt lat="45.65467691446137" lon="8.840495883174906"><ele>252.8</ele><time>2026-03-28T11:30:22Z</time></trkpt><trkpt lat="45.65475919704127" lon="8.840593764138642"><ele>253.6</ele><time>2026-03-28T11:30:24Z</time></trkpt><trkpt lat="45.654797364616925" lon="8.84069131664345"><ele>254.40000000000003</ele><time>2026-03-28T11:30:25Z</time></trkpt><trkpt lat="45.65483091259193" lon="8.840790699971052"><ele>255.20000000000002</ele><time>2026-03-28T11:30:26Z</time></trkpt><trkpt lat="45.65488313060171" lon="8.840963359795056"><ele>256.0</ele><time>2026-03-28T11:30:28Z</time></trkpt><trkpt lat="45.65490391393439" lon="8.84104948300144"><ele>256.0</ele><time>2026-03-28T11:30:29Z</time></trkpt><trkpt lat="45.65488555107362" lon="8.841152466493352"><ele>256.0</ele><time>2026-03-28T11:30:32Z</time></trkpt><trkpt lat="45.65482430633882" lon="8.841107725802507"><ele>256.0</ele><time>2026-03-28T11:30:34Z</time></trkpt><trkpt lat="45.65477449116098" lon="8.840950814477004"><ele>256.0</ele><time>2026-03-28T11:30:36Z</time></trkpt><trkpt lat="45.65470816344715" lon="8.840845679547455"><ele>256.0</ele><time>2026-03-28T11:30:38Z</time></trkpt><trkpt lat="45.654609324073654" lon="8.84084213521458"><ele>255.99999999999997</ele><time>2026-03-28T11:30:40Z</time></trkpt><trkpt lat="45.65454265379284" lon="8.840878121735315"><ele>256.0</ele><time>2026-03-28T11:30:41Z</time></trkpt><trkpt lat="45.65446768351185" lon="8.840940180760004"><ele>256.0</ele><time>2026-03-28T11:30:43Z</time></trkpt><trkpt lat="45.65453466868753" lon="8.841004857330823"><ele>256.0</ele><time>2026-03-28T11:30:48Z</time></trkpt><trkpt lat="45.654630330616165" lon="8.84092298030283"><ele>255.99999999999997</ele><time>2026-03-28T11:30:53Z</time></trkpt><trkpt lat="45.65469450175841" lon="8.840890365266452"><ele>256.0</ele><time>2026-03-28T11:30:55Z</time></trkpt><trkpt lat="45.654728106419476" lon="8.84098777766899"><ele>256.2</ele><time>2026-03-28T11:30:57Z</time></trkpt><trkpt lat="45.654661546162316" lon="8.841078771240957"><ele>256.40000000000003</ele><time>2026-03-28T11:30:59Z</time></trkpt><trkpt lat="45.65452501484612" lon="8.841065854886715"><ele>256.6</ele><time>2026-03-28T11:31:01Z</time></trkpt><trkpt lat="45.654425723933045" lon="8.841075182318162"><ele>256.8</ele><time>2026-03-28T11:31:02Z</time></trkpt><trkpt lat="45.6543376412346" lon="8.841086831521292"><ele>257.0</ele><time>2026-03-28T11:31:03Z</time></trkpt><trkpt lat="45.654265495421186" lon="8.841095008349297"><ele>256.6666666666667</ele><time>2026-03-28T11:31:04Z</time></trkpt><trkpt lat="45.654199588281756" lon="8.841106325590122"><ele>256.33333333333337</ele><time>2026-03-28T11:31:05Z</time></trkpt><trkpt lat="45.6541271493564" lon="8.841149244012984"><ele>256.0</ele><time>2026-03-28T11:31:07Z</time></trkpt><trkpt lat="45.65410504551744" lon="8.841257032024961"><ele>255.66666666666669</ele><time>2026-03-28T11:31:10Z</time></trkpt><trkpt lat="45.65417321345315" lon="8.84129409782153"><ele>255.33333333333334</ele><time>2026-03-28T11:31:14Z</time></trkpt><trkpt lat="45.65423680797193" lon="8.841251621070993"><ele>255.0</ele><time>2026-03-28T11:31:16Z</time></trkpt><trkpt lat="45.654350522012244" lon="8.841159031869534"><ele>255.0</ele><time>2026-03-28T11:31:18Z</time></trkpt><trkpt lat="45.6544234437553" lon="8.841147982049582"><ele>255.0</ele><time>2026-03-28T11:31:19Z</time></trkpt><trkpt lat="45.65449530547925" lon="8.84114632355927"><ele>255.0</ele><time>2026-03-28T11:31:20Z</time></trkpt><trkpt lat="45.6546073848045" lon="8.841135158236046"><ele>255.0</ele><time>2026-03-28T11:31:22Z</time></trkpt><trkpt lat="45.654669089698686" lon="8.841113079760877"><ele>255.0</ele><time>2026-03-28T11:31:23Z</time></trkpt><trkpt lat="45.654754498548265" lon="8.841069799643222"><ele>255.0</ele><time>2026-03-28T11:31:25Z</time></trkpt><trkpt lat="45.65481541907055" lon="8.84115749817278"><ele>255.0</ele><time>2026-03-28T11:31:28Z</time></trkpt><trkpt lat="45.654747446332635" lon="8.841258038222062"><ele>255.0</ele><time>2026-03-28T11:31:30Z</time></trkpt><trkpt lat="45.654682739540185" lon="8.841273413899854"><ele>255.0</ele><time>2026-03-28T11:31:31Z</time></trkpt><trkpt lat="45.6545955065494" lon="8.841286507223279"><ele>255.0</ele><time>2026-03-28T11:31:32Z</time></trkpt><trkpt lat="45.65447575501162" lon="8.841314962385438"><ele>255.0</ele><time>2026-03-28T11:31:33Z</time></trkpt><trkpt lat="45.65436968165663" lon="8.84134540881982"><ele>255.0</ele><time>2026-03-28T11:31:34Z</time></trkpt><trkpt lat="45.65427044389281" lon="8.84139055369532"><ele>255.0</ele><time>2026-03-28T11:31:35Z</time></trkpt><trkpt lat="45.65414961556745" lon="8.841435926546627"><ele>255.0</ele><time>2026-03-28T11:31:36Z</time></trkpt><trkpt lat="45.65404211265916" lon="8.841461367304124"><ele>255.0</ele><time>2026-03-28T11:31:37Z</time></trkpt><trkpt lat="45.65397292637745" lon="8.841485236975991"><ele>255.0</ele><time>2026-03-28T11:31:38Z</time></trkpt><trkpt lat="45.65385755129721" lon="8.841516818323818"><ele>255.0</ele><time>2026-03-28T11:31:40Z</time></trkpt><trkpt lat="45.653760806828124" lon="8.841513685017375"><ele>255.0</ele><time>2026-03-28T11:31:42Z</time></trkpt><trkpt lat="45.65371039322176" lon="8.841402423816463"><ele>255.0</ele><time>2026-03-28T11:31:44Z</time></trkpt><trkpt lat="45.6537056985339" lon="8.841304873635364"><ele>255.0</ele><time>2026-03-28T11:31:45Z</time></trkpt><trkpt lat="45.65369891703075" lon="8.841195000360681"><ele>255.0</ele><time>2026-03-28T11:31:46Z</time></trkpt><trkpt lat="45.6536824081045" lon="8.8410635247532"><ele>255.0</ele><time>2026-03-28T11:31:48Z</time></trkpt><trkpt lat="45.65364181317467" lon="8.840972104457501"><ele>254.5</ele><time>2026-03-28T11:31:51Z</time></trkpt><trkpt lat="45.65359547910438" lon="8.840855758786788"><ele>254.0</ele><time>2026-03-28T11:35:04Z</time></trkpt><trkpt lat="45.6536343562902" lon="8.840773348538699"><ele>253.5</ele><time>2026-03-28T11:35:11Z</time></trkpt><trkpt lat="45.6537066616057" lon="8.84065598042589"><ele>253.0</ele><time>2026-03-28T11:35:12Z</time></trkpt><trkpt lat="45.65375909295371" lon="8.840563705017725"><ele>252.5</ele><time>2026-03-28T11:35:13Z</time></trkpt><trkpt lat="45.65381614161244" lon="8.840481915023055"><ele>252.0</ele><time>2026-03-28T11:35:14Z</time></trkpt><trkpt lat="45.653883880538565" lon="8.840413863888163"><ele>252.0</ele><time>2026-03-28T11:35:15Z</time></trkpt><trkpt lat="45.65397652826218" lon="8.840365620891065"><ele>252.0</ele><time>2026-03-28T11:35:16Z</time></trkpt><trkpt lat="45.65407695317377" lon="8.840334773373458"><ele>252.0</ele><time>2026-03-28T11:35:17Z</time></trkpt><trkpt lat="45.65418142050686" lon="8.840321369393127"><ele>252.0</ele><time>2026-03-28T11:35:18Z</time></trkpt><trkpt lat="45.654292107306915" lon="8.840321823560371"><ele>252.0</ele><time>2026-03-28T11:35:19Z</time></trkpt><trkpt lat="45.65440353859234" lon="8.840326992183645"><ele>252.8</ele><time>2026-03-28T11:35:20Z</time></trkpt><trkpt lat="45.65451904108722" lon="8.840315514306122"><ele>253.6</ele><time>2026-03-28T11:35:21Z</time></trkpt><trkpt lat="45.65461421866023" lon="8.840294090699702"><ele>254.40000000000003</ele><time>2026-03-28T11:35:22Z</time></trkpt><trkpt lat="45.654710409330164" lon="8.840276425480988"><ele>255.20000000000002</ele><time>2026-03-28T11:35:23Z</time></trkpt><trkpt lat="45.65478753454752" lon="8.840266938605476"><ele>256.0</ele><time>2026-03-28T11:35:24Z</time></trkpt><trkpt lat="45.654876973462216" lon="8.84025569253696"><ele>255.99999999999997</ele><time>2026-03-28T11:35:26Z</time></trkpt><trkpt lat="45.65495262422041" lon="8.840302366308208"><ele>256.0</ele><time>2026-03-28T11:35:29Z</time></trkpt><trkpt lat="45.6549734342488" lon="8.840399719083077"><ele>256.0</ele><time>2026-03-28T11:35:31Z</time></trkpt><trkpt lat="45.654968585276045" lon="8.840556708751862"><ele>256.0</ele><time>2026-03-28T11:35:33Z</time></trkpt><trkpt lat="45.65492980642285" lon="8.840669273289866"><ele>255.99999999999997</ele><time>2026-03-28T11:35:35Z</time></trkpt><trkpt lat="45.65497220094838" lon="8.840779703297148"><ele>256.0</ele><time>2026-03-28T11:35:38Z</time></trkpt><trkpt lat="45.65505637102285" lon="8.840850686040529"><ele>255.99999999999997</ele><time>2026-03-28T11:35:40Z</time></trkpt><trkpt lat="45.655075311293274" lon="8.840946482349635"><ele>256.0</ele><time>2026-03-28T11:35:42Z</time></trkpt><trkpt lat="45.65503950332167" lon="8.841028669532832"><ele>256.0</ele><time>2026-03-28T11:35:44Z</time></trkpt><trkpt lat="45.65497630666117" lon="8.841035663863304"><ele>256.0</ele><time>2026-03-28T11:35:46Z</time></trkpt><trkpt lat="45.6549258927741" lon="8.840979740551731"><ele>255.99999999999997</ele><time>2026-03-28T11:35:48Z</time></trkpt><trkpt lat="45.65489249535313" lon="8.840819003745468"><ele>256.0</ele><time>2026-03-28T11:35:50Z</time></trkpt><trkpt lat="45.65486451184001" lon="8.840702951618013"><ele>256.0</ele><time>2026-03-28T11:35:51Z</time></trkpt><trkpt lat="45.65483291903442" lon="8.840593993659816"><ele>256.0</ele><time>2026-03-28T11:35:52Z</time></trkpt><trkpt lat="45.65480110506231" lon="8.84050235404629"><ele>256.0</ele><time>2026-03-28T11:35:53Z</time></trkpt><trkpt lat="45.65474569344079" lon="8.840386080365775"><ele>256.0</ele><time>2026-03-28T11:35:55Z</time></trkpt><trkpt lat="45.654650425620694" lon="8.840351714654757"><ele>256.0</ele><time>2026-03-28T11:35:57Z</time></trkpt><trkpt lat="45.654546532580724" lon="8.840424612508595"><ele>255.99999999999997</ele><time>2026-03-28T11:35:59Z</time></trkpt><trkpt lat="45.65447862071793" lon="8.840483231865539"><ele>256.0</ele><time>2026-03-28T11:36:00Z</time></trkpt><trkpt lat="45.65441165956052" lon="8.840519849087494"><ele>256.0</ele><time>2026-03-28T11:36:01Z</time></trkpt><trkpt lat="45.65433415396994" lon="8.840527885347475"><ele>256.0</ele><time>2026-03-28T11:36:02Z</time></trkpt><trkpt lat="45.65424094196521" lon="8.840517732108317"><ele>255.99999999999997</ele><time>2026-03-28T11:36:03Z</time></trkpt><trkpt lat="45.654141520560515" lon="8.840505177733634"><ele>256.0</ele><time>2026-03-28T11:36:04Z</time></trkpt><trkpt lat="45.654052070004475" lon="8.840509905396694"><ele>255.33333333333331</ele><time>2026-03-28T11:36:05Z</time></trkpt><trkpt lat="45.65396940488512" lon="8.840516168475437"><ele>254.66666666666666</ele><time>2026-03-28T11:36:06Z</time></trkpt><trkpt lat="45.65388673375161" lon="8.840542432049766"><ele>254.0</ele><time>2026-03-28T11:36:08Z</time></trkpt><trkpt lat="45.65386067946931" lon="8.840630120617954"><ele>253.33333333333331</ele><time>2026-03-28T11:36:10Z</time></trkpt><trkpt lat="45.653890227970685" lon="8.84071542550044"><ele>252.66666666666666</ele><time>2026-03-28T11:36:12Z</time></trkpt><trkpt lat="45.65398224365298" lon="8.840708307931184"><ele>252.0</ele><time>2026-03-28T11:36:15Z</time></trkpt><trkpt lat="45.65403879650772" lon="8.840612534418504"><ele>252.0</ele><time>2026-03-28T11:36:17Z</time></trkpt><trkpt lat="45.65413288411962" lon="8.84058335571102"><ele>252.0</ele><time>2026-03-28T11:36:19Z</time></trkpt><trkpt lat="45.654233454114625" lon="8.840619039487601"><ele>252.0</ele><time>2026-03-28T11:36:21Z</time></trkpt><trkpt lat="45.654295689044005" lon="8.840636798120242"><ele>252.0</ele><time>2026-03-28T11:36:22Z</time></trkpt><trkpt lat="45.65439075306842" lon="8.840632239382229"><ele>252.0</ele><time>2026-03-28T11:36:24Z</time></trkpt><trkpt lat="45.654452598069874" lon="8.84057413008209"><ele>252.0</ele><time>2026-03-28T11:36:26Z</time></trkpt><trkpt lat="45.65450443393958" lon="8.840661946444875"><ele>252.0</ele><time>2026-03-28T11:36:29Z</time></trkpt><trkpt lat="45.65444780745569" lon="8.840726026124354"><ele>252.0</ele><time>2026-03-28T11:36:31Z</time></trkpt><trkpt lat="45.654385984256315" lon="8.84074331266519"><ele>252.0</ele><time>2026-03-28T11:36:32Z</time></trkpt><trkpt lat="45.65430718940877" lon="8.840799234572696"><ele>252.0</ele><time>2026-03-28T11:36:34Z</time></trkpt><trkpt lat="45.6543003452464" lon="8.840928709583487"><ele>252.0</ele><time>2026-03-28T11:36:36Z</time></trkpt><trkpt lat="45.65436197905189" lon="8.840972374264148"><ele>252.0</ele><time>2026-03-28T11:36:40Z</time></trkpt><trkpt lat="45.65441878687864" lon="8.840874909417677"><ele>252.66666666666666</ele><time>2026-03-28T11:36:43Z</time></trkpt><trkpt lat="45.65448153248915" lon="8.84078184783344"><ele>253.33333333333331</ele><time>2026-03-28T11:36:45Z</time></trkpt><trkpt lat="45.654557007895356" lon="8.840755177600753"><ele>254.0</ele><time>2026-03-28T11:36:47Z</time></trkpt><trkpt lat="45.654577042258474" lon="8.8406422743584"><ele>254.66666666666666</ele><time>2026-03-28T11:36:49Z</time></trkpt><trkpt lat="45.65461336116905" lon="8.840518938375828"><ele>255.33333333333331</ele><time>2026-03-28T11:36:51Z</time></trkpt><trkpt lat="45.65469766863052" lon="8.840503993024464"><ele>256.0</ele><time>2026-03-28T11:36:53Z</time></trkpt><trkpt lat="45.65477282548652" lon="8.840635097349834"><ele>255.99999999999997</ele><time>2026-03-28T11:36:55Z</time></trkpt><trkpt lat="45.65481231410951" lon="8.840739934147736"><ele>256.0</ele><time>2026-03-28T11:36:56Z</time></trkpt><trkpt lat="45.6548419164323" lon="8.840832987636633"><ele>256.0</ele><time>2026-03-28T11:36:57Z</time></trkpt><trkpt lat="45.65488784567417" lon="8.840998944968202"><ele>256.0</ele><time>2026-03-28T11:36:59Z</time></trkpt><trkpt lat="45.65491327584773" lon="8.841111311574249"><ele>255.99999999999997</ele><time>2026-03-28T11:37:01Z</time></trkpt><trkpt lat="45.654837414463636" lon="8.8411230169466"><ele>256.0</ele><time>2026-03-28T11:37:04Z</time></trkpt><trkpt lat="45.65479066591869" lon="8.841012217596022"><ele>255.99999999999997</ele><time>2026-03-28T11:37:06Z</time></trkpt><trkpt lat="45.65476433954667" lon="8.840922229448918"><ele>256.0</ele><time>2026-03-28T11:37:07Z</time></trkpt><trkpt lat="45.65469698056417" lon="8.840836036921893"><ele>256.0</ele><time>2026-03-28T11:37:09Z</time></trkpt><trkpt lat="45.65459005766397" lon="8.840853623843634"><ele>256.0</ele><time>2026-03-28T11:37:11Z</time></trkpt><trkpt lat="45.65452661327071" lon="8.840895310137682"><ele>255.99999999999997</ele><time>2026-03-28T11:37:12Z</time></trkpt><trkpt lat="45.65447261914732" lon="8.840945973435506"><ele>256.0</ele><time>2026-03-28T11:37:14Z</time></trkpt><trkpt lat="45.654524103809315" lon="8.841016886110486"><ele>255.99999999999997</ele><time>2026-03-28T11:37:19Z</time></trkpt><trkpt lat="45.6546004739653" lon="8.840979980506395"><ele>256.0</ele><time>2026-03-28T11:37:21Z</time></trkpt><trkpt lat="45.65464686936783" lon="8.840899666117528"><ele>256.0</ele><time>2026-03-28T11:37:22Z</time></trkpt><trkpt lat="45.65472075563829" lon="8.840953524148523"><ele>256.0</ele><time>2026-03-28T11:37:25Z</time></trkpt><trkpt lat="45.654695208896854" lon="8.84105898889117"><ele>255.99999999999997</ele><time>2026-03-28T11:37:27Z</time></trkpt><trkpt lat="45.65460902689116" lon="8.84107374062596"><ele>256.0</ele><time>2026-03-28T11:37:29Z</time></trkpt><trkpt lat="45.654529830460206" lon="8.841064779499906"><ele>255.83333333333331</ele><time>2026-03-28T11:37:30Z</time></trkpt><trkpt lat="45.65442633764822" lon="8.841072891010636"><ele>255.66666666666666</ele><time>2026-03-28T11:37:31Z</time></trkpt><trkpt lat="45.65434064462491" lon="8.841087084070836"><ele>255.5</ele><time>2026-03-28T11:37:32Z</time></trkpt><trkpt lat="45.65427018563861" lon="8.84109767542232"><ele>255.33333333333331</ele><time>2026-03-28T11:37:32.999Z</time></trkpt><trkpt lat="45.654178551123564" lon="8.841116248654323"><ele>255.16666666666666</ele><time>2026-03-28T11:37:34.999Z</time></trkpt><trkpt lat="45.65412277530282" lon="8.841191696453924"><ele>255.0</ele><time>2026-03-28T11:37:37.999Z</time></trkpt><trkpt lat="45.654172453882424" lon="8.84128465533251"><ele>255.0</ele><time>2026-03-28T11:37:41.999Z</time></trkpt><trkpt lat="45.65427992709772" lon="8.841276328181182"><ele>255.0</ele><time>2026-03-28T11:37:43.999Z</time></trkpt><trkpt lat="45.654344709057106" lon="8.841240042198308"><ele>255.0</ele><time>2026-03-28T11:37:44.999Z</time></trkpt><trkpt lat="45.65444763415776" lon="8.841196985617334"><ele>255.0</ele><time>2026-03-28T11:37:47Z</time></trkpt><trkpt lat="45.654528440813834" lon="8.84116562116589"><ele>255.0</ele><time>2026-03-28T11:37:48Z</time></trkpt><trkpt lat="45.65461093134705" lon="8.84113275643714"><ele>255.33333333333334</ele><time>2026-03-28T11:37:49Z</time></trkpt><trkpt lat="45.65467944803882" lon="8.841107127978594"><ele>255.66666666666669</ele><time>2026-03-28T11:37:50Z</time></trkpt><trkpt lat="45.65475587696926" lon="8.841075878446675"><ele>256.0</ele><time>2026-03-28T11:37:52Z</time></trkpt><trkpt lat="45.65481653299679" lon="8.841161101733837"><ele>256.33333333333337</ele><time>2026-03-28T11:37:55Z</time></trkpt><trkpt lat="45.65476464103211" lon="8.841252908301884"><ele>256.6666666666667</ele><time>2026-03-28T11:37:57Z</time></trkpt><trkpt lat="45.65463951232007" lon="8.841281797893195"><ele>257.0</ele><time>2026-03-28T11:37:59Z</time></trkpt><trkpt lat="45.65454492022869" lon="8.841294949887514"><ele>256.6666666666667</ele><time>2026-03-28T11:38:01Z</time></trkpt><trkpt lat="45.654443001095906" lon="8.841322838276996"><ele>256.33333333333337</ele><time>2026-03-28T11:38:03Z</time></trkpt><trkpt lat="45.654349911924115" lon="8.841359837751472"><ele>256.0</ele><time>2026-03-28T11:38:05Z</time></trkpt><trkpt lat="45.65427123785952" lon="8.841393692486129"><ele>255.66666666666669</ele><time>2026-03-28T11:38:07Z</time></trkpt><trkpt lat="45.65420993161422" lon="8.841424178271994"><ele>255.33333333333334</ele><time>2026-03-28T11:38:09Z</time></trkpt><trkpt lat="45.65414510055595" lon="8.84143261086068"><ele>255.0</ele><time>2026-03-28T11:38:12Z</time></trkpt><trkpt lat="45.65408034974149" lon="8.841448690310974"><ele>255.0</ele><time>2026-03-28T11:38:14Z</time></trkpt><trkpt lat="45.65401435209519" lon="8.84148629988466"><ele>255.0</ele><time>2026-03-28T11:38:17Z</time></trkpt><trkpt lat="45.65392922883619" lon="8.841495701163774"><ele>255.0</ele><time>2026-03-28T11:38:38Z</time></trkpt><trkpt lat="45.65385554393829" lon="8.84151894862227"><ele>255.0</ele><time>2026-03-28T11:38:40Z</time></trkpt><trkpt lat="45.653766036962104" lon="8.841495918041451"><ele>255.0</ele><time>2026-03-28T11:38:42Z</time></trkpt><trkpt lat="45.65372002515301" lon="8.841387028344473"><ele>255.0</ele><time>2026-03-28T11:38:44Z</time></trkpt><trkpt lat="45.653713899229814" lon="8.841290792319288"><ele>255.0</ele><time>2026-03-28T11:38:45Z</time></trkpt><trkpt lat="45.65370953728233" lon="8.841193636874312"><ele>255.0</ele><time>2026-03-28T11:38:46Z</time></trkpt><trkpt lat="45.653694464631094" lon="8.841092156631756"><ele>255.0</ele><time>2026-03-28T11:38:47Z</time></trkpt><trkpt lat="45.653672276732046" lon="8.840954551614997"><ele>252.0</ele><time>2026-03-28T11:38:49Z</time></trkpt><trkpt lat="45.65364605072365" lon="8.840863523509418"><ele>252.0</ele><time>2026-03-28T11:38:51Z</time></trkpt></trkseg><trkseg><trkpt lat="45.6536663500245" lon="8.840750311048778"><ele>252.0</ele><time>2026-03-28T12:09:11Z</time></trkpt><trkpt lat="45.65370984749711" lon="8.840657909923552"><ele>252.0</ele><time>2026-03-28T12:09:12Z</time></trkpt><trkpt lat="45.653756328285276" lon="8.840571715901252"><ele>252.0</ele><time>2026-03-28T12:09:13Z</time></trkpt><trkpt lat="45.65381452769072" lon="8.84048465253012"><ele>252.0</ele><time>2026-03-28T12:09:14Z</time></trkpt><trkpt lat="45.65387774168601" lon="8.840414889946345"><ele>252.0</ele><time>2026-03-28T12:09:15Z</time></trkpt><trkpt lat="45.653962112713714" lon="8.840362430952664"><ele>252.0</ele><time>2026-03-28T12:09:16Z</time></trkpt><trkpt lat="45.65406018421531" lon="8.840329616002197"><ele>252.0</ele><time>2026-03-28T12:09:17Z</time></trkpt><trkpt lat="45.65416659820666" lon="8.84031216803411"><ele>252.0</ele><time>2026-03-28T12:09:18Z</time></trkpt><trkpt lat="45.65427595939861" lon="8.84031492616581"><ele>252.0</ele><time>2026-03-28T12:09:19Z</time></trkpt><trkpt lat="45.65438645658196" lon="8.840321465122132"><ele>252.0</ele><time>2026-03-28T12:09:20Z</time></trkpt><trkpt lat="45.65450229620696" lon="8.840311112525693"><ele>252.0</ele><time>2026-03-28T12:09:21Z</time></trkpt><trkpt lat="45.65460045438411" lon="8.840298939222658"><ele>252.66666666666666</ele><time>2026-03-28T12:09:22Z</time></trkpt><trkpt lat="45.65468806935264" lon="8.840278575209323"><ele>253.33333333333331</ele><time>2026-03-28T12:09:23Z</time></trkpt><trkpt lat="45.65476263933297" lon="8.840266322034523"><ele>254.0</ele><time>2026-03-28T12:09:24Z</time></trkpt><trkpt lat="45.65486211886523" lon="8.840255852284669"><ele>254.66666666666666</ele><time>2026-03-28T12:09:26Z</time></trkpt><trkpt lat="45.654954829036974" lon="8.84028901663192"><ele>255.33333333333331</ele><time>2026-03-28T12:09:29Z</time></trkpt><trkpt lat="45.65498352266155" lon="8.840384628650988"><ele>256.0</ele><time>2026-03-28T12:09:31Z</time></trkpt><trkpt lat="45.65498030649904" lon="8.840518557037441"><ele>255.99999999999997</ele><time>2026-03-28T12:09:32.999Z</time></trkpt><trkpt lat="45.65494474852782" lon="8.840638716498448"><ele>256.0</ele><time>2026-03-28T12:09:34.999Z</time></trkpt><trkpt lat="45.65494929145171" lon="8.84074460540462"><ele>256.0</ele><time>2026-03-28T12:09:36.999Z</time></trkpt><trkpt lat="45.65501682166427" lon="8.840784762644986"><ele>256.0</ele><time>2026-03-28T12:09:39.999Z</time></trkpt><trkpt lat="45.65508287278527" lon="8.840895360500706"><ele>255.99999999999997</ele><time>2026-03-28T12:09:43.999Z</time></trkpt><trkpt lat="45.65506112189504" lon="8.841010216272512"><ele>256.0</ele><time>2026-03-28T12:09:45.999Z</time></trkpt><trkpt lat="45.65500236891509" lon="8.841055241735466"><ele>255.99999999999997</ele><time>2026-03-28T12:09:47.999Z</time></trkpt><trkpt lat="45.6549263617747" lon="8.840985426881785"><ele>256.0</ele><time>2026-03-28T12:09:50.999Z</time></trkpt><trkpt lat="45.6549001555445" lon="8.840821349279366"><ele>256.0</ele><time>2026-03-28T12:09:52.999Z</time></trkpt><trkpt lat="45.654877168637086" lon="8.840733945059114"><ele>256.0</ele><time>2026-03-28T12:09:53.999Z</time></trkpt><trkpt lat="45.654840306323436" lon="8.840607117805634"><ele>255.99999999999997</ele><time>2026-03-28T12:09:54.999Z</time></trkpt><trkpt lat="45.65480651413129" lon="8.84050465213873"><ele>256.0</ele><time>2026-03-28T12:09:55.999Z</time></trkpt><trkpt lat="45.65475255552438" lon="8.84039377284448"><ele>255.99999999999997</ele><time>2026-03-28T12:09:57.999Z</time></trkpt><trkpt lat="45.65466288448707" lon="8.840356386216198"><ele>256.0</ele><time>2026-03-28T12:09:59.999Z</time></trkpt><trkpt lat="45.65455910404182" lon="8.840412125726223"><ele>256.0</ele><time>2026-03-28T12:10:01.999Z</time></trkpt><trkpt lat="45.65449073623286" lon="8.840479098830645"><ele>256.0</ele><time>2026-03-28T12:10:02.999Z</time></trkpt><trkpt lat="45.654424751354156" lon="8.840524009811737"><ele>255.99999999999997</ele><time>2026-03-28T12:10:03.999Z</time></trkpt><trkpt lat="45.65434917996271" lon="8.84053360073266"><ele>256.0</ele><time>2026-03-28T12:10:04.999Z</time></trkpt><trkpt lat="45.6542425894835" lon="8.840519777617395"><ele>255.20000000000002</ele><time>2026-03-28T12:10:05.999Z</time></trkpt><trkpt lat="45.65414030699479" lon="8.840505033337102"><ele>254.40000000000003</ele><time>2026-03-28T12:10:06.999Z</time></trkpt><trkpt lat="45.654051016562725" lon="8.84050549448184"><ele>253.6</ele><time>2026-03-28T12:10:07.999Z</time></trkpt><trkpt lat="45.65397758896904" lon="8.84051369777094"><ele>252.8</ele><time>2026-03-28T12:10:08.999Z</time></trkpt><trkpt lat="45.653880192594364" lon="8.840540805258449"><ele>252.0</ele><time>2026-03-28T12:10:10.999Z</time></trkpt><trkpt lat="45.653861898748374" lon="8.840666628434192"><ele>252.0</ele><time>2026-03-28T12:10:13.999Z</time></trkpt><trkpt lat="45.653941856067085" lon="8.840715272545657"><ele>252.0</ele><time>2026-03-28T12:10:17Z</time></trkpt><trkpt lat="45.65401698002875" lon="8.840650388865264"><ele>252.0</ele><time>2026-03-28T12:10:19Z</time></trkpt><trkpt lat="45.65409241497445" lon="8.84058702210318"><ele>252.0</ele><time>2026-03-28T12:10:21Z</time></trkpt><trkpt lat="45.65420330537667" lon="8.840607282563365"><ele>252.0</ele><time>2026-03-28T12:10:23Z</time></trkpt><trkpt lat="45.65431292615819" lon="8.840643517907537"><ele>252.0</ele><time>2026-03-28T12:10:25Z</time></trkpt><trkpt lat="45.65440896101852" lon="8.840605797229447"><ele>252.0</ele><time>2026-03-28T12:10:27Z</time></trkpt><trkpt lat="45.65447293400102" lon="8.840576429627918"><ele>252.0</ele><time>2026-03-28T12:10:29Z</time></trkpt><trkpt lat="45.65449094867107" lon="8.84070504779926"><ele>252.0</ele><time>2026-03-28T12:10:32Z</time></trkpt><trkpt lat="45.654395966401886" lon="8.840744600721823"><ele>252.0</ele><time>2026-03-28T12:10:34Z</time></trkpt><trkpt lat="45.65430857417072" lon="8.840800832803325"><ele>252.0</ele><time>2026-03-28T12:10:36Z</time></trkpt><trkpt lat="45.65429911628986" lon="8.84094101654519"><ele>252.0</ele><time>2026-03-28T12:10:38Z</time></trkpt><trkpt lat="45.65437717506592" lon="8.840961619102613"><ele>252.0</ele><time>2026-03-28T12:10:42Z</time></trkpt><trkpt lat="45.65442319797357" lon="8.840858937415657"><ele>252.0</ele><time>2026-03-28T12:10:44Z</time></trkpt><trkpt lat="45.654491533176035" lon="8.840776439106856"><ele>252.0</ele><time>2026-03-28T12:10:46Z</time></trkpt><trkpt lat="45.65456322245876" lon="8.840748157039538"><ele>252.0</ele><time>2026-03-28T12:10:48Z</time></trkpt><trkpt lat="45.65457931099351" lon="8.84062551759833"><ele>252.8</ele><time>2026-03-28T12:10:50Z</time></trkpt><trkpt lat="45.65462689436658" lon="8.840505068781793"><ele>253.6</ele><time>2026-03-28T12:10:52Z</time></trkpt><trkpt lat="45.654719900979515" lon="8.840513044191097"><ele>254.40000000000003</ele><time>2026-03-28T12:10:54Z</time></trkpt><trkpt lat="45.65479293551214" lon="8.840637143882095"><ele>255.20000000000002</ele><time>2026-03-28T12:10:56Z</time></trkpt><trkpt lat="45.65483857646894" lon="8.840804230550713"><ele>256.0</ele><time>2026-03-28T12:10:58Z</time></trkpt><trkpt lat="45.65489655675137" lon="8.840992756611172"><ele>255.99999999999997</ele><time>2026-03-28T12:11:00Z</time></trkpt><trkpt lat="45.65492239056948" lon="8.841101058781936"><ele>256.0</ele><time>2026-03-28T12:11:02Z</time></trkpt><trkpt lat="45.65485337918682" lon="8.841146143959634"><ele>256.0</ele><time>2026-03-28T12:11:05Z</time></trkpt><trkpt lat="45.654796765480874" lon="8.84104097391149"><ele>256.0</ele><time>2026-03-28T12:11:07Z</time></trkpt><trkpt lat="45.65477613617222" lon="8.840948368808442"><ele>255.99999999999997</ele><time>2026-03-28T12:11:08Z</time></trkpt><trkpt lat="45.65470528342796" lon="8.840833467078589"><ele>256.0</ele><time>2026-03-28T12:11:09.999Z</time></trkpt><trkpt lat="45.65460622542292" lon="8.84083710414087"><ele>255.99999999999997</ele><time>2026-03-28T12:11:11.999Z</time></trkpt><trkpt lat="45.654539534726034" lon="8.84087867039439"><ele>256.0</ele><time>2026-03-28T12:11:12.999Z</time></trkpt><trkpt lat="45.654473806295385" lon="8.840939394298763"><ele>256.0</ele><time>2026-03-28T12:11:14.999Z</time></trkpt><trkpt lat="45.65451121308098" lon="8.841015317581437"><ele>256.0</ele><time>2026-03-28T12:11:19.999Z</time></trkpt><trkpt lat="45.65460321326382" lon="8.840962566667395"><ele>255.99999999999997</ele><time>2026-03-28T12:11:23.999Z</time></trkpt><trkpt lat="45.65467660912355" lon="8.840883221300503"><ele>256.0</ele><time>2026-03-28T12:11:25.999Z</time></trkpt><trkpt lat="45.65473291849107" lon="8.84095193551371"><ele>256.2</ele><time>2026-03-28T12:11:27.999Z</time></trkpt><trkpt lat="45.65469858325321" lon="8.841068455145743"><ele>256.40000000000003</ele><time>2026-03-28T12:11:29.999Z</time></trkpt><trkpt lat="45.65458422145184" lon="8.841080410312362"><ele>256.6</ele><time>2026-03-28T12:11:31.999Z</time></trkpt><trkpt lat="45.65450137285159" lon="8.841072865533839"><ele>256.8</ele><time>2026-03-28T12:11:32.999Z</time></trkpt><trkpt lat="45.65440182360199" lon="8.84107980178558"><ele>257.0</ele><time>2026-03-28T12:11:33.999Z</time></trkpt><trkpt lat="45.65430553922185" lon="8.841093031214305"><ele>256.6666666666667</ele><time>2026-03-28T12:11:34.999Z</time></trkpt><trkpt lat="45.6542371741942" lon="8.841104966176584"><ele>256.33333333333337</ele><time>2026-03-28T12:11:35.999Z</time></trkpt><trkpt lat="45.65416304653191" lon="8.84112747435307"><ele>256.0</ele><time>2026-03-28T12:11:37.999Z</time></trkpt><trkpt lat="45.65411654611354" lon="8.841191907702074"><ele>255.66666666666669</ele><time>2026-03-28T12:11:39.999Z</time></trkpt><trkpt lat="45.65416694659698" lon="8.84127644132928"><ele>255.33333333333334</ele><time>2026-03-28T12:11:43.999Z</time></trkpt><trkpt lat="45.654282539767436" lon="8.841269437332391"><ele>255.0</ele><time>2026-03-28T12:11:45.999Z</time></trkpt><trkpt lat="45.654390081083044" lon="8.841214017451886"><ele>255.33333333333334</ele><time>2026-03-28T12:11:47.999Z</time></trkpt><trkpt lat="45.654495596126864" lon="8.841184200381273"><ele>255.66666666666669</ele><time>2026-03-28T12:11:49.999Z</time></trkpt><trkpt lat="45.654557277660786" lon="8.841151323554929"><ele>256.0</ele><time>2026-03-28T12:11:50.999Z</time></trkpt><trkpt lat="45.654645892638015" lon="8.84111887491826"><ele>256.33333333333337</ele><time>2026-03-28T12:11:51.999Z</time></trkpt><trkpt lat="45.654709815209436" lon="8.841091852682846"><ele>256.6666666666667</ele><time>2026-03-28T12:11:52.999Z</time></trkpt><trkpt lat="45.65478708741091" lon="8.841069443788928"><ele>257.0</ele><time>2026-03-28T12:11:54.999Z</time></trkpt><trkpt lat="45.65480501554378" lon="8.841194958871425"><ele>257.0</ele><time>2026-03-28T12:11:57.999Z</time></trkpt><trkpt lat="45.65471027525789" lon="8.841272597322952"><ele>257.0</ele><time>2026-03-28T12:11:59.999Z</time></trkpt><trkpt lat="45.65464185281013" lon="8.841276515673236"><ele>257.0</ele><time>2026-03-28T12:12:00.999Z</time></trkpt><trkpt lat="45.654535522813504" lon="8.841296599017593"><ele>257.0</ele><time>2026-03-28T12:12:01.999Z</time></trkpt><trkpt lat="45.654418276448894" lon="8.841329345911857"><ele>257.0</ele><time>2026-03-28T12:12:02.999Z</time></trkpt><trkpt lat="45.65431806442061" lon="8.84136169245438"><ele>256.6</ele><time>2026-03-28T12:12:03.999Z</time></trkpt><trkpt lat="45.65421109642321" lon="8.84140497792716"><ele>256.2</ele><time>2026-03-28T12:12:04.999Z</time></trkpt><trkpt lat="45.65410251449684" lon="8.841446978630497"><ele>255.8</ele><time>2026-03-28T12:12:05.999Z</time></trkpt><trkpt lat="45.65401450048745" lon="8.84146746237186"><ele>255.4</ele><time>2026-03-28T12:12:06.999Z</time></trkpt><trkpt lat="45.653925435977186" lon="8.841492781363208"><ele>255.0</ele><time>2026-03-28T12:12:07.999Z</time></trkpt><trkpt lat="45.65385405088048" lon="8.84151547205492"><ele>255.0</ele><time>2026-03-28T12:12:08.999Z</time></trkpt><trkpt lat="45.65376903443249" lon="8.84154307792599"><ele>255.0</ele><time>2026-03-28T12:12:09.999Z</time></trkpt><trkpt lat="45.653707936085645" lon="8.84142995097041"><ele>255.0</ele><time>2026-03-28T12:12:12.999Z</time></trkpt><trkpt lat="45.653695691898896" lon="8.841233530338684"><ele>255.0</ele><time>2026-03-28T12:12:14.999Z</time></trkpt><trkpt lat="45.653687880960675" lon="8.841102913085129"><ele>255.0</ele><time>2026-03-28T12:12:15.999Z</time></trkpt><trkpt lat="45.653672574970486" lon="8.84095022969817"><ele>254.5</ele><time>2026-03-28T12:12:16.999Z</time></trkpt><trkpt lat="45.6536741146611" lon="8.84081301632671"><ele>254.0</ele><time>2026-03-28T12:12:17.999Z</time></trkpt><trkpt lat="45.65369292492571" lon="8.840695252524972"><ele>253.5</ele><time>2026-03-28T12:12:18.999Z</time></trkpt><trkpt lat="45.65372989607286" lon="8.840582393117272"><ele>253.0</ele><time>2026-03-28T12:12:19.999Z</time></trkpt><trkpt lat="45.65378411843126" lon="8.840497172199623"><ele>252.5</ele><time>2026-03-28T12:12:20.999Z</time></trkpt><trkpt lat="45.6538592558902" lon="8.84042401106079"><ele>252.0</ele><time>2026-03-28T12:12:21.999Z</time></trkpt><trkpt lat="45.65394252018491" lon="8.840374885938436"><ele>252.0</ele><time>2026-03-28T12:12:22.999Z</time></trkpt><trkpt lat="45.65405860298055" lon="8.840327144744812"><ele>252.0</ele><time>2026-03-28T12:12:23.999Z</time></trkpt><trkpt lat="45.65416842374802" lon="8.840310027309"><ele>252.0</ele><time>2026-03-28T12:12:24.999Z</time></trkpt><trkpt lat="45.65427220161669" lon="8.84031325416923"><ele>252.0</ele><time>2026-03-28T12:12:25.999Z</time></trkpt><trkpt lat="45.65437687825946" lon="8.840323581215683"><ele>252.0</ele><time>2026-03-28T12:12:26.999Z</time></trkpt><trkpt lat="45.65449090134904" lon="8.840318075636263"><ele>252.8</ele><time>2026-03-28T12:12:27.999Z</time></trkpt><trkpt lat="45.654603514675394" lon="8.84029187614158"><ele>253.6</ele><time>2026-03-28T12:12:28.999Z</time></trkpt><trkpt lat="45.654691628465" lon="8.840277046671774"><ele>254.40000000000003</ele><time>2026-03-28T12:12:29.999Z</time></trkpt><trkpt lat="45.65477701213642" lon="8.840267117755223"><ele>255.20000000000002</ele><time>2026-03-28T12:12:30.999Z</time></trkpt><trkpt lat="45.65487680811341" lon="8.840260571262736"><ele>256.0</ele><time>2026-03-28T12:12:32.999Z</time></trkpt><trkpt lat="45.65496520276829" lon="8.840303965299919"><ele>256.0</ele><time>2026-03-28T12:12:35.999Z</time></trkpt><trkpt lat="45.6549807130465" lon="8.840456146792228"><ele>256.0</ele><time>2026-03-28T12:12:38.999Z</time></trkpt><trkpt lat="45.654962569470456" lon="8.840602208202007"><ele>256.0</ele><time>2026-03-28T12:12:40.999Z</time></trkpt><trkpt lat="45.65493222803596" lon="8.84069854998476"><ele>256.0</ele><time>2026-03-28T12:12:42.999Z</time></trkpt><trkpt lat="45.654976517510676" lon="8.840775426472309"><ele>256.0</ele><time>2026-03-28T12:12:44.999Z</time></trkpt><trkpt lat="45.655063893413775" lon="8.840840374778121"><ele>255.99999999999997</ele><time>2026-03-28T12:12:46.999Z</time></trkpt><trkpt lat="45.65507903529257" lon="8.840944072078148"><ele>256.0</ele><time>2026-03-28T12:12:48.999Z</time></trkpt><trkpt lat="45.655047324879874" lon="8.841027708878526"><ele>256.0</ele><time>2026-03-28T12:12:50.999Z</time></trkpt><trkpt lat="45.65497448734882" lon="8.841043271495892"><ele>256.0</ele><time>2026-03-28T12:12:52.999Z</time></trkpt><trkpt lat="45.65491658016544" lon="8.840958104811467"><ele>255.99999999999997</ele><time>2026-03-28T12:12:54.999Z</time></trkpt><trkpt lat="45.65488950881746" lon="8.840785584246165"><ele>256.0</ele><time>2026-03-28T12:12:56.999Z</time></trkpt><trkpt lat="45.654865535160205" lon="8.840677157251"><ele>256.0</ele><time>2026-03-28T12:12:57.999Z</time></trkpt><trkpt lat="45.654825483560145" lon="8.840549309121224"><ele>256.0</ele><time>2026-03-28T12:12:58.999Z</time></trkpt><trkpt lat="45.65479037869474" lon="8.840455121296658"><ele>256.0</ele><time>2026-03-28T12:12:59.999Z</time></trkpt><trkpt lat="45.65472550550374" lon="8.84036909901654"><ele>256.0</ele><time>2026-03-28T12:13:01.999Z</time></trkpt><trkpt lat="45.654628842488194" lon="8.840356939431294"><ele>256.0</ele><time>2026-03-28T12:13:03.999Z</time></trkpt><trkpt lat="45.654500462587784" lon="8.8404241809881"><ele>255.20000000000002</ele><time>2026-03-28T12:13:05.999Z</time></trkpt><trkpt lat="45.65442975101702" lon="8.840437974640043"><ele>254.40000000000003</ele><time>2026-03-28T12:13:06.999Z</time></trkpt><trkpt lat="45.65431079639766" lon="8.840471953450564"><ele>253.6</ele><time>2026-03-28T12:13:08.999Z</time></trkpt><trkpt lat="45.65419217077895" lon="8.84050500886202"><ele>252.8</ele><time>2026-03-28T12:13:09.999Z</time></trkpt><trkpt lat="45.65409137998124" lon="8.840512131135172"><ele>252.0</ele><time>2026-03-28T12:13:10.999Z</time></trkpt><trkpt lat="45.65400316965078" lon="8.840512021394996"><ele>252.0</ele><time>2026-03-28T12:13:11.999Z</time></trkpt><trkpt lat="45.65389132075019" lon="8.840532005512452"><ele>252.0</ele><time>2026-03-28T12:13:13.999Z</time></trkpt><trkpt lat="45.65385640768407" lon="8.84060963293826"><ele>252.0</ele><time>2026-03-28T12:13:15.999Z</time></trkpt><trkpt lat="45.653874253574784" lon="8.840716287863179"><ele>252.0</ele><time>2026-03-28T12:13:17.999Z</time></trkpt><trkpt lat="45.65395100542721" lon="8.840731011674515"><ele>252.0</ele><time>2026-03-28T12:13:20.999Z</time></trkpt><trkpt lat="45.65402485736805" lon="8.840644609914033"><ele>252.0</ele><time>2026-03-28T12:13:22.999Z</time></trkpt><trkpt lat="45.654118691049604" lon="8.840592799370835"><ele>252.0</ele><time>2026-03-28T12:13:24.999Z</time></trkpt><trkpt lat="45.654182942849566" lon="8.840601713515186"><ele>252.0</ele><time>2026-03-28T12:13:25.999Z</time></trkpt><trkpt lat="45.65429808456797" lon="8.840644488980244"><ele>252.0</ele><time>2026-03-28T12:13:27.999Z</time></trkpt><trkpt lat="45.65440158847359" lon="8.840629253322374"><ele>252.0</ele><time>2026-03-28T12:13:29.999Z</time></trkpt><trkpt lat="45.654476646034674" lon="8.840572661206185"><ele>252.0</ele><time>2026-03-28T12:13:31.999Z</time></trkpt><trkpt lat="45.654500987105976" lon="8.84068384516829"><ele>252.0</ele><time>2026-03-28T12:13:34.999Z</time></trkpt><trkpt lat="45.654426699181734" lon="8.840743832456786"><ele>252.0</ele><time>2026-03-28T12:13:36.999Z</time></trkpt><trkpt lat="45.654356941891756" lon="8.840755481876156"><ele>252.0</ele><time>2026-03-28T12:13:37.999Z</time></trkpt><trkpt lat="45.6542998412499" lon="8.840868985185736"><ele>252.0</ele><time>2026-03-28T12:13:39.999Z</time></trkpt><trkpt lat="45.65431349129866" lon="8.840967512704916"><ele>252.0</ele><time>2026-03-28T12:13:41.999Z</time></trkpt><trkpt lat="45.65438272902956" lon="8.840965592158968"><ele>252.0</ele><time>2026-03-28T12:13:45.999Z</time></trkpt><trkpt lat="45.6544310361162" lon="8.840858475983966"><ele>252.66666666666666</ele><time>2026-03-28T12:13:47.999Z</time></trkpt><trkpt lat="45.65450373670317" lon="8.840782165012529"><ele>253.33333333333331</ele><time>2026-03-28T12:13:49.999Z</time></trkpt><trkpt lat="45.65457254273355" lon="8.840739408174372"><ele>254.0</ele><time>2026-03-28T12:13:51.999Z</time></trkpt><trkpt lat="45.654592600802346" lon="8.840614681643599"><ele>254.66666666666666</ele><time>2026-03-28T12:13:53.999Z</time></trkpt><trkpt lat="45.6546354699637" lon="8.840505488398064"><ele>255.33333333333331</ele><time>2026-03-28T12:13:55.999Z</time></trkpt><trkpt lat="45.65472228299654" lon="8.84051566481175"><ele>256.0</ele><time>2026-03-28T12:13:57.999Z</time></trkpt><trkpt lat="45.6547728697273" lon="8.84058184445197"><ele>256.0</ele><time>2026-03-28T12:13:58.999Z</time></trkpt><trkpt lat="45.654811853251616" lon="8.84067192721339"><ele>255.99999999999997</ele><time>2026-03-28T12:13:59.999Z</time></trkpt><trkpt lat="45.65484371683775" lon="8.84078665862667"><ele>256.0</ele><time>2026-03-28T12:14:00.999Z</time></trkpt><trkpt lat="45.65486181703405" lon="8.840875785884155"><ele>256.0</ele><time>2026-03-28T12:14:01.999Z</time></trkpt><trkpt lat="45.65488572431264" lon="8.840960897896071"><ele>255.99999999999997</ele><time>2026-03-28T12:14:02.999Z</time></trkpt><trkpt lat="45.65491285067614" lon="8.84104788487809"><ele>256.0</ele><time>2026-03-28T12:14:03.999Z</time></trkpt><trkpt lat="45.65488847413834" lon="8.841146287314888"><ele>256.0</ele><time>2026-03-28T12:14:06.999Z</time></trkpt><trkpt lat="45.654833643811585" lon="8.841101413317354"><ele>256.0</ele><time>2026-03-28T12:14:08.999Z</time></trkpt><trkpt lat="45.654793124055466" lon="8.840991613542178"><ele>256.0</ele><time>2026-03-28T12:14:11.999Z</time></trkpt><trkpt lat="45.65473908693001" lon="8.840864681100138"><ele>256.0</ele><time>2026-03-28T12:14:13.999Z</time></trkpt><trkpt lat="45.65466440908077" lon="8.840823531932239"><ele>256.0</ele><time>2026-03-28T12:14:15.999Z</time></trkpt><trkpt lat="45.6545392807358" lon="8.840884017508351"><ele>256.0</ele><time>2026-03-28T12:14:17.999Z</time></trkpt><trkpt lat="45.65448433981742" lon="8.840935288074661"><ele>256.0</ele><time>2026-03-28T12:14:19.999Z</time></trkpt><trkpt lat="45.65451519459048" lon="8.84101748768127"><ele>255.99999999999997</ele><time>2026-03-28T12:14:23.999Z</time></trkpt><trkpt lat="45.654582860456394" lon="8.841005546360087"><ele>256.0</ele><time>2026-03-28T12:14:25.999Z</time></trkpt><trkpt lat="45.65463182975488" lon="8.840938554768146"><ele>256.0</ele><time>2026-03-28T12:14:26.999Z</time></trkpt><trkpt lat="45.65469697694864" lon="8.840889451442685"><ele>255.99999999999997</ele><time>2026-03-28T12:14:28.999Z</time></trkpt><trkpt lat="45.654735898733726" lon="8.84099218480899"><ele>256.0</ele><time>2026-03-28T12:14:30.999Z</time></trkpt><trkpt lat="45.65467428036844" lon="8.841078772696735"><ele>256.0</ele><time>2026-03-28T12:14:32.999Z</time></trkpt><trkpt lat="45.65453339777282" lon="8.841066709876976"><ele>255.83333333333331</ele><time>2026-03-28T12:14:34.999Z</time></trkpt><trkpt lat="45.6544226933807" lon="8.841073842759275"><ele>255.66666666666666</ele><time>2026-03-28T12:14:35.999Z</time></trkpt><trkpt lat="45.65434184309254" lon="8.84108933096384"><ele>255.5</ele><time>2026-03-28T12:14:36.999Z</time></trkpt><trkpt lat="45.654254649575684" lon="8.8410981926008"><ele>255.33333333333331</ele><time>2026-03-28T12:14:37.999Z</time></trkpt><trkpt lat="45.65416869847689" lon="8.841118584490742"><ele>255.16666666666666</ele><time>2026-03-28T12:14:39.999Z</time></trkpt><trkpt lat="45.65412596202766" lon="8.841208010920802"><ele>255.0</ele><time>2026-03-28T12:14:42.999Z</time></trkpt><trkpt lat="45.654179821065924" lon="8.841285990613041"><ele>255.0</ele><time>2026-03-28T12:14:45.999Z</time></trkpt><trkpt lat="45.65429005499545" lon="8.841265129851523"><ele>255.0</ele><time>2026-03-28T12:14:47.999Z</time></trkpt><trkpt lat="45.6543591422473" lon="8.84123078711068"><ele>255.0</ele><time>2026-03-28T12:14:48.999Z</time></trkpt><trkpt lat="45.6544757242435" lon="8.841182005089648"><ele>255.0</ele><time>2026-03-28T12:14:50.999Z</time></trkpt><trkpt lat="45.654583861390705" lon="8.841144511532773"><ele>255.0</ele><time>2026-03-28T12:14:51.999Z</time></trkpt><trkpt lat="45.65465539381805" lon="8.841117190212207"><ele>255.33333333333334</ele><time>2026-03-28T12:14:52.999Z</time></trkpt><trkpt lat="45.6547393614575" lon="8.84108096131308"><ele>255.66666666666669</ele><time>2026-03-28T12:14:54.999Z</time></trkpt><trkpt lat="45.6548106232333" lon="8.841092566001828"><ele>256.0</ele><time>2026-03-28T12:14:56.999Z</time></trkpt><trkpt lat="45.65480834945356" lon="8.84120407457756"><ele>256.33333333333337</ele><time>2026-03-28T12:14:58.999Z</time></trkpt><trkpt lat="45.65470007918779" lon="8.841277874599667"><ele>256.6666666666667</ele><time>2026-03-28T12:15:00.999Z</time></trkpt><trkpt lat="45.65462208630445" lon="8.841293520725062"><ele>257.0</ele><time>2026-03-28T12:15:01.999Z</time></trkpt><trkpt lat="45.65451224431275" lon="8.841306390222153"><ele>256.5</ele><time>2026-03-28T12:15:02.999Z</time></trkpt><trkpt lat="45.65441882195487" lon="8.841334505977748"><ele>256.0</ele><time>2026-03-28T12:15:03.999Z</time></trkpt><trkpt lat="45.65430672754946" lon="8.841376000066049"><ele>255.5</ele><time>2026-03-28T12:15:04.999Z</time></trkpt><trkpt lat="45.654186838300944" lon="8.841419237287411"><ele>255.0</ele><time>2026-03-28T12:15:05.999Z</time></trkpt><trkpt lat="45.65407051560374" lon="8.84145260923673"><ele>255.0</ele><time>2026-03-28T12:15:06.999Z</time></trkpt><trkpt lat="45.653979550142104" lon="8.841478751721409"><ele>255.0</ele><time>2026-03-28T12:15:07.999Z</time></trkpt><trkpt lat="45.65388670378096" lon="8.841505000307365"><ele>255.0</ele><time>2026-03-28T12:15:09.999Z</time></trkpt><trkpt lat="45.65382384184555" lon="8.841519551640179"><ele>255.0</ele><time>2026-03-28T12:15:10.999Z</time></trkpt><trkpt lat="45.653736352878546" lon="8.841484226840866"><ele>255.0</ele><time>2026-03-28T12:15:12.999Z</time></trkpt><trkpt lat="45.65370477624567" lon="8.841326866295043"><ele>255.0</ele><time>2026-03-28T12:15:14.999Z</time></trkpt><trkpt lat="45.65369860822022" lon="8.841181405333103"><ele>255.0</ele><time>2026-03-28T12:15:15.999Z</time></trkpt><trkpt lat="45.653685341173016" lon="8.841028042241144"><ele>255.0</ele><time>2026-03-28T12:15:16.999Z</time></trkpt><trkpt lat="45.65367831674565" lon="8.840888000152468"><ele>255.0</ele><time>2026-03-28T12:15:17.999Z</time></trkpt><trkpt lat="45.65368382059979" lon="8.840760030722327"><ele>255.0</ele><time>2026-03-28T12:15:18.999Z</time></trkpt><trkpt lat="45.65370650164945" lon="8.840641353269511"><ele>254.4</ele><time>2026-03-28T12:15:19.999Z</time></trkpt><trkpt lat="45.6537520630863" lon="8.840541832472118"><ele>253.8</ele><time>2026-03-28T12:15:20.999Z</time></trkpt><trkpt lat="45.65382137904535" lon="8.840456847286735"><ele>253.2</ele><time>2026-03-28T12:15:21.999Z</time></trkpt><trkpt lat="45.65391074239867" lon="8.840390481919034"><ele>252.6</ele><time>2026-03-28T12:15:22.999Z</time></trkpt><trkpt lat="45.65402097693619" lon="8.840339371636848"><ele>252.0</ele><time>2026-03-28T12:15:23.999Z</time></trkpt><trkpt lat="45.654137957705935" lon="8.840315967608326"><ele>252.0</ele><time>2026-03-28T12:15:24.999Z</time></trkpt><trkpt lat="45.65426080368383" lon="8.840313324252548"><ele>252.0</ele><time>2026-03-28T12:15:25.999Z</time></trkpt><trkpt lat="45.65439402074244" lon="8.840320634559617"><ele>252.0</ele><time>2026-03-28T12:15:26.999Z</time></trkpt><trkpt lat="45.654522648729895" lon="8.8403192845598"><ele>252.0</ele><time>2026-03-28T12:15:27.999Z</time></trkpt><trkpt lat="45.65462305884723" lon="8.840302198587962"><ele>252.66666666666666</ele><time>2026-03-28T12:15:28.999Z</time></trkpt><trkpt lat="45.654699503813795" lon="8.840286172675503"><ele>253.33333333333331</ele><time>2026-03-28T12:15:29.999Z</time></trkpt><trkpt lat="45.654776524602816" lon="8.840271128465918"><ele>254.0</ele><time>2026-03-28T12:15:30.999Z</time></trkpt><trkpt lat="45.654888843680745" lon="8.84025358819033"><ele>254.66666666666666</ele><time>2026-03-28T12:15:32.999Z</time></trkpt><trkpt lat="45.654965521645714" lon="8.840310147832437"><ele>255.33333333333331</ele><time>2026-03-28T12:15:35.999Z</time></trkpt><trkpt lat="45.65497999054774" lon="8.840413970243182"><ele>256.0</ele><time>2026-03-28T12:15:37.999Z</time></trkpt><trkpt lat="45.65498829427899" lon="8.840520217329791"><ele>255.99999999999997</ele><time>2026-03-28T12:15:38.999Z</time></trkpt><trkpt lat="45.65494369577497" lon="8.840640657790473"><ele>256.0</ele><time>2026-03-28T12:15:40.999Z</time></trkpt><trkpt lat="45.6549385088131" lon="8.840742210468894"><ele>256.0</ele><time>2026-03-28T12:15:42.999Z</time></trkpt><trkpt lat="45.655011498607124" lon="8.840809500299592"><ele>256.0</ele><time>2026-03-28T12:15:44.999Z</time></trkpt><trkpt lat="45.65507757733948" lon="8.840887488144611"><ele>255.99999999999997</ele><time>2026-03-28T12:15:46.999Z</time></trkpt><trkpt lat="45.655063101597115" lon="8.840988791719074"><ele>256.0</ele><time>2026-03-28T12:15:48.999Z</time></trkpt><trkpt lat="45.65501004679303" lon="8.841045561740584"><ele>255.99999999999997</ele><time>2026-03-28T12:15:50.999Z</time></trkpt><trkpt lat="45.65492750656211" lon="8.840983096620485"><ele>256.0</ele><time>2026-03-28T12:15:53.999Z</time></trkpt><trkpt lat="45.65490367580229" lon="8.8408340549882"><ele>256.0</ele><time>2026-03-28T12:15:55.999Z</time></trkpt><trkpt lat="45.65487758731108" lon="8.840722155793264"><ele>256.0</ele><time>2026-03-28T12:15:56.999Z</time></trkpt><trkpt lat="45.65484192727438" lon="8.840605944986462"><ele>255.99999999999997</ele><time>2026-03-28T12:15:57.999Z</time></trkpt><trkpt lat="45.65481293829564" lon="8.840510132958052"><ele>256.0</ele><time>2026-03-28T12:15:58.999Z</time></trkpt><trkpt lat="45.654743626061666" lon="8.840383750039637"><ele>256.0</ele><time>2026-03-28T12:16:00.999Z</time></trkpt><trkpt lat="45.654635865019195" lon="8.84036984563238"><ele>256.0</ele><time>2026-03-28T12:16:02.999Z</time></trkpt><trkpt lat="45.65457208155983" lon="8.840399317371668"><ele>256.0</ele><time>2026-03-28T12:16:03.999Z</time></trkpt><trkpt lat="45.654486154090826" lon="8.840438424106006"><ele>256.0</ele><time>2026-03-28T12:16:04.999Z</time></trkpt><trkpt lat="45.654415289962586" lon="8.840457978663588"><ele>256.0</ele><time>2026-03-28T12:16:05.999Z</time></trkpt><trkpt lat="45.65430373753028" lon="8.84048083146638"><ele>255.20000000000002</ele><time>2026-03-28T12:16:07.999Z</time></trkpt><trkpt lat="45.65419237332664" lon="8.840503062286658"><ele>254.40000000000003</ele><time>2026-03-28T12:16:08.999Z</time></trkpt><trkpt lat="45.654079390175625" lon="8.840509277772721"><ele>253.6</ele><time>2026-03-28T12:16:09.999Z</time></trkpt><trkpt lat="45.65398771238111" lon="8.840513725159804"><ele>252.8</ele><time>2026-03-28T12:16:10.999Z</time></trkpt><trkpt lat="45.653919200804914" lon="8.84052592411101"><ele>252.0</ele><time>2026-03-28T12:16:11.999Z</time></trkpt><trkpt lat="45.653866021243445" lon="8.840577784422411"><ele>252.0</ele><time>2026-03-28T12:16:13.999Z</time></trkpt><trkpt lat="45.65386638566178" lon="8.84068301944129"><ele>252.0</ele><time>2026-03-28T12:16:15.999Z</time></trkpt><trkpt lat="45.6539321879161" lon="8.84073135639479"><ele>252.0</ele><time>2026-03-28T12:16:17.999Z</time></trkpt><trkpt lat="45.65400375318813" lon="8.840683969798087"><ele>252.0</ele><time>2026-03-28T12:16:19.999Z</time></trkpt><trkpt lat="45.654085256672644" lon="8.840593457748442"><ele>252.0</ele><time>2026-03-28T12:16:21.999Z</time></trkpt><trkpt lat="45.65419891464894" lon="8.840610608158652"><ele>252.0</ele><time>2026-03-28T12:16:23.999Z</time></trkpt><trkpt lat="45.65431248404786" lon="8.840648528827295"><ele>252.0</ele><time>2026-03-28T12:16:25.999Z</time></trkpt><trkpt lat="45.65440202074326" lon="8.840624579650392"><ele>252.0</ele><time>2026-03-28T12:16:27.999Z</time></trkpt><trkpt lat="45.65447098196908" lon="8.840582536033915"><ele>252.0</ele><time>2026-03-28T12:16:29.999Z</time></trkpt><trkpt lat="45.6544907577922" lon="8.84069693290619"><ele>252.0</ele><time>2026-03-28T12:16:32.999Z</time></trkpt><trkpt lat="45.65440115937457" lon="8.840745973555133"><ele>252.0</ele><time>2026-03-28T12:16:34.999Z</time></trkpt><trkpt lat="45.65433709239792" lon="8.84075428539783"><ele>252.0</ele><time>2026-03-28T12:16:35.999Z</time></trkpt><trkpt lat="45.654297777576595" lon="8.840871438337121"><ele>252.0</ele><time>2026-03-28T12:16:37.999Z</time></trkpt><trkpt lat="45.654308653597234" lon="8.84096418094512"><ele>252.0</ele><time>2026-03-28T12:16:39.999Z</time></trkpt><trkpt lat="45.65438530290951" lon="8.840947012439775"><ele>252.0</ele><time>2026-03-28T12:16:43.999Z</time></trkpt><trkpt lat="45.65443568790459" lon="8.840820821045456"><ele>252.0</ele><time>2026-03-28T12:16:45.999Z</time></trkpt><trkpt lat="45.65451650454792" lon="8.840782133167574"><ele>252.0</ele><time>2026-03-28T12:16:47.999Z</time></trkpt><trkpt lat="45.654577623906" lon="8.840685505296028"><ele>252.0</ele><time>2026-03-28T12:16:50.999Z</time></trkpt><trkpt lat="45.65459894403497" lon="8.8405698830761"><ele>252.66666666666666</ele><time>2026-03-28T12:16:52.999Z</time></trkpt><trkpt lat="45.654660789087025" lon="8.840493737230634"><ele>253.33333333333331</ele><time>2026-03-28T12:16:54.999Z</time></trkpt><trkpt lat="45.65474998915967" lon="8.840566875907477"><ele>254.0</ele><time>2026-03-28T12:16:56.999Z</time></trkpt><trkpt lat="45.654791852815286" lon="8.840654553623155"><ele>254.66666666666666</ele><time>2026-03-28T12:16:57.999Z</time></trkpt><trkpt lat="45.65482497632166" lon="8.840750432353921"><ele>255.33333333333331</ele><time>2026-03-28T12:16:58.999Z</time></trkpt><trkpt lat="45.65485154132459" lon="8.840856312075314"><ele>256.0</ele><time>2026-03-28T12:16:59.999Z</time></trkpt><trkpt lat="45.65490511143514" lon="8.841039280170639"><ele>255.99999999999997</ele><time>2026-03-28T12:17:01.999Z</time></trkpt><trkpt lat="45.65488791328051" lon="8.841141785201977"><ele>256.0</ele><time>2026-03-28T12:17:04.999Z</time></trkpt><trkpt lat="45.65481738501678" lon="8.841093472254006"><ele>256.0</ele><time>2026-03-28T12:17:06.999Z</time></trkpt><trkpt lat="45.65478947973584" lon="8.841011882031474"><ele>256.0</ele><time>2026-03-28T12:17:07.999Z</time></trkpt><trkpt lat="45.65476569936554" lon="8.840922779410777"><ele>255.99999999999997</ele><time>2026-03-28T12:17:08.999Z</time></trkpt><trkpt lat="45.65469519324863" lon="8.84081641967689"><ele>256.0</ele><time>2026-03-28T12:17:10.999Z</time></trkpt><trkpt lat="45.65460160683741" lon="8.84082117687221"><ele>255.99999999999997</ele><time>2026-03-28T12:17:12.999Z</time></trkpt><trkpt lat="45.65453050189622" lon="8.840870194963886"><ele>256.0</ele><time>2026-03-28T12:17:14.999Z</time></trkpt><trkpt lat="45.654475248306845" lon="8.840927978064977"><ele>256.0</ele><time>2026-03-28T12:17:18.999Z</time></trkpt><trkpt lat="45.65452872654326" lon="8.841010381716913"><ele>256.0</ele><time>2026-03-28T12:17:23.999Z</time></trkpt><trkpt lat="45.654612495431614" lon="8.840940261214252"><ele>255.99999999999997</ele><time>2026-03-28T12:17:28.999Z</time></trkpt><trkpt lat="45.65467882366248" lon="8.8408750716225"><ele>256.0</ele><time>2026-03-28T12:17:30.999Z</time></trkpt><trkpt lat="45.65472444990009" lon="8.840939408829477"><ele>256.2</ele><time>2026-03-28T12:17:32.999Z</time></trkpt><trkpt lat="45.65470662135985" lon="8.841049152070735"><ele>256.40000000000003</ele><time>2026-03-28T12:17:34.999Z</time></trkpt><trkpt lat="45.65459082380388" lon="8.841081071238172"><ele>256.6</ele><time>2026-03-28T12:17:36.999Z</time></trkpt><trkpt lat="45.65451792055091" lon="8.84107069051504"><ele>256.8</ele><time>2026-03-28T12:17:37.999Z</time></trkpt><trkpt lat="45.65442828135138" lon="8.841071968822956"><ele>257.0</ele><time>2026-03-28T12:17:38.999Z</time></trkpt><trkpt lat="45.65432870795264" lon="8.841087575627636"><ele>256.6666666666667</ele><time>2026-03-28T12:17:39.999Z</time></trkpt><trkpt lat="45.65425203744201" lon="8.841097242235842"><ele>256.33333333333337</ele><time>2026-03-28T12:17:40.999Z</time></trkpt><trkpt lat="45.65415590478606" lon="8.841122374248943"><ele>256.0</ele><time>2026-03-28T12:17:42.999Z</time></trkpt><trkpt lat="45.654120003277335" lon="8.84122069313935"><ele>255.66666666666669</ele><time>2026-03-28T12:17:45.999Z</time></trkpt><trkpt lat="45.65420022291298" lon="8.841293034142423"><ele>255.33333333333334</ele><time>2026-03-28T12:17:48.999Z</time></trkpt><trkpt lat="45.65426809551751" lon="8.841278640878508"><ele>255.0</ele><time>2026-03-28T12:17:49.999Z</time></trkpt><trkpt lat="45.654371933002594" lon="8.841221702621674"><ele>255.4</ele><time>2026-03-28T12:17:51.999Z</time></trkpt><trkpt lat="45.654518246936966" lon="8.841176882908593"><ele>255.8</ele><time>2026-03-28T12:17:53.999Z</time></trkpt><trkpt lat="45.654609277436634" lon="8.841131428030423"><ele>256.2</ele><time>2026-03-28T12:17:54.999Z</time></trkpt><trkpt lat="45.65468231568078" lon="8.84110294181328"><ele>256.6</ele><time>2026-03-28T12:17:55.999Z</time></trkpt><trkpt lat="45.65477353105139" lon="8.841065144738623"><ele>257.0</ele><time>2026-03-28T12:17:57.999Z</time></trkpt><trkpt lat="45.65482241721761" lon="8.84115959755439"><ele>257.0</ele><time>2026-03-28T12:18:00.999Z</time></trkpt><trkpt lat="45.65476001270425" lon="8.841255626110144"><ele>257.0</ele><time>2026-03-28T12:18:02.999Z</time></trkpt><trkpt lat="45.65468679778457" lon="8.841275669418987"><ele>257.0</ele><time>2026-03-28T12:18:03.999Z</time></trkpt><trkpt lat="45.654579428302775" lon="8.841290950241344"><ele>257.0</ele><time>2026-03-28T12:18:04.999Z</time></trkpt><trkpt lat="45.65446329539109" lon="8.841315609118292"><ele>257.0</ele><time>2026-03-28T12:18:05.999Z</time></trkpt><trkpt lat="45.65434216945903" lon="8.841353801603638"><ele>256.6</ele><time>2026-03-28T12:18:06.999Z</time></trkpt><trkpt lat="45.65423221967669" lon="8.841393813210377"><ele>256.2</ele><time>2026-03-28T12:18:07.999Z</time></trkpt><trkpt lat="45.65411926107914" lon="8.841432416078156"><ele>255.8</ele><time>2026-03-28T12:18:08.999Z</time></trkpt><trkpt lat="45.65402684049436" lon="8.841460779802592"><ele>255.4</ele><time>2026-03-28T12:18:09.999Z</time></trkpt><trkpt lat="45.6539410922341" lon="8.841485998976863"><ele>255.0</ele><time>2026-03-28T12:18:10.999Z</time></trkpt><trkpt lat="45.65387427055601" lon="8.841510098637336"><ele>255.0</ele><time>2026-03-28T12:18:11.999Z</time></trkpt><trkpt lat="45.653794731968986" lon="8.841514545893796"><ele>255.0</ele><time>2026-03-28T12:18:13.999Z</time></trkpt><trkpt lat="45.65371672737555" lon="8.841426819196865"><ele>255.0</ele><time>2026-03-28T12:18:15.999Z</time></trkpt><trkpt lat="45.65370677716026" lon="8.841333335315793"><ele>255.0</ele><time>2026-03-28T12:18:16.999Z</time></trkpt><trkpt lat="45.653706900067974" lon="8.841225848348508"><ele>255.0</ele><time>2026-03-28T12:18:17.999Z</time></trkpt><trkpt lat="45.65369366737009" lon="8.84112692359524"><ele>255.0</ele><time>2026-03-28T12:18:18.999Z</time></trkpt><trkpt lat="45.653679548785554" lon="8.841010667932157"><ele>254.5</ele><time>2026-03-28T12:18:20.999Z</time></trkpt><trkpt lat="45.65366753772258" lon="8.840899024637274"><ele>254.0</ele><time>2026-03-28T12:18:22.999Z</time></trkpt><trkpt lat="45.65359764265185" lon="8.840897733041299"><ele>253.5</ele><time>2026-03-28T12:18:25.999Z</time></trkpt><trkpt lat="45.653553059778055" lon="8.840988182503631"><ele>253.0</ele><time>2026-03-28T12:18:27.999Z</time></trkpt><trkpt lat="45.65346048802898" lon="8.84102511174082"><ele>252.5</ele><time>2026-03-28T12:18:30.999Z</time></trkpt><trkpt lat="45.65339661428116" lon="8.841000539891064"><ele>252.0</ele><time>2026-03-28T12:18:31.999Z</time></trkpt><trkpt lat="45.65329165629976" lon="8.840945884068876"><ele>251.0</ele><time>2026-03-28T12:18:33.999Z</time></trkpt><trkpt lat="45.653208771853855" lon="8.840904990523246"><ele>251.0</ele><time>2026-03-28T12:18:35.999Z</time></trkpt><trkpt lat="45.653133880029756" lon="8.84087831628477"><ele>251.0</ele><time>2026-03-28T12:18:38.999Z</time></trkpt></trkseg><trkseg><trkpt lat="45.653451535349404" lon="8.840908415225705"><ele>251.0</ele><time>2026-03-28T13:14:06Z</time></trkpt><trkpt lat="45.65344928342789" lon="8.840796348529219"><ele>251.0</ele><time>2026-03-28T13:14:08Z</time></trkpt><trkpt lat="45.6537129303879" lon="8.84027392805514"><ele>251.20000000000002</ele><time>2026-03-28T13:14:10Z</time></trkpt><trkpt lat="45.65377641463299" lon="8.840257444888943"><ele>251.40000000000003</ele><time>2026-03-28T13:14:11Z</time></trkpt><trkpt lat="45.653852692919855" lon="8.840223249052253"><ele>251.6</ele><time>2026-03-28T13:14:12Z</time></trkpt><trkpt lat="45.65394868966657" lon="8.84018679198362"><ele>251.8</ele><time>2026-03-28T13:14:13Z</time></trkpt><trkpt lat="45.65407351936507" lon="8.840342595110895"><ele>252.0</ele><time>2026-03-28T13:14:14Z</time></trkpt><trkpt lat="45.65418168667689" lon="8.84033666115421"><ele>252.0</ele><time>2026-03-28T13:14:15Z</time></trkpt><trkpt lat="45.65428430366995" lon="8.840339328482713"><ele>252.0</ele><time>2026-03-28T13:14:16Z</time></trkpt><trkpt lat="45.65439362976454" lon="8.84033917098598"><ele>252.0</ele><time>2026-03-28T13:14:17Z</time></trkpt><trkpt lat="45.65450256157382" lon="8.840334361383125"><ele>252.0</ele><time>2026-03-28T13:14:18Z</time></trkpt><trkpt lat="45.6545981275621" lon="8.840309770401403"><ele>252.0</ele><time>2026-03-28T13:14:19Z</time></trkpt><trkpt lat="45.654689789550076" lon="8.840285610233433"><ele>252.8</ele><time>2026-03-28T13:14:20Z</time></trkpt><trkpt lat="45.654764252830894" lon="8.84027697103693"><ele>253.6</ele><time>2026-03-28T13:14:21Z</time></trkpt><trkpt lat="45.65487870276128" lon="8.840268845775919"><ele>254.40000000000003</ele><time>2026-03-28T13:14:23Z</time></trkpt><trkpt lat="45.654945299849686" lon="8.84028977890756"><ele>255.20000000000002</ele><time>2026-03-28T13:14:25Z</time></trkpt><trkpt lat="45.654975100969196" lon="8.840415473197034"><ele>256.0</ele><time>2026-03-28T13:14:28Z</time></trkpt><trkpt lat="45.65497234617749" lon="8.840586281173138"><ele>255.99999999999997</ele><time>2026-03-28T13:14:30Z</time></trkpt><trkpt lat="45.65492918701711" lon="8.840686380892274"><ele>256.0</ele><time>2026-03-28T13:14:32Z</time></trkpt><trkpt lat="45.65495228184872" lon="8.84077434606802"><ele>256.0</ele><time>2026-03-28T13:14:34Z</time></trkpt><trkpt lat="45.65502208382639" lon="8.840837230148255"><ele>256.0</ele><time>2026-03-28T13:14:36Z</time></trkpt><trkpt lat="45.65507338203185" lon="8.840937885716853"><ele>255.99999999999997</ele><time>2026-03-28T13:14:38Z</time></trkpt><trkpt lat="45.655044411458896" lon="8.841033929971868"><ele>256.0</ele><time>2026-03-28T13:14:40Z</time></trkpt><trkpt lat="45.65497069077797" lon="8.841053786410347"><ele>256.0</ele><time>2026-03-28T13:14:42Z</time></trkpt><trkpt lat="45.65491603992031" lon="8.840965560623903"><ele>256.0</ele><time>2026-03-28T13:14:44Z</time></trkpt><trkpt lat="45.654880388634645" lon="8.84076920187691"><ele>256.0</ele><time>2026-03-28T13:14:46Z</time></trkpt><trkpt lat="45.65484608007681" lon="8.840640998857987"><ele>256.0</ele><time>2026-03-28T13:14:47Z</time></trkpt><trkpt lat="45.65481463741302" lon="8.840544858836214"><ele>256.0</ele><time>2026-03-28T13:14:48Z</time></trkpt><trkpt lat="45.654758345557134" lon="8.840415756458999"><ele>256.0</ele><time>2026-03-28T13:14:50Z</time></trkpt><trkpt lat="45.654671058769274" lon="8.840366715805798"><ele>256.0</ele><time>2026-03-28T13:14:52Z</time></trkpt><trkpt lat="45.654536977029984" lon="8.84040858184985"><ele>256.0</ele><time>2026-03-28T13:14:54Z</time></trkpt><trkpt lat="45.65445897071379" lon="8.84044204412921"><ele>256.0</ele><time>2026-03-28T13:14:55Z</time></trkpt><trkpt lat="45.65434697613567" lon="8.840465493481775"><ele>256.0</ele><time>2026-03-28T13:14:57Z</time></trkpt><trkpt lat="45.65426352422285" lon="8.840496635959902"><ele>255.20000000000002</ele><time>2026-03-28T13:14:58Z</time></trkpt><trkpt lat="45.65415653677001" lon="8.840518734384496"><ele>254.40000000000003</ele><time>2026-03-28T13:14:59Z</time></trkpt><trkpt lat="45.65405578986149" lon="8.840521035397554"><ele>253.6</ele><time>2026-03-28T13:15:00Z</time></trkpt><trkpt lat="45.65397288863812" lon="8.840528816113055"><ele>252.8</ele><time>2026-03-28T13:15:01Z</time></trkpt><trkpt lat="45.653882135991964" lon="8.840560268665074"><ele>252.0</ele><time>2026-03-28T13:15:03Z</time></trkpt><trkpt lat="45.65385050635914" lon="8.840650598107452"><ele>252.0</ele><time>2026-03-28T13:15:05Z</time></trkpt><trkpt lat="45.65389211869424" lon="8.840727892338249"><ele>252.0</ele><time>2026-03-28T13:15:07Z</time></trkpt><trkpt lat="45.65396912267618" lon="8.840723516257079"><ele>252.0</ele><time>2026-03-28T13:15:09Z</time></trkpt><trkpt lat="45.65402917842824" lon="8.840628964131529"><ele>252.0</ele><time>2026-03-28T13:15:11Z</time></trkpt><trkpt lat="45.65413671812295" lon="8.84060657125783"><ele>252.0</ele><time>2026-03-28T13:15:13Z</time></trkpt><trkpt lat="45.65420578935299" lon="8.84062429297522"><ele>252.0</ele><time>2026-03-28T13:15:14Z</time></trkpt><trkpt lat="45.65426658315287" lon="8.840649587223233"><ele>252.0</ele><time>2026-03-28T13:15:15Z</time></trkpt><trkpt lat="45.65437708202976" lon="8.840656585616719"><ele>252.0</ele><time>2026-03-28T13:15:17Z</time></trkpt><trkpt lat="45.6544529859951" lon="8.840604011489695"><ele>252.0</ele><time>2026-03-28T13:15:19Z</time></trkpt><trkpt lat="45.65449417852691" lon="8.840676149203295"><ele>252.0</ele><time>2026-03-28T13:15:22Z</time></trkpt><trkpt lat="45.65443713424312" lon="8.840750920404856"><ele>252.0</ele><time>2026-03-28T13:15:24Z</time></trkpt><trkpt lat="45.654326716052346" lon="8.840776804502573"><ele>252.0</ele><time>2026-03-28T13:15:26Z</time></trkpt><trkpt lat="45.65429364178254" lon="8.84090751717699"><ele>252.0</ele><time>2026-03-28T13:15:28Z</time></trkpt><trkpt lat="45.654331445749555" lon="8.840993448710627"><ele>252.0</ele><time>2026-03-28T13:15:31Z</time></trkpt><trkpt lat="45.65438726162188" lon="8.840950864642462"><ele>252.0</ele><time>2026-03-28T13:15:34Z</time></trkpt><trkpt lat="45.65443577018186" lon="8.840823962875122"><ele>252.0</ele><time>2026-03-28T13:15:36Z</time></trkpt><trkpt lat="45.6545270273606" lon="8.84079164932562"><ele>252.0</ele><time>2026-03-28T13:15:38Z</time></trkpt><trkpt lat="45.654571248941664" lon="8.840709169921952"><ele>252.0</ele><time>2026-03-28T13:15:40Z</time></trkpt><trkpt lat="45.654584164076674" lon="8.84060452489074"><ele>252.66666666666666</ele><time>2026-03-28T13:15:42Z</time></trkpt><trkpt lat="45.65464366567822" lon="8.840505714760877"><ele>253.33333333333331</ele><time>2026-03-28T13:15:44Z</time></trkpt><trkpt lat="45.6547306756147" lon="8.840552591379906"><ele>254.0</ele><time>2026-03-28T13:15:46Z</time></trkpt><trkpt lat="45.65477197630205" lon="8.840624933537711"><ele>254.66666666666666</ele><time>2026-03-28T13:15:47Z</time></trkpt><trkpt lat="45.65481021068525" lon="8.840717009346452"><ele>255.33333333333331</ele><time>2026-03-28T13:15:48Z</time></trkpt><trkpt lat="45.6548429981919" lon="8.840815745647701"><ele>256.0</ele><time>2026-03-28T13:15:49Z</time></trkpt><trkpt lat="45.65488905660667" lon="8.840999612150402"><ele>255.99999999999997</ele><time>2026-03-28T13:15:51Z</time></trkpt><trkpt lat="45.65492285426768" lon="8.841124400511637"><ele>256.0</ele><time>2026-03-28T13:15:53Z</time></trkpt><trkpt lat="45.65484616183918" lon="8.841136597689802"><ele>256.0</ele><time>2026-03-28T13:15:56Z</time></trkpt><trkpt lat="45.654803843144755" lon="8.841054620245712"><ele>256.0</ele><time>2026-03-28T13:15:58Z</time></trkpt><trkpt lat="45.65477125584313" lon="8.840954599274136"><ele>255.99999999999997</ele><time>2026-03-28T13:15:59Z</time></trkpt><trkpt lat="45.654706288480966" lon="8.840846064572043"><ele>256.0</ele><time>2026-03-28T13:16:01Z</time></trkpt><trkpt lat="45.654606309062046" lon="8.840852708803267"><ele>255.99999999999997</ele><time>2026-03-28T13:16:03Z</time></trkpt><trkpt lat="45.654544357046184" lon="8.840894680834147"><ele>256.0</ele><time>2026-03-28T13:16:04Z</time></trkpt><trkpt lat="45.65447088456091" lon="8.840947491591557"><ele>256.0</ele><time>2026-03-28T13:16:06Z</time></trkpt><trkpt lat="45.65450822404477" lon="8.841033864950766"><ele>256.0</ele><time>2026-03-28T13:16:10Z</time></trkpt><trkpt lat="45.6545842679948" lon="8.841012831289296"><ele>255.99999999999997</ele><time>2026-03-28T13:16:12Z</time></trkpt><trkpt lat="45.65465595597837" lon="8.84090113684044"><ele>256.0</ele><time>2026-03-28T13:16:14Z</time></trkpt><trkpt lat="45.65472551427668" lon="8.840986931217188"><ele>256.16666666666663</ele><time>2026-03-28T13:16:17Z</time></trkpt><trkpt lat="45.65468170601881" lon="8.84108140421994"><ele>256.3333333333333</ele><time>2026-03-28T13:16:19Z</time></trkpt><trkpt lat="45.654574484526314" lon="8.841089398248316"><ele>256.5</ele><time>2026-03-28T13:16:21Z</time></trkpt><trkpt lat="45.65449084128027" lon="8.841086799641609"><ele>256.6666666666667</ele><time>2026-03-28T13:16:22Z</time></trkpt><trkpt lat="45.6544051334449" lon="8.841089565236292"><ele>256.83333333333337</ele><time>2026-03-28T13:16:23Z</time></trkpt><trkpt lat="45.654340914323555" lon="8.841096591858577"><ele>257.0</ele><time>2026-03-28T13:16:24Z</time></trkpt><trkpt lat="45.65426343084016" lon="8.841107405154487"><ele>256.6666666666667</ele><time>2026-03-28T13:16:26Z</time></trkpt><trkpt lat="45.65416487451855" lon="8.841133562831414"><ele>256.33333333333337</ele><time>2026-03-28T13:16:28Z</time></trkpt><trkpt lat="45.65411867344418" lon="8.841199300943286"><ele>256.0</ele><time>2026-03-28T13:16:30Z</time></trkpt><trkpt lat="45.65416225699638" lon="8.841294258663007"><ele>255.66666666666669</ele><time>2026-03-28T13:16:33Z</time></trkpt><trkpt lat="45.6542554781539" lon="8.841290072009638"><ele>255.33333333333334</ele><time>2026-03-28T13:16:35Z</time></trkpt><trkpt lat="45.654322094333864" lon="8.84125940265324"><ele>255.0</ele><time>2026-03-28T13:16:36Z</time></trkpt><trkpt lat="45.65442725635847" lon="8.841207858576313"><ele>255.33333333333334</ele><time>2026-03-28T13:16:37.999Z</time></trkpt><trkpt lat="45.65451633382479" lon="8.841175103705643"><ele>255.66666666666669</ele><time>2026-03-28T13:16:38.999Z</time></trkpt><trkpt lat="45.65461310335627" lon="8.841138198703517"><ele>256.0</ele><time>2026-03-28T13:16:39.999Z</time></trkpt><trkpt lat="45.65467951479494" lon="8.84111417867395"><ele>256.33333333333337</ele><time>2026-03-28T13:16:40.999Z</time></trkpt><trkpt lat="45.654766777759775" lon="8.841070819906488"><ele>256.6666666666667</ele><time>2026-03-28T13:16:42.999Z</time></trkpt><trkpt lat="45.65481232251907" lon="8.8411883346342"><ele>257.0</ele><time>2026-03-28T13:16:45.999Z</time></trkpt><trkpt lat="45.654722934782725" lon="8.841272878950722"><ele>257.0</ele><time>2026-03-28T13:16:47.999Z</time></trkpt><trkpt lat="45.654640682202896" lon="8.841286500383234"><ele>257.0</ele><time>2026-03-28T13:16:48.999Z</time></trkpt><trkpt lat="45.6545408158017" lon="8.841308784203195"><ele>257.0</ele><time>2026-03-28T13:16:49.999Z</time></trkpt><trkpt lat="45.65441639968593" lon="8.84134165746653"><ele>257.0</ele><time>2026-03-28T13:16:51Z</time></trkpt><trkpt lat="45.654307827364036" lon="8.841377655895359"><ele>257.0</ele><time>2026-03-28T13:16:52Z</time></trkpt><trkpt lat="45.65419731869832" lon="8.84141393257175"><ele>256.6666666666667</ele><time>2026-03-28T13:16:53Z</time></trkpt><trkpt lat="45.654095927803475" lon="8.841449184374346"><ele>256.33333333333337</ele><time>2026-03-28T13:16:54Z</time></trkpt><trkpt lat="45.65400607021889" lon="8.84147552057904"><ele>256.0</ele><time>2026-03-28T13:16:55Z</time></trkpt><trkpt lat="45.65392681350225" lon="8.841499454398061"><ele>255.66666666666669</ele><time>2026-03-28T13:16:56Z</time></trkpt><trkpt lat="45.65386143462475" lon="8.841519389982578"><ele>255.33333333333334</ele><time>2026-03-28T13:16:57Z</time></trkpt><trkpt lat="45.65376249126605" lon="8.841507888647799"><ele>255.0</ele><time>2026-03-28T13:16:59Z</time></trkpt><trkpt lat="45.65370797544246" lon="8.841406334954183"><ele>255.0</ele><time>2026-03-28T13:17:01Z</time></trkpt><trkpt lat="45.65369605428195" lon="8.841198604756821"><ele>255.0</ele><time>2026-03-28T13:17:03Z</time></trkpt><trkpt lat="45.65368076960481" lon="8.841051657508409"><ele>255.0</ele><time>2026-03-28T13:17:04Z</time></trkpt><trkpt lat="45.65366834369048" lon="8.84090887524669"><ele>255.0</ele><time>2026-03-28T13:17:05Z</time></trkpt><trkpt lat="45.65367320159334" lon="8.840787465925937"><ele>255.0</ele><time>2026-03-28T13:17:06Z</time></trkpt><trkpt lat="45.65369373350076" lon="8.840671395431428"><ele>254.5</ele><time>2026-03-28T13:17:07Z</time></trkpt><trkpt lat="45.6537221279798" lon="8.840580010335806"><ele>254.0</ele><time>2026-03-28T13:17:08Z</time></trkpt><trkpt lat="45.65376131825867" lon="8.840505958861971"><ele>253.5</ele><time>2026-03-28T13:17:09Z</time></trkpt><trkpt lat="45.653819987612984" lon="8.840443101134758"><ele>253.0</ele><time>2026-03-28T13:17:10Z</time></trkpt><trkpt lat="45.653903579358946" lon="8.840388568704597"><ele>252.5</ele><time>2026-03-28T13:17:11Z</time></trkpt><trkpt lat="45.6540110222603" lon="8.840340668382405"><ele>252.0</ele><time>2026-03-28T13:17:12Z</time></trkpt><trkpt lat="45.65414189125391" lon="8.840315339636026"><ele>252.0</ele><time>2026-03-28T13:17:13Z</time></trkpt><trkpt lat="45.65427046286145" lon="8.840310357582576"><ele>252.0</ele><time>2026-03-28T13:17:14Z</time></trkpt><trkpt lat="45.65439871300892" lon="8.840315000686864"><ele>252.0</ele><time>2026-03-28T13:17:15Z</time></trkpt><trkpt lat="45.65451373357398" lon="8.840309540843055"><ele>252.0</ele><time>2026-03-28T13:17:16Z</time></trkpt><trkpt lat="45.65462891848988" lon="8.84029125781425"><ele>252.66666666666666</ele><time>2026-03-28T13:17:17Z</time></trkpt><trkpt lat="45.65473094297008" lon="8.84027183906802"><ele>253.33333333333331</ele><time>2026-03-28T13:17:18Z</time></trkpt><trkpt lat="45.65480870783333" lon="8.840257969782364"><ele>254.0</ele><time>2026-03-28T13:17:19Z</time></trkpt><trkpt lat="45.654900308004336" lon="8.840256531117756"><ele>254.66666666666666</ele><time>2026-03-28T13:17:21Z</time></trkpt><trkpt lat="45.6549618757942" lon="8.840295913269337"><ele>255.33333333333331</ele><time>2026-03-28T13:17:23Z</time></trkpt><trkpt lat="45.65498042440681" lon="8.840406861776247"><ele>256.0</ele><time>2026-03-28T13:17:25Z</time></trkpt><trkpt lat="45.65498042176053" lon="8.840504169238372"><ele>255.99999999999997</ele><time>2026-03-28T13:17:26Z</time></trkpt><trkpt lat="45.654936892180835" lon="8.840653284508374"><ele>256.0</ele><time>2026-03-28T13:17:28Z</time></trkpt><trkpt lat="45.654940724019674" lon="8.840753726358958"><ele>256.0</ele><time>2026-03-28T13:17:30Z</time></trkpt><trkpt lat="45.65502551267617" lon="8.840821494013323"><ele>256.0</ele><time>2026-03-28T13:17:32Z</time></trkpt><trkpt lat="45.6550758386542" lon="8.840922800581174"><ele>255.99999999999997</ele><time>2026-03-28T13:17:34Z</time></trkpt><trkpt lat="45.65504863843618" lon="8.841019441095176"><ele>256.0</ele><time>2026-03-28T13:17:36Z</time></trkpt><trkpt lat="45.6549747133689" lon="8.841044460843257"><ele>256.0</ele><time>2026-03-28T13:17:38Z</time></trkpt><trkpt lat="45.654917825159345" lon="8.840956412337112"><ele>256.0</ele><time>2026-03-28T13:17:40Z</time></trkpt><trkpt lat="45.65487981087596" lon="8.840760624172814"><ele>256.0</ele><time>2026-03-28T13:17:42Z</time></trkpt><trkpt lat="45.654841870766866" lon="8.840625517823034"><ele>256.0</ele><time>2026-03-28T13:17:43Z</time></trkpt><trkpt lat="45.6548126903131" lon="8.840516112565622"><ele>256.0</ele><time>2026-03-28T13:17:44Z</time></trkpt><trkpt lat="45.65475335848153" lon="8.840392049375149"><ele>256.0</ele><time>2026-03-28T13:17:46Z</time></trkpt><trkpt lat="45.65465217934746" lon="8.840348372354613"><ele>256.0</ele><time>2026-03-28T13:17:48Z</time></trkpt><trkpt lat="45.65457467680474" lon="8.84037548357075"><ele>256.0</ele><time>2026-03-28T13:17:49Z</time></trkpt><trkpt lat="45.65449103921946" lon="8.840416468988135"><ele>256.0</ele><time>2026-03-28T13:17:50Z</time></trkpt><trkpt lat="45.654424532119634" lon="8.840443691235839"><ele>256.0</ele><time>2026-03-28T13:17:51Z</time></trkpt><trkpt lat="45.654302774934685" lon="8.84047226107926"><ele>255.20000000000002</ele><time>2026-03-28T13:17:53Z</time></trkpt><trkpt lat="45.65419601543504" lon="8.840504148204648"><ele>254.40000000000003</ele><time>2026-03-28T13:17:54Z</time></trkpt><trkpt lat="45.654089398539" lon="8.840501634342404"><ele>253.6</ele><time>2026-03-28T13:17:55Z</time></trkpt><trkpt lat="45.65400619990828" lon="8.840505119409649"><ele>252.8</ele><time>2026-03-28T13:17:56Z</time></trkpt><trkpt lat="45.6538962432887" lon="8.840531589675654"><ele>252.0</ele><time>2026-03-28T13:17:58Z</time></trkpt><trkpt lat="45.65385712470205" lon="8.840608992005553"><ele>252.0</ele><time>2026-03-28T13:18:00Z</time></trkpt><trkpt lat="45.653882300921175" lon="8.840709444338081"><ele>252.0</ele><time>2026-03-28T13:18:02Z</time></trkpt><trkpt lat="45.653947115817964" lon="8.840717216216207"><ele>252.0</ele><time>2026-03-28T13:18:04Z</time></trkpt><trkpt lat="45.654011089435166" lon="8.840651431510304"><ele>252.0</ele><time>2026-03-28T13:18:06Z</time></trkpt><trkpt lat="45.65408568084347" lon="8.840593599409244"><ele>252.0</ele><time>2026-03-28T13:18:09Z</time></trkpt><trkpt lat="45.6541939110857" lon="8.84060841342365"><ele>252.0</ele><time>2026-03-28T13:18:11Z</time></trkpt><trkpt lat="45.654257945958996" lon="8.840627688297142"><ele>252.0</ele><time>2026-03-28T13:18:12Z</time></trkpt><trkpt lat="45.65436031076413" lon="8.840642340198713"><ele>252.0</ele><time>2026-03-28T13:18:14Z</time></trkpt><trkpt lat="45.65442901032896" lon="8.840585036322103"><ele>252.0</ele><time>2026-03-28T13:18:16Z</time></trkpt><trkpt lat="45.654500763627034" lon="8.840635146703399"><ele>252.0</ele><time>2026-03-28T13:18:19Z</time></trkpt><trkpt lat="45.654457343047106" lon="8.840726343338508"><ele>252.0</ele><time>2026-03-28T13:18:21Z</time></trkpt><trkpt lat="45.65434086160819" lon="8.840755511165117"><ele>252.0</ele><time>2026-03-28T13:18:23Z</time></trkpt><trkpt lat="45.65429450024619" lon="8.840886047339513"><ele>252.0</ele><time>2026-03-28T13:18:25Z</time></trkpt><trkpt lat="45.65432974657023" lon="8.840979240621882"><ele>252.0</ele><time>2026-03-28T13:18:28Z</time></trkpt><trkpt lat="45.65440054961447" lon="8.840916197164496"><ele>252.0</ele><time>2026-03-28T13:18:31Z</time></trkpt><trkpt lat="45.65446074005043" lon="8.840783296323993"><ele>252.0</ele><time>2026-03-28T13:18:33Z</time></trkpt><trkpt lat="45.6545455801135" lon="8.840764463553105"><ele>252.66666666666666</ele><time>2026-03-28T13:18:35Z</time></trkpt><trkpt lat="45.65457549749141" lon="8.840669170437547"><ele>253.33333333333331</ele><time>2026-03-28T13:18:37Z</time></trkpt><trkpt lat="45.654608199293435" lon="8.840531181269393"><ele>254.0</ele><time>2026-03-28T13:18:39Z</time></trkpt><trkpt lat="45.65468331518273" lon="8.840498401566707"><ele>254.66666666666666</ele><time>2026-03-28T13:18:41Z</time></trkpt><trkpt lat="45.65476457883422" lon="8.840604431712679"><ele>255.33333333333331</ele><time>2026-03-28T13:18:42.999Z</time></trkpt><trkpt lat="45.65480041789531" lon="8.840691113562865"><ele>256.0</ele><time>2026-03-28T13:18:43.999Z</time></trkpt><trkpt lat="45.654829608931635" lon="8.840783617336436"><ele>256.0</ele><time>2026-03-28T13:18:44.999Z</time></trkpt><trkpt lat="45.65487382794403" lon="8.840963603713302"><ele>256.0</ele><time>2026-03-28T13:18:46.999Z</time></trkpt><trkpt lat="45.6549004526859" lon="8.841045791017077"><ele>256.0</ele><time>2026-03-28T13:18:47.999Z</time></trkpt><trkpt lat="45.65488359268198" lon="8.841146243785992"><ele>256.0</ele><time>2026-03-28T13:18:50.999Z</time></trkpt><trkpt lat="45.65482323583825" lon="8.841105040661713"><ele>256.0</ele><time>2026-03-28T13:18:52.999Z</time></trkpt><trkpt lat="45.654771521364" lon="8.840937032034454"><ele>255.99999999999997</ele><time>2026-03-28T13:18:54.999Z</time></trkpt><trkpt lat="45.65470826132729" lon="8.840841262132829"><ele>256.0</ele><time>2026-03-28T13:18:56.999Z</time></trkpt><trkpt lat="45.65460791062731" lon="8.840835265888815"><ele>256.0</ele><time>2026-03-28T13:18:58.999Z</time></trkpt><trkpt lat="45.654544246797506" lon="8.840878694328941"><ele>256.0</ele><time>2026-03-28T13:18:59.999Z</time></trkpt><trkpt lat="45.65447822545105" lon="8.840931496203847"><ele>255.99999999999997</ele><time>2026-03-28T13:19:01.999Z</time></trkpt><trkpt lat="45.65452264285123" lon="8.841011390552381"><ele>256.0</ele><time>2026-03-28T13:19:05.999Z</time></trkpt><trkpt lat="45.65459781022251" lon="8.840984249431893"><ele>255.99999999999997</ele><time>2026-03-28T13:19:07.999Z</time></trkpt><trkpt lat="45.654644489742076" lon="8.840910957999647"><ele>256.0</ele><time>2026-03-28T13:19:08.999Z</time></trkpt><trkpt lat="45.65471245230113" lon="8.840913607584188"><ele>256.0</ele><time>2026-03-28T13:19:10.999Z</time></trkpt><trkpt lat="45.65471825612038" lon="8.841035749184138"><ele>256.0</ele><time>2026-03-28T13:19:13Z</time></trkpt><trkpt lat="45.65461442329524" lon="8.841081496090865"><ele>255.99999999999997</ele><time>2026-03-28T13:19:15Z</time></trkpt><trkpt lat="45.65453389251042" lon="8.841073543074204"><ele>256.0</ele><time>2026-03-28T13:19:16Z</time></trkpt><trkpt lat="45.654432383988684" lon="8.841072803436624"><ele>255.83333333333331</ele><time>2026-03-28T13:19:17Z</time></trkpt><trkpt lat="45.65433885509464" lon="8.841081809046441"><ele>255.66666666666666</ele><time>2026-03-28T13:19:18Z</time></trkpt><trkpt lat="45.65426668567771" lon="8.841093738435653"><ele>255.5</ele><time>2026-03-28T13:19:19Z</time></trkpt><trkpt lat="45.65416654277717" lon="8.841121549751325"><ele>255.33333333333331</ele><time>2026-03-28T13:19:21Z</time></trkpt><trkpt lat="45.65412268982908" lon="8.841187583538936"><ele>255.16666666666666</ele><time>2026-03-28T13:19:23Z</time></trkpt><trkpt lat="45.65416261293256" lon="8.841275831763223"><ele>255.0</ele><time>2026-03-28T13:19:26Z</time></trkpt><trkpt lat="45.65424629851859" lon="8.84127854621739"><ele>255.0</ele><time>2026-03-28T13:19:28Z</time></trkpt><trkpt lat="45.654324422971534" lon="8.841246769655644"><ele>255.0</ele><time>2026-03-28T13:19:29Z</time></trkpt><trkpt lat="45.654417375858294" lon="8.841201407501243"><ele>255.0</ele><time>2026-03-28T13:19:31Z</time></trkpt><trkpt lat="45.65449142748942" lon="8.841180226623306"><ele>255.0</ele><time>2026-03-28T13:19:32Z</time></trkpt><trkpt lat="45.65459177657727" lon="8.841139871559331"><ele>255.0</ele><time>2026-03-28T13:19:33Z</time></trkpt><trkpt lat="45.65466903569686" lon="8.841108129650392"><ele>255.0</ele><time>2026-03-28T13:19:34Z</time></trkpt><trkpt lat="45.65477216708291" lon="8.841060400379709"><ele>255.0</ele><time>2026-03-28T13:19:36Z</time></trkpt><trkpt lat="45.6548152532613" lon="8.841173464799951"><ele>255.0</ele><time>2026-03-28T13:19:39Z</time></trkpt><trkpt lat="45.65475308547897" lon="8.841254792728447"><ele>255.0</ele><time>2026-03-28T13:19:41Z</time></trkpt><trkpt lat="45.65468693802199" lon="8.84126753766444"><ele>255.0</ele><time>2026-03-28T13:19:42Z</time></trkpt><trkpt lat="45.65459607834792" lon="8.841284571041939"><ele>255.0</ele><time>2026-03-28T13:19:43Z</time></trkpt><trkpt lat="45.65448500594067" lon="8.841312028036361"><ele>255.0</ele><time>2026-03-28T13:19:44Z</time></trkpt><trkpt lat="45.6543567526712" lon="8.841346923717705"><ele>255.0</ele><time>2026-03-28T13:19:45Z</time></trkpt><trkpt lat="45.65424671238619" lon="8.841391050908346"><ele>255.0</ele><time>2026-03-28T13:19:46Z</time></trkpt><trkpt lat="45.654142288454175" lon="8.841430730607392"><ele>255.0</ele><time>2026-03-28T13:19:47Z</time></trkpt><trkpt lat="45.654040105032344" lon="8.841461410786236"><ele>255.0</ele><time>2026-03-28T13:19:48Z</time></trkpt><trkpt lat="45.65396372765483" lon="8.841483462069768"><ele>255.0</ele><time>2026-03-28T13:19:49Z</time></trkpt><trkpt lat="45.653900938019184" lon="8.84150206442047"><ele>255.0</ele><time>2026-03-28T13:19:50Z</time></trkpt><trkpt lat="45.65381270978056" lon="8.841516065355595"><ele>255.0</ele><time>2026-03-28T13:19:52Z</time></trkpt><trkpt lat="45.653730782539064" lon="8.8414575170462"><ele>255.0</ele><time>2026-03-28T13:19:54Z</time></trkpt><trkpt lat="45.65370979822197" lon="8.841293481519697"><ele>255.0</ele><time>2026-03-28T13:19:56Z</time></trkpt><trkpt lat="45.65370205757657" lon="8.841163801210705"><ele>255.0</ele><time>2026-03-28T13:19:57Z</time></trkpt><trkpt lat="45.65368707131151" lon="8.84101308656551"><ele>254.4</ele><time>2026-03-28T13:19:58Z</time></trkpt><trkpt lat="45.65368211119455" lon="8.840878562737414"><ele>253.8</ele><time>2026-03-28T13:19:59Z</time></trkpt><trkpt lat="45.65369412677985" lon="8.840745424290182"><ele>253.2</ele><time>2026-03-28T13:20:00Z</time></trkpt><trkpt lat="45.65372261761015" lon="8.840624006521256"><ele>252.6</ele><time>2026-03-28T13:20:01Z</time></trkpt><trkpt lat="45.65377172285036" lon="8.840531728624072"><ele>252.0</ele><time>2026-03-28T13:20:02Z</time></trkpt><trkpt lat="45.653846218192406" lon="8.840449873585042"><ele>252.0</ele><time>2026-03-28T13:20:03Z</time></trkpt><trkpt lat="45.65393469384069" lon="8.84038504451701"><ele>252.0</ele><time>2026-03-28T13:20:04Z</time></trkpt><trkpt lat="45.65403192312382" lon="8.840344669379789"><ele>252.0</ele><time>2026-03-28T13:20:05Z</time></trkpt><trkpt lat="45.654142322851584" lon="8.840323506773215"><ele>252.0</ele><time>2026-03-28T13:20:06Z</time></trkpt><trkpt lat="45.65426030741277" lon="8.840319991415548"><ele>252.0</ele><time>2026-03-28T13:20:07Z</time></trkpt><trkpt lat="45.65438592921742" lon="8.840320301351232"><ele>252.8</ele><time>2026-03-28T13:20:08Z</time></trkpt><trkpt lat="45.65449915219394" lon="8.840320074915372"><ele>253.6</ele><time>2026-03-28T13:20:09Z</time></trkpt><trkpt lat="45.65460316345249" lon="8.840299383962535"><ele>254.40000000000003</ele><time>2026-03-28T13:20:10Z</time></trkpt><trkpt lat="45.654696542392095" lon="8.840281244945123"><ele>255.20000000000002</ele><time>2026-03-28T13:20:11Z</time></trkpt><trkpt lat="45.65477910342317" lon="8.840273359118013"><ele>256.0</ele><time>2026-03-28T13:20:12Z</time></trkpt><trkpt lat="45.654848109833964" lon="8.840267347517505"><ele>255.99999999999997</ele><time>2026-03-28T13:20:13Z</time></trkpt><trkpt lat="45.65491586867808" lon="8.840267149353682"><ele>256.0</ele><time>2026-03-28T13:20:15Z</time></trkpt><trkpt lat="45.65497307626776" lon="8.84034222058197"><ele>256.0</ele><time>2026-03-28T13:20:17Z</time></trkpt><trkpt lat="45.65497283225866" lon="8.84048339028721"><ele>256.0</ele><time>2026-03-28T13:20:19Z</time></trkpt><trkpt lat="45.6549675736354" lon="8.840575821368956"><ele>255.99999999999997</ele><time>2026-03-28T13:20:20Z</time></trkpt><trkpt lat="45.654930601444185" lon="8.840669910894292"><ele>256.0</ele><time>2026-03-28T13:20:22Z</time></trkpt><trkpt lat="45.65495845816523" lon="8.84077383353866"><ele>256.0</ele><time>2026-03-28T13:20:24Z</time></trkpt><trkpt lat="45.655050310117836" lon="8.84084364739079"><ele>256.0</ele><time>2026-03-28T13:20:26Z</time></trkpt><trkpt lat="45.655073672398984" lon="8.84096356907666"><ele>256.0</ele><time>2026-03-28T13:20:28Z</time></trkpt><trkpt lat="45.655016281544825" lon="8.841046668149724"><ele>256.0</ele><time>2026-03-28T13:20:30Z</time></trkpt><trkpt lat="45.65494688741311" lon="8.841011893512055"><ele>256.0</ele><time>2026-03-28T13:20:32Z</time></trkpt><trkpt lat="45.654897392938835" lon="8.840855815888903"><ele>256.0</ele><time>2026-03-28T13:20:34Z</time></trkpt><trkpt lat="45.654864768260474" lon="8.840718054665205"><ele>256.0</ele><time>2026-03-28T13:20:35Z</time></trkpt><trkpt lat="45.65484544864522" lon="8.840610912014855"><ele>256.0</ele><time>2026-03-28T13:20:36Z</time></trkpt><trkpt lat="45.65479845677889" lon="8.840464812103935"><ele>256.0</ele><time>2026-03-28T13:20:38Z</time></trkpt><trkpt lat="45.65474593097251" lon="8.84038616913828"><ele>256.0</ele><time>2026-03-28T13:20:40Z</time></trkpt><trkpt lat="45.654650957316115" lon="8.84035745342451"><ele>255.99999999999997</ele><time>2026-03-28T13:20:42Z</time></trkpt><trkpt lat="45.654583398937284" lon="8.840375183741408"><ele>256.0</ele><time>2026-03-28T13:20:43Z</time></trkpt><trkpt lat="45.65450040733206" lon="8.84041219824411"><ele>256.0</ele><time>2026-03-28T13:20:44Z</time></trkpt><trkpt lat="45.65442966746999" lon="8.840439768398246"><ele>256.0</ele><time>2026-03-28T13:20:45Z</time></trkpt><trkpt lat="45.654312989686936" lon="8.840468215648341"><ele>255.99999999999997</ele><time>2026-03-28T13:20:47Z</time></trkpt><trkpt lat="45.65421526474793" lon="8.840495145946099"><ele>256.0</ele><time>2026-03-28T13:20:47.999Z</time></trkpt><trkpt lat="45.65410894559188" lon="8.840506564644606"><ele>255.33333333333331</ele><time>2026-03-28T13:20:48.999Z</time></trkpt><trkpt lat="45.65402503621005" lon="8.840510171378567"><ele>254.66666666666666</ele><time>2026-03-28T13:20:49.999Z</time></trkpt><trkpt lat="45.65395531581785" lon="8.840517697712897"><ele>254.0</ele><time>2026-03-28T13:20:50.999Z</time></trkpt><trkpt lat="45.65387184866997" lon="8.840554242079218"><ele>253.33333333333331</ele><time>2026-03-28T13:20:52.999Z</time></trkpt><trkpt lat="45.653845828642424" lon="8.840661263666696"><ele>252.66666666666666</ele><time>2026-03-28T13:20:54.999Z</time></trkpt><trkpt lat="45.65390638874469" lon="8.840727208603525"><ele>252.0</ele><time>2026-03-28T13:20:56.999Z</time></trkpt><trkpt lat="45.65398845194911" lon="8.840688515385704"><ele>252.0</ele><time>2026-03-28T13:20:58.999Z</time></trkpt><trkpt lat="45.654070227535165" lon="8.840596413195945"><ele>252.0</ele><time>2026-03-28T13:21:00.999Z</time></trkpt><trkpt lat="45.654177371576395" lon="8.840606577801644"><ele>252.0</ele><time>2026-03-28T13:21:02.999Z</time></trkpt><trkpt lat="45.654278966889024" lon="8.840648596446398"><ele>252.0</ele><time>2026-03-28T13:21:04.999Z</time></trkpt><trkpt lat="45.654381074493145" lon="8.840634459916728"><ele>252.0</ele><time>2026-03-28T13:21:06.999Z</time></trkpt><trkpt lat="45.65445973676642" lon="8.840574680983064"><ele>252.0</ele><time>2026-03-28T13:21:08.999Z</time></trkpt><trkpt lat="45.65449560500541" lon="8.840686651478677"><ele>252.0</ele><time>2026-03-28T13:21:12Z</time></trkpt><trkpt lat="45.65441077377185" lon="8.840743649166821"><ele>252.0</ele><time>2026-03-28T13:21:14Z</time></trkpt><trkpt lat="45.65432602416596" lon="8.840784820539342"><ele>252.0</ele><time>2026-03-28T13:21:16Z</time></trkpt><trkpt lat="45.65429638118618" lon="8.84092775347253"><ele>252.0</ele><time>2026-03-28T13:21:18Z</time></trkpt><trkpt lat="45.65435258958326" lon="8.840973970561294"><ele>252.0</ele><time>2026-03-28T13:21:22Z</time></trkpt><trkpt lat="45.654431472689865" lon="8.84083613949663"><ele>252.66666666666666</ele><time>2026-03-28T13:21:25Z</time></trkpt><trkpt lat="45.65451161763213" lon="8.840778101152317"><ele>253.33333333333331</ele><time>2026-03-28T13:21:27Z</time></trkpt><trkpt lat="45.654571204600316" lon="8.840714927748838"><ele>254.0</ele><time>2026-03-28T13:21:29Z</time></trkpt><trkpt lat="45.654588144979996" lon="8.840583754135631"><ele>254.66666666666666</ele><time>2026-03-28T13:21:31Z</time></trkpt><trkpt lat="45.65464988291212" lon="8.840487397837624"><ele>255.33333333333331</ele><time>2026-03-28T13:21:33Z</time></trkpt><trkpt lat="45.654732608681535" lon="8.840545753180228"><ele>256.0</ele><time>2026-03-28T13:21:35Z</time></trkpt><trkpt lat="45.65477601622051" lon="8.840623274852687"><ele>256.0</ele><time>2026-03-28T13:21:36Z</time></trkpt><trkpt lat="45.65481581921988" lon="8.840722190601122"><ele>256.0</ele><time>2026-03-28T13:21:37Z</time></trkpt><trkpt lat="45.65484506300884" lon="8.84082066495151"><ele>256.0</ele><time>2026-03-28T13:21:38Z</time></trkpt><trkpt lat="45.654895633583884" lon="8.841011650244388"><ele>256.0</ele><time>2026-03-28T13:21:40Z</time></trkpt><trkpt lat="45.654917928004856" lon="8.841112241162802"><ele>256.0</ele><time>2026-03-28T13:21:42Z</time></trkpt><trkpt lat="45.65483096981996" lon="8.841114884010297"><ele>256.0</ele><time>2026-03-28T13:21:45Z</time></trkpt><trkpt lat="45.65477477282691" lon="8.840948100299494"><ele>256.0</ele><time>2026-03-28T13:21:47Z</time></trkpt><trkpt lat="45.65471105582052" lon="8.840837594332122"><ele>256.0</ele><time>2026-03-28T13:21:49Z</time></trkpt><trkpt lat="45.65461344896705" lon="8.840830631662783"><ele>256.0</ele><time>2026-03-28T13:21:51Z</time></trkpt><trkpt lat="45.6545522047655" lon="8.840870031752125"><ele>256.0</ele><time>2026-03-28T13:21:52Z</time></trkpt><trkpt lat="45.65447485403161" lon="8.840933233860799"><ele>255.99999999999997</ele><time>2026-03-28T13:21:54Z</time></trkpt><trkpt lat="45.65452431282847" lon="8.841014988110498"><ele>256.0</ele><time>2026-03-28T13:22:00Z</time></trkpt><trkpt lat="45.65460305417257" lon="8.840967948570228"><ele>256.0</ele><time>2026-03-28T13:22:04Z</time></trkpt><trkpt lat="45.65467890492183" lon="8.840884955228637"><ele>256.0</ele><time>2026-03-28T13:22:06Z</time></trkpt><trkpt lat="45.65472650792276" lon="8.840979198147792"><ele>255.99999999999997</ele><time>2026-03-28T13:22:08Z</time></trkpt><trkpt lat="45.654677226857736" lon="8.84107654090606"><ele>256.0</ele><time>2026-03-28T13:22:10Z</time></trkpt><trkpt lat="45.654545731333485" lon="8.841074783767093"><ele>255.8</ele><time>2026-03-28T13:22:12Z</time></trkpt><trkpt lat="45.654447398003114" lon="8.841075681271196"><ele>255.60000000000002</ele><time>2026-03-28T13:22:13Z</time></trkpt><trkpt lat="45.65434257343182" lon="8.84108433817768"><ele>255.4</ele><time>2026-03-28T13:22:14Z</time></trkpt><trkpt lat="45.65425827810545" lon="8.841099709665064"><ele>255.2</ele><time>2026-03-28T13:22:15Z</time></trkpt><trkpt lat="45.65415607544017" lon="8.841128039553066"><ele>255.0</ele><time>2026-03-28T13:22:17Z</time></trkpt><trkpt lat="45.6541173411958" lon="8.841220533173265"><ele>255.0</ele><time>2026-03-28T13:22:20Z</time></trkpt><trkpt lat="45.65418416084199" lon="8.84128323181932"><ele>255.0</ele><time>2026-03-28T13:22:31Z</time></trkpt><trkpt lat="45.65428925444439" lon="8.841269517668477"><ele>255.0</ele><time>2026-03-28T13:22:33Z</time></trkpt><trkpt lat="45.654376974685526" lon="8.841241366775524"><ele>255.0</ele><time>2026-03-28T13:22:35Z</time></trkpt><trkpt lat="45.65443765148569" lon="8.84121032775612"><ele>255.0</ele><time>2026-03-28T13:22:36Z</time></trkpt><trkpt lat="45.654532435238934" lon="8.841175359207183"><ele>255.0</ele><time>2026-03-28T13:22:37Z</time></trkpt><trkpt lat="45.654618087429355" lon="8.841137422604207"><ele>255.4</ele><time>2026-03-28T13:22:38Z</time></trkpt><trkpt lat="45.654680363320715" lon="8.841109061608378"><ele>255.8</ele><time>2026-03-28T13:22:39Z</time></trkpt><trkpt lat="45.65477921453669" lon="8.841067071328961"><ele>256.2</ele><time>2026-03-28T13:22:41Z</time></trkpt><trkpt lat="45.654811852875824" lon="8.841196594305398"><ele>256.6</ele><time>2026-03-28T13:22:44Z</time></trkpt><trkpt lat="45.65472333515627" lon="8.841276393166371"><ele>257.0</ele><time>2026-03-28T13:22:46Z</time></trkpt><trkpt lat="45.65464207913576" lon="8.841280652811275"><ele>257.0</ele><time>2026-03-28T13:22:47Z</time></trkpt><trkpt lat="45.65452681335772" lon="8.84130218428989"><ele>257.0</ele><time>2026-03-28T13:22:48Z</time></trkpt><trkpt lat="45.654395871612394" lon="8.841344807332904"><ele>257.0</ele><time>2026-03-28T13:22:49Z</time></trkpt><trkpt lat="45.65427759859976" lon="8.841391308190975"><ele>257.0</ele><time>2026-03-28T13:22:50Z</time></trkpt><trkpt lat="45.65417016023792" lon="8.841424790812306"><ele>256.6</ele><time>2026-03-28T13:22:51Z</time></trkpt><trkpt lat="45.65407189064811" lon="8.841453186813062"><ele>256.2</ele><time>2026-03-28T13:22:52Z</time></trkpt><trkpt lat="45.65398710741619" lon="8.841477470369789"><ele>255.8</ele><time>2026-03-28T13:22:53Z</time></trkpt><trkpt lat="45.65391878150659" lon="8.841499150394434"><ele>255.4</ele><time>2026-03-28T13:22:53.999Z</time></trkpt><trkpt lat="45.6538100241286" lon="8.841520385988655"><ele>255.0</ele><time>2026-03-28T13:22:55.999Z</time></trkpt><trkpt lat="45.653729220928355" lon="8.84145507632903"><ele>255.0</ele><time>2026-03-28T13:22:57.999Z</time></trkpt><trkpt lat="45.65370185790829" lon="8.84127416264305"><ele>255.0</ele><time>2026-03-28T13:23:00Z</time></trkpt><trkpt lat="45.65369792933419" lon="8.841143509277414"><ele>255.0</ele><time>2026-03-28T13:23:01Z</time></trkpt><trkpt lat="45.65368816175305" lon="8.840991042446252"><ele>255.0</ele><time>2026-03-28T13:23:02Z</time></trkpt><trkpt lat="45.6536839833972" lon="8.840841959920667"><ele>255.0</ele><time>2026-03-28T13:23:03Z</time></trkpt><trkpt lat="45.65369653278968" lon="8.840702024534176"><ele>254.4</ele><time>2026-03-28T13:23:04Z</time></trkpt><trkpt lat="45.65372750169265" lon="8.840582213288785"><ele>253.8</ele><time>2026-03-28T13:23:05Z</time></trkpt><trkpt lat="45.65377987615893" lon="8.840495399857678"><ele>253.2</ele><time>2026-03-28T13:23:06Z</time></trkpt><trkpt lat="45.65386571464077" lon="8.840424587187279"><ele>252.6</ele><time>2026-03-28T13:23:07Z</time></trkpt><trkpt lat="45.6539572578977" lon="8.84036383302611"><ele>252.0</ele><time>2026-03-28T13:23:08Z</time></trkpt><trkpt lat="45.654067101721374" lon="8.84032985157693"><ele>252.0</ele><time>2026-03-28T13:23:09Z</time></trkpt><trkpt lat="45.654184895477265" lon="8.840309125759957"><ele>252.0</ele><time>2026-03-28T13:23:10Z</time></trkpt><trkpt lat="45.65430812445656" lon="8.840312766479567"><ele>252.0</ele><time>2026-03-28T13:23:11Z</time></trkpt><trkpt lat="45.65442370730616" lon="8.840316774323696"><ele>252.0</ele><time>2026-03-28T13:23:12Z</time></trkpt><trkpt lat="45.65453891291446" lon="8.840310374521449"><ele>252.66666666666666</ele><time>2026-03-28T13:23:13Z</time></trkpt><trkpt lat="45.65464123484692" lon="8.840285289457158"><ele>253.33333333333331</ele><time>2026-03-28T13:23:14Z</time></trkpt><trkpt lat="45.65472968960778" lon="8.840273095252742"><ele>254.0</ele><time>2026-03-28T13:23:15Z</time></trkpt><trkpt lat="45.65479946513596" lon="8.840265572870978"><ele>254.66666666666666</ele><time>2026-03-28T13:23:16Z</time></trkpt><trkpt lat="45.65486605980432" lon="8.840257581096287"><ele>255.33333333333331</ele><time>2026-03-28T13:23:17Z</time></trkpt><trkpt lat="45.65493120809879" lon="8.840266493223682"><ele>256.0</ele><time>2026-03-28T13:23:19Z</time></trkpt><trkpt lat="45.65497427487767" lon="8.840356998404976"><ele>256.0</ele><time>2026-03-28T13:23:21Z</time></trkpt><trkpt lat="45.65498299565579" lon="8.84052393117666"><ele>256.0</ele><time>2026-03-28T13:23:23Z</time></trkpt><trkpt lat="45.65494063329059" lon="8.840648953812247"><ele>256.0</ele><time>2026-03-28T13:23:25Z</time></trkpt><trkpt lat="45.654943548479174" lon="8.840755986126018"><ele>256.0</ele><time>2026-03-28T13:23:27Z</time></trkpt><trkpt lat="45.655032583742404" lon="8.840832054890651"><ele>256.0</ele><time>2026-03-28T13:23:29Z</time></trkpt><trkpt lat="45.65507269887087" lon="8.840929089008315"><ele>256.0</ele><time>2026-03-28T13:23:31Z</time></trkpt><trkpt lat="45.65503405439947" lon="8.841025851869473"><ele>256.0</ele><time>2026-03-28T13:23:33Z</time></trkpt><trkpt lat="45.65495032840996" lon="8.841032671960612"><ele>256.0</ele><time>2026-03-28T13:23:35Z</time></trkpt><trkpt lat="45.654898957761716" lon="8.840900754447874"><ele>256.0</ele><time>2026-03-28T13:23:37Z</time></trkpt><trkpt lat="45.65487750105228" lon="8.840781754834667"><ele>256.0</ele><time>2026-03-28T13:23:38Z</time></trkpt><trkpt lat="45.65484575623456" lon="8.840649529673335"><ele>255.99999999999997</ele><time>2026-03-28T13:23:39Z</time></trkpt><trkpt lat="45.65481906657666" lon="8.84055219629399"><ele>256.0</ele><time>2026-03-28T13:23:40Z</time></trkpt><trkpt lat="45.65479028433957" lon="8.840468795408986"><ele>256.0</ele><time>2026-03-28T13:23:41Z</time></trkpt><trkpt lat="45.65471979165318" lon="8.840370148622263"><ele>256.0</ele><time>2026-03-28T13:23:43Z</time></trkpt><trkpt lat="45.65460005149392" lon="8.840374776299344"><ele>255.99999999999997</ele><time>2026-03-28T13:23:45Z</time></trkpt><trkpt lat="45.65451332298517" lon="8.840412731208259"><ele>256.0</ele><time>2026-03-28T13:23:46Z</time></trkpt><trkpt lat="45.654433725616016" lon="8.840443736652947"><ele>255.20000000000002</ele><time>2026-03-28T13:23:47Z</time></trkpt><trkpt lat="45.65432097063042" lon="8.840472963955362"><ele>254.40000000000003</ele><time>2026-03-28T13:23:49Z</time></trkpt><trkpt lat="45.654224632345" lon="8.840499042315809"><ele>253.6</ele><time>2026-03-28T13:23:50Z</time></trkpt><trkpt lat="45.654113106980645" lon="8.840508744611444"><ele>252.8</ele><time>2026-03-28T13:23:51Z</time></trkpt><trkpt lat="45.65401112717528" lon="8.840518801994017"><ele>252.0</ele><time>2026-03-28T13:23:52Z</time></trkpt><trkpt lat="45.653944647443474" lon="8.840522927792545"><ele>252.0</ele><time>2026-03-28T13:23:53Z</time></trkpt><trkpt lat="45.65387002246701" lon="8.840559510019517"><ele>252.0</ele><time>2026-03-28T13:23:55Z</time></trkpt><trkpt lat="45.65385915929924" lon="8.840668853340437"><ele>252.0</ele><time>2026-03-28T13:23:57Z</time></trkpt><trkpt lat="45.653911293526534" lon="8.840736575107158"><ele>252.0</ele><time>2026-03-28T13:23:59Z</time></trkpt><trkpt lat="45.653981854579236" lon="8.840692595701885"><ele>252.0</ele><time>2026-03-28T13:24:02Z</time></trkpt><trkpt lat="45.65405907600108" lon="8.840601068158463"><ele>252.0</ele><time>2026-03-28T13:24:06Z</time></trkpt><trkpt lat="45.654173711033046" lon="8.84060152152195"><ele>252.0</ele><time>2026-03-28T13:24:08Z</time></trkpt><trkpt lat="45.654283272939196" lon="8.84060158372529"><ele>252.0</ele><time>2026-03-28T13:24:10Z</time></trkpt><trkpt lat="45.654383960316956" lon="8.840581591083955"><ele>252.0</ele><time>2026-03-28T13:24:12Z</time></trkpt><trkpt lat="45.65448369670812" lon="8.840589136692243"><ele>252.0</ele><time>2026-03-28T13:24:14Z</time></trkpt><trkpt lat="45.654483283645675" lon="8.840713857923646"><ele>252.0</ele><time>2026-03-28T13:24:17Z</time></trkpt><trkpt lat="45.65439672789674" lon="8.840735514833215"><ele>252.0</ele><time>2026-03-28T13:24:19Z</time></trkpt><trkpt lat="45.65431525432286" lon="8.840799194033037"><ele>252.0</ele><time>2026-03-28T13:24:21Z</time></trkpt><trkpt lat="45.65430028655157" lon="8.840938029918236"><ele>252.0</ele><time>2026-03-28T13:24:23Z</time></trkpt><trkpt lat="45.65437744706078" lon="8.840958348170139"><ele>252.0</ele><time>2026-03-28T13:24:27Z</time></trkpt><trkpt lat="45.654436716000056" lon="8.840809482805046"><ele>252.0</ele><time>2026-03-28T13:24:30Z</time></trkpt><trkpt lat="45.6545252197514" lon="8.84077719335987"><ele>252.66666666666666</ele><time>2026-03-28T13:24:32Z</time></trkpt><trkpt lat="45.654572937534176" lon="8.840701412667883"><ele>253.33333333333331</ele><time>2026-03-28T13:24:34Z</time></trkpt><trkpt lat="45.65459124402085" lon="8.840571130387387"><ele>254.0</ele><time>2026-03-28T13:24:36Z</time></trkpt><trkpt lat="45.654651347532926" lon="8.840492446435915"><ele>254.66666666666666</ele><time>2026-03-28T13:24:38Z</time></trkpt><trkpt lat="45.65473452167836" lon="8.840553471369772"><ele>255.33333333333331</ele><time>2026-03-28T13:24:40Z</time></trkpt><trkpt lat="45.654777590424864" lon="8.840629889170932"><ele>256.0</ele><time>2026-03-28T13:24:41Z</time></trkpt><trkpt lat="45.65481999107713" lon="8.840728331500577"><ele>256.0</ele><time>2026-03-28T13:24:42Z</time></trkpt><trkpt lat="45.65484975231847" lon="8.840829781191134"><ele>256.0</ele><time>2026-03-28T13:24:43Z</time></trkpt><trkpt lat="45.65488896314546" lon="8.840997061706254"><ele>256.0</ele><time>2026-03-28T13:24:45Z</time></trkpt><trkpt lat="45.654916550165886" lon="8.841111948229525"><ele>256.0</ele><time>2026-03-28T13:24:47Z</time></trkpt><trkpt lat="45.65483308553914" lon="8.841116466262754"><ele>256.0</ele><time>2026-03-28T13:24:50Z</time></trkpt><trkpt lat="45.65477483439936" lon="8.840969341807652"><ele>255.99999999999997</ele><time>2026-03-28T13:24:52Z</time></trkpt><trkpt lat="45.65474683240912" lon="8.840888224103232"><ele>256.0</ele><time>2026-03-28T13:24:53Z</time></trkpt><trkpt lat="45.65467570167606" lon="8.840824564558032"><ele>256.0</ele><time>2026-03-28T13:24:55Z</time></trkpt><trkpt lat="45.65456495889557" lon="8.840859425734946"><ele>256.0</ele><time>2026-03-28T13:24:57Z</time></trkpt><trkpt lat="45.65449959802033" lon="8.840901959044642"><ele>255.99999999999997</ele><time>2026-03-28T13:24:58Z</time></trkpt><trkpt lat="45.65447839491751" lon="8.840988575663735"><ele>256.0</ele><time>2026-03-28T13:25:02Z</time></trkpt><trkpt lat="45.65453815264184" lon="8.841022088360292"><ele>256.0</ele><time>2026-03-28T13:25:05Z</time></trkpt><trkpt lat="45.65462654030825" lon="8.840929527190598"><ele>256.0</ele><time>2026-03-28T13:25:07Z</time></trkpt><trkpt lat="45.65469783640522" lon="8.840895021206041"><ele>256.0</ele><time>2026-03-28T13:25:09Z</time></trkpt><trkpt lat="45.65472585553204" lon="8.841005453845911"><ele>256.0</ele><time>2026-03-28T13:25:11Z</time></trkpt><trkpt lat="45.65466007517151" lon="8.841075993218878"><ele>256.0</ele><time>2026-03-28T13:25:13Z</time></trkpt><trkpt lat="45.65451419792566" lon="8.841072099425253"><ele>255.83333333333331</ele><time>2026-03-28T13:25:15Z</time></trkpt><trkpt lat="45.65441481660068" lon="8.841078195919824"><ele>255.66666666666666</ele><time>2026-03-28T13:25:16Z</time></trkpt><trkpt lat="45.654322696109396" lon="8.841088638552538"><ele>255.5</ele><time>2026-03-28T13:25:17Z</time></trkpt><trkpt lat="45.654258161393194" lon="8.841097373457021"><ele>255.33333333333331</ele><time>2026-03-28T13:25:18Z</time></trkpt><trkpt lat="45.65419451348918" lon="8.84111034074787"><ele>255.16666666666666</ele><time>2026-03-28T13:25:19Z</time></trkpt><trkpt lat="45.65412997287816" lon="8.841154619880843"><ele>255.0</ele><time>2026-03-28T13:25:21Z</time></trkpt><trkpt lat="45.65414245931143" lon="8.841270174781982"><ele>255.0</ele><time>2026-03-28T13:25:24Z</time></trkpt><trkpt lat="45.6542114598324" lon="8.841295653053283"><ele>255.0</ele><time>2026-03-28T13:25:26Z</time></trkpt><trkpt lat="45.65428724026279" lon="8.841276754562221"><ele>255.0</ele><time>2026-03-28T13:25:27Z</time></trkpt><trkpt lat="45.65435685218663" lon="8.841244532313066"><ele>255.0</ele><time>2026-03-28T13:25:28Z</time></trkpt><trkpt lat="45.65447934345149" lon="8.841192385524938"><ele>255.0</ele><time>2026-03-28T13:25:30Z</time></trkpt><trkpt lat="45.654562396835345" lon="8.84116681905479"><ele>255.0</ele><time>2026-03-28T13:25:31Z</time></trkpt><trkpt lat="45.654642279447955" lon="8.841126696137358"><ele>255.33333333333334</ele><time>2026-03-28T13:25:32Z</time></trkpt><trkpt lat="45.65470642080504" lon="8.841096540308843"><ele>255.66666666666669</ele><time>2026-03-28T13:25:33Z</time></trkpt><trkpt lat="45.65478731265035" lon="8.841075983404556"><ele>256.0</ele><time>2026-03-28T13:25:35Z</time></trkpt><trkpt lat="45.6548186430455" lon="8.84115742474287"><ele>256.33333333333337</ele><time>2026-03-28T13:25:37Z</time></trkpt><trkpt lat="45.65476192615481" lon="8.84126842430434"><ele>256.6666666666667</ele><time>2026-03-28T13:25:39Z</time></trkpt><trkpt lat="45.65469313367885" lon="8.841282431553301"><ele>257.0</ele><time>2026-03-28T13:25:40Z</time></trkpt><trkpt lat="45.65458873308744" lon="8.84129632526257"><ele>256.5</ele><time>2026-03-28T13:25:41Z</time></trkpt><trkpt lat="45.654449463635565" lon="8.841333092782483"><ele>256.0</ele><time>2026-03-28T13:25:42Z</time></trkpt><trkpt lat="45.65432687534524" lon="8.841370076575261"><ele>255.5</ele><time>2026-03-28T13:25:43Z</time></trkpt><trkpt lat="45.654210450050165" lon="8.841415630942976"><ele>255.0</ele><time>2026-03-28T13:25:44Z</time></trkpt><trkpt lat="45.65410702324789" lon="8.841450358217955"><ele>255.0</ele><time>2026-03-28T13:25:45Z</time></trkpt><trkpt lat="45.654014151314286" lon="8.841476765748828"><ele>255.0</ele><time>2026-03-28T13:25:46Z</time></trkpt><trkpt lat="45.65393650014988" lon="8.841495729891607"><ele>255.0</ele><time>2026-03-28T13:25:47Z</time></trkpt><trkpt lat="45.65381721869107" lon="8.841518202180088"><ele>255.0</ele><time>2026-03-28T13:25:49Z</time></trkpt><trkpt lat="45.65373881515258" lon="8.841476300556556"><ele>255.0</ele><time>2026-03-28T13:25:51Z</time></trkpt><trkpt lat="45.65370781812607" lon="8.841317038278099"><ele>255.0</ele><time>2026-03-28T13:25:53Z</time></trkpt><trkpt lat="45.65370643756828" lon="8.841214298338915"><ele>255.0</ele><time>2026-03-28T13:25:54Z</time></trkpt><trkpt lat="45.65369713525957" lon="8.841115581510604"><ele>255.0</ele><time>2026-03-28T13:25:55Z</time></trkpt><trkpt lat="45.653679583412696" lon="8.841021959642315"><ele>255.0</ele><time>2026-03-28T13:25:56Z</time></trkpt><trkpt lat="45.653662984786195" lon="8.840906122027572"><ele>252.0</ele><time>2026-03-28T13:25:58Z</time></trkpt></trkseg><trkseg><trkpt lat="45.65365973436238" lon="8.840660467839985"><ele>252.0</ele><time>2026-03-28T13:39:37.999Z</time></trkpt><trkpt lat="45.65375361843821" lon="8.840540460033095"><ele>252.0</ele><time>2026-03-28T13:39:44Z</time></trkpt><trkpt lat="45.65382408557126" lon="8.840472221434087"><ele>252.0</ele><time>2026-03-28T13:39:45Z</time></trkpt><trkpt lat="45.65389721742279" lon="8.840408930214478"><ele>252.0</ele><time>2026-03-28T13:39:46Z</time></trkpt><trkpt lat="45.65397785506" lon="8.840348029733963"><ele>252.0</ele><time>2026-03-28T13:39:47Z</time></trkpt><trkpt lat="45.654071918378826" lon="8.840294070244045"><ele>252.0</ele><time>2026-03-28T13:39:48Z</time></trkpt><trkpt lat="45.6541821678043" lon="8.840305836592764"><ele>252.0</ele><time>2026-03-28T13:39:49Z</time></trkpt><trkpt lat="45.65429506849439" lon="8.840311969069372"><ele>252.0</ele><time>2026-03-28T13:39:50Z</time></trkpt><trkpt lat="45.65440023233724" lon="8.840317344309007"><ele>252.0</ele><time>2026-03-28T13:39:51Z</time></trkpt><trkpt lat="45.65449201787166" lon="8.840313816687104"><ele>252.0</ele><time>2026-03-28T13:39:52Z</time></trkpt><trkpt lat="45.654586476863486" lon="8.840295141016627"><ele>252.66666666666666</ele><time>2026-03-28T13:39:53Z</time></trkpt><trkpt lat="45.65466626056936" lon="8.840278626147828"><ele>253.33333333333331</ele><time>2026-03-28T13:39:54Z</time></trkpt><trkpt lat="45.65473760956732" lon="8.8402690237562"><ele>254.0</ele><time>2026-03-28T13:39:55Z</time></trkpt><trkpt lat="45.65480931276055" lon="8.840265217880276"><ele>254.66666666666666</ele><time>2026-03-28T13:39:56Z</time></trkpt><trkpt lat="45.65490077592245" lon="8.840262107725671"><ele>255.33333333333331</ele><time>2026-03-28T13:39:58Z</time></trkpt><trkpt lat="45.65496357751765" lon="8.840312855768657"><ele>256.0</ele><time>2026-03-28T13:40:00Z</time></trkpt><trkpt lat="45.6549763676712" lon="8.84042047325038"><ele>256.0</ele><time>2026-03-28T13:40:02Z</time></trkpt><trkpt lat="45.65496653449619" lon="8.840581520252481"><ele>256.0</ele><time>2026-03-28T13:40:04Z</time></trkpt><trkpt lat="45.6549244900169" lon="8.840705818023025"><ele>256.0</ele><time>2026-03-28T13:40:06Z</time></trkpt><trkpt lat="45.65496155374231" lon="8.840782687324431"><ele>256.0</ele><time>2026-03-28T13:40:08Z</time></trkpt><trkpt lat="45.65505631785478" lon="8.840858957465741"><ele>256.0</ele><time>2026-03-28T13:40:10Z</time></trkpt><trkpt lat="45.65507198922729" lon="8.840975809281462"><ele>256.0</ele><time>2026-03-28T13:40:12Z</time></trkpt><trkpt lat="45.655013583206845" lon="8.841056132071206"><ele>256.0</ele><time>2026-03-28T13:40:14Z</time></trkpt><trkpt lat="45.654936119233824" lon="8.841026221073527"><ele>256.0</ele><time>2026-03-28T13:40:16Z</time></trkpt><trkpt lat="45.654901160530784" lon="8.840881369681073"><ele>256.0</ele><time>2026-03-28T13:40:18Z</time></trkpt><trkpt lat="45.65487399011479" lon="8.840760795081287"><ele>256.0</ele><time>2026-03-28T13:40:19Z</time></trkpt><trkpt lat="45.654836529092826" lon="8.840625307185196"><ele>256.0</ele><time>2026-03-28T13:40:20Z</time></trkpt><trkpt lat="45.6547982346509" lon="8.84050662010213"><ele>256.0</ele><time>2026-03-28T13:40:21Z</time></trkpt><trkpt lat="45.654742879851575" lon="8.840398570234363"><ele>256.0</ele><time>2026-03-28T13:40:23Z</time></trkpt><trkpt lat="45.654651803880675" lon="8.840362299506573"><ele>256.0</ele><time>2026-03-28T13:40:25Z</time></trkpt><trkpt lat="45.65451723220231" lon="8.84041512405862"><ele>256.0</ele><time>2026-03-28T13:40:27Z</time></trkpt><trkpt lat="45.654441612537525" lon="8.840453690868175"><ele>255.20000000000002</ele><time>2026-03-28T13:40:28Z</time></trkpt><trkpt lat="45.65433193965693" lon="8.840470296176882"><ele>254.40000000000003</ele><time>2026-03-28T13:40:30Z</time></trkpt><trkpt lat="45.654236396736884" lon="8.840498718909192"><ele>253.6</ele><time>2026-03-28T13:40:30.999Z</time></trkpt><trkpt lat="45.654132889938666" lon="8.840507970766536"><ele>252.8</ele><time>2026-03-28T13:40:31.999Z</time></trkpt><trkpt lat="45.65403494420651" lon="8.840511297053713"><ele>252.0</ele><time>2026-03-28T13:40:32.999Z</time></trkpt><trkpt lat="45.65396444894985" lon="8.840516316131142"><ele>252.0</ele><time>2026-03-28T13:40:33.999Z</time></trkpt><trkpt lat="45.6539029725443" lon="8.840542022962845"><ele>252.0</ele><time>2026-03-28T13:40:34.999Z</time></trkpt><trkpt lat="45.65385775912944" lon="8.84060573733"><ele>252.0</ele><time>2026-03-28T13:40:36.999Z</time></trkpt><trkpt lat="45.65387339678643" lon="8.840704952575551"><ele>252.0</ele><time>2026-03-28T13:40:38.999Z</time></trkpt><trkpt lat="45.65394509687968" lon="8.840731857833715"><ele>252.0</ele><time>2026-03-28T13:40:40.999Z</time></trkpt><trkpt lat="45.65401378729675" lon="8.840655378900875"><ele>252.0</ele><time>2026-03-28T13:40:42.999Z</time></trkpt><trkpt lat="45.654099793025395" lon="8.840590038262079"><ele>252.0</ele><time>2026-03-28T13:40:44.999Z</time></trkpt><trkpt lat="45.654168110880065" lon="8.840601001357022"><ele>252.0</ele><time>2026-03-28T13:40:45.999Z</time></trkpt><trkpt lat="45.654235081514074" lon="8.840616545042913"><ele>252.0</ele><time>2026-03-28T13:40:46.999Z</time></trkpt><trkpt lat="45.65433110297083" lon="8.840657887244701"><ele>252.0</ele><time>2026-03-28T13:40:48.999Z</time></trkpt><trkpt lat="45.654406736566955" lon="8.840619992683335"><ele>252.0</ele><time>2026-03-28T13:40:50.999Z</time></trkpt><trkpt lat="45.654473882631166" lon="8.840581176911103"><ele>252.0</ele><time>2026-03-28T13:40:52.999Z</time></trkpt><trkpt lat="45.65448770447315" lon="8.84071251804236"><ele>252.0</ele><time>2026-03-28T13:40:55.999Z</time></trkpt><trkpt lat="45.65441427200314" lon="8.840740129330648"><ele>252.0</ele><time>2026-03-28T13:40:57.999Z</time></trkpt><trkpt lat="45.654328408352576" lon="8.84078954839689"><ele>252.0</ele><time>2026-03-28T13:40:59.999Z</time></trkpt><trkpt lat="45.65429715673248" lon="8.840927745041672"><ele>252.0</ele><time>2026-03-28T13:41:01.999Z</time></trkpt><trkpt lat="45.65436281692893" lon="8.840975944443183"><ele>252.0</ele><time>2026-03-28T13:41:05.999Z</time></trkpt><trkpt lat="45.65440704264802" lon="8.84087904331944"><ele>252.0</ele><time>2026-03-28T13:41:09.999Z</time></trkpt><trkpt lat="45.65447326194014" lon="8.84079030943706"><ele>252.66666666666666</ele><time>2026-03-28T13:41:11.999Z</time></trkpt><trkpt lat="45.65456247616067" lon="8.840750672681148"><ele>253.33333333333331</ele><time>2026-03-28T13:41:13.999Z</time></trkpt><trkpt lat="45.654571394113006" lon="8.840657380284823"><ele>254.0</ele><time>2026-03-28T13:41:16.999Z</time></trkpt><trkpt lat="45.65460678740904" lon="8.840533503769429"><ele>254.66666666666666</ele><time>2026-03-28T13:41:19.999Z</time></trkpt><trkpt lat="45.65468994798261" lon="8.840510980231151"><ele>255.33333333333331</ele><time>2026-03-28T13:41:21.999Z</time></trkpt><trkpt lat="45.65476978601334" lon="8.840616256123374"><ele>256.0</ele><time>2026-03-28T13:41:23.999Z</time></trkpt><trkpt lat="45.65480023668596" lon="8.840706475361818"><ele>255.99999999999997</ele><time>2026-03-28T13:41:24.999Z</time></trkpt><trkpt lat="45.65482745111302" lon="8.840806871500293"><ele>256.0</ele><time>2026-03-28T13:41:25.999Z</time></trkpt><trkpt lat="45.65487743616921" lon="8.840976236844227"><ele>256.0</ele><time>2026-03-28T13:41:27.999Z</time></trkpt><trkpt lat="45.65490221747215" lon="8.841061159191412"><ele>256.0</ele><time>2026-03-28T13:41:28.999Z</time></trkpt><trkpt lat="45.6548733655837" lon="8.841145350207233"><ele>255.99999999999997</ele><time>2026-03-28T13:41:31.999Z</time></trkpt><trkpt lat="45.654810365571656" lon="8.841090716831289"><ele>256.0</ele><time>2026-03-28T13:41:33.999Z</time></trkpt><trkpt lat="45.6547573503754" lon="8.840921910635553"><ele>255.99999999999997</ele><time>2026-03-28T13:41:35.999Z</time></trkpt><trkpt lat="45.654692224410766" lon="8.840834777590725"><ele>256.0</ele><time>2026-03-28T13:41:37.999Z</time></trkpt><trkpt lat="45.654587218587345" lon="8.840849633310613"><ele>256.0</ele><time>2026-03-28T13:41:39.999Z</time></trkpt><trkpt lat="45.65452205232302" lon="8.840893494373917"><ele>256.0</ele><time>2026-03-28T13:41:40.999Z</time></trkpt><trkpt lat="45.65446911820532" lon="8.840950556096752"><ele>255.99999999999997</ele><time>2026-03-28T13:41:42.999Z</time></trkpt><trkpt lat="45.654513310994204" lon="8.841020244912766"><ele>256.0</ele><time>2026-03-28T13:41:46.999Z</time></trkpt><trkpt lat="45.6545772326136" lon="8.841008574105752"><ele>255.99999999999997</ele><time>2026-03-28T13:41:48.999Z</time></trkpt><trkpt lat="45.654622662439664" lon="8.84094293059253"><ele>256.0</ele><time>2026-03-28T13:41:49.999Z</time></trkpt><trkpt lat="45.65468690756447" lon="8.84089363716127"><ele>256.0</ele><time>2026-03-28T13:41:51.999Z</time></trkpt><trkpt lat="45.65472528554348" lon="8.840989626568891"><ele>256.0</ele><time>2026-03-28T13:41:53.999Z</time></trkpt><trkpt lat="45.65466234703364" lon="8.841084767445313"><ele>255.99999999999997</ele><time>2026-03-28T13:41:55.999Z</time></trkpt><trkpt lat="45.65453624995048" lon="8.841073792240993"><ele>256.0</ele><time>2026-03-28T13:41:57.999Z</time></trkpt><trkpt lat="45.65444223171599" lon="8.841077243034915"><ele>255.8</ele><time>2026-03-28T13:41:58.999Z</time></trkpt><trkpt lat="45.65434007570786" lon="8.841093131598857"><ele>255.60000000000002</ele><time>2026-03-28T13:41:59.999Z</time></trkpt><trkpt lat="45.65425477936573" lon="8.841104461770765"><ele>255.4</ele><time>2026-03-28T13:42:00.999Z</time></trkpt><trkpt lat="45.65415645791847" lon="8.841129387935181"><ele>255.2</ele><time>2026-03-28T13:42:02.999Z</time></trkpt><trkpt lat="45.65412064764072" lon="8.841237631330534"><ele>255.0</ele><time>2026-03-28T13:42:05.999Z</time></trkpt><trkpt lat="45.65419252249076" lon="8.841296865041384"><ele>255.0</ele><time>2026-03-28T13:42:08.999Z</time></trkpt><trkpt lat="45.65431661685035" lon="8.841274861166301"><ele>255.0</ele><time>2026-03-28T13:42:10.999Z</time></trkpt><trkpt lat="45.65441820744048" lon="8.841222571008995"><ele>255.0</ele><time>2026-03-28T13:42:12.999Z</time></trkpt><trkpt lat="45.65451416621059" lon="8.84118655236123"><ele>255.0</ele><time>2026-03-28T13:42:13.999Z</time></trkpt><trkpt lat="45.65461651838161" lon="8.841140793807714"><ele>255.0</ele><time>2026-03-28T13:42:14.999Z</time></trkpt><trkpt lat="45.65468751130021" lon="8.841114605350944"><ele>255.33333333333334</ele><time>2026-03-28T13:42:15.999Z</time></trkpt><trkpt lat="45.654756007362174" lon="8.84108667482455"><ele>255.66666666666669</ele><time>2026-03-28T13:42:17.999Z</time></trkpt><trkpt lat="45.654806984011614" lon="8.841167695132702"><ele>256.0</ele><time>2026-03-28T13:42:20.999Z</time></trkpt><trkpt lat="45.654750564139775" lon="8.841269987283658"><ele>256.33333333333337</ele><time>2026-03-28T13:42:22.999Z</time></trkpt><trkpt lat="45.654680812955675" lon="8.841290300185662"><ele>256.6666666666667</ele><time>2026-03-28T13:42:23.999Z</time></trkpt><trkpt lat="45.65458306409653" lon="8.841305154195958"><ele>257.0</ele><time>2026-03-28T13:42:24.999Z</time></trkpt><trkpt lat="45.65447373969537" lon="8.841317891686776"><ele>256.6</ele><time>2026-03-28T13:42:25.999Z</time></trkpt><trkpt lat="45.65438588220896" lon="8.84135337994894"><ele>256.2</ele><time>2026-03-28T13:42:26.999Z</time></trkpt><trkpt lat="45.65428348257275" lon="8.841389838834493"><ele>255.8</ele><time>2026-03-28T13:42:27.999Z</time></trkpt><trkpt lat="45.654169424230666" lon="8.841437948400689"><ele>255.4</ele><time>2026-03-28T13:42:28.999Z</time></trkpt><trkpt lat="45.654070264460024" lon="8.8414690252734"><ele>255.0</ele><time>2026-03-28T13:42:29.999Z</time></trkpt><trkpt lat="45.653975122311046" lon="8.841493749627201"><ele>255.0</ele><time>2026-03-28T13:42:30.999Z</time></trkpt><trkpt lat="45.65390608850792" lon="8.8415122044734"><ele>255.0</ele><time>2026-03-28T13:42:31.999Z</time></trkpt><trkpt lat="45.65379748556069" lon="8.84152887283305"><ele>255.0</ele><time>2026-03-28T13:42:33.999Z</time></trkpt><trkpt lat="45.65372466147391" lon="8.841468069634894"><ele>255.0</ele><time>2026-03-28T13:42:35.999Z</time></trkpt><trkpt lat="45.65370119545193" lon="8.841302161414243"><ele>255.0</ele><time>2026-03-28T13:42:37.999Z</time></trkpt><trkpt lat="45.65369156094868" lon="8.841163369324118"><ele>255.0</ele><time>2026-03-28T13:42:38.999Z</time></trkpt><trkpt lat="45.653679535279444" lon="8.84101347605427"><ele>255.0</ele><time>2026-03-28T13:42:39.999Z</time></trkpt><trkpt lat="45.65366969414522" lon="8.840850166084053"><ele>255.0</ele><time>2026-03-28T13:42:40.999Z</time></trkpt><trkpt lat="45.65368612554248" lon="8.840723690093888"><ele>255.0</ele><time>2026-03-28T13:42:41.999Z</time></trkpt><trkpt lat="45.65371840887112" lon="8.840607703552998"><ele>255.0</ele><time>2026-03-28T13:42:42.999Z</time></trkpt><trkpt lat="45.65377505369702" lon="8.84051263843628"><ele>254.4</ele><time>2026-03-28T13:42:43.999Z</time></trkpt><trkpt lat="45.65385486483295" lon="8.840435567820043"><ele>253.8</ele><time>2026-03-28T13:42:44.999Z</time></trkpt><trkpt lat="45.653945998245426" lon="8.840370452058247"><ele>253.2</ele><time>2026-03-28T13:42:45.999Z</time></trkpt><trkpt lat="45.65405999286599" lon="8.840325655205763"><ele>252.6</ele><time>2026-03-28T13:42:46.999Z</time></trkpt><trkpt lat="45.65417158266587" lon="8.840311993384315"><ele>252.0</ele><time>2026-03-28T13:42:47.999Z</time></trkpt><trkpt lat="45.654291361952744" lon="8.84031851617995"><ele>252.0</ele><time>2026-03-28T13:42:48.999Z</time></trkpt><trkpt lat="45.65442067890225" lon="8.840329652574283"><ele>252.0</ele><time>2026-03-28T13:42:49.999Z</time></trkpt><trkpt lat="45.65454092679623" lon="8.840318880932966"><ele>252.0</ele><time>2026-03-28T13:42:50.999Z</time></trkpt><trkpt lat="45.654645418771274" lon="8.840295332471326"><ele>252.0</ele><time>2026-03-28T13:42:51.999Z</time></trkpt><trkpt lat="45.65473692677374" lon="8.84027615489019"><ele>252.0</ele><time>2026-03-28T13:42:52.999Z</time></trkpt><trkpt lat="45.654814434539134" lon="8.840266898008869"><ele>252.66666666666666</ele><time>2026-03-28T13:42:53.999Z</time></trkpt><trkpt lat="45.65489847286812" lon="8.840264751082627"><ele>253.33333333333331</ele><time>2026-03-28T13:42:55.999Z</time></trkpt><trkpt lat="45.65496210905682" lon="8.840309260914337"><ele>254.0</ele><time>2026-03-28T13:42:57.999Z</time></trkpt><trkpt lat="45.654989432014325" lon="8.84043623961014"><ele>254.66666666666666</ele><time>2026-03-28T13:42:59.999Z</time></trkpt><trkpt lat="45.65498133974739" lon="8.840530093820258"><ele>255.33333333333331</ele><time>2026-03-28T13:43:00.999Z</time></trkpt><trkpt lat="45.65494674302465" lon="8.84066118882283"><ele>256.0</ele><time>2026-03-28T13:43:02.999Z</time></trkpt><trkpt lat="45.65494701354877" lon="8.840765316115926"><ele>256.0</ele><time>2026-03-28T13:43:04.999Z</time></trkpt><trkpt lat="45.6550352600755" lon="8.840837163212571"><ele>256.0</ele><time>2026-03-28T13:43:06.999Z</time></trkpt><trkpt lat="45.65508524456743" lon="8.840937665771726"><ele>256.0</ele><time>2026-03-28T13:43:08.999Z</time></trkpt><trkpt lat="45.65503818540055" lon="8.841050285118277"><ele>256.0</ele><time>2026-03-28T13:43:10.999Z</time></trkpt><trkpt lat="45.65495996730548" lon="8.841040576784705"><ele>256.0</ele><time>2026-03-28T13:43:12.999Z</time></trkpt><trkpt lat="45.65490529985475" lon="8.840911465795507"><ele>255.99999999999997</ele><time>2026-03-28T13:43:14.999Z</time></trkpt><trkpt lat="45.654886421428344" lon="8.840811996260078"><ele>256.0</ele><time>2026-03-28T13:43:15.999Z</time></trkpt><trkpt lat="45.65485582962893" lon="8.840682193825693"><ele>256.0</ele><time>2026-03-28T13:43:16.999Z</time></trkpt><trkpt lat="45.65482514289643" lon="8.840565607523697"><ele>256.0</ele><time>2026-03-28T13:43:17.999Z</time></trkpt><trkpt lat="45.654791789861285" lon="8.840476266396733"><ele>255.99999999999997</ele><time>2026-03-28T13:43:18.999Z</time></trkpt><trkpt lat="45.65472226949951" lon="8.840374597277673"><ele>256.0</ele><time>2026-03-28T13:43:20.999Z</time></trkpt><trkpt lat="45.65460614582195" lon="8.840377363140451"><ele>256.0</ele><time>2026-03-28T13:43:22.999Z</time></trkpt><trkpt lat="45.65452183410346" lon="8.840412634875925"><ele>256.0</ele><time>2026-03-28T13:43:23.999Z</time></trkpt><trkpt lat="45.65443970486573" lon="8.840446808336761"><ele>256.0</ele><time>2026-03-28T13:43:24.999Z</time></trkpt><trkpt lat="45.65433233503171" lon="8.840474518374315"><ele>256.0</ele><time>2026-03-28T13:43:26.999Z</time></trkpt><trkpt lat="45.654235629089484" lon="8.840504466886703"><ele>256.0</ele><time>2026-03-28T13:43:27.999Z</time></trkpt><trkpt lat="45.65412336691991" lon="8.840518814638287"><ele>255.33333333333331</ele><time>2026-03-28T13:43:28.999Z</time></trkpt><trkpt lat="45.65403528786682" lon="8.840517830765423"><ele>254.66666666666666</ele><time>2026-03-28T13:43:29.999Z</time></trkpt><trkpt lat="45.65396320948853" lon="8.840524179544197"><ele>254.0</ele><time>2026-03-28T13:43:30.999Z</time></trkpt><trkpt lat="45.65387897653485" lon="8.84056227605926"><ele>253.33333333333331</ele><time>2026-03-28T13:43:32.999Z</time></trkpt><trkpt lat="45.65386742705563" lon="8.8406822067175"><ele>252.66666666666666</ele><time>2026-03-28T13:43:35.999Z</time></trkpt><trkpt lat="45.65393388504762" lon="8.840726848325167"><ele>252.0</ele><time>2026-03-28T13:43:37.999Z</time></trkpt><trkpt lat="45.6540202259556" lon="8.840651737824517"><ele>252.0</ele><time>2026-03-28T13:43:39.999Z</time></trkpt><trkpt lat="45.6541228977338" lon="8.840591162162662"><ele>252.0</ele><time>2026-03-28T13:43:41.999Z</time></trkpt><trkpt lat="45.65418641372693" lon="8.840602672214606"><ele>252.0</ele><time>2026-03-28T13:43:42.999Z</time></trkpt><trkpt lat="45.65425197841577" lon="8.840605741502282"><ele>252.0</ele><time>2026-03-28T13:43:43.999Z</time></trkpt><trkpt lat="45.65435656283839" lon="8.840586358864408"><ele>252.0</ele><time>2026-03-28T13:43:45.999Z</time></trkpt><trkpt lat="45.65445171752175" lon="8.840591767259129"><ele>252.0</ele><time>2026-03-28T13:43:47.999Z</time></trkpt><trkpt lat="45.654491150310115" lon="8.840694315326065"><ele>252.0</ele><time>2026-03-28T13:43:50.999Z</time></trkpt><trkpt lat="45.65440021612749" lon="8.840746776973084"><ele>252.0</ele><time>2026-03-28T13:43:52.999Z</time></trkpt><trkpt lat="45.65431869576357" lon="8.84080091916413"><ele>252.0</ele><time>2026-03-28T13:43:54.998Z</time></trkpt><trkpt lat="45.6542978976559" lon="8.840888937134288"><ele>252.0</ele><time>2026-03-28T13:43:55.998Z</time></trkpt><trkpt lat="45.65432881869204" lon="8.84097855188396"><ele>252.0</ele><time>2026-03-28T13:43:58.998Z</time></trkpt><trkpt lat="45.654391453228605" lon="8.84093527851036"><ele>252.0</ele><time>2026-03-28T13:44:01.998Z</time></trkpt><trkpt lat="45.65445150369376" lon="8.840799551413223"><ele>252.8</ele><time>2026-03-28T13:44:03.999Z</time></trkpt><trkpt lat="45.65453723294644" lon="8.840777052426516"><ele>253.6</ele><time>2026-03-28T13:44:05.999Z</time></trkpt><trkpt lat="45.65457194174113" lon="8.840681305331199"><ele>254.40000000000003</ele><time>2026-03-28T13:44:07.999Z</time></trkpt><trkpt lat="45.65460245771411" lon="8.84054716681605"><ele>255.20000000000002</ele><time>2026-03-28T13:44:09.999Z</time></trkpt><trkpt lat="45.65467643959242" lon="8.840497048844524"><ele>256.0</ele><time>2026-03-28T13:44:11.999Z</time></trkpt><trkpt lat="45.65476086153582" lon="8.840604956974898"><ele>255.99999999999997</ele><time>2026-03-28T13:44:13.999Z</time></trkpt><trkpt lat="45.654800601948224" lon="8.84070257773951"><ele>256.0</ele><time>2026-03-28T13:44:14.999Z</time></trkpt><trkpt lat="45.65482787314509" lon="8.840802537962205"><ele>256.0</ele><time>2026-03-28T13:44:15.999Z</time></trkpt><trkpt lat="45.65487558029317" lon="8.84097593966856"><ele>256.0</ele><time>2026-03-28T13:44:17.999Z</time></trkpt><trkpt lat="45.65490026680923" lon="8.841061841693357"><ele>255.99999999999997</ele><time>2026-03-28T13:44:18.999Z</time></trkpt><trkpt lat="45.65486314688946" lon="8.841152451851594"><ele>256.0</ele><time>2026-03-28T13:44:21.999Z</time></trkpt><trkpt lat="45.65480550280221" lon="8.841074303963625"><ele>255.99999999999997</ele><time>2026-03-28T13:44:23.999Z</time></trkpt><trkpt lat="45.65477970133288" lon="8.84098518300605"><ele>256.0</ele><time>2026-03-28T13:44:24.999Z</time></trkpt><trkpt lat="45.65474451532709" lon="8.840892562117775"><ele>256.0</ele><time>2026-03-28T13:44:25.999Z</time></trkpt><trkpt lat="45.65467031509638" lon="8.840824662240694"><ele>256.0</ele><time>2026-03-28T13:44:27.999Z</time></trkpt><trkpt lat="45.65454533016838" lon="8.840871654269504"><ele>255.99999999999997</ele><time>2026-03-28T13:44:29.999Z</time></trkpt><trkpt lat="45.654488752597686" lon="8.84091795393731"><ele>256.0</ele><time>2026-03-28T13:44:30.999Z</time></trkpt><trkpt lat="45.65449461624062" lon="8.841008949631789"><ele>255.99999999999997</ele><time>2026-03-28T13:44:34.999Z</time></trkpt><trkpt lat="45.65459754178909" lon="8.840985797268107"><ele>256.0</ele><time>2026-03-28T13:44:37.999Z</time></trkpt><trkpt lat="45.65464185599531" lon="8.840910936190788"><ele>256.0</ele><time>2026-03-28T13:44:38.999Z</time></trkpt><trkpt lat="45.654712314188856" lon="8.840919040194683"><ele>256.0</ele><time>2026-03-28T13:44:40.999Z</time></trkpt><trkpt lat="45.65471892995823" lon="8.84104442594302"><ele>255.99999999999997</ele><time>2026-03-28T13:44:42.999Z</time></trkpt><trkpt lat="45.65462767059155" lon="8.841089258128394"><ele>256.0</ele><time>2026-03-28T13:44:44.999Z</time></trkpt><trkpt lat="45.654563418402105" lon="8.841083933641853"><ele>256.16666666666663</ele><time>2026-03-28T13:44:45.999Z</time></trkpt><trkpt lat="45.654481188359284" lon="8.841080922500264"><ele>256.3333333333333</ele><time>2026-03-28T13:44:46.999Z</time></trkpt><trkpt lat="45.65438335112856" lon="8.841085694285319"><ele>256.5</ele><time>2026-03-28T13:44:47.999Z</time></trkpt><trkpt lat="45.6543045969289" lon="8.841099693057041"><ele>256.6666666666667</ele><time>2026-03-28T13:44:48.999Z</time></trkpt><trkpt lat="45.654239967360915" lon="8.841106036986204"><ele>256.83333333333337</ele><time>2026-03-28T13:44:49.999Z</time></trkpt><trkpt lat="45.65414595840657" lon="8.841136258336412"><ele>257.0</ele><time>2026-03-28T13:44:51.999Z</time></trkpt><trkpt lat="45.65410936972345" lon="8.841217536514616"><ele>257.0</ele><time>2026-03-28T13:44:53.999Z</time></trkpt><trkpt lat="45.65416175226211" lon="8.841297846964046"><ele>257.0</ele><time>2026-03-28T13:44:56.999Z</time></trkpt><trkpt lat="45.65426010818323" lon="8.841297766416435"><ele>257.0</ele><time>2026-03-28T13:44:58.999Z</time></trkpt><trkpt lat="45.65435716630951" lon="8.841240838444923"><ele>257.0</ele><time>2026-03-28T13:45:00.999Z</time></trkpt><trkpt lat="45.65448960088037" lon="8.841188241226838"><ele>257.0</ele><time>2026-03-28T13:45:02.999Z</time></trkpt><trkpt lat="45.65459563383363" lon="8.841147240883307"><ele>257.0</ele><time>2026-03-28T13:45:03.999Z</time></trkpt><trkpt lat="45.65467195878041" lon="8.841115160976537"><ele>257.0</ele><time>2026-03-28T13:45:04.999Z</time></trkpt><trkpt lat="45.65475051170441" lon="8.841084593037584"><ele>257.0</ele><time>2026-03-28T13:45:06.999Z</time></trkpt><trkpt lat="45.654814614301294" lon="8.84116444137388"><ele>257.0</ele><time>2026-03-28T13:45:09.999Z</time></trkpt><trkpt lat="45.65475017355965" lon="8.841268238974846"><ele>257.0</ele><time>2026-03-28T13:45:11.999Z</time></trkpt><trkpt lat="45.65467578406954" lon="8.841290003612439"><ele>257.0</ele><time>2026-03-28T13:45:12.999Z</time></trkpt><trkpt lat="45.65458625493109" lon="8.841303911509158"><ele>257.0</ele><time>2026-03-28T13:45:13.999Z</time></trkpt><trkpt lat="45.65445637941624" lon="8.841332247174238"><ele>257.0</ele><time>2026-03-28T13:45:14.999Z</time></trkpt><trkpt lat="45.654332243709376" lon="8.841367590897178"><ele>257.0</ele><time>2026-03-28T13:45:15.999Z</time></trkpt><trkpt lat="45.65420228638543" lon="8.84141749975469"><ele>257.0</ele><time>2026-03-28T13:45:16.999Z</time></trkpt><trkpt lat="45.65408247007106" lon="8.841458431880534"><ele>256.6</ele><time>2026-03-28T13:45:17.999Z</time></trkpt><trkpt lat="45.6539856882468" lon="8.841486522083752"><ele>256.2</ele><time>2026-03-28T13:45:18.999Z</time></trkpt><trkpt lat="45.65390603137012" lon="8.84150598549742"><ele>255.8</ele><time>2026-03-28T13:45:19.999Z</time></trkpt><trkpt lat="45.6538004207459" lon="8.841522164261152"><ele>255.4</ele><time>2026-03-28T13:45:21.999Z</time></trkpt><trkpt lat="45.65373187420023" lon="8.841456756091237"><ele>255.0</ele><time>2026-03-28T13:45:23.999Z</time></trkpt><trkpt lat="45.65370511855716" lon="8.841284399354356"><ele>255.0</ele><time>2026-03-28T13:45:25.999Z</time></trkpt><trkpt lat="45.65369704683231" lon="8.841158148506072"><ele>255.0</ele><time>2026-03-28T13:45:26.999Z</time></trkpt><trkpt lat="45.65368395457752" lon="8.84104878969763"><ele>255.0</ele><time>2026-03-28T13:45:27.999Z</time></trkpt><trkpt lat="45.653664869373245" lon="8.84092282881819"><ele>255.0</ele><time>2026-03-28T13:45:29.999Z</time></trkpt><trkpt lat="45.653678617334755" lon="8.840769482028614"><ele>255.0</ele><time>2026-03-28T13:47:41Z</time></trkpt><trkpt lat="45.65373983795305" lon="8.84064198035565"><ele>254.4</ele><time>2026-03-28T13:47:43Z</time></trkpt><trkpt lat="45.653806804906466" lon="8.840515014448718"><ele>253.8</ele><time>2026-03-28T13:47:44Z</time></trkpt><trkpt lat="45.653879901113655" lon="8.840425403611825"><ele>253.2</ele><time>2026-03-28T13:47:45Z</time></trkpt><trkpt lat="45.653958186644736" lon="8.840384757977544"><ele>252.6</ele><time>2026-03-28T13:47:46Z</time></trkpt><trkpt lat="45.65405758143161" lon="8.840347086259838"><ele>252.0</ele><time>2026-03-28T13:47:47Z</time></trkpt><trkpt lat="45.65417929306242" lon="8.84032041110238"><ele>252.0</ele><time>2026-03-28T13:47:48Z</time></trkpt><trkpt lat="45.65429331798564" lon="8.840323395459299"><ele>252.0</ele><time>2026-03-28T13:47:49Z</time></trkpt><trkpt lat="45.65440747252675" lon="8.840330726877829"><ele>252.0</ele><time>2026-03-28T13:47:50Z</time></trkpt><trkpt lat="45.65452806123569" lon="8.840325474817304"><ele>252.0</ele><time>2026-03-28T13:47:51Z</time></trkpt><trkpt lat="45.65462982778955" lon="8.840309977602704"><ele>252.8</ele><time>2026-03-28T13:47:52Z</time></trkpt><trkpt lat="45.654730239839054" lon="8.840290513805396"><ele>253.6</ele><time>2026-03-28T13:47:53Z</time></trkpt><trkpt lat="45.65485968783688" lon="8.84026839367836"><ele>254.40000000000003</ele><time>2026-03-28T13:47:55Z</time></trkpt><trkpt lat="45.65494070149918" lon="8.840277935831482"><ele>255.20000000000002</ele><time>2026-03-28T13:47:57Z</time></trkpt><trkpt lat="45.65499752387663" lon="8.840334367916665"><ele>256.0</ele><time>2026-03-28T13:47:59Z</time></trkpt><trkpt lat="45.6549971868371" lon="8.840471360560207"><ele>255.99999999999997</ele><time>2026-03-28T13:48:01Z</time></trkpt><trkpt lat="45.65498998913353" lon="8.840577242553492"><ele>256.0</ele><time>2026-03-28T13:48:02Z</time></trkpt><trkpt lat="45.654926212330054" lon="8.840694741162787"><ele>256.0</ele><time>2026-03-28T13:48:04Z</time></trkpt><trkpt lat="45.65495887948811" lon="8.840787286691237"><ele>256.0</ele><time>2026-03-28T13:48:06Z</time></trkpt><trkpt lat="45.65505385997001" lon="8.84085835285334"><ele>255.99999999999997</ele><time>2026-03-28T13:48:08Z</time></trkpt><trkpt lat="45.65506819383007" lon="8.840976362870768"><ele>256.0</ele><time>2026-03-28T13:48:10Z</time></trkpt><trkpt lat="45.655012982387355" lon="8.841062833550112"><ele>255.99999999999997</ele><time>2026-03-28T13:48:12Z</time></trkpt><trkpt lat="45.654946849029926" lon="8.841022515977322"><ele>256.0</ele><time>2026-03-28T13:48:14Z</time></trkpt><trkpt lat="45.6548996730337" lon="8.840884550453122"><ele>256.0</ele><time>2026-03-28T13:48:16Z</time></trkpt><trkpt lat="45.654880607322674" lon="8.840769150980309"><ele>256.0</ele><time>2026-03-28T13:48:17Z</time></trkpt><trkpt lat="45.65484553136364" lon="8.840644030652022"><ele>255.99999999999997</ele><time>2026-03-28T13:48:18Z</time></trkpt><trkpt lat="45.65481029201442" lon="8.840538865607023"><ele>256.0</ele><time>2026-03-28T13:48:19Z</time></trkpt><trkpt lat="45.65478015354878" lon="8.840456709295553"><ele>256.0</ele><time>2026-03-28T13:48:20Z</time></trkpt><trkpt lat="45.654708507529904" lon="8.84036977078956"><ele>256.0</ele><time>2026-03-28T13:48:22Z</time></trkpt><trkpt lat="45.654579185987636" lon="8.840386627664998"><ele>256.0</ele><time>2026-03-28T13:48:24Z</time></trkpt><trkpt lat="45.65449607541387" lon="8.840425863426676"><ele>256.0</ele><time>2026-03-28T13:48:25Z</time></trkpt><trkpt lat="45.654413505168485" lon="8.840459197000232"><ele>256.0</ele><time>2026-03-28T13:48:26Z</time></trkpt><trkpt lat="45.65429988300705" lon="8.840486562607362"><ele>255.33333333333331</ele><time>2026-03-28T13:48:28Z</time></trkpt><trkpt lat="45.654197373456576" lon="8.8405034066121"><ele>254.66666666666666</ele><time>2026-03-28T13:48:29Z</time></trkpt><trkpt lat="45.65408850057182" lon="8.840513584050804"><ele>254.0</ele><time>2026-03-28T13:48:30Z</time></trkpt><trkpt lat="45.65400132403221" lon="8.840519086020647"><ele>253.33333333333331</ele><time>2026-03-28T13:48:31Z</time></trkpt><trkpt lat="45.653928691924264" lon="8.840533141135996"><ele>252.66666666666666</ele><time>2026-03-28T13:48:32Z</time></trkpt><trkpt lat="45.65386584226711" lon="8.840578130440582"><ele>252.0</ele><time>2026-03-28T13:48:34Z</time></trkpt><trkpt lat="45.65386277379782" lon="8.840685256966935"><ele>252.0</ele><time>2026-03-28T13:48:36Z</time></trkpt><trkpt lat="45.653922947754616" lon="8.840736621743424"><ele>252.0</ele><time>2026-03-28T13:48:38Z</time></trkpt><trkpt lat="45.65400561856686" lon="8.84068088395762"><ele>252.0</ele><time>2026-03-28T13:48:40Z</time></trkpt><trkpt lat="45.654085500613796" lon="8.840596766069384"><ele>252.0</ele><time>2026-03-28T13:48:42Z</time></trkpt><trkpt lat="45.654213268367386" lon="8.840604797875686"><ele>252.0</ele><time>2026-03-28T13:48:44Z</time></trkpt><trkpt lat="45.65427872831113" lon="8.840603666675452"><ele>252.0</ele><time>2026-03-28T13:48:45Z</time></trkpt><trkpt lat="45.654347752487084" lon="8.840590902792709"><ele>252.0</ele><time>2026-03-28T13:48:46Z</time></trkpt><trkpt lat="45.65442511969361" lon="8.84058302417737"><ele>252.0</ele><time>2026-03-28T13:48:48Z</time></trkpt><trkpt lat="45.65449951206822" lon="8.840602212621587"><ele>252.0</ele><time>2026-03-28T13:48:50Z</time></trkpt><trkpt lat="45.654468825770735" lon="8.840729625027498"><ele>252.0</ele><time>2026-03-28T13:48:53Z</time></trkpt><trkpt lat="45.65436514431616" lon="8.84075036115595"><ele>252.0</ele><time>2026-03-28T13:48:55Z</time></trkpt><trkpt lat="45.654307321871435" lon="8.840846285276681"><ele>252.0</ele><time>2026-03-28T13:48:57Z</time></trkpt><trkpt lat="45.6543064223082" lon="8.840959470588864"><ele>252.0</ele><time>2026-03-28T13:48:59Z</time></trkpt><trkpt lat="45.654369687012924" lon="8.840968862594224"><ele>252.0</ele><time>2026-03-28T13:49:03Z</time></trkpt><trkpt lat="45.654429435553034" lon="8.840861443985357"><ele>252.0</ele><time>2026-03-28T13:49:05Z</time></trkpt><trkpt lat="45.654507098793026" lon="8.840781827635702"><ele>252.0</ele><time>2026-03-28T13:49:07Z</time></trkpt><trkpt lat="45.65457032183079" lon="8.840729268339132"><ele>252.0</ele><time>2026-03-28T13:49:09Z</time></trkpt><trkpt lat="45.65459109125322" lon="8.840598316810913"><ele>252.66666666666666</ele><time>2026-03-28T13:49:11Z</time></trkpt><trkpt lat="45.65464481688551" lon="8.84049950968678"><ele>253.33333333333331</ele><time>2026-03-28T13:49:13Z</time></trkpt><trkpt lat="45.65472829405228" lon="8.840545149330403"><ele>254.0</ele><time>2026-03-28T13:49:15Z</time></trkpt><trkpt lat="45.65477166636957" lon="8.840615265834805"><ele>254.66666666666666</ele><time>2026-03-28T13:49:16Z</time></trkpt><trkpt lat="45.654807872831135" lon="8.840703287483219"><ele>255.33333333333331</ele><time>2026-03-28T13:49:17Z</time></trkpt><trkpt lat="45.65483948374926" lon="8.840808882338168"><ele>256.0</ele><time>2026-03-28T13:49:18Z</time></trkpt><trkpt lat="45.65488739865469" lon="8.8409774602551"><ele>255.99999999999997</ele><time>2026-03-28T13:49:20Z</time></trkpt><trkpt lat="45.65492015684631" lon="8.841106585832845"><ele>256.0</ele><time>2026-03-28T13:49:22Z</time></trkpt><trkpt lat="45.65484774924666" lon="8.841143807530765"><ele>256.0</ele><time>2026-03-28T13:49:25Z</time></trkpt><trkpt lat="45.65479793403598" lon="8.841041751977366"><ele>256.0</ele><time>2026-03-28T13:49:27Z</time></trkpt><trkpt lat="45.65477196583784" lon="8.840943323069812"><ele>255.99999999999997</ele><time>2026-03-28T13:49:28Z</time></trkpt><trkpt lat="45.654736058152494" lon="8.840868427787909"><ele>256.0</ele><time>2026-03-28T13:49:29Z</time></trkpt><trkpt lat="45.65464708929371" lon="8.840831322849477"><ele>255.99999999999997</ele><time>2026-03-28T13:49:31Z</time></trkpt><trkpt lat="45.65452647723931" lon="8.840894240986584"><ele>256.0</ele><time>2026-03-28T13:49:33Z</time></trkpt><trkpt lat="45.65447075396502" lon="8.84095185720599"><ele>256.0</ele><time>2026-03-28T13:49:35Z</time></trkpt><trkpt lat="45.65452195316195" lon="8.84102801383025"><ele>256.0</ele><time>2026-03-28T13:49:39Z</time></trkpt><trkpt lat="45.65460302676835" lon="8.840982179449647"><ele>255.99999999999997</ele><time>2026-03-28T13:49:41Z</time></trkpt><trkpt lat="45.65464759230211" lon="8.840904044689063"><ele>256.0</ele><time>2026-03-28T13:49:42Z</time></trkpt><trkpt lat="45.654709978421394" lon="8.84092654492736"><ele>256.2</ele><time>2026-03-28T13:49:44Z</time></trkpt><trkpt lat="45.65471140986992" lon="8.841043718845429"><ele>256.40000000000003</ele><time>2026-03-28T13:49:46Z</time></trkpt><trkpt lat="45.654611457167974" lon="8.841089364486491"><ele>256.6</ele><time>2026-03-28T13:49:48Z</time></trkpt><trkpt lat="45.65452633278624" lon="8.841077027261184"><ele>256.8</ele><time>2026-03-28T13:49:49Z</time></trkpt><trkpt lat="45.65443353384477" lon="8.841077273130615"><ele>257.0</ele><time>2026-03-28T13:49:50Z</time></trkpt><trkpt lat="45.654328497986576" lon="8.841091383793938"><ele>256.6666666666667</ele><time>2026-03-28T13:49:51Z</time></trkpt><trkpt lat="45.65424234237737" lon="8.841106263394883"><ele>256.33333333333337</ele><time>2026-03-28T13:49:52Z</time></trkpt><trkpt lat="45.65417393706569" lon="8.841122858420299"><ele>256.0</ele><time>2026-03-28T13:49:53Z</time></trkpt><trkpt lat="45.65411688522941" lon="8.841175978799953"><ele>255.66666666666669</ele><time>2026-03-28T13:49:55Z</time></trkpt><trkpt lat="45.654149569611384" lon="8.841278192975135"><ele>255.33333333333334</ele><time>2026-03-28T13:49:58Z</time></trkpt><trkpt lat="45.654249780473904" lon="8.841297051528885"><ele>255.0</ele><time>2026-03-28T13:50:00Z</time></trkpt><trkpt lat="45.65431473449595" lon="8.841264297950971"><ele>255.0</ele><time>2026-03-28T13:50:01Z</time></trkpt><trkpt lat="45.654376337409026" lon="8.841234150989823"><ele>255.0</ele><time>2026-03-28T13:50:02Z</time></trkpt><trkpt lat="45.65443831831348" lon="8.841214219230192"><ele>255.0</ele><time>2026-03-28T13:50:03Z</time></trkpt><trkpt lat="45.654526841667604" lon="8.841179126152092"><ele>255.0</ele><time>2026-03-28T13:50:04Z</time></trkpt><trkpt lat="45.65463142854013" lon="8.84112707898344"><ele>255.0</ele><time>2026-03-28T13:50:05Z</time></trkpt><trkpt lat="45.65469862296154" lon="8.841104249476196"><ele>255.0</ele><time>2026-03-28T13:50:06Z</time></trkpt><trkpt lat="45.65477700961888" lon="8.84107451635046"><ele>255.4</ele><time>2026-03-28T13:50:08Z</time></trkpt><trkpt lat="45.65481754361997" lon="8.841146218856082"><ele>255.8</ele><time>2026-03-28T13:50:10Z</time></trkpt><trkpt lat="45.654759430697794" lon="8.841267518550342"><ele>256.2</ele><time>2026-03-28T13:50:12Z</time></trkpt><trkpt lat="45.65468766284978" lon="8.84129153027712"><ele>256.6</ele><time>2026-03-28T13:50:13Z</time></trkpt><trkpt lat="45.65459576933388" lon="8.841300058768589"><ele>257.0</ele><time>2026-03-28T13:50:14Z</time></trkpt><trkpt lat="45.6544654394132" lon="8.841328675968855"><ele>256.5</ele><time>2026-03-28T13:50:15Z</time></trkpt><trkpt lat="45.654345821277715" lon="8.84136652692192"><ele>256.0</ele><time>2026-03-28T13:50:16Z</time></trkpt><trkpt lat="45.65422567941844" lon="8.84140693546304"><ele>255.5</ele><time>2026-03-28T13:50:17Z</time></trkpt><trkpt lat="45.65411256546089" lon="8.841446968635369"><ele>255.0</ele><time>2026-03-28T13:50:18Z</time></trkpt><trkpt lat="45.65401666616761" lon="8.841477297682438"><ele>255.0</ele><time>2026-03-28T13:50:19Z</time></trkpt><trkpt lat="45.653949024193615" lon="8.841490578312658"><ele>255.0</ele><time>2026-03-28T13:50:20Z</time></trkpt><trkpt lat="45.653835145836176" lon="8.841522255237257"><ele>255.0</ele><time>2026-03-28T13:50:22Z</time></trkpt><trkpt lat="45.65374953567368" lon="8.841490286647424"><ele>255.0</ele><time>2026-03-28T13:50:24Z</time></trkpt><trkpt lat="45.65370120453994" lon="8.841341486161324"><ele>255.0</ele><time>2026-03-28T13:50:26Z</time></trkpt><trkpt lat="45.65369882390482" lon="8.841234248577903"><ele>255.0</ele><time>2026-03-28T13:50:27Z</time></trkpt><trkpt lat="45.653694203276096" lon="8.841068063297726"><ele>255.0</ele><time>2026-03-28T13:50:28Z</time></trkpt><trkpt lat="45.65368078983515" lon="8.840905975249038"><ele>255.0</ele><time>2026-03-28T13:50:29Z</time></trkpt><trkpt lat="45.65368453189199" lon="8.840753777752768"><ele>255.0</ele><time>2026-03-28T13:50:30Z</time></trkpt><trkpt lat="45.653713083187974" lon="8.840629576822128"><ele>255.0</ele><time>2026-03-28T13:50:31Z</time></trkpt><trkpt lat="45.65376450275337" lon="8.840526198129883"><ele>254.4</ele><time>2026-03-28T13:50:32Z</time></trkpt><trkpt lat="45.65384045580095" lon="8.84044508344238"><ele>253.8</ele><time>2026-03-28T13:50:33Z</time></trkpt><trkpt lat="45.65393007325119" lon="8.840380674960137"><ele>253.2</ele><time>2026-03-28T13:50:34Z</time></trkpt><trkpt lat="45.654032639713925" lon="8.840339046747584"><ele>252.6</ele><time>2026-03-28T13:50:35Z</time></trkpt><trkpt lat="45.654158979715625" lon="8.84031248083511"><ele>252.0</ele><time>2026-03-28T13:50:36Z</time></trkpt><trkpt lat="45.65428594252796" lon="8.840314391929331"><ele>252.0</ele><time>2026-03-28T13:50:37Z</time></trkpt><trkpt lat="45.654412674118184" lon="8.840315520112776"><ele>252.0</ele><time>2026-03-28T13:50:38Z</time></trkpt><trkpt lat="45.65453469073704" lon="8.840312818255255"><ele>252.0</ele><time>2026-03-28T13:50:39Z</time></trkpt><trkpt lat="45.65464057118257" lon="8.84029782801688"><ele>252.0</ele><time>2026-03-28T13:50:40Z</time></trkpt><trkpt lat="45.65473698541655" lon="8.8402798862734"><ele>252.66666666666666</ele><time>2026-03-28T13:50:41Z</time></trkpt><trkpt lat="45.65481363228824" lon="8.840266317666606"><ele>253.33333333333331</ele><time>2026-03-28T13:50:42Z</time></trkpt><trkpt lat="45.65489012812228" lon="8.840258547818852"><ele>254.0</ele><time>2026-03-28T13:50:44Z</time></trkpt><trkpt lat="45.65495935044995" lon="8.840286453675631"><ele>254.66666666666666</ele><time>2026-03-28T13:50:46Z</time></trkpt><trkpt lat="45.65498039368649" lon="8.840391107045813"><ele>255.33333333333331</ele><time>2026-03-28T13:50:48Z</time></trkpt><trkpt lat="45.6549743033249" lon="8.840569772877654"><ele>256.0</ele><time>2026-03-28T13:50:50Z</time></trkpt><trkpt lat="45.654930708143524" lon="8.840688740652157"><ele>255.99999999999997</ele><time>2026-03-28T13:50:52Z</time></trkpt><trkpt lat="45.654959843287614" lon="8.840781761846527"><ele>256.0</ele><time>2026-03-28T13:50:54Z</time></trkpt><trkpt lat="45.655062719922654" lon="8.840856852365887"><ele>256.0</ele><time>2026-03-28T13:50:56Z</time></trkpt><trkpt lat="45.65507829757017" lon="8.840976065403323"><ele>256.0</ele><time>2026-03-28T13:50:58Z</time></trkpt><trkpt lat="45.65500740603391" lon="8.84106459571063"><ele>255.99999999999997</ele><time>2026-03-28T13:51:00Z</time></trkpt><trkpt lat="45.65493737170527" lon="8.841008548241831"><ele>256.0</ele><time>2026-03-28T13:51:02Z</time></trkpt><trkpt lat="45.654906616710626" lon="8.840923723601527"><ele>255.99999999999997</ele><time>2026-03-28T13:51:03Z</time></trkpt><trkpt lat="45.65489022839123" lon="8.840830112947518"><ele>256.0</ele><time>2026-03-28T13:51:04Z</time></trkpt><trkpt lat="45.65486320236624" lon="8.840717027612312"><ele>256.0</ele><time>2026-03-28T13:51:05Z</time></trkpt><trkpt lat="45.654830736552114" lon="8.840590138107835"><ele>256.0</ele><time>2026-03-28T13:51:06Z</time></trkpt><trkpt lat="45.65479745602577" lon="8.840491332558777"><ele>255.99999999999997</ele><time>2026-03-28T13:51:07Z</time></trkpt><trkpt lat="45.65472912409494" lon="8.840374763913653"><ele>256.0</ele><time>2026-03-28T13:51:09Z</time></trkpt><trkpt lat="45.65460230723512" lon="8.840369361703399"><ele>256.0</ele><time>2026-03-28T13:51:11Z</time></trkpt><trkpt lat="45.65451491615358" lon="8.840409620717699"><ele>256.0</ele><time>2026-03-28T13:51:12Z</time></trkpt><trkpt lat="45.65442738455647" lon="8.840456710478584"><ele>256.0</ele><time>2026-03-28T13:51:13Z</time></trkpt><trkpt lat="45.65429847087169" lon="8.840489364614253"><ele>256.0</ele><time>2026-03-28T13:51:15Z</time></trkpt><trkpt lat="45.65418734749481" lon="8.840510454162533"><ele>256.0</ele><time>2026-03-28T13:51:16Z</time></trkpt><trkpt lat="45.654073279697904" lon="8.840519212309658"><ele>255.33333333333331</ele><time>2026-03-28T13:51:17Z</time></trkpt><trkpt lat="45.653971272359506" lon="8.840527342906835"><ele>254.66666666666666</ele><time>2026-03-28T13:51:18Z</time></trkpt><trkpt lat="45.653877966774665" lon="8.840551919525387"><ele>254.0</ele><time>2026-03-28T13:51:20Z</time></trkpt><trkpt lat="45.6538469100278" lon="8.840642364820996"><ele>253.33333333333331</ele><time>2026-03-28T13:51:22Z</time></trkpt><trkpt lat="45.6538919695332" lon="8.840729909685846"><ele>252.66666666666666</ele><time>2026-03-28T13:51:24Z</time></trkpt><trkpt lat="45.65398507847562" lon="8.840710547768808"><ele>252.0</ele><time>2026-03-28T13:51:26Z</time></trkpt><trkpt lat="45.65406398066186" lon="8.840605955765586"><ele>252.0</ele><time>2026-03-28T13:51:28Z</time></trkpt><trkpt lat="45.65418700200597" lon="8.840600659093637"><ele>252.0</ele><time>2026-03-28T13:51:30Z</time></trkpt><trkpt lat="45.654249995725394" lon="8.840603457637293"><ele>252.0</ele><time>2026-03-28T13:51:31Z</time></trkpt><trkpt lat="45.65431881370326" lon="8.840598952190298"><ele>252.0</ele><time>2026-03-28T13:51:32Z</time></trkpt><trkpt lat="45.65440394463446" lon="8.840582431595205"><ele>252.0</ele><time>2026-03-28T13:51:34Z</time></trkpt><trkpt lat="45.65449017265662" lon="8.84060220786832"><ele>252.0</ele><time>2026-03-28T13:51:36Z</time></trkpt><trkpt lat="45.654463065167775" lon="8.840732571724535"><ele>252.0</ele><time>2026-03-28T13:51:39Z</time></trkpt><trkpt lat="45.654353872056305" lon="8.840755384032434"><ele>252.0</ele><time>2026-03-28T13:51:41Z</time></trkpt><trkpt lat="45.65429645605294" lon="8.840879833543928"><ele>252.0</ele><time>2026-03-28T13:51:43Z</time></trkpt><trkpt lat="45.654311197618725" lon="8.840978763602601"><ele>252.0</ele><time>2026-03-28T13:51:45Z</time></trkpt><trkpt lat="45.654383951254445" lon="8.840955623921486"><ele>252.0</ele><time>2026-03-28T13:51:48Z</time></trkpt><trkpt lat="45.654429310984135" lon="8.840831697432266"><ele>252.8</ele><time>2026-03-28T13:51:50Z</time></trkpt><trkpt lat="45.65451628389601" lon="8.840787541187384"><ele>253.6</ele><time>2026-03-28T13:51:52Z</time></trkpt><trkpt lat="45.654573398362245" lon="8.840713093794022"><ele>254.40000000000003</ele><time>2026-03-28T13:51:54Z</time></trkpt><trkpt lat="45.654596550203514" lon="8.840577187065085"><ele>255.20000000000002</ele><time>2026-03-28T13:51:56Z</time></trkpt><trkpt lat="45.6546670986654" lon="8.84048992821282"><ele>256.0</ele><time>2026-03-28T13:51:58Z</time></trkpt><trkpt lat="45.65475765618551" lon="8.84057542854459"><ele>256.0</ele><time>2026-03-28T13:52:00Z</time></trkpt><trkpt lat="45.65479785538309" lon="8.840671019797279"><ele>255.99999999999997</ele><time>2026-03-28T13:52:01Z</time></trkpt><trkpt lat="45.65482696657155" lon="8.84077732877446"><ele>256.0</ele><time>2026-03-28T13:52:02Z</time></trkpt><trkpt lat="45.65485013355405" lon="8.840870268914285"><ele>256.0</ele><time>2026-03-28T13:52:03Z</time></trkpt><trkpt lat="45.65487530286644" lon="8.840957435009043"><ele>255.99999999999997</ele><time>2026-03-28T13:52:04Z</time></trkpt><trkpt lat="45.654901620572595" lon="8.841043669011507"><ele>256.0</ele><time>2026-03-28T13:52:05Z</time></trkpt><trkpt lat="45.65491140241092" lon="8.841141248473033"><ele>256.0</ele><time>2026-03-28T13:52:07Z</time></trkpt><trkpt lat="45.65484142236599" lon="8.84113920469563"><ele>256.0</ele><time>2026-03-28T13:52:09Z</time></trkpt><trkpt lat="45.65477915559694" lon="8.840988430462335"><ele>256.0</ele><time>2026-03-28T13:52:11Z</time></trkpt><trkpt lat="45.65474751991259" lon="8.84089742109213"><ele>256.0</ele><time>2026-03-28T13:52:12Z</time></trkpt><trkpt lat="45.65467193962655" lon="8.840830567442852"><ele>256.0</ele><time>2026-03-28T13:52:14Z</time></trkpt><trkpt lat="45.65455094634971" lon="8.840875894882435"><ele>256.0</ele><time>2026-03-28T13:52:16Z</time></trkpt><trkpt lat="45.654493577380705" lon="8.840920309990317"><ele>255.99999999999997</ele><time>2026-03-28T13:52:17Z</time></trkpt><trkpt lat="45.65453035936097" lon="8.84102320004908"><ele>256.0</ele><time>2026-03-28T13:52:22Z</time></trkpt><trkpt lat="45.65462302813689" lon="8.840959665308487"><ele>256.0</ele><time>2026-03-28T13:52:24Z</time></trkpt><trkpt lat="45.65468794908209" lon="8.840898168863863"><ele>256.0</ele><time>2026-03-28T13:52:26Z</time></trkpt><trkpt lat="45.654711372799305" lon="8.841004560958734"><ele>255.99999999999997</ele><time>2026-03-28T13:52:28Z</time></trkpt><trkpt lat="45.654648272227156" lon="8.841092162828767"><ele>256.0</ele><time>2026-03-28T13:52:30Z</time></trkpt><trkpt lat="45.654579346523" lon="8.841083933783557"><ele>256.2</ele><time>2026-03-28T13:52:31Z</time></trkpt><trkpt lat="45.65447838224899" lon="8.841078923190851"><ele>256.40000000000003</ele><time>2026-03-28T13:52:32Z</time></trkpt><trkpt lat="45.65436790395979" lon="8.841088091249851"><ele>256.6</ele><time>2026-03-28T13:52:33Z</time></trkpt><trkpt lat="45.65426537579669" lon="8.841105742955914"><ele>256.8</ele><time>2026-03-28T13:52:34Z</time></trkpt><trkpt lat="45.65419125892713" lon="8.841119547452296"><ele>257.0</ele><time>2026-03-28T13:52:35Z</time></trkpt><trkpt lat="45.65411646892376" lon="8.841157669383442"><ele>257.0</ele><time>2026-03-28T13:52:37Z</time></trkpt><trkpt lat="45.654135103166766" lon="8.841266836515869"><ele>257.0</ele><time>2026-03-28T13:52:40Z</time></trkpt><trkpt lat="45.65421349912433" lon="8.841299657950765"><ele>257.0</ele><time>2026-03-28T13:52:42Z</time></trkpt><trkpt lat="45.65427463592932" lon="8.841276826336387"><ele>257.0</ele><time>2026-03-28T13:52:43Z</time></trkpt><trkpt lat="45.65434059726843" lon="8.841246342499979"><ele>257.0</ele><time>2026-03-28T13:52:44Z</time></trkpt><trkpt lat="45.654480576852116" lon="8.841186893577893"><ele>257.0</ele><time>2026-03-28T13:52:46Z</time></trkpt><trkpt lat="45.65457980843223" lon="8.841146639625908"><ele>257.0</ele><time>2026-03-28T13:52:47Z</time></trkpt><trkpt lat="45.654652641363334" lon="8.84112365545531"><ele>257.0</ele><time>2026-03-28T13:52:48Z</time></trkpt><trkpt lat="45.65471335652931" lon="8.841095762464635"><ele>257.0</ele><time>2026-03-28T13:52:49Z</time></trkpt><trkpt lat="45.65479165395365" lon="8.84107158904793"><ele>257.0</ele><time>2026-03-28T13:52:51Z</time></trkpt><trkpt lat="45.65481693549759" lon="8.8411777326196"><ele>257.0</ele><time>2026-03-28T13:52:53Z</time></trkpt><trkpt lat="45.65471227369265" lon="8.841283609256699"><ele>257.0</ele><time>2026-03-28T13:52:55Z</time></trkpt><trkpt lat="45.65461994997015" lon="8.841297671884194"><ele>257.0</ele><time>2026-03-28T13:52:56Z</time></trkpt><trkpt lat="45.65450611986285" lon="8.84131232596474"><ele>257.0</ele><time>2026-03-28T13:52:57Z</time></trkpt><trkpt lat="45.65437515863268" lon="8.841354316939848"><ele>257.0</ele><time>2026-03-28T13:52:58Z</time></trkpt><trkpt lat="45.654247245438626" lon="8.841399543977646"><ele>257.0</ele><time>2026-03-28T13:52:59Z</time></trkpt><trkpt lat="45.6541415094311" lon="8.841436112082372"><ele>256.6666666666667</ele><time>2026-03-28T13:53:00Z</time></trkpt><trkpt lat="45.6540469299476" lon="8.841465039214308"><ele>256.33333333333337</ele><time>2026-03-28T13:53:01Z</time></trkpt><trkpt lat="45.65395937583743" lon="8.841490067642171"><ele>256.0</ele><time>2026-03-28T13:53:02Z</time></trkpt><trkpt lat="45.65389283902714" lon="8.841508982676284"><ele>255.66666666666669</ele><time>2026-03-28T13:53:03Z</time></trkpt><trkpt lat="45.65379674058881" lon="8.841527244802291"><ele>255.33333333333334</ele><time>2026-03-28T13:53:05Z</time></trkpt><trkpt lat="45.6537265420653" lon="8.841444748802505"><ele>255.0</ele><time>2026-03-28T13:53:07Z</time></trkpt><trkpt lat="45.653709085846415" lon="8.841350034695207"><ele>255.0</ele><time>2026-03-28T13:53:08Z</time></trkpt><trkpt lat="45.65370305491716" lon="8.841215087342066"><ele>255.0</ele><time>2026-03-28T13:53:09Z</time></trkpt><trkpt lat="45.65369027563478" lon="8.84104061898029"><ele>255.0</ele><time>2026-03-28T13:53:10Z</time></trkpt><trkpt lat="45.65368088053676" lon="8.840890375141694"><ele>255.0</ele><time>2026-03-28T13:53:11Z</time></trkpt><trkpt lat="45.65368847870317" lon="8.840755725635368"><ele>255.0</ele><time>2026-03-28T13:53:12Z</time></trkpt><trkpt lat="45.653718360114176" lon="8.840629742786557"><ele>254.4</ele><time>2026-03-28T13:53:13Z</time></trkpt><trkpt lat="45.65377623690334" lon="8.84052198966813"><ele>253.8</ele><time>2026-03-28T13:53:14Z</time></trkpt><trkpt lat="45.65386057425735" lon="8.840436036753147"><ele>253.2</ele><time>2026-03-28T13:53:15Z</time></trkpt><trkpt lat="45.65395910714437" lon="8.840373036235238"><ele>252.6</ele><time>2026-03-28T13:53:16Z</time></trkpt><trkpt lat="45.65408036738131" lon="8.840331290423483"><ele>252.0</ele><time>2026-03-28T13:53:17Z</time></trkpt><trkpt lat="45.6542052133865" lon="8.840320964587237"><ele>252.0</ele><time>2026-03-28T13:53:18Z</time></trkpt><trkpt lat="45.65434440362522" lon="8.840323587098487"><ele>252.0</ele><time>2026-03-28T13:53:19Z</time></trkpt><trkpt lat="45.65448239430517" lon="8.840323454323435"><ele>252.0</ele><time>2026-03-28T13:53:20Z</time></trkpt><trkpt lat="45.654587869784294" lon="8.840317132681902"><ele>252.0</ele><time>2026-03-28T13:53:21Z</time></trkpt><trkpt lat="45.654672733793646" lon="8.840299094515236"><ele>252.66666666666666</ele><time>2026-03-28T13:53:22Z</time></trkpt><trkpt lat="45.654752278324764" lon="8.840282279311056"><ele>253.33333333333331</ele><time>2026-03-28T13:53:23Z</time></trkpt><trkpt lat="45.65482673324554" lon="8.840270791948479"><ele>254.0</ele><time>2026-03-28T13:53:24Z</time></trkpt><trkpt lat="45.65492527802161" lon="8.840269012385955"><ele>254.66666666666666</ele><time>2026-03-28T13:53:26Z</time></trkpt><trkpt lat="45.65497758748504" lon="8.840337371128106"><ele>255.33333333333331</ele><time>2026-03-28T13:53:28Z</time></trkpt><trkpt lat="45.65498117251013" lon="8.84047820686013"><ele>256.0</ele><time>2026-03-28T13:53:30Z</time></trkpt><trkpt lat="45.654956869693414" lon="8.840631977818338"><ele>255.99999999999997</ele><time>2026-03-28T13:53:32Z</time></trkpt><trkpt lat="45.654931347953976" lon="8.840740794510928"><ele>256.0</ele><time>2026-03-28T13:53:34Z</time></trkpt><trkpt lat="45.655005724511625" lon="8.840823263891554"><ele>256.0</ele><time>2026-03-28T13:53:36Z</time></trkpt><trkpt lat="45.655080207335054" lon="8.840918651280562"><ele>256.0</ele><time>2026-03-28T13:53:38Z</time></trkpt><trkpt lat="45.655052111244856" lon="8.841035847797478"><ele>255.99999999999997</ele><time>2026-03-28T13:53:40Z</time></trkpt><trkpt lat="45.65496633173649" lon="8.841051325121287"><ele>256.0</ele><time>2026-03-28T13:53:42Z</time></trkpt><trkpt lat="45.65491509026083" lon="8.8409689557826"><ele>256.0</ele><time>2026-03-28T13:53:44Z</time></trkpt><trkpt lat="45.6548951319052" lon="8.840865325639541"><ele>256.0</ele><time>2026-03-28T13:53:45Z</time></trkpt><trkpt lat="45.65487130139577" lon="8.840750481411247"><ele>256.0</ele><time>2026-03-28T13:53:46Z</time></trkpt><trkpt lat="45.65483700934808" lon="8.840613667778545"><ele>256.0</ele><time>2026-03-28T13:53:47Z</time></trkpt><trkpt lat="45.65479962420868" lon="8.840500971544518"><ele>256.0</ele><time>2026-03-28T13:53:48Z</time></trkpt><trkpt lat="45.65473069681927" lon="8.84038575477573"><ele>256.0</ele><time>2026-03-28T13:53:50Z</time></trkpt><trkpt lat="45.654609321745596" lon="8.840379424293191"><ele>256.0</ele><time>2026-03-28T13:53:52Z</time></trkpt><trkpt lat="45.65452684071991" lon="8.840417194603006"><ele>256.0</ele><time>2026-03-28T13:53:53Z</time></trkpt><trkpt lat="45.654445045534054" lon="8.840457623502669"><ele>256.0</ele><time>2026-03-28T13:53:54Z</time></trkpt><trkpt lat="45.65433017237086" lon="8.840483089936031"><ele>256.0</ele><time>2026-03-28T13:53:56Z</time></trkpt><trkpt lat="45.65422531187028" lon="8.840511914346418"><ele>255.20000000000002</ele><time>2026-03-28T13:53:57Z</time></trkpt><trkpt lat="45.654111721272514" lon="8.840522951999404"><ele>254.40000000000003</ele><time>2026-03-28T13:53:58Z</time></trkpt><trkpt lat="45.654016208112175" lon="8.840522962954827"><ele>253.6</ele><time>2026-03-28T13:53:59Z</time></trkpt><trkpt lat="45.653944908633505" lon="8.840531332056951"><ele>252.8</ele><time>2026-03-28T13:54:00Z</time></trkpt><trkpt lat="45.653867828175144" lon="8.84057042095159"><ele>252.0</ele><time>2026-03-28T13:54:02Z</time></trkpt><trkpt lat="45.65386872616257" lon="8.840697538915125"><ele>252.0</ele><time>2026-03-28T13:54:05Z</time></trkpt><trkpt lat="45.65393695303228" lon="8.840735692810293"><ele>252.0</ele><time>2026-03-28T13:54:07Z</time></trkpt><trkpt lat="45.65401323749069" lon="8.84065745999742"><ele>252.0</ele><time>2026-03-28T13:54:09Z</time></trkpt><trkpt lat="45.654110885394836" lon="8.840589317744811"><ele>252.0</ele><time>2026-03-28T13:54:11Z</time></trkpt><trkpt lat="45.654175573312486" lon="8.840598809230265"><ele>252.0</ele><time>2026-03-28T13:54:12Z</time></trkpt><trkpt lat="45.65424562397024" lon="8.840604825613584"><ele>252.0</ele><time>2026-03-28T13:54:13Z</time></trkpt><trkpt lat="45.65431170790776" lon="8.840599136979417"><ele>252.0</ele><time>2026-03-28T13:54:14Z</time></trkpt><trkpt lat="45.65440161735081" lon="8.84058435562572"><ele>252.0</ele><time>2026-03-28T13:54:16Z</time></trkpt><trkpt lat="45.65449488247985" lon="8.840597848346851"><ele>252.0</ele><time>2026-03-28T13:54:18Z</time></trkpt><trkpt lat="45.65449557302605" lon="8.84069973193777"><ele>252.0</ele><time>2026-03-28T13:54:20Z</time></trkpt><trkpt lat="45.65438250785464" lon="8.84075144172195"><ele>252.0</ele><time>2026-03-28T13:54:22Z</time></trkpt><trkpt lat="45.654308784767785" lon="8.840823331255892"><ele>252.0</ele><time>2026-03-28T13:54:24Z</time></trkpt><trkpt lat="45.654302917306865" lon="8.840955575813961"><ele>252.0</ele><time>2026-03-28T13:54:26Z</time></trkpt><trkpt lat="45.654381385303445" lon="8.84096273327084"><ele>252.0</ele><time>2026-03-28T13:54:30Z</time></trkpt><trkpt lat="45.65442533478882" lon="8.840857102598905"><ele>252.0</ele><time>2026-03-28T13:54:32Z</time></trkpt><trkpt lat="45.65451393913747" lon="8.84077970552066"><ele>252.0</ele><time>2026-03-28T13:54:34Z</time></trkpt><trkpt lat="45.654568622875246" lon="8.840727850622482"><ele>252.0</ele><time>2026-03-28T13:54:36Z</time></trkpt><trkpt lat="45.654584809379024" lon="8.840621402295197"><ele>252.8</ele><time>2026-03-28T13:54:38Z</time></trkpt><trkpt lat="45.65464833336903" lon="8.840485039636127"><ele>253.6</ele><time>2026-03-28T13:54:40Z</time></trkpt><trkpt lat="45.65474426328531" lon="8.840561700662168"><ele>254.40000000000003</ele><time>2026-03-28T13:54:42Z</time></trkpt><trkpt lat="45.65478848345931" lon="8.840661268883409"><ele>255.20000000000002</ele><time>2026-03-28T13:54:43Z</time></trkpt><trkpt lat="45.654828877747875" lon="8.840781347933477"><ele>256.0</ele><time>2026-03-28T13:54:44Z</time></trkpt><trkpt lat="45.65485426977442" lon="8.840887493329912"><ele>256.0</ele><time>2026-03-28T13:54:45Z</time></trkpt><trkpt lat="45.65488262124071" lon="8.840968736756926"><ele>255.99999999999997</ele><time>2026-03-28T13:54:46Z</time></trkpt><trkpt lat="45.65490587314526" lon="8.841060702787868"><ele>256.0</ele><time>2026-03-28T13:54:47Z</time></trkpt><trkpt lat="45.65486867984591" lon="8.84115253734495"><ele>256.0</ele><time>2026-03-28T13:54:50Z</time></trkpt><trkpt lat="45.65480603378334" lon="8.8410684239373"><ele>255.99999999999997</ele><time>2026-03-28T13:54:52Z</time></trkpt><trkpt lat="45.65477761332403" lon="8.840970744670749"><ele>256.0</ele><time>2026-03-28T13:54:53Z</time></trkpt><trkpt lat="45.65474101665907" lon="8.840880177852338"><ele>256.0</ele><time>2026-03-28T13:54:54Z</time></trkpt><trkpt lat="45.654658892543864" lon="8.840829189086794"><ele>256.0</ele><time>2026-03-28T13:54:56Z</time></trkpt><trkpt lat="45.65459283675157" lon="8.840853002554294"><ele>255.99999999999997</ele><time>2026-03-28T13:54:57Z</time></trkpt><trkpt lat="45.65452044006054" lon="8.840893572039237"><ele>256.0</ele><time>2026-03-28T13:54:58Z</time></trkpt><trkpt lat="45.65446678756993" lon="8.840956349412831"><ele>256.0</ele><time>2026-03-28T13:55:00Z</time></trkpt><trkpt lat="45.65451942715093" lon="8.841032544069868"><ele>255.99999999999997</ele><time>2026-03-28T13:55:03Z</time></trkpt><trkpt lat="45.65460509776207" lon="8.840986792975693"><ele>256.0</ele><time>2026-03-28T13:55:05Z</time></trkpt><trkpt lat="45.65464691929412" lon="8.84091581058302"><ele>256.0</ele><time>2026-03-28T13:55:06Z</time></trkpt><trkpt lat="45.65471491359939" lon="8.84093059856124"><ele>256.2</ele><time>2026-03-28T13:55:08Z</time></trkpt><trkpt lat="45.654707284858176" lon="8.841062522711955"><ele>256.40000000000003</ele><time>2026-03-28T13:55:10Z</time></trkpt><trkpt lat="45.65457128968913" lon="8.841095141293309"><ele>256.6</ele><time>2026-03-28T13:55:12Z</time></trkpt><trkpt lat="45.65448371270785" lon="8.841085968746476"><ele>256.8</ele><time>2026-03-28T13:55:13Z</time></trkpt><trkpt lat="45.654372542315144" lon="8.841088523499788"><ele>257.0</ele><time>2026-03-28T13:55:14Z</time></trkpt><trkpt lat="45.6542896944089" lon="8.84109753546774"><ele>256.6666666666667</ele><time>2026-03-28T13:55:15Z</time></trkpt><trkpt lat="45.65421257695207" lon="8.84111054995468"><ele>256.33333333333337</ele><time>2026-03-28T13:55:16Z</time></trkpt><trkpt lat="45.6541264792766" lon="8.841149786889648"><ele>256.0</ele><time>2026-03-28T13:55:18Z</time></trkpt><trkpt lat="45.65412256687342" lon="8.841243440538046"><ele>255.66666666666669</ele><time>2026-03-28T13:55:20Z</time></trkpt><trkpt lat="45.65422274472285" lon="8.841295668421393"><ele>255.33333333333334</ele><time>2026-03-28T13:55:23Z</time></trkpt><trkpt lat="45.65429821946436" lon="8.841274964852639"><ele>255.0</ele><time>2026-03-28T13:55:24Z</time></trkpt><trkpt lat="45.654356317637706" lon="8.841238090957448"><ele>255.33333333333334</ele><time>2026-03-28T13:55:25Z</time></trkpt><trkpt lat="45.65447016670228" lon="8.84119495319686"><ele>255.66666666666669</ele><time>2026-03-28T13:55:27Z</time></trkpt><trkpt lat="45.65456246155224" lon="8.841157541700259"><ele>256.0</ele><time>2026-03-28T13:55:28Z</time></trkpt><trkpt lat="45.654649666017306" lon="8.84111816405189"><ele>256.33333333333337</ele><time>2026-03-28T13:55:29Z</time></trkpt><trkpt lat="45.6547117828873" lon="8.841097178209484"><ele>256.6666666666667</ele><time>2026-03-28T13:55:30Z</time></trkpt><trkpt lat="45.65478334941008" lon="8.841079401368203"><ele>257.0</ele><time>2026-03-28T13:55:32Z</time></trkpt><trkpt lat="45.65481793873041" lon="8.841161898676603"><ele>257.0</ele><time>2026-03-28T13:55:34Z</time></trkpt><trkpt lat="45.654751253940034" lon="8.841265904798096"><ele>257.0</ele><time>2026-03-28T13:55:36Z</time></trkpt><trkpt lat="45.65466852972596" lon="8.841289414142583"><ele>257.0</ele><time>2026-03-28T13:55:37Z</time></trkpt><trkpt lat="45.65456219280676" lon="8.841303059181433"><ele>257.0</ele><time>2026-03-28T13:55:38Z</time></trkpt><trkpt lat="45.65442770701809" lon="8.841336371508481"><ele>257.0</ele><time>2026-03-28T13:55:39Z</time></trkpt><trkpt lat="45.65429961780527" lon="8.841378574782533"><ele>256.6</ele><time>2026-03-28T13:55:40Z</time></trkpt><trkpt lat="45.65417475275437" lon="8.841425090642604"><ele>256.2</ele><time>2026-03-28T13:55:41Z</time></trkpt><trkpt lat="45.65405768523771" lon="8.841459797970712"><ele>255.8</ele><time>2026-03-28T13:55:42Z</time></trkpt><trkpt lat="45.65396261528088" lon="8.841488762495404"><ele>255.4</ele><time>2026-03-28T13:55:43Z</time></trkpt><trkpt lat="45.65389934545161" lon="8.841506622445287"><ele>255.0</ele><time>2026-03-28T13:55:44Z</time></trkpt><trkpt lat="45.65379219459486" lon="8.841517437982398"><ele>255.0</ele><time>2026-03-28T13:55:46Z</time></trkpt><trkpt lat="45.65372099069325" lon="8.841430813561281"><ele>255.0</ele><time>2026-03-28T13:55:48Z</time></trkpt><trkpt lat="45.653703042021604" lon="8.841335512206646"><ele>255.0</ele><time>2026-03-28T13:55:49Z</time></trkpt><trkpt lat="45.653701208431" lon="8.841207696322028"><ele>255.0</ele><time>2026-03-28T13:55:50Z</time></trkpt><trkpt lat="45.65368917710718" lon="8.84109989153489"><ele>255.0</ele><time>2026-03-28T13:55:51Z</time></trkpt><trkpt lat="45.65366893469475" lon="8.84094211834704"><ele>255.0</ele><time>2026-03-28T13:55:53Z</time></trkpt><trkpt lat="45.653620670560734" lon="8.840875729955359"><ele>254.4</ele><time>2026-03-28T13:55:56Z</time></trkpt><trkpt lat="45.65355876685219" lon="8.8409657083102"><ele>253.8</ele><time>2026-03-28T13:55:59Z</time></trkpt><trkpt lat="45.653488385272624" lon="8.841039122166215"><ele>253.2</ele><time>2026-03-28T13:56:02Z</time></trkpt><trkpt lat="45.6533684547253" lon="8.840988828449994"><ele>252.6</ele><time>2026-03-28T13:56:04Z</time></trkpt><trkpt lat="45.65329574676765" lon="8.840953650678047"><ele>252.0</ele><time>2026-03-28T13:56:05Z</time></trkpt><trkpt lat="45.65319561868475" lon="8.84091481085031"><ele>251.0</ele><time>2026-03-28T13:56:07Z</time></trkpt><trkpt lat="45.65313110096312" lon="8.840891402501903"><ele>251.0</ele><time>2026-03-28T13:56:09Z</time></trkpt></trkseg><trkseg><trkpt lat="45.65369225123651" lon="8.84061050334855"><ele>252.0</ele><time>2026-03-28T14:20:31Z</time></trkpt><trkpt lat="45.65380836370306" lon="8.840490885562973"><ele>252.0</ele><time>2026-03-28T14:20:33Z</time></trkpt><trkpt lat="45.65388310566757" lon="8.840429772861778"><ele>252.0</ele><time>2026-03-28T14:20:34Z</time></trkpt><trkpt lat="45.653979528933036" lon="8.84036936153372"><ele>252.0</ele><time>2026-03-28T14:20:35Z</time></trkpt><trkpt lat="45.65408297670925" lon="8.84032821094866"><ele>252.0</ele><time>2026-03-28T14:20:36Z</time></trkpt><trkpt lat="45.65420033779561" lon="8.840304432164906"><ele>252.0</ele><time>2026-03-28T14:20:37Z</time></trkpt><trkpt lat="45.654326136650674" lon="8.840312503180058"><ele>252.0</ele><time>2026-03-28T14:20:38Z</time></trkpt><trkpt lat="45.654442567927525" lon="8.840321828873925"><ele>252.0</ele><time>2026-03-28T14:20:39Z</time></trkpt><trkpt lat="45.65454872051773" lon="8.840312909173813"><ele>252.0</ele><time>2026-03-28T14:20:40Z</time></trkpt><trkpt lat="45.65464542526578" lon="8.840289253025514"><ele>252.0</ele><time>2026-03-28T14:20:41Z</time></trkpt><trkpt lat="45.65473569778072" lon="8.840271581449743"><ele>252.66666666666666</ele><time>2026-03-28T14:20:42Z</time></trkpt><trkpt lat="45.65481877638232" lon="8.840266196372479"><ele>253.33333333333331</ele><time>2026-03-28T14:20:43Z</time></trkpt><trkpt lat="45.65490682404882" lon="8.840263114384676"><ele>254.0</ele><time>2026-03-28T14:20:45Z</time></trkpt><trkpt lat="45.65496747138284" lon="8.84031709117475"><ele>254.66666666666666</ele><time>2026-03-28T14:20:47Z</time></trkpt><trkpt lat="45.654977007439605" lon="8.840427304014272"><ele>255.33333333333331</ele><time>2026-03-28T14:20:49Z</time></trkpt><trkpt lat="45.65496586412846" lon="8.840601408815452"><ele>256.0</ele><time>2026-03-28T14:20:51Z</time></trkpt><trkpt lat="45.654921605504235" lon="8.840701879799125"><ele>255.99999999999997</ele><time>2026-03-28T14:20:53Z</time></trkpt><trkpt lat="45.654961842662246" lon="8.840787203888253"><ele>256.0</ele><time>2026-03-28T14:20:55Z</time></trkpt><trkpt lat="45.65505841380419" lon="8.840857336084904"><ele>256.0</ele><time>2026-03-28T14:20:57Z</time></trkpt><trkpt lat="45.65506932494174" lon="8.840972120536504"><ele>256.0</ele><time>2026-03-28T14:20:59Z</time></trkpt><trkpt lat="45.65501610499413" lon="8.841060840468929"><ele>255.99999999999997</ele><time>2026-03-28T14:21:01Z</time></trkpt><trkpt lat="45.65494424208307" lon="8.841020149498174"><ele>256.0</ele><time>2026-03-28T14:21:03Z</time></trkpt><trkpt lat="45.65489746195665" lon="8.840871018214466"><ele>256.0</ele><time>2026-03-28T14:21:05Z</time></trkpt><trkpt lat="45.65487181506307" lon="8.840750392317151"><ele>256.0</ele><time>2026-03-28T14:21:06Z</time></trkpt><trkpt lat="45.65484364747353" lon="8.840626815026917"><ele>256.0</ele><time>2026-03-28T14:21:07Z</time></trkpt><trkpt lat="45.654809038677485" lon="8.84052457398321"><ele>256.0</ele><time>2026-03-28T14:21:08Z</time></trkpt><trkpt lat="45.65474892177861" lon="8.840397188580333"><ele>256.0</ele><time>2026-03-28T14:21:10Z</time></trkpt><trkpt lat="45.65464156815873" lon="8.840361676939523"><ele>256.0</ele><time>2026-03-28T14:21:12Z</time></trkpt><trkpt lat="45.654572570350794" lon="8.840392367071942"><ele>256.0</ele><time>2026-03-28T14:21:13Z</time></trkpt><trkpt lat="45.65448762228502" lon="8.840434882733689"><ele>256.0</ele><time>2026-03-28T14:21:14Z</time></trkpt><trkpt lat="45.65440819308994" lon="8.840460802205047"><ele>256.0</ele><time>2026-03-28T14:21:15Z</time></trkpt><trkpt lat="45.65428934288558" lon="8.840486034545073"><ele>256.0</ele><time>2026-03-28T14:21:17Z</time></trkpt><trkpt lat="45.654178735093275" lon="8.840517536419481"><ele>255.33333333333331</ele><time>2026-03-28T14:21:18Z</time></trkpt><trkpt lat="45.6540715383673" lon="8.840518724917711"><ele>254.66666666666666</ele><time>2026-03-28T14:21:19Z</time></trkpt><trkpt lat="45.65398358784405" lon="8.840524305236475"><ele>254.0</ele><time>2026-03-28T14:21:20Z</time></trkpt><trkpt lat="45.653920236548245" lon="8.840535705101175"><ele>253.33333333333331</ele><time>2026-03-28T14:21:21Z</time></trkpt><trkpt lat="45.65386049265851" lon="8.840588245954807"><ele>252.66666666666666</ele><time>2026-03-28T14:21:23Z</time></trkpt><trkpt lat="45.653868484359606" lon="8.840691808612455"><ele>252.0</ele><time>2026-03-28T14:21:24.999Z</time></trkpt><trkpt lat="45.65394198160584" lon="8.840733504660562"><ele>252.0</ele><time>2026-03-28T14:21:26.999Z</time></trkpt><trkpt lat="45.65400822839725" lon="8.840667109050012"><ele>252.0</ele><time>2026-03-28T14:21:28.999Z</time></trkpt><trkpt lat="45.65407235218628" lon="8.84060009506129"><ele>252.0</ele><time>2026-03-28T14:21:30.999Z</time></trkpt><trkpt lat="45.654195830292664" lon="8.840605465121543"><ele>252.0</ele><time>2026-03-28T14:21:32.999Z</time></trkpt><trkpt lat="45.65426059744737" lon="8.840609219499179"><ele>252.0</ele><time>2026-03-28T14:21:33.999Z</time></trkpt><trkpt lat="45.65436715723219" lon="8.84058660755762"><ele>252.0</ele><time>2026-03-28T14:21:35.999Z</time></trkpt><trkpt lat="45.65446000608952" lon="8.840587048818774"><ele>252.0</ele><time>2026-03-28T14:21:37.999Z</time></trkpt><trkpt lat="45.654501063655836" lon="8.840689777678206"><ele>252.0</ele><time>2026-03-28T14:21:40.999Z</time></trkpt><trkpt lat="45.654424107274394" lon="8.84074689929383"><ele>252.0</ele><time>2026-03-28T14:21:42.999Z</time></trkpt><trkpt lat="45.654334008925346" lon="8.840775851700412"><ele>252.0</ele><time>2026-03-28T14:21:44.999Z</time></trkpt><trkpt lat="45.65430065189364" lon="8.840922441028349"><ele>252.0</ele><time>2026-03-28T14:21:46.999Z</time></trkpt><trkpt lat="45.65435456582945" lon="8.84097656141561"><ele>252.0</ele><time>2026-03-28T14:21:49.999Z</time></trkpt><trkpt lat="45.65442531838626" lon="8.84086635104735"><ele>252.0</ele><time>2026-03-28T14:21:52.999Z</time></trkpt><trkpt lat="45.65449443589035" lon="8.840780552599057"><ele>252.0</ele><time>2026-03-28T14:21:54.999Z</time></trkpt><trkpt lat="45.65456851871446" lon="8.840734732234962"><ele>252.0</ele><time>2026-03-28T14:21:56.999Z</time></trkpt><trkpt lat="45.6545838677672" lon="8.840611786560284"><ele>252.0</ele><time>2026-03-28T14:21:58.999Z</time></trkpt><trkpt lat="45.6546441399671" lon="8.84049599970233"><ele>252.66666666666666</ele><time>2026-03-28T14:22:00.999Z</time></trkpt><trkpt lat="45.654734679979185" lon="8.840538195603086"><ele>253.33333333333331</ele><time>2026-03-28T14:22:02.999Z</time></trkpt><trkpt lat="45.65478494892844" lon="8.840609699336484"><ele>254.0</ele><time>2026-03-28T14:22:03.999Z</time></trkpt><trkpt lat="45.65481925516516" lon="8.840705252700499"><ele>254.66666666666666</ele><time>2026-03-28T14:22:04.999Z</time></trkpt><trkpt lat="45.65484425523657" lon="8.840803375492808"><ele>255.33333333333331</ele><time>2026-03-28T14:22:05.999Z</time></trkpt><trkpt lat="45.65488749202234" lon="8.84097515450194"><ele>256.0</ele><time>2026-03-28T14:22:07.999Z</time></trkpt><trkpt lat="45.65491199534426" lon="8.841062590472266"><ele>255.99999999999997</ele><time>2026-03-28T14:22:08.999Z</time></trkpt><trkpt lat="45.654880163975264" lon="8.841152121949268"><ele>256.0</ele><time>2026-03-28T14:22:11.999Z</time></trkpt><trkpt lat="45.654815571796604" lon="8.84108221350591"><ele>256.0</ele><time>2026-03-28T14:22:13.999Z</time></trkpt><trkpt lat="45.654790195492616" lon="8.840998609299971"><ele>256.0</ele><time>2026-03-28T14:22:14.999Z</time></trkpt><trkpt lat="45.65476071257382" lon="8.840908024127248"><ele>255.99999999999997</ele><time>2026-03-28T14:22:15.999Z</time></trkpt><trkpt lat="45.6546898294255" lon="8.840827022922959"><ele>256.0</ele><time>2026-03-28T14:22:17.999Z</time></trkpt><trkpt lat="45.6545845818752" lon="8.84085414224921"><ele>256.0</ele><time>2026-03-28T14:22:19.999Z</time></trkpt><trkpt lat="45.654518943762035" lon="8.840900529441793"><ele>255.99999999999997</ele><time>2026-03-28T14:22:20.999Z</time></trkpt><trkpt lat="45.65447686272864" lon="8.840991840802578"><ele>256.0</ele><time>2026-03-28T14:22:23.999Z</time></trkpt><trkpt lat="45.654537460616574" lon="8.841022352384979"><ele>256.0</ele><time>2026-03-28T14:22:26.999Z</time></trkpt><trkpt lat="45.65461699389674" lon="8.840962145259777"><ele>255.99999999999997</ele><time>2026-03-28T14:22:28.999Z</time></trkpt><trkpt lat="45.654663636677235" lon="8.840894398835227"><ele>256.0</ele><time>2026-03-28T14:22:29.999Z</time></trkpt><trkpt lat="45.654725699415955" lon="8.840938055792009"><ele>256.0</ele><time>2026-03-28T14:22:31.999Z</time></trkpt><trkpt lat="45.65470866526492" lon="8.841059445049837"><ele>256.2</ele><time>2026-03-28T14:22:33.999Z</time></trkpt><trkpt lat="45.65460017412663" lon="8.841090878303683"><ele>256.40000000000003</ele><time>2026-03-28T14:22:35.999Z</time></trkpt><trkpt lat="45.65451715626722" lon="8.841077835039801"><ele>256.6</ele><time>2026-03-28T14:22:36.999Z</time></trkpt><trkpt lat="45.65441727312549" lon="8.841084073792915"><ele>256.8</ele><time>2026-03-28T14:22:37.999Z</time></trkpt><trkpt lat="45.65432158331454" lon="8.841096410795329"><ele>257.0</ele><time>2026-03-28T14:22:38.999Z</time></trkpt><trkpt lat="45.65424629644037" lon="8.841106686038025"><ele>256.6</ele><time>2026-03-28T14:22:39.999Z</time></trkpt><trkpt lat="45.65415096890248" lon="8.84113808137964"><ele>256.2</ele><time>2026-03-28T14:22:41.999Z</time></trkpt><trkpt lat="45.65413026998344" lon="8.841247622003737"><ele>255.8</ele><time>2026-03-28T14:22:44.999Z</time></trkpt><trkpt lat="45.65418847740463" lon="8.841292486189904"><ele>255.4</ele><time>2026-03-28T14:22:46.999Z</time></trkpt><trkpt lat="45.65431744333311" lon="8.84125979739503"><ele>255.0</ele><time>2026-03-28T14:22:48.999Z</time></trkpt><trkpt lat="45.654412957026686" lon="8.841213651945006"><ele>255.4</ele><time>2026-03-28T14:22:50.999Z</time></trkpt><trkpt lat="45.65449077305701" lon="8.841183873239494"><ele>255.8</ele><time>2026-03-28T14:22:51.999Z</time></trkpt><trkpt lat="45.65458861424241" lon="8.841154558167597"><ele>256.2</ele><time>2026-03-28T14:22:52.999Z</time></trkpt><trkpt lat="45.65467053724617" lon="8.841116170969109"><ele>256.6</ele><time>2026-03-28T14:22:53.999Z</time></trkpt><trkpt lat="45.654766478439385" lon="8.841076628809844"><ele>257.0</ele><time>2026-03-28T14:22:55.999Z</time></trkpt><trkpt lat="45.65482552723415" lon="8.841161163698962"><ele>257.0</ele><time>2026-03-28T14:22:58.999Z</time></trkpt><trkpt lat="45.6547479337786" lon="8.841268107637616"><ele>257.0</ele><time>2026-03-28T14:23:00.999Z</time></trkpt><trkpt lat="45.65467251796337" lon="8.841292307687494"><ele>257.0</ele><time>2026-03-28T14:23:01.999Z</time></trkpt><trkpt lat="45.65457530145379" lon="8.841301179104944"><ele>257.0</ele><time>2026-03-28T14:23:02.999Z</time></trkpt><trkpt lat="45.6544552261163" lon="8.841324123075722"><ele>257.0</ele><time>2026-03-28T14:23:03.999Z</time></trkpt><trkpt lat="45.6543296235025" lon="8.841370461501727"><ele>256.6</ele><time>2026-03-28T14:23:04.999Z</time></trkpt><trkpt lat="45.654204721823795" lon="8.841416482055926"><ele>256.2</ele><time>2026-03-28T14:23:05.999Z</time></trkpt><trkpt lat="45.65408491671132" lon="8.841454473804971"><ele>255.8</ele><time>2026-03-28T14:23:06.999Z</time></trkpt><trkpt lat="45.653984630991644" lon="8.841481524835581"><ele>255.4</ele><time>2026-03-28T14:23:07.999Z</time></trkpt><trkpt lat="45.65390881622777" lon="8.841502400084206"><ele>255.0</ele><time>2026-03-28T14:23:08.999Z</time></trkpt><trkpt lat="45.65384172052918" lon="8.841519804818263"><ele>255.0</ele><time>2026-03-28T14:23:09.999Z</time></trkpt><trkpt lat="45.653759204989555" lon="8.8414991812298"><ele>255.0</ele><time>2026-03-28T14:23:11.999Z</time></trkpt><trkpt lat="45.653708897868874" lon="8.84135453640098"><ele>255.0</ele><time>2026-03-28T14:23:13.999Z</time></trkpt><trkpt lat="45.65370238072752" lon="8.841228497035198"><ele>255.0</ele><time>2026-03-28T14:23:14.999Z</time></trkpt><trkpt lat="45.65369707266766" lon="8.841075018979826"><ele>255.0</ele><time>2026-03-28T14:23:15.999Z</time></trkpt><trkpt lat="45.65368528322231" lon="8.840920106535837"><ele>254.4</ele><time>2026-03-28T14:23:16.999Z</time></trkpt><trkpt lat="45.65369018613311" lon="8.84078023672331"><ele>253.8</ele><time>2026-03-28T14:23:17.999Z</time></trkpt><trkpt lat="45.653716289224306" lon="8.840647634065164"><ele>253.2</ele><time>2026-03-28T14:23:18.999Z</time></trkpt><trkpt lat="45.65376822589098" lon="8.840542079927335"><ele>252.6</ele><time>2026-03-28T14:23:19.999Z</time></trkpt><trkpt lat="45.65384693480799" lon="8.840447947596028"><ele>252.0</ele><time>2026-03-28T14:23:20.999Z</time></trkpt><trkpt lat="45.65394096535595" lon="8.840383894029339"><ele>252.0</ele><time>2026-03-28T14:23:21.999Z</time></trkpt><trkpt lat="45.65405622440024" lon="8.840340145162019"><ele>252.0</ele><time>2026-03-28T14:23:22.999Z</time></trkpt><trkpt lat="45.6541746121865" lon="8.840319171383031"><ele>252.0</ele><time>2026-03-28T14:23:23.999Z</time></trkpt><trkpt lat="45.65429858365763" lon="8.8403188130494"><ele>252.0</ele><time>2026-03-28T14:23:24.999Z</time></trkpt><trkpt lat="45.65441932328541" lon="8.840325442027178"><ele>252.8</ele><time>2026-03-28T14:23:25.999Z</time></trkpt><trkpt lat="45.654545373598445" lon="8.840320875266562"><ele>253.6</ele><time>2026-03-28T14:23:26.999Z</time></trkpt><trkpt lat="45.6546512772328" lon="8.840302557251436"><ele>254.40000000000003</ele><time>2026-03-28T14:23:27.999Z</time></trkpt><trkpt lat="45.65475343418147" lon="8.84028394448461"><ele>255.20000000000002</ele><time>2026-03-28T14:23:28.999Z</time></trkpt><trkpt lat="45.65482704930581" lon="8.840273921254983"><ele>256.0</ele><time>2026-03-28T14:23:29.999Z</time></trkpt><trkpt lat="45.654913371695415" lon="8.840263044719094"><ele>255.99999999999997</ele><time>2026-03-28T14:23:31.999Z</time></trkpt><trkpt lat="45.654977812775876" lon="8.84031080029201"><ele>256.0</ele><time>2026-03-28T14:23:33.999Z</time></trkpt><trkpt lat="45.654988716732156" lon="8.840434170435064"><ele>256.0</ele><time>2026-03-28T14:23:35.999Z</time></trkpt><trkpt lat="45.65498596880422" lon="8.840537856623293"><ele>256.0</ele><time>2026-03-28T14:23:36.999Z</time></trkpt><trkpt lat="45.654941277386456" lon="8.84066003566782"><ele>255.99999999999997</ele><time>2026-03-28T14:23:38.999Z</time></trkpt><trkpt lat="45.6549487507863" lon="8.840762400463303"><ele>256.0</ele><time>2026-03-28T14:23:40.999Z</time></trkpt><trkpt lat="45.655036632324745" lon="8.840829945503296"><ele>256.0</ele><time>2026-03-28T14:23:42.999Z</time></trkpt><trkpt lat="45.65508704267289" lon="8.840942126524101"><ele>256.0</ele><time>2026-03-28T14:23:44.999Z</time></trkpt><trkpt lat="45.655032725167175" lon="8.841045093056113"><ele>256.0</ele><time>2026-03-28T14:23:46.999Z</time></trkpt><trkpt lat="45.65495074253874" lon="8.841024463304953"><ele>256.0</ele><time>2026-03-28T14:23:48.999Z</time></trkpt><trkpt lat="45.654904000056824" lon="8.8408646295773"><ele>256.0</ele><time>2026-03-28T14:23:50.999Z</time></trkpt><trkpt lat="45.654881979778054" lon="8.840754519435285"><ele>256.0</ele><time>2026-03-28T14:23:51.999Z</time></trkpt><trkpt lat="45.654848220403615" lon="8.840634066158694"><ele>256.0</ele><time>2026-03-28T14:23:52.999Z</time></trkpt><trkpt lat="45.654808156380895" lon="8.840502981516043"><ele>256.0</ele><time>2026-03-28T14:23:53.999Z</time></trkpt><trkpt lat="45.65474207297095" lon="8.840384911579061"><ele>256.0</ele><time>2026-03-28T14:23:55.999Z</time></trkpt><trkpt lat="45.65462443108903" lon="8.840370597507194"><ele>256.0</ele><time>2026-03-28T14:23:57.999Z</time></trkpt><trkpt lat="45.654540281188986" lon="8.840403220178484"><ele>255.20000000000002</ele><time>2026-03-28T14:23:58.999Z</time></trkpt><trkpt lat="45.654440261409924" lon="8.840443467293765"><ele>254.40000000000003</ele><time>2026-03-28T14:23:59.999Z</time></trkpt><trkpt lat="45.654376549456096" lon="8.840483153297592"><ele>253.6</ele><time>2026-03-28T14:24:00.999Z</time></trkpt><trkpt lat="45.65422669237295" lon="8.84050601470418"><ele>252.8</ele><time>2026-03-28T14:24:02.999Z</time></trkpt><trkpt lat="45.654107671044684" lon="8.84052248345329"><ele>252.0</ele><time>2026-03-28T14:24:03.999Z</time></trkpt><trkpt lat="45.65400985517914" lon="8.84052429256428"><ele>252.0</ele><time>2026-03-28T14:24:04.999Z</time></trkpt><trkpt lat="45.65394312460368" lon="8.840526829449496"><ele>252.0</ele><time>2026-03-28T14:24:05.999Z</time></trkpt><trkpt lat="45.65386831826557" lon="8.84056450181803"><ele>252.0</ele><time>2026-03-28T14:24:07.999Z</time></trkpt><trkpt lat="45.65386028003502" lon="8.8406741908647"><ele>252.0</ele><time>2026-03-28T14:24:09.999Z</time></trkpt><trkpt lat="45.653932144890106" lon="8.840741458633149"><ele>252.0</ele><time>2026-03-28T14:24:11.999Z</time></trkpt><trkpt lat="45.65400881407341" lon="8.840670503395566"><ele>252.0</ele><time>2026-03-28T14:24:13.999Z</time></trkpt><trkpt lat="45.65408936078254" lon="8.840594413678163"><ele>252.0</ele><time>2026-03-28T14:24:15.999Z</time></trkpt><trkpt lat="45.65415342934003" lon="8.8406009111994"><ele>252.0</ele><time>2026-03-28T14:24:16.999Z</time></trkpt><trkpt lat="45.654225969161764" lon="8.840607275902528"><ele>252.0</ele><time>2026-03-28T14:24:17.999Z</time></trkpt><trkpt lat="45.65429715061724" lon="8.840600928187326"><ele>252.0</ele><time>2026-03-28T14:24:18.999Z</time></trkpt><trkpt lat="45.654392813795965" lon="8.840578276812858"><ele>252.0</ele><time>2026-03-28T14:24:20.998Z</time></trkpt><trkpt lat="45.65448078173813" lon="8.840589840232665"><ele>252.0</ele><time>2026-03-28T14:24:22.998Z</time></trkpt><trkpt lat="45.65448875531585" lon="8.840707376817562"><ele>252.0</ele><time>2026-03-28T14:24:25.998Z</time></trkpt><trkpt lat="45.65438073264727" lon="8.840752028682475"><ele>252.0</ele><time>2026-03-28T14:24:27.998Z</time></trkpt><trkpt lat="45.65430743131757" lon="8.840837029391137"><ele>252.0</ele><time>2026-03-28T14:24:29.998Z</time></trkpt><trkpt lat="45.65430776815815" lon="8.840954369818366"><ele>252.0</ele><time>2026-03-28T14:24:31.998Z</time></trkpt><trkpt lat="45.65437819622803" lon="8.840977267035365"><ele>252.0</ele><time>2026-03-28T14:24:34.998Z</time></trkpt><trkpt lat="45.65442459572424" lon="8.840879543782723"><ele>252.0</ele><time>2026-03-28T14:24:36.998Z</time></trkpt><trkpt lat="45.654495402798446" lon="8.84078298932272"><ele>252.8</ele><time>2026-03-28T14:24:38.998Z</time></trkpt><trkpt lat="45.65457485845495" lon="8.840728200108053"><ele>253.6</ele><time>2026-03-28T14:24:40.998Z</time></trkpt><trkpt lat="45.6546001574128" lon="8.84059030366287"><ele>254.40000000000003</ele><time>2026-03-28T14:24:42.998Z</time></trkpt><trkpt lat="45.65465369935378" lon="8.840498668478498"><ele>255.20000000000002</ele><time>2026-03-28T14:24:44.998Z</time></trkpt><trkpt lat="45.65474317589006" lon="8.840544839001797"><ele>256.0</ele><time>2026-03-28T14:24:46.998Z</time></trkpt><trkpt lat="45.654800741685705" lon="8.84070494959299"><ele>255.99999999999997</ele><time>2026-03-28T14:24:48.999Z</time></trkpt><trkpt lat="45.65483553451471" lon="8.840813489724246"><ele>256.0</ele><time>2026-03-28T14:24:49.999Z</time></trkpt><trkpt lat="45.654870767041274" lon="8.840901030861675"><ele>256.0</ele><time>2026-03-28T14:24:50.999Z</time></trkpt><trkpt lat="45.654888992512134" lon="8.840990117176451"><ele>256.0</ele><time>2026-03-28T14:24:51.999Z</time></trkpt><trkpt lat="45.65492171145006" lon="8.8411149233"><ele>255.99999999999997</ele><time>2026-03-28T14:24:53.999Z</time></trkpt><trkpt lat="45.65482920167026" lon="8.841117565405497"><ele>256.0</ele><time>2026-03-28T14:24:56.999Z</time></trkpt><trkpt lat="45.65477564091029" lon="8.840948733004725"><ele>255.99999999999997</ele><time>2026-03-28T14:24:58.999Z</time></trkpt><trkpt lat="45.654704543240776" lon="8.840838137870824"><ele>256.0</ele><time>2026-03-28T14:25:00.999Z</time></trkpt><trkpt lat="45.654601531343026" lon="8.84084568795426"><ele>256.0</ele><time>2026-03-28T14:25:02.999Z</time></trkpt><trkpt lat="45.654533232169356" lon="8.840888054020786"><ele>256.0</ele><time>2026-03-28T14:25:03.999Z</time></trkpt><trkpt lat="45.65447079489717" lon="8.840946592014479"><ele>255.99999999999997</ele><time>2026-03-28T14:25:05.999Z</time></trkpt><trkpt lat="45.65452080100058" lon="8.841014646954596"><ele>256.0</ele><time>2026-03-28T14:25:12.999Z</time></trkpt><trkpt lat="45.6546022676007" lon="8.84098712559779"><ele>255.99999999999997</ele><time>2026-03-28T14:25:14.999Z</time></trkpt><trkpt lat="45.654641408305466" lon="8.840915179544726"><ele>256.0</ele><time>2026-03-28T14:25:15.999Z</time></trkpt><trkpt lat="45.65470751876582" lon="8.8409159626935"><ele>256.0</ele><time>2026-03-28T14:25:17.999Z</time></trkpt><trkpt lat="45.65472303083207" lon="8.841034613032052"><ele>256.0</ele><time>2026-03-28T14:25:19.999Z</time></trkpt><trkpt lat="45.65462237474665" lon="8.841089808209265"><ele>255.99999999999997</ele><time>2026-03-28T14:25:21.999Z</time></trkpt><trkpt lat="45.65454303444851" lon="8.841086613807345"><ele>256.0</ele><time>2026-03-28T14:25:22.999Z</time></trkpt><trkpt lat="45.654455127249605" lon="8.841075901349278"><ele>255.83333333333331</ele><time>2026-03-28T14:25:23.999Z</time></trkpt><trkpt lat="45.6543545744586" lon="8.841086034782967"><ele>255.66666666666666</ele><time>2026-03-28T14:25:24.999Z</time></trkpt><trkpt lat="45.654257173132294" lon="8.841103390408467"><ele>255.5</ele><time>2026-03-28T14:25:25.999Z</time></trkpt><trkpt lat="45.65418940453162" lon="8.841119055778051"><ele>255.33333333333331</ele><time>2026-03-28T14:25:26.999Z</time></trkpt><trkpt lat="45.65412866256242" lon="8.841158094573746"><ele>255.16666666666666</ele><time>2026-03-28T14:25:28.999Z</time></trkpt><trkpt lat="45.65413832250957" lon="8.84127549804126"><ele>255.0</ele><time>2026-03-28T14:25:31.999Z</time></trkpt><trkpt lat="45.65422570345882" lon="8.841303500653266"><ele>255.0</ele><time>2026-03-28T14:25:33.999Z</time></trkpt><trkpt lat="45.65429271131625" lon="8.841276928503769"><ele>255.0</ele><time>2026-03-28T14:25:34.999Z</time></trkpt><trkpt lat="45.654355516197256" lon="8.841243638795975"><ele>255.0</ele><time>2026-03-28T14:25:35.999Z</time></trkpt><trkpt lat="45.65448933789919" lon="8.841187523627283"><ele>255.0</ele><time>2026-03-28T14:25:37.999Z</time></trkpt><trkpt lat="45.65458754305412" lon="8.84114820015828"><ele>255.0</ele><time>2026-03-28T14:25:38.999Z</time></trkpt><trkpt lat="45.65467146019422" lon="8.841114623893162"><ele>255.33333333333334</ele><time>2026-03-28T14:25:39.999Z</time></trkpt><trkpt lat="45.654760423800674" lon="8.841074745304287"><ele>255.66666666666669</ele><time>2026-03-28T14:25:41.999Z</time></trkpt><trkpt lat="45.65482091323755" lon="8.841107558260234"><ele>256.0</ele><time>2026-03-28T14:25:43.999Z</time></trkpt><trkpt lat="45.654790393337464" lon="8.841235972289176"><ele>256.33333333333337</ele><time>2026-03-28T14:25:45.999Z</time></trkpt><trkpt lat="45.654733229243575" lon="8.84127442823903"><ele>256.6666666666667</ele><time>2026-03-28T14:25:46.999Z</time></trkpt><trkpt lat="45.65465559068563" lon="8.84129288897743"><ele>257.0</ele><time>2026-03-28T14:25:47.999Z</time></trkpt><trkpt lat="45.65455541395555" lon="8.841302371114839"><ele>256.6</ele><time>2026-03-28T14:25:48.999Z</time></trkpt><trkpt lat="45.65443641904619" lon="8.841331641793147"><ele>256.2</ele><time>2026-03-28T14:25:49.999Z</time></trkpt><trkpt lat="45.65432728516526" lon="8.84136810815038"><ele>255.8</ele><time>2026-03-28T14:25:50.999Z</time></trkpt><trkpt lat="45.65424077322743" lon="8.84140279344172"><ele>255.4</ele><time>2026-03-28T14:25:51.999Z</time></trkpt><trkpt lat="45.65414409576029" lon="8.841432882367426"><ele>255.0</ele><time>2026-03-28T14:25:52.999Z</time></trkpt><trkpt lat="45.65406170043506" lon="8.841456808484734"><ele>255.0</ele><time>2026-03-28T14:25:53.999Z</time></trkpt><trkpt lat="45.653985467856536" lon="8.841481632579073"><ele>255.0</ele><time>2026-03-28T14:25:54.999Z</time></trkpt><trkpt lat="45.653921087175775" lon="8.841499336726548"><ele>255.0</ele><time>2026-03-28T14:25:55.999Z</time></trkpt><trkpt lat="45.65385742488133" lon="8.841515370322009"><ele>255.0</ele><time>2026-03-28T14:25:56.999Z</time></trkpt><trkpt lat="45.65376284868157" lon="8.841500723956411"><ele>255.0</ele><time>2026-03-28T14:25:58.999Z</time></trkpt><trkpt lat="45.65371374786466" lon="8.841373550506637"><ele>255.0</ele><time>2026-03-28T14:26:00.999Z</time></trkpt><trkpt lat="45.65370709866202" lon="8.841272028045308"><ele>255.0</ele><time>2026-03-28T14:26:01.999Z</time></trkpt><trkpt lat="45.653700891602995" lon="8.84112311226127"><ele>255.0</ele><time>2026-03-28T14:26:02.999Z</time></trkpt><trkpt lat="45.65368565758314" lon="8.840968034702914"><ele>255.0</ele><time>2026-03-28T14:26:03.999Z</time></trkpt><trkpt lat="45.65368487917979" lon="8.84082561890268"><ele>255.0</ele><time>2026-03-28T14:26:04.999Z</time></trkpt><trkpt lat="45.65370500030109" lon="8.840680414303261"><ele>255.0</ele><time>2026-03-28T14:26:05.999Z</time></trkpt><trkpt lat="45.65374619894815" lon="8.8405704115441"><ele>254.4</ele><time>2026-03-28T14:26:06.999Z</time></trkpt><trkpt lat="45.653810922339105" lon="8.840476847351944"><ele>253.8</ele><time>2026-03-28T14:26:07.999Z</time></trkpt><trkpt lat="45.65389861051602" lon="8.840405160482277"><ele>253.2</ele><time>2026-03-28T14:26:08.999Z</time></trkpt><trkpt lat="45.654004899463416" lon="8.840353989689445"><ele>252.6</ele><time>2026-03-28T14:26:09.999Z</time></trkpt><trkpt lat="45.654124347035555" lon="8.840320488391239"><ele>252.0</ele><time>2026-03-28T14:26:10.999Z</time></trkpt><trkpt lat="45.654246953400545" lon="8.840316951786269"><ele>252.0</ele><time>2026-03-28T14:26:11.999Z</time></trkpt><trkpt lat="45.65438747463924" lon="8.840319718275174"><ele>252.0</ele><time>2026-03-28T14:26:12.999Z</time></trkpt><trkpt lat="45.65451664016699" lon="8.84032050662659"><ele>252.0</ele><time>2026-03-28T14:26:13.999Z</time></trkpt><trkpt lat="45.65462431674457" lon="8.840302978575997"><ele>252.0</ele><time>2026-03-28T14:26:14.999Z</time></trkpt><trkpt lat="45.654729003965635" lon="8.840282078470569"><ele>252.66666666666666</ele><time>2026-03-28T14:26:15.999Z</time></trkpt><trkpt lat="45.654816490527" lon="8.840268730056012"><ele>253.33333333333331</ele><time>2026-03-28T14:26:16.999Z</time></trkpt><trkpt lat="45.65490238039751" lon="8.840264422528621"><ele>254.0</ele><time>2026-03-28T14:26:18.999Z</time></trkpt><trkpt lat="45.654967271273186" lon="8.840307519467352"><ele>254.66666666666666</ele><time>2026-03-28T14:26:20.999Z</time></trkpt><trkpt lat="45.654986456511516" lon="8.84043643118793"><ele>255.33333333333331</ele><time>2026-03-28T14:26:22.999Z</time></trkpt><trkpt lat="45.65498226719225" lon="8.840535382872943"><ele>256.0</ele><time>2026-03-28T14:26:23.999Z</time></trkpt><trkpt lat="45.65496388412971" lon="8.840628478796102"><ele>255.99999999999997</ele><time>2026-03-28T14:26:24.999Z</time></trkpt><trkpt lat="45.654934229163224" lon="8.840727996693996"><ele>256.0</ele><time>2026-03-28T14:26:26.999Z</time></trkpt><trkpt lat="45.654995413843665" lon="8.840810736390525"><ele>256.0</ele><time>2026-03-28T14:26:28.999Z</time></trkpt><trkpt lat="45.65507974387143" lon="8.840902119790538"><ele>256.0</ele><time>2026-03-28T14:26:30.999Z</time></trkpt><trkpt lat="45.65505996416357" lon="8.84102779540859"><ele>255.99999999999997</ele><time>2026-03-28T14:26:32.999Z</time></trkpt><trkpt lat="45.65497905813997" lon="8.841049655848884"><ele>256.0</ele><time>2026-03-28T14:26:34.999Z</time></trkpt><trkpt lat="45.65492284770205" lon="8.840960561173604"><ele>256.0</ele><time>2026-03-28T14:26:36.999Z</time></trkpt><trkpt lat="45.654898241555074" lon="8.840846156429683"><ele>256.0</ele><time>2026-03-28T14:26:37.999Z</time></trkpt><trkpt lat="45.654867984066584" lon="8.840710557010656"><ele>256.0</ele><time>2026-03-28T14:26:38.999Z</time></trkpt><trkpt lat="45.654837153041626" lon="8.840586719184383"><ele>256.0</ele><time>2026-03-28T14:26:39.999Z</time></trkpt><trkpt lat="45.65480018164309" lon="8.840476730754371"><ele>256.0</ele><time>2026-03-28T14:26:40.999Z</time></trkpt><trkpt lat="45.65472233521806" lon="8.840372968703067"><ele>256.0</ele><time>2026-03-28T14:26:42.999Z</time></trkpt><trkpt lat="45.65458480992918" lon="8.84037750494748"><ele>256.0</ele><time>2026-03-28T14:26:44.999Z</time></trkpt><trkpt lat="45.65450452616097" lon="8.840423410656687"><ele>256.0</ele><time>2026-03-28T14:26:45.999Z</time></trkpt><trkpt lat="45.654425810036024" lon="8.840455480476972"><ele>256.0</ele><time>2026-03-28T14:26:46.999Z</time></trkpt><trkpt lat="45.654304385348915" lon="8.840485408911302"><ele>256.0</ele><time>2026-03-28T14:26:48.999Z</time></trkpt><trkpt lat="45.65419502925927" lon="8.840507743532847"><ele>255.33333333333331</ele><time>2026-03-28T14:26:49.999Z</time></trkpt><trkpt lat="45.654075278052396" lon="8.840522327609552"><ele>254.66666666666666</ele><time>2026-03-28T14:26:50.999Z</time></trkpt><trkpt lat="45.6539863127402" lon="8.84052529900903"><ele>254.0</ele><time>2026-03-28T14:26:51.999Z</time></trkpt><trkpt lat="45.653915242235215" lon="8.840536943225384"><ele>253.33333333333331</ele><time>2026-03-28T14:26:52.999Z</time></trkpt><trkpt lat="45.65385860411096" lon="8.840594534048886"><ele>252.66666666666666</ele><time>2026-03-28T14:26:54.999Z</time></trkpt><trkpt lat="45.653873600478505" lon="8.840695897236278"><ele>252.0</ele><time>2026-03-28T14:26:56.999Z</time></trkpt><trkpt lat="45.65395708840398" lon="8.840733542500724"><ele>252.0</ele><time>2026-03-28T14:26:58.999Z</time></trkpt><trkpt lat="45.6540285024093" lon="8.840646615313151"><ele>252.0</ele><time>2026-03-28T14:27:00.999Z</time></trkpt><trkpt lat="45.65411887012985" lon="8.840597117558403"><ele>252.0</ele><time>2026-03-28T14:27:02.999Z</time></trkpt><trkpt lat="45.654182889266174" lon="8.840603119824838"><ele>252.0</ele><time>2026-03-28T14:27:03.999Z</time></trkpt><trkpt lat="45.65431425364777" lon="8.840597384098077"><ele>252.0</ele><time>2026-03-28T14:27:05.999Z</time></trkpt><trkpt lat="45.65439771015216" lon="8.840587822007388"><ele>252.0</ele><time>2026-03-28T14:27:07.999Z</time></trkpt><trkpt lat="45.65449089006377" lon="8.840598040852939"><ele>252.0</ele><time>2026-03-28T14:27:09.999Z</time></trkpt><trkpt lat="45.654477191736596" lon="8.840728889668991"><ele>252.0</ele><time>2026-03-28T14:27:12.999Z</time></trkpt><trkpt lat="45.6543613930022" lon="8.840753171941275"><ele>252.0</ele><time>2026-03-28T14:27:14.999Z</time></trkpt><trkpt lat="45.65430454749983" lon="8.840861260217924"><ele>252.0</ele><time>2026-03-28T14:27:16.999Z</time></trkpt><trkpt lat="45.65431343912705" lon="8.840975576192276"><ele>252.0</ele><time>2026-03-28T14:27:18.999Z</time></trkpt><trkpt lat="45.65439492657991" lon="8.84095221754579"><ele>252.0</ele><time>2026-03-28T14:27:21.999Z</time></trkpt><trkpt lat="45.654435266169116" lon="8.84082385291118"><ele>252.0</ele><time>2026-03-28T14:27:23.999Z</time></trkpt><trkpt lat="45.65452739278476" lon="8.840777105310515"><ele>252.0</ele><time>2026-03-28T14:27:25.999Z</time></trkpt><trkpt lat="45.65458135033451" lon="8.840703093164471"><ele>252.0</ele><time>2026-03-28T14:27:27.999Z</time></trkpt><trkpt lat="45.654599682510934" lon="8.840566160354454"><ele>252.8</ele><time>2026-03-28T14:27:29.999Z</time></trkpt><trkpt lat="45.65467602605042" lon="8.840488255917212"><ele>253.6</ele><time>2026-03-28T14:27:31.999Z</time></trkpt><trkpt lat="45.65476912183773" lon="8.840605073901697"><ele>254.40000000000003</ele><time>2026-03-28T14:27:33.999Z</time></trkpt><trkpt lat="45.65481182343382" lon="8.840703544140888"><ele>255.20000000000002</ele><time>2026-03-28T14:27:34.999Z</time></trkpt><trkpt lat="45.65484265649806" lon="8.840811770424445"><ele>256.0</ele><time>2026-03-28T14:27:35.999Z</time></trkpt><trkpt lat="45.6548643115306" lon="8.840906526618005"><ele>255.99999999999997</ele><time>2026-03-28T14:27:36.999Z</time></trkpt><trkpt lat="45.65487471107176" lon="8.840997408415571"><ele>256.0</ele><time>2026-03-28T14:27:37.999Z</time></trkpt><trkpt lat="45.65490883009531" lon="8.841075310614517"><ele>256.0</ele><time>2026-03-28T14:27:38.999Z</time></trkpt><trkpt lat="45.654855583904045" lon="8.841151444461241"><ele>256.0</ele><time>2026-03-28T14:27:41.999Z</time></trkpt><trkpt lat="45.6547961679923" lon="8.841024546252202"><ele>255.99999999999997</ele><time>2026-03-28T14:27:43.999Z</time></trkpt><trkpt lat="45.65476344266792" lon="8.840921280699542"><ele>256.0</ele><time>2026-03-28T14:27:44.999Z</time></trkpt><trkpt lat="45.65472221727247" lon="8.84084728696142"><ele>256.0</ele><time>2026-03-28T14:27:45.999Z</time></trkpt><trkpt lat="45.65462460761365" lon="8.84083133097596"><ele>256.0</ele><time>2026-03-28T14:27:47.999Z</time></trkpt><trkpt lat="45.65455497810235" lon="8.84086631643606"><ele>256.0</ele><time>2026-03-28T14:27:48.999Z</time></trkpt><trkpt lat="45.654475220086354" lon="8.840935846292867"><ele>256.0</ele><time>2026-03-28T14:27:50.999Z</time></trkpt><trkpt lat="45.6545138834263" lon="8.84101897314002"><ele>256.0</ele><time>2026-03-28T14:27:54.999Z</time></trkpt><trkpt lat="45.65462713925536" lon="8.840958450385259"><ele>256.0</ele><time>2026-03-28T14:27:57.999Z</time></trkpt><trkpt lat="45.654670456475024" lon="8.840886262401167"><ele>256.0</ele><time>2026-03-28T14:27:58.999Z</time></trkpt><trkpt lat="45.65472670737471" lon="8.840935750338222"><ele>256.0</ele><time>2026-03-28T14:28:00.999Z</time></trkpt><trkpt lat="45.654710780152186" lon="8.841058780916105"><ele>256.0</ele><time>2026-03-28T14:28:02.999Z</time></trkpt><trkpt lat="45.65458005064883" lon="8.841080496707988"><ele>256.0</ele><time>2026-03-28T14:28:04.999Z</time></trkpt><trkpt lat="45.65447383600034" lon="8.841074735108592"><ele>255.83333333333331</ele><time>2026-03-28T14:28:05.999Z</time></trkpt><trkpt lat="45.65436290285548" lon="8.841084760298537"><ele>255.66666666666666</ele><time>2026-03-28T14:28:06.999Z</time></trkpt><trkpt lat="45.65428099762051" lon="8.84109411419857"><ele>255.5</ele><time>2026-03-28T14:28:07.999Z</time></trkpt><trkpt lat="45.65421020413926" lon="8.841111558129748"><ele>255.33333333333331</ele><time>2026-03-28T14:28:08.999Z</time></trkpt><trkpt lat="45.6541356376515" lon="8.84115121436913"><ele>255.16666666666666</ele><time>2026-03-28T14:28:10.999Z</time></trkpt><trkpt lat="45.65412060842614" lon="8.841245688300996"><ele>255.0</ele><time>2026-03-28T14:28:12.999Z</time></trkpt><trkpt lat="45.654186453675834" lon="8.841304769673194"><ele>255.0</ele><time>2026-03-28T14:28:15.999Z</time></trkpt><trkpt lat="45.65429977750024" lon="8.841277146362215"><ele>255.0</ele><time>2026-03-28T14:28:17.999Z</time></trkpt><trkpt lat="45.65436325495109" lon="8.84123843166636"><ele>255.0</ele><time>2026-03-28T14:28:18.999Z</time></trkpt><trkpt lat="45.65450196185489" lon="8.841184977012356"><ele>255.0</ele><time>2026-03-28T14:28:20.999Z</time></trkpt><trkpt lat="45.65461799081638" lon="8.841140983869558"><ele>255.0</ele><time>2026-03-28T14:28:21.999Z</time></trkpt><trkpt lat="45.65469873393954" lon="8.841104407606108"><ele>255.33333333333334</ele><time>2026-03-28T14:28:22.999Z</time></trkpt><trkpt lat="45.65478205557834" lon="8.84107334282349"><ele>255.66666666666669</ele><time>2026-03-28T14:28:24.998Z</time></trkpt><trkpt lat="45.654827844850544" lon="8.841136780052675"><ele>256.0</ele><time>2026-03-28T14:28:26.998Z</time></trkpt><trkpt lat="45.65476356399052" lon="8.841263974366113"><ele>256.33333333333337</ele><time>2026-03-28T14:28:28.998Z</time></trkpt><trkpt lat="45.654688831349475" lon="8.841291140605566"><ele>256.6666666666667</ele><time>2026-03-28T14:28:29.998Z</time></trkpt><trkpt lat="45.65459059288622" lon="8.841305302361473"><ele>257.0</ele><time>2026-03-28T14:28:30.998Z</time></trkpt><trkpt lat="45.65447380442245" lon="8.841329391062056"><ele>256.5</ele><time>2026-03-28T14:28:31.998Z</time></trkpt><trkpt lat="45.654338558414615" lon="8.84136947089356"><ele>256.0</ele><time>2026-03-28T14:28:32.998Z</time></trkpt><trkpt lat="45.65420178485444" lon="8.841418411778477"><ele>255.5</ele><time>2026-03-28T14:28:33.998Z</time></trkpt><trkpt lat="45.6540919330071" lon="8.841455961381365"><ele>255.0</ele><time>2026-03-28T14:28:34.998Z</time></trkpt><trkpt lat="45.65399295528708" lon="8.841485289033894"><ele>255.0</ele><time>2026-03-28T14:28:35.998Z</time></trkpt><trkpt lat="45.65391129070702" lon="8.841506866364254"><ele>255.0</ele><time>2026-03-28T14:28:36.998Z</time></trkpt><trkpt lat="45.65383929492051" lon="8.841527351511576"><ele>255.0</ele><time>2026-03-28T14:28:37.998Z</time></trkpt><trkpt lat="45.65376449566438" lon="8.841504310890898"><ele>255.0</ele><time>2026-03-28T14:28:39.998Z</time></trkpt><trkpt lat="45.65371028596346" lon="8.841371198018944"><ele>255.0</ele><time>2026-03-28T14:28:41.998Z</time></trkpt><trkpt lat="45.65370423634127" lon="8.841264962762104"><ele>255.0</ele><time>2026-03-28T14:28:42.998Z</time></trkpt><trkpt lat="45.65369786462457" lon="8.841123117612007"><ele>254.4</ele><time>2026-03-28T14:28:43.998Z</time></trkpt><trkpt lat="45.65368471835448" lon="8.840941990310988"><ele>253.8</ele><time>2026-03-28T14:28:44.998Z</time></trkpt><trkpt lat="45.65369206726577" lon="8.840784560071848"><ele>253.2</ele><time>2026-03-28T14:28:45.998Z</time></trkpt><trkpt lat="45.653711148353565" lon="8.840654927604033"><ele>252.6</ele><time>2026-03-28T14:28:46.998Z</time></trkpt><trkpt lat="45.65375657163556" lon="8.840553188536628"><ele>252.0</ele><time>2026-03-28T14:28:47.998Z</time></trkpt><trkpt lat="45.65382270383089" lon="8.840466154717324"><ele>252.0</ele><time>2026-03-28T14:28:48.998Z</time></trkpt><trkpt lat="45.653912399334004" lon="8.84039687837182"><ele>252.0</ele><time>2026-03-28T14:28:49.998Z</time></trkpt><trkpt lat="45.65402340437034" lon="8.840344200760434"><ele>252.0</ele><time>2026-03-28T14:28:50.998Z</time></trkpt><trkpt lat="45.65414876609329" lon="8.840313556256618"><ele>252.0</ele><time>2026-03-28T14:28:51.998Z</time></trkpt><trkpt lat="45.65426905289317" lon="8.840309541300071"><ele>252.0</ele><time>2026-03-28T14:28:52.998Z</time></trkpt><trkpt lat="45.65437631461245" lon="8.84032295590868"><ele>252.0</ele><time>2026-03-28T14:28:53.998Z</time></trkpt><trkpt lat="45.654466379145184" lon="8.840326575142315"><ele>252.0</ele><time>2026-03-28T14:28:54.998Z</time></trkpt><trkpt lat="45.6545521499736" lon="8.840307833748149"><ele>252.0</ele><time>2026-03-28T14:28:55.998Z</time></trkpt><trkpt lat="45.65462589220559" lon="8.840293959051554"><ele>252.0</ele><time>2026-03-28T14:28:56.999Z</time></trkpt><trkpt lat="45.65474680872024" lon="8.84027470711526"><ele>252.66666666666666</ele><time>2026-03-28T14:28:58.999Z</time></trkpt><trkpt lat="45.65483974165892" lon="8.840272002296492"><ele>253.33333333333331</ele><time>2026-03-28T14:29:00.999Z</time></trkpt><trkpt lat="45.65490307085258" lon="8.840265912364154"><ele>254.0</ele><time>2026-03-28T14:29:02.999Z</time></trkpt><trkpt lat="45.65497131997469" lon="8.840320474067978"><ele>254.66666666666666</ele><time>2026-03-28T14:29:04.999Z</time></trkpt><trkpt lat="45.65497621074736" lon="8.840453924572184"><ele>255.33333333333331</ele><time>2026-03-28T14:29:06.999Z</time></trkpt><trkpt lat="45.65497596441343" lon="8.840559400001561"><ele>256.0</ele><time>2026-03-28T14:29:07.999Z</time></trkpt><trkpt lat="45.654923069351774" lon="8.84068876707483"><ele>255.99999999999997</ele><time>2026-03-28T14:29:09.999Z</time></trkpt><trkpt lat="45.65495047910494" lon="8.840776314238763"><ele>256.0</ele><time>2026-03-28T14:29:11.999Z</time></trkpt><trkpt lat="45.65504279949389" lon="8.8408413795997"><ele>256.0</ele><time>2026-03-28T14:29:13.999Z</time></trkpt><trkpt lat="45.655078926641735" lon="8.840956985986791"><ele>256.0</ele><time>2026-03-28T14:29:15.999Z</time></trkpt><trkpt lat="45.65503537422685" lon="8.841048892560968"><ele>255.99999999999997</ele><time>2026-03-28T14:29:17.999Z</time></trkpt><trkpt lat="45.65495953476848" lon="8.841042279452456"><ele>256.0</ele><time>2026-03-28T14:29:19.999Z</time></trkpt><trkpt lat="45.65490733665157" lon="8.84090660905893"><ele>256.0</ele><time>2026-03-28T14:29:21.999Z</time></trkpt><trkpt lat="45.654881816788155" lon="8.840738833233445"><ele>256.0</ele><time>2026-03-28T14:29:23.999Z</time></trkpt><trkpt lat="45.654849800062266" lon="8.84062011641101"><ele>256.0</ele><time>2026-03-28T14:29:24.999Z</time></trkpt><trkpt lat="45.65482005519326" lon="8.840532000548"><ele>256.0</ele><time>2026-03-28T14:29:25.999Z</time></trkpt><trkpt lat="45.654761704765775" lon="8.840411992568795"><ele>256.0</ele><time>2026-03-28T14:29:27.999Z</time></trkpt><trkpt lat="45.6546579400962" lon="8.840367133788872"><ele>255.99999999999997</ele><time>2026-03-28T14:29:29.999Z</time></trkpt><trkpt lat="45.65458934131546" lon="8.840390758518732"><ele>256.0</ele><time>2026-03-28T14:29:30.999Z</time></trkpt><trkpt lat="45.654525705815786" lon="8.840425025808575"><ele>256.0</ele><time>2026-03-28T14:29:31.999Z</time></trkpt><trkpt lat="45.65445638900074" lon="8.840451113444097"><ele>256.0</ele><time>2026-03-28T14:29:32.999Z</time></trkpt><trkpt lat="45.65434306225338" lon="8.840479917521241"><ele>255.99999999999997</ele><time>2026-03-28T14:29:34.999Z</time></trkpt><trkpt lat="45.65425361926488" lon="8.840496726132866"><ele>256.0</ele><time>2026-03-28T14:29:36Z</time></trkpt><trkpt lat="45.65417507256543" lon="8.840504652849884"><ele>255.33333333333331</ele><time>2026-03-28T14:29:37Z</time></trkpt><trkpt lat="45.65408580267204" lon="8.840508800490879"><ele>254.66666666666666</ele><time>2026-03-28T14:29:38Z</time></trkpt><trkpt lat="45.65401310560567" lon="8.840507626534588"><ele>254.0</ele><time>2026-03-28T14:29:39Z</time></trkpt><trkpt lat="45.65391101370949" lon="8.840525111240115"><ele>253.33333333333331</ele><time>2026-03-28T14:29:41Z</time></trkpt><trkpt lat="45.653862790703776" lon="8.840586684174761"><ele>252.66666666666666</ele><time>2026-03-28T14:29:43Z</time></trkpt><trkpt lat="45.653863025911754" lon="8.840686174851003"><ele>252.0</ele><time>2026-03-28T14:29:45Z</time></trkpt><trkpt lat="45.65392608434115" lon="8.840740000431039"><ele>252.0</ele><time>2026-03-28T14:29:47Z</time></trkpt><trkpt lat="45.654003693279904" lon="8.840687635507612"><ele>252.0</ele><time>2026-03-28T14:29:49Z</time></trkpt><trkpt lat="45.65406876688343" lon="8.840602501773885"><ele>252.0</ele><time>2026-03-28T14:29:51Z</time></trkpt><trkpt lat="45.65413241736859" lon="8.840599634175529"><ele>252.0</ele><time>2026-03-28T14:29:52Z</time></trkpt><trkpt lat="45.65425292165419" lon="8.840613560050999"><ele>252.0</ele><time>2026-03-28T14:29:54Z</time></trkpt><trkpt lat="45.654317358836785" lon="8.840603829890439"><ele>252.0</ele><time>2026-03-28T14:29:55Z</time></trkpt><trkpt lat="45.65440345152807" lon="8.840591729914928"><ele>252.0</ele><time>2026-03-28T14:29:57Z</time></trkpt><trkpt lat="45.654498001564896" lon="8.840600491108601"><ele>252.0</ele><time>2026-03-28T14:29:59Z</time></trkpt><trkpt lat="45.654503163613846" lon="8.840693305684486"><ele>252.0</ele><time>2026-03-28T14:30:01Z</time></trkpt><trkpt lat="45.6544186287857" lon="8.84075497261701"><ele>252.0</ele><time>2026-03-28T14:30:03Z</time></trkpt><trkpt lat="45.65433266448051" lon="8.84078478987865"><ele>252.0</ele><time>2026-03-28T14:30:05Z</time></trkpt><trkpt lat="45.65430263702678" lon="8.840922489193495"><ele>252.0</ele><time>2026-03-28T14:30:07Z</time></trkpt><trkpt lat="45.654356220446644" lon="8.840985015071771"><ele>252.0</ele><time>2026-03-28T14:30:10Z</time></trkpt><trkpt lat="45.65441441268204" lon="8.840920093839172"><ele>252.0</ele><time>2026-03-28T14:30:12Z</time></trkpt><trkpt lat="45.65444712185831" lon="8.840805692563235"><ele>252.0</ele><time>2026-03-28T14:30:14Z</time></trkpt><trkpt lat="45.654542354206754" lon="8.840782090100545"><ele>252.0</ele><time>2026-03-28T14:30:16Z</time></trkpt><trkpt lat="45.65458255260377" lon="8.840684660575453"><ele>252.0</ele><time>2026-03-28T14:30:18Z</time></trkpt><trkpt lat="45.65460783467692" lon="8.840544831541296"><ele>252.0</ele><time>2026-03-28T14:30:20Z</time></trkpt><trkpt lat="45.6546855381649" lon="8.840503612890801"><ele>252.66666666666666</ele><time>2026-03-28T14:30:22Z</time></trkpt><trkpt lat="45.654760949764395" lon="8.840606137583258"><ele>253.33333333333331</ele><time>2026-03-28T14:30:24Z</time></trkpt><trkpt lat="45.65479930190312" lon="8.840696446031716"><ele>254.0</ele><time>2026-03-28T14:30:25Z</time></trkpt><trkpt lat="45.65483347925094" lon="8.840801689855"><ele>254.66666666666666</ele><time>2026-03-28T14:30:26Z</time></trkpt><trkpt lat="45.65485977332041" lon="8.840889211980713"><ele>255.33333333333331</ele><time>2026-03-28T14:30:27Z</time></trkpt><trkpt lat="45.654903528546896" lon="8.841054185054519"><ele>256.0</ele><time>2026-03-28T14:30:29Z</time></trkpt><trkpt lat="45.65487539014765" lon="8.84115552264725"><ele>256.0</ele><time>2026-03-28T14:30:32Z</time></trkpt><trkpt lat="45.65480663846676" lon="8.841066731804558"><ele>256.0</ele><time>2026-03-28T14:30:34Z</time></trkpt><trkpt lat="45.65476579058163" lon="8.8409142356599"><ele>256.0</ele><time>2026-03-28T14:30:36Z</time></trkpt><trkpt lat="45.65469467128935" lon="8.840835658374585"><ele>256.0</ele><time>2026-03-28T14:30:38Z</time></trkpt><trkpt lat="45.65457333385107" lon="8.840862657000342"><ele>256.0</ele><time>2026-03-28T14:30:40Z</time></trkpt><trkpt lat="45.65451253963358" lon="8.840906321229062"><ele>255.99999999999997</ele><time>2026-03-28T14:30:41Z</time></trkpt><trkpt lat="45.654497922709815" lon="8.841014500909127"><ele>256.0</ele><time>2026-03-28T14:30:45Z</time></trkpt><trkpt lat="45.65460071672741" lon="8.84099379718119"><ele>256.0</ele><time>2026-03-28T14:30:48Z</time></trkpt><trkpt lat="45.65465006900169" lon="8.840919217712814"><ele>256.0</ele><time>2026-03-28T14:30:49Z</time></trkpt><trkpt lat="45.654713591147065" lon="8.840916198165674"><ele>255.99999999999997</ele><time>2026-03-28T14:30:51Z</time></trkpt><trkpt lat="45.654724276947775" lon="8.841035469195507"><ele>256.0</ele><time>2026-03-28T14:30:53Z</time></trkpt><trkpt lat="45.65463877013439" lon="8.841084897418867"><ele>256.16666666666663</ele><time>2026-03-28T14:30:55Z</time></trkpt><trkpt lat="45.654560390078906" lon="8.841083140367086"><ele>256.3333333333333</ele><time>2026-03-28T14:30:56Z</time></trkpt><trkpt lat="45.65446676857315" lon="8.841081262765861"><ele>256.5</ele><time>2026-03-28T14:30:57Z</time></trkpt><trkpt lat="45.654366402222315" lon="8.841089925127743"><ele>256.6666666666667</ele><time>2026-03-28T14:30:58Z</time></trkpt><trkpt lat="45.65427045932149" lon="8.841103207876102"><ele>256.83333333333337</ele><time>2026-03-28T14:30:59Z</time></trkpt><trkpt lat="45.654202559654806" lon="8.841113934263127"><ele>257.0</ele><time>2026-03-28T14:31:00Z</time></trkpt><trkpt lat="45.65412730249675" lon="8.841157781522687"><ele>257.0</ele><time>2026-03-28T14:31:02Z</time></trkpt><trkpt lat="45.65412447272048" lon="8.84124885690045"><ele>257.0</ele><time>2026-03-28T14:31:04Z</time></trkpt><trkpt lat="45.65419245275352" lon="8.84130185099272"><ele>257.0</ele><time>2026-03-28T14:31:07Z</time></trkpt><trkpt lat="45.654275145966835" lon="8.841281840123525"><ele>257.0</ele><time>2026-03-28T14:31:09Z</time></trkpt><trkpt lat="45.654352886794804" lon="8.841245935088697"><ele>257.0</ele><time>2026-03-28T14:31:10Z</time></trkpt><trkpt lat="45.654412550889816" lon="8.841212072169922"><ele>257.0</ele><time>2026-03-28T14:31:11Z</time></trkpt><trkpt lat="45.65448365073106" lon="8.841193134304879"><ele>257.0</ele><time>2026-03-28T14:31:12Z</time></trkpt><trkpt lat="45.65458810383178" lon="8.841152276462003"><ele>257.0</ele><time>2026-03-28T14:31:13Z</time></trkpt><trkpt lat="45.654670245332994" lon="8.841115286382273"><ele>257.0</ele><time>2026-03-28T14:31:14Z</time></trkpt><trkpt lat="45.65476850832017" lon="8.841073390909102"><ele>257.0</ele><time>2026-03-28T14:31:16Z</time></trkpt><trkpt lat="45.65482731934676" lon="8.84116600061922"><ele>257.0</ele><time>2026-03-28T14:31:19Z</time></trkpt><trkpt lat="45.65476639850754" lon="8.841266001550943"><ele>257.0</ele><time>2026-03-28T14:31:21Z</time></trkpt><trkpt lat="45.654698637624946" lon="8.841281617434978"><ele>257.0</ele><time>2026-03-28T14:31:22Z</time></trkpt><trkpt lat="45.6545931596928" lon="8.841293132621695"><ele>257.0</ele><time>2026-03-28T14:31:23Z</time></trkpt><trkpt lat="45.65446421889465" lon="8.84132622263308"><ele>257.0</ele><time>2026-03-28T14:31:24Z</time></trkpt><trkpt lat="45.654333413444895" lon="8.841365479027349"><ele>257.0</ele><time>2026-03-28T14:31:25Z</time></trkpt><trkpt lat="45.65420596990286" lon="8.841413735862162"><ele>257.0</ele><time>2026-03-28T14:31:26Z</time></trkpt><trkpt lat="45.65409602913107" lon="8.841451709649697"><ele>256.6</ele><time>2026-03-28T14:31:27Z</time></trkpt><trkpt lat="45.653998022538765" lon="8.841478890592533"><ele>256.2</ele><time>2026-03-28T14:31:28Z</time></trkpt><trkpt lat="45.65391479345179" lon="8.841501440249896"><ele>255.8</ele><time>2026-03-28T14:31:29Z</time></trkpt><trkpt lat="45.65383520252565" lon="8.841525242866448"><ele>255.4</ele><time>2026-03-28T14:31:30Z</time></trkpt><trkpt lat="45.65374624968407" lon="8.841495834858376"><ele>255.0</ele><time>2026-03-28T14:31:32Z</time></trkpt><trkpt lat="45.65371402390256" lon="8.841356147562193"><ele>255.0</ele><time>2026-03-28T14:31:34Z</time></trkpt><trkpt lat="45.653709134112354" lon="8.841254209955386"><ele>255.0</ele><time>2026-03-28T14:31:35Z</time></trkpt><trkpt lat="45.65370230431188" lon="8.841154235650173"><ele>255.0</ele><time>2026-03-28T14:31:36Z</time></trkpt><trkpt lat="45.6536728205721" lon="8.840995889036938"><ele>255.0</ele><time>2026-03-28T14:31:38Z</time></trkpt><trkpt lat="45.65366103150439" lon="8.840880123963291"><ele>255.0</ele><time>2026-03-28T14:31:40Z</time></trkpt><trkpt lat="45.65365762006154" lon="8.840788274744135"><ele>255.0</ele><time>2026-03-28T14:35:03Z</time></trkpt><trkpt lat="45.65368059129764" lon="8.840701774918841"><ele>254.4</ele><time>2026-03-28T14:35:05Z</time></trkpt><trkpt lat="45.653715180597814" lon="8.840622849470769"><ele>253.8</ele><time>2026-03-28T14:35:06Z</time></trkpt><trkpt lat="45.65377405078633" lon="8.840536116355597"><ele>253.2</ele><time>2026-03-28T14:35:07Z</time></trkpt><trkpt lat="45.65385141405347" lon="8.840475596600912"><ele>252.6</ele><time>2026-03-28T14:35:08Z</time></trkpt><trkpt lat="45.65394877083689" lon="8.840422362648585"><ele>252.0</ele><time>2026-03-28T14:35:09Z</time></trkpt><trkpt lat="45.65407544424046" lon="8.840389977514807"><ele>252.0</ele><time>2026-03-28T14:35:10Z</time></trkpt><trkpt lat="45.654129652023286" lon="8.840312416351741"><ele>252.0</ele><time>2026-03-28T14:35:11Z</time></trkpt><trkpt lat="45.65426623327256" lon="8.840301878022984"><ele>252.0</ele><time>2026-03-28T14:35:12Z</time></trkpt><trkpt lat="45.65438663616228" lon="8.840317265582422"><ele>252.0</ele><time>2026-03-28T14:35:13Z</time></trkpt><trkpt lat="45.65449443530181" lon="8.840321922336976"><ele>252.0</ele><time>2026-03-28T14:35:14Z</time></trkpt><trkpt lat="45.654599628286235" lon="8.840305595166777"><ele>252.66666666666666</ele><time>2026-03-28T14:35:15Z</time></trkpt><trkpt lat="45.6546974834001" lon="8.840273752643549"><ele>253.33333333333331</ele><time>2026-03-28T14:35:16Z</time></trkpt><trkpt lat="45.654781291626364" lon="8.840270130193566"><ele>254.0</ele><time>2026-03-28T14:35:17Z</time></trkpt><trkpt lat="45.65485118676294" lon="8.840272093947434"><ele>254.66666666666666</ele><time>2026-03-28T14:35:18Z</time></trkpt><trkpt lat="45.65494105537367" lon="8.840266560780496"><ele>255.33333333333331</ele><time>2026-03-28T14:35:20Z</time></trkpt><trkpt lat="45.65499722821993" lon="8.840328039393496"><ele>256.0</ele><time>2026-03-28T14:35:22Z</time></trkpt><trkpt lat="45.65499755487608" lon="8.840470408109908"><ele>255.99999999999997</ele><time>2026-03-28T14:35:24Z</time></trkpt><trkpt lat="45.65499417291154" lon="8.840569974289634"><ele>256.0</ele><time>2026-03-28T14:35:25Z</time></trkpt><trkpt lat="45.65493288137747" lon="8.840713641814704"><ele>256.0</ele><time>2026-03-28T14:35:27Z</time></trkpt><trkpt lat="45.65495838532578" lon="8.840803801146944"><ele>256.0</ele><time>2026-03-28T14:35:29Z</time></trkpt><trkpt lat="45.655051603598636" lon="8.840866212791582"><ele>255.99999999999997</ele><time>2026-03-28T14:35:31Z</time></trkpt><trkpt lat="45.65508825348181" lon="8.840975592134196"><ele>256.0</ele><time>2026-03-28T14:35:33Z</time></trkpt><trkpt lat="45.65504363694452" lon="8.841068823544335"><ele>255.99999999999997</ele><time>2026-03-28T14:35:35Z</time></trkpt><trkpt lat="45.65496085021734" lon="8.841057313109271"><ele>256.0</ele><time>2026-03-28T14:35:37Z</time></trkpt><trkpt lat="45.65490831465688" lon="8.84091592389878"><ele>256.0</ele><time>2026-03-28T14:35:39Z</time></trkpt><trkpt lat="45.654889553423715" lon="8.84081326462023"><ele>256.0</ele><time>2026-03-28T14:35:40Z</time></trkpt><trkpt lat="45.65486171997636" lon="8.840695774679006"><ele>255.99999999999997</ele><time>2026-03-28T14:35:41Z</time></trkpt><trkpt lat="45.6548298914195" lon="8.840571300807152"><ele>256.0</ele><time>2026-03-28T14:35:42Z</time></trkpt><trkpt lat="45.65480023504699" lon="8.840487755115285"><ele>256.0</ele><time>2026-03-28T14:35:43Z</time></trkpt><trkpt lat="45.65473021000147" lon="8.840382231885716"><ele>256.0</ele><time>2026-03-28T14:35:45Z</time></trkpt><trkpt lat="45.654607053856864" lon="8.840380847286593"><ele>256.0</ele><time>2026-03-28T14:35:47Z</time></trkpt><trkpt lat="45.65452362340765" lon="8.84041905533131"><ele>256.0</ele><time>2026-03-28T14:35:48Z</time></trkpt><trkpt lat="45.65443710525118" lon="8.84045380789981"><ele>256.0</ele><time>2026-03-28T14:35:49Z</time></trkpt><trkpt lat="45.654332795800975" lon="8.84047417442386"><ele>255.20000000000002</ele><time>2026-03-28T14:35:51Z</time></trkpt><trkpt lat="45.6542232911814" lon="8.840506746546662"><ele>254.40000000000003</ele><time>2026-03-28T14:35:52Z</time></trkpt><trkpt lat="45.65410989505931" lon="8.840516630485112"><ele>253.6</ele><time>2026-03-28T14:35:53Z</time></trkpt><trkpt lat="45.65401242055875" lon="8.840520947939947"><ele>252.8</ele><time>2026-03-28T14:35:54Z</time></trkpt><trkpt lat="45.65393978741385" lon="8.840531796503974"><ele>252.0</ele><time>2026-03-28T14:35:55Z</time></trkpt><trkpt lat="45.653869337005474" lon="8.84057139458788"><ele>252.0</ele><time>2026-03-28T14:35:57Z</time></trkpt><trkpt lat="45.65386191259388" lon="8.840677413815932"><ele>252.0</ele><time>2026-03-28T14:35:59Z</time></trkpt><trkpt lat="45.65392640562793" lon="8.840734064508682"><ele>252.0</ele><time>2026-03-28T14:36:01Z</time></trkpt><trkpt lat="45.654001553568165" lon="8.840678592504764"><ele>252.0</ele><time>2026-03-28T14:36:03Z</time></trkpt><trkpt lat="45.6540920645404" lon="8.840592673412653"><ele>252.0</ele><time>2026-03-28T14:36:05Z</time></trkpt><trkpt lat="45.65415672709166" lon="8.84059607967953"><ele>252.0</ele><time>2026-03-28T14:36:06Z</time></trkpt><trkpt lat="45.65422218121411" lon="8.840606969228709"><ele>252.0</ele><time>2026-03-28T14:36:07Z</time></trkpt><trkpt lat="45.65429332649783" lon="8.840602552701306"><ele>252.0</ele><time>2026-03-28T14:36:08Z</time></trkpt><trkpt lat="45.65435766237609" lon="8.840587489439118"><ele>252.0</ele><time>2026-03-28T14:36:09Z</time></trkpt><trkpt lat="45.654446172693476" lon="8.840588390765964"><ele>252.0</ele><time>2026-03-28T14:36:11Z</time></trkpt><trkpt lat="45.654508603004864" lon="8.840613231912481"><ele>252.0</ele><time>2026-03-28T14:36:13Z</time></trkpt><trkpt lat="45.65449118561759" lon="8.84071274062775"><ele>252.0</ele><time>2026-03-28T14:36:15Z</time></trkpt><trkpt lat="45.654382564177986" lon="8.840751973512567"><ele>252.0</ele><time>2026-03-28T14:36:17Z</time></trkpt><trkpt lat="45.65431027226993" lon="8.84084199393246"><ele>252.0</ele><time>2026-03-28T14:36:19Z</time></trkpt><trkpt lat="45.65431126545592" lon="8.840960526060776"><ele>252.0</ele><time>2026-03-28T14:36:21Z</time></trkpt><trkpt lat="45.65437994967702" lon="8.840967398171209"><ele>252.0</ele><time>2026-03-28T14:36:25Z</time></trkpt><trkpt lat="45.65442257073727" lon="8.840877747391334"><ele>252.0</ele><time>2026-03-28T14:36:28Z</time></trkpt><trkpt lat="45.654493372640815" lon="8.840780705476229"><ele>252.0</ele><time>2026-03-28T14:36:30Z</time></trkpt><trkpt lat="45.65457109362965" lon="8.840737212525019"><ele>252.66666666666666</ele><time>2026-03-28T14:36:32Z</time></trkpt><trkpt lat="45.65459340826764" lon="8.840610361579271"><ele>253.33333333333331</ele><time>2026-03-28T14:36:34Z</time></trkpt><trkpt lat="45.654645489321304" lon="8.840497133294795"><ele>254.0</ele><time>2026-03-28T14:36:36Z</time></trkpt><trkpt lat="45.654728309700886" lon="8.840540023117706"><ele>254.66666666666666</ele><time>2026-03-28T14:36:38Z</time></trkpt><trkpt lat="45.654771978772885" lon="8.840610450167416"><ele>255.33333333333331</ele><time>2026-03-28T14:36:39Z</time></trkpt><trkpt lat="45.65480710163005" lon="8.84070206182258"><ele>256.0</ele><time>2026-03-28T14:36:40Z</time></trkpt><trkpt lat="45.65483918136439" lon="8.840811958215891"><ele>255.99999999999997</ele><time>2026-03-28T14:36:41Z</time></trkpt><trkpt lat="45.65486683869695" lon="8.840893979638487"><ele>256.0</ele><time>2026-03-28T14:36:42Z</time></trkpt><trkpt lat="45.65488972197843" lon="8.841000741013428"><ele>256.0</ele><time>2026-03-28T14:36:43Z</time></trkpt><trkpt lat="45.65492354717911" lon="8.84111280828558"><ele>256.0</ele><time>2026-03-28T14:36:45Z</time></trkpt><trkpt lat="45.65483610850873" lon="8.841121192596729"><ele>255.99999999999997</ele><time>2026-03-28T14:36:48Z</time></trkpt><trkpt lat="45.65478180348969" lon="8.84095078077331"><ele>256.0</ele><time>2026-03-28T14:36:50Z</time></trkpt><trkpt lat="45.65474836795479" lon="8.84087390985342"><ele>255.99999999999997</ele><time>2026-03-28T14:36:51Z</time></trkpt><trkpt lat="45.65465745627232" lon="8.84082855878802"><ele>256.0</ele><time>2026-03-28T14:36:53Z</time></trkpt><trkpt lat="45.65453101513005" lon="8.840896919190346"><ele>256.0</ele><time>2026-03-28T14:36:55Z</time></trkpt><trkpt lat="45.654474697061616" lon="8.840955279113025"><ele>256.0</ele><time>2026-03-28T14:36:57Z</time></trkpt><trkpt lat="45.6545155292185" lon="8.841028002195618"><ele>255.99999999999997</ele><time>2026-03-28T14:37:00Z</time></trkpt><trkpt lat="45.6545905039324" lon="8.841003803872523"><ele>256.0</ele><time>2026-03-28T14:37:02Z</time></trkpt><trkpt lat="45.65464043366432" lon="8.840928704891947"><ele>256.0</ele><time>2026-03-28T14:37:03Z</time></trkpt><trkpt lat="45.65471376390913" lon="8.840910486217979"><ele>256.0</ele><time>2026-03-28T14:37:05Z</time></trkpt><trkpt lat="45.6547307578343" lon="8.84103642780981"><ele>256.0</ele><time>2026-03-28T14:37:07Z</time></trkpt><trkpt lat="45.65462602352269" lon="8.841090433547194"><ele>256.0</ele><time>2026-03-28T14:37:09Z</time></trkpt><trkpt lat="45.65453699766996" lon="8.841082415170654"><ele>256.0</ele><time>2026-03-28T14:37:10Z</time></trkpt><trkpt lat="45.65443609941103" lon="8.84108243703442"><ele>255.83333333333331</ele><time>2026-03-28T14:37:11Z</time></trkpt><trkpt lat="45.654335234936795" lon="8.841096910723772"><ele>255.66666666666666</ele><time>2026-03-28T14:37:12Z</time></trkpt><trkpt lat="45.65426313350284" lon="8.841103507513523"><ele>255.5</ele><time>2026-03-28T14:37:13Z</time></trkpt><trkpt lat="45.65419410884627" lon="8.841121280834038"><ele>255.33333333333331</ele><time>2026-03-28T14:37:14Z</time></trkpt><trkpt lat="45.65412542668986" lon="8.841166484496984"><ele>255.16666666666666</ele><time>2026-03-28T14:37:16Z</time></trkpt><trkpt lat="45.65412626390182" lon="8.841256915259965"><ele>255.0</ele><time>2026-03-28T14:37:18Z</time></trkpt><trkpt lat="45.654231053633545" lon="8.841289654473357"><ele>255.0</ele><time>2026-03-28T14:37:21Z</time></trkpt><trkpt lat="45.65430834127786" lon="8.841272222226573"><ele>255.0</ele><time>2026-03-28T14:37:22Z</time></trkpt><trkpt lat="45.65438062651129" lon="8.841234938965538"><ele>255.0</ele><time>2026-03-28T14:37:23Z</time></trkpt><trkpt lat="45.65448390310991" lon="8.841191743841241"><ele>255.0</ele><time>2026-03-28T14:37:25Z</time></trkpt><trkpt lat="45.654592541733635" lon="8.841146260561215"><ele>255.0</ele><time>2026-03-28T14:37:26Z</time></trkpt><trkpt lat="45.65466687905829" lon="8.841120829439557"><ele>255.33333333333334</ele><time>2026-03-28T14:37:27Z</time></trkpt><trkpt lat="45.65472796113209" lon="8.841089918656326"><ele>255.66666666666669</ele><time>2026-03-28T14:37:28Z</time></trkpt><trkpt lat="45.65480229834711" lon="8.841077544394691"><ele>256.0</ele><time>2026-03-28T14:37:30Z</time></trkpt><trkpt lat="45.65482501089218" lon="8.841177888272073"><ele>256.33333333333337</ele><time>2026-03-28T14:37:32Z</time></trkpt><trkpt lat="45.65473390565387" lon="8.841276863749016"><ele>256.6666666666667</ele><time>2026-03-28T14:37:34Z</time></trkpt><trkpt lat="45.65464485880783" lon="8.841299485399462"><ele>257.0</ele><time>2026-03-28T14:37:35Z</time></trkpt><trkpt lat="45.65452964424625" lon="8.841314118868988"><ele>256.5</ele><time>2026-03-28T14:37:36Z</time></trkpt><trkpt lat="45.65440532555598" lon="8.84134538585523"><ele>256.0</ele><time>2026-03-28T14:37:37Z</time></trkpt><trkpt lat="45.65428739171659" lon="8.841387751130808"><ele>255.5</ele><time>2026-03-28T14:37:38Z</time></trkpt><trkpt lat="45.65416010481312" lon="8.841432366908162"><ele>255.0</ele><time>2026-03-28T14:37:39Z</time></trkpt><trkpt lat="45.654044977406905" lon="8.841465635639329"><ele>255.0</ele><time>2026-03-28T14:37:40Z</time></trkpt><trkpt lat="45.65395496338208" lon="8.841490932003657"><ele>255.0</ele><time>2026-03-28T14:37:41Z</time></trkpt><trkpt lat="45.65388287519917" lon="8.84151177475296"><ele>255.0</ele><time>2026-03-28T14:37:42Z</time></trkpt><trkpt lat="45.653773011245036" lon="8.841515501971076"><ele>255.0</ele><time>2026-03-28T14:37:44Z</time></trkpt><trkpt lat="45.653716881580095" lon="8.841400068957654"><ele>255.0</ele><time>2026-03-28T14:37:46Z</time></trkpt><trkpt lat="45.6537128446996" lon="8.84130067745235"><ele>255.0</ele><time>2026-03-28T14:37:47Z</time></trkpt><trkpt lat="45.653703103654976" lon="8.841142809545634"><ele>255.0</ele><time>2026-03-28T14:37:48Z</time></trkpt><trkpt lat="45.65369160928611" lon="8.840974104705074"><ele>255.0</ele><time>2026-03-28T14:37:49Z</time></trkpt><trkpt lat="45.65368492259858" lon="8.840833540727843"><ele>255.0</ele><time>2026-03-28T14:37:50Z</time></trkpt><trkpt lat="45.653699534441344" lon="8.840703439210865"><ele>255.0</ele><time>2026-03-28T14:37:51Z</time></trkpt><trkpt lat="45.653741866143335" lon="8.840578210974181"><ele>255.0</ele><time>2026-03-28T14:37:52Z</time></trkpt><trkpt lat="45.6538135326352" lon="8.840472876204041"><ele>254.25</ele><time>2026-03-28T14:37:53Z</time></trkpt><trkpt lat="45.653905367752245" lon="8.840393390292936"><ele>253.5</ele><time>2026-03-28T14:37:54Z</time></trkpt><trkpt lat="45.6540067488784" lon="8.840349213359758"><ele>252.75</ele><time>2026-03-28T14:37:55Z</time></trkpt><trkpt lat="45.65412956422895" lon="8.840326370909581"><ele>252.0</ele><time>2026-03-28T14:37:56Z</time></trkpt><trkpt lat="45.65426764351559" lon="8.840316605962155"><ele>252.0</ele><time>2026-03-28T14:37:57Z</time></trkpt><trkpt lat="45.65439372475555" lon="8.840319001042783"><ele>252.0</ele><time>2026-03-28T14:37:58Z</time></trkpt><trkpt lat="45.65450147854966" lon="8.840323493733852"><ele>252.0</ele><time>2026-03-28T14:37:59Z</time></trkpt><trkpt lat="45.65460951480052" lon="8.84030478994981"><ele>252.0</ele><time>2026-03-28T14:38:00Z</time></trkpt><trkpt lat="45.65469943506643" lon="8.840283704475254"><ele>252.0</ele><time>2026-03-28T14:38:01Z</time></trkpt><trkpt lat="45.6547869888881" lon="8.840275117810814"><ele>252.66666666666666</ele><time>2026-03-28T14:38:02Z</time></trkpt><trkpt lat="45.654855895952466" lon="8.840270822944548"><ele>253.33333333333331</ele><time>2026-03-28T14:38:03Z</time></trkpt><trkpt lat="45.6549295671343" lon="8.840272444299025"><ele>254.0</ele><time>2026-03-28T14:38:05Z</time></trkpt><trkpt lat="45.65498429139665" lon="8.840350250339915"><ele>254.66666666666666</ele><time>2026-03-28T14:38:07Z</time></trkpt><trkpt lat="45.65498278140382" lon="8.840514439358518"><ele>255.33333333333331</ele><time>2026-03-28T14:38:09Z</time></trkpt><trkpt lat="45.65497750916488" lon="8.840615687723295"><ele>256.0</ele><time>2026-03-28T14:38:10Z</time></trkpt><trkpt lat="45.65492897283715" lon="8.840709380644302"><ele>256.0</ele><time>2026-03-28T14:38:12Z</time></trkpt><trkpt lat="45.65497510116257" lon="8.840805009940748"><ele>256.0</ele><time>2026-03-28T14:38:14Z</time></trkpt><trkpt lat="45.65507685914315" lon="8.840887177062987"><ele>256.0</ele><time>2026-03-28T14:38:16Z</time></trkpt><trkpt lat="45.65507175689763" lon="8.841016825418661"><ele>256.0</ele><time>2026-03-28T14:38:18Z</time></trkpt><trkpt lat="45.65498914861426" lon="8.841064960928003"><ele>256.0</ele><time>2026-03-28T14:38:20Z</time></trkpt><trkpt lat="45.6549233528368" lon="8.8409622804986"><ele>255.99999999999997</ele><time>2026-03-28T14:38:22Z</time></trkpt><trkpt lat="45.654897108663825" lon="8.84085098633166"><ele>256.0</ele><time>2026-03-28T14:38:23Z</time></trkpt><trkpt lat="45.65487470301149" lon="8.840728525760886"><ele>256.0</ele><time>2026-03-28T14:38:24Z</time></trkpt><trkpt lat="45.654842803691764" lon="8.840603351360699"><ele>256.0</ele><time>2026-03-28T14:38:25Z</time></trkpt><trkpt lat="45.65481232466798" lon="8.840508828420393"><ele>255.99999999999997</ele><time>2026-03-28T14:38:26Z</time></trkpt><trkpt lat="45.65474382033054" lon="8.840390382428497"><ele>256.0</ele><time>2026-03-28T14:38:28Z</time></trkpt><trkpt lat="45.65461938333251" lon="8.840375054746763"><ele>256.0</ele><time>2026-03-28T14:38:30Z</time></trkpt><trkpt lat="45.65452778146889" lon="8.840422201096267"><ele>256.0</ele><time>2026-03-28T14:38:31Z</time></trkpt><trkpt lat="45.65443500615952" lon="8.840460378546677"><ele>256.0</ele><time>2026-03-28T14:38:32Z</time></trkpt><trkpt lat="45.65433502270633" lon="8.840477200887069"><ele>256.0</ele><time>2026-03-28T14:38:34Z</time></trkpt><trkpt lat="45.65422848282666" lon="8.84049972091635"><ele>256.0</ele><time>2026-03-28T14:38:35Z</time></trkpt><trkpt lat="45.65410528967954" lon="8.840508976577343"><ele>255.33333333333331</ele><time>2026-03-28T14:38:36Z</time></trkpt><trkpt lat="45.6540153703377" lon="8.840511073103713"><ele>254.66666666666666</ele><time>2026-03-28T14:38:37Z</time></trkpt><trkpt lat="45.653940576324295" lon="8.840525146796493"><ele>254.0</ele><time>2026-03-28T14:38:38Z</time></trkpt><trkpt lat="45.65387658550872" lon="8.840574674550696"><ele>253.33333333333331</ele><time>2026-03-28T14:38:40Z</time></trkpt><trkpt lat="45.65387442256231" lon="8.840688993756537"><ele>252.66666666666666</ele><time>2026-03-28T14:38:42Z</time></trkpt><trkpt lat="45.65394361201164" lon="8.840733139522337"><ele>252.0</ele><time>2026-03-28T14:38:44Z</time></trkpt><trkpt lat="45.65402954772798" lon="8.840648970408408"><ele>252.0</ele><time>2026-03-28T14:38:46Z</time></trkpt><trkpt lat="45.65409050697236" lon="8.840593609870162"><ele>252.0</ele><time>2026-03-28T14:38:47Z</time></trkpt><trkpt lat="45.65420565951964" lon="8.840604909110123"><ele>252.0</ele><time>2026-03-28T14:38:49Z</time></trkpt><trkpt lat="45.65432572484941" lon="8.840599040868424"><ele>252.0</ele><time>2026-03-28T14:38:51Z</time></trkpt><trkpt lat="45.6544255768038" lon="8.840582299699589"><ele>252.0</ele><time>2026-03-28T14:38:53Z</time></trkpt><trkpt lat="45.654500477687996" lon="8.840609250305086"><ele>252.0</ele><time>2026-03-28T14:38:55Z</time></trkpt><trkpt lat="45.654495341282" lon="8.840704997741385"><ele>252.0</ele><time>2026-03-28T14:38:57Z</time></trkpt><trkpt lat="45.654393499511635" lon="8.840750117035448"><ele>252.0</ele><time>2026-03-28T14:38:59Z</time></trkpt><trkpt lat="45.65430850471778" lon="8.840831036533254"><ele>252.0</ele><time>2026-03-28T14:39:01Z</time></trkpt><trkpt lat="45.65430362019153" lon="8.840956001181606"><ele>252.0</ele><time>2026-03-28T14:39:03Z</time></trkpt><trkpt lat="45.65436857847054" lon="8.840977239375926"><ele>252.0</ele><time>2026-03-28T14:39:06Z</time></trkpt><trkpt lat="45.65443169872852" lon="8.840857409818964"><ele>252.8</ele><time>2026-03-28T14:39:08Z</time></trkpt><trkpt lat="45.6545161099936" lon="8.84077908291819"><ele>253.6</ele><time>2026-03-28T14:39:10Z</time></trkpt><trkpt lat="45.654573076055584" lon="8.840719623902439"><ele>254.40000000000003</ele><time>2026-03-28T14:39:12Z</time></trkpt><trkpt lat="45.65459206594849" lon="8.840595505094731"><ele>255.20000000000002</ele><time>2026-03-28T14:39:14Z</time></trkpt><trkpt lat="45.65466209251404" lon="8.840492509887277"><ele>256.0</ele><time>2026-03-28T14:39:16Z</time></trkpt><trkpt lat="45.65475167919955" lon="8.840566628655012"><ele>256.0</ele><time>2026-03-28T14:39:18Z</time></trkpt><trkpt lat="45.654793611901226" lon="8.840653162141345"><ele>256.0</ele><time>2026-03-28T14:39:19Z</time></trkpt><trkpt lat="45.65483105284638" lon="8.840764458129842"><ele>256.0</ele><time>2026-03-28T14:39:20Z</time></trkpt><trkpt lat="45.65486142802629" lon="8.840879728626774"><ele>256.0</ele><time>2026-03-28T14:39:21Z</time></trkpt><trkpt lat="45.654910488976604" lon="8.841060413910254"><ele>256.0</ele><time>2026-03-28T14:39:23Z</time></trkpt><trkpt lat="45.65486985184294" lon="8.841153007765282"><ele>256.0</ele><time>2026-03-28T14:39:26Z</time></trkpt><trkpt lat="45.65480123436429" lon="8.841048450851922"><ele>256.0</ele><time>2026-03-28T14:39:28Z</time></trkpt><trkpt lat="45.65474915467286" lon="8.840888325883586"><ele>256.0</ele><time>2026-03-28T14:39:30Z</time></trkpt><trkpt lat="45.65466787986393" lon="8.84082991641822"><ele>256.0</ele><time>2026-03-28T14:39:32Z</time></trkpt><trkpt lat="45.65454228908812" lon="8.840881142794947"><ele>256.0</ele><time>2026-03-28T14:39:34Z</time></trkpt><trkpt lat="45.65447306383883" lon="8.840946785807523"><ele>256.0</ele><time>2026-03-28T14:39:36Z</time></trkpt><trkpt lat="45.65453930401394" lon="8.841029982921262"><ele>256.0</ele><time>2026-03-28T14:39:39.999Z</time></trkpt><trkpt lat="45.65463063907209" lon="8.840944157884033"><ele>256.0</ele><time>2026-03-28T14:39:41.999Z</time></trkpt><trkpt lat="45.6546971180668" lon="8.840900810593922"><ele>256.0</ele><time>2026-03-28T14:39:43.999Z</time></trkpt><trkpt lat="45.6547284372407" lon="8.84102688869962"><ele>256.0</ele><time>2026-03-28T14:39:45.999Z</time></trkpt><trkpt lat="45.65463311273288" lon="8.841089176150255"><ele>256.16666666666663</ele><time>2026-03-28T14:39:47.999Z</time></trkpt><trkpt lat="45.654515144740756" lon="8.841082589602346"><ele>256.3333333333333</ele><time>2026-03-28T14:39:49.999Z</time></trkpt><trkpt lat="45.65443861043416" lon="8.84108023545983"><ele>256.5</ele><time>2026-03-28T14:39:50.999Z</time></trkpt><trkpt lat="45.65435501367868" lon="8.84108522573092"><ele>256.6666666666667</ele><time>2026-03-28T14:39:51.999Z</time></trkpt><trkpt lat="45.65427246497474" lon="8.841101961965807"><ele>256.83333333333337</ele><time>2026-03-28T14:39:52.999Z</time></trkpt><trkpt lat="45.65420698516437" lon="8.841114373952237"><ele>257.0</ele><time>2026-03-28T14:39:53.999Z</time></trkpt><trkpt lat="45.65413809377157" lon="8.841149663492004"><ele>257.0</ele><time>2026-03-28T14:39:55.999Z</time></trkpt><trkpt lat="45.654143006483984" lon="8.841257237595766"><ele>257.0</ele><time>2026-03-28T14:39:58.999Z</time></trkpt><trkpt lat="45.654225335801414" lon="8.841299625044813"><ele>257.0</ele><time>2026-03-28T14:40:00.999Z</time></trkpt><trkpt lat="45.654295352993394" lon="8.841277736970728"><ele>257.0</ele><time>2026-03-28T14:40:01.999Z</time></trkpt><trkpt lat="45.65441455147065" lon="8.841212756284957"><ele>257.0</ele><time>2026-03-28T14:40:03.999Z</time></trkpt><trkpt lat="45.65457946206466" lon="8.841150621514183"><ele>257.0</ele><time>2026-03-28T14:40:05.999Z</time></trkpt><trkpt lat="45.65466363419023" lon="8.841117500077917"><ele>257.0</ele><time>2026-03-28T14:40:06.999Z</time></trkpt><trkpt lat="45.654726685351115" lon="8.84109065991182"><ele>257.0</ele><time>2026-03-28T14:40:07.999Z</time></trkpt><trkpt lat="45.654799903385594" lon="8.841074209456156"><ele>257.0</ele><time>2026-03-28T14:40:09.999Z</time></trkpt><trkpt lat="45.654828212863734" lon="8.841175320972885"><ele>257.0</ele><time>2026-03-28T14:40:11.999Z</time></trkpt><trkpt lat="45.654720773598854" lon="8.841281388336368"><ele>257.0</ele><time>2026-03-28T14:40:13.999Z</time></trkpt><trkpt lat="45.65463245088516" lon="8.841300302692034"><ele>257.0</ele><time>2026-03-28T14:40:14.999Z</time></trkpt><trkpt lat="45.65451323112102" lon="8.841318233055077"><ele>257.0</ele><time>2026-03-28T14:40:15.999Z</time></trkpt><trkpt lat="45.65438944533454" lon="8.841354837537155"><ele>257.0</ele><time>2026-03-28T14:40:16.999Z</time></trkpt><trkpt lat="45.65425861145354" lon="8.84140268426401"><ele>257.0</ele><time>2026-03-28T14:40:17.999Z</time></trkpt><trkpt lat="45.6541389163206" lon="8.84144099003249"><ele>256.6666666666667</ele><time>2026-03-28T14:40:18.999Z</time></trkpt><trkpt lat="45.65404414956887" lon="8.84146897386349"><ele>256.33333333333337</ele><time>2026-03-28T14:40:19.999Z</time></trkpt><trkpt lat="45.65396246938117" lon="8.841489559070716"><ele>256.0</ele><time>2026-03-28T14:40:20.999Z</time></trkpt><trkpt lat="45.65389111557821" lon="8.841510290485108"><ele>255.66666666666669</ele><time>2026-03-28T14:40:21.999Z</time></trkpt><trkpt lat="45.653793112548584" lon="8.84152013455175"><ele>255.33333333333334</ele><time>2026-03-28T14:40:23.999Z</time></trkpt><trkpt lat="45.65372092222477" lon="8.841428003037349"><ele>255.0</ele><time>2026-03-28T14:40:25.999Z</time></trkpt><trkpt lat="45.65370608952607" lon="8.841334205338697"><ele>255.0</ele><time>2026-03-28T14:40:26.999Z</time></trkpt><trkpt lat="45.65370123646365" lon="8.841209142786687"><ele>255.0</ele><time>2026-03-28T14:40:27.999Z</time></trkpt><trkpt lat="45.6536984826592" lon="8.841079728375021"><ele>255.0</ele><time>2026-03-28T14:40:28.999Z</time></trkpt><trkpt lat="45.65368817770641" lon="8.84091462735363"><ele>255.0</ele><time>2026-03-28T14:40:29.999Z</time></trkpt><trkpt lat="45.65369110836946" lon="8.840761117719449"><ele>255.0</ele><time>2026-03-28T14:40:30.999Z</time></trkpt><trkpt lat="45.653719206142426" lon="8.840635417385837"><ele>254.4</ele><time>2026-03-28T14:40:31.999Z</time></trkpt><trkpt lat="45.65377074739787" lon="8.840530040021243"><ele>253.8</ele><time>2026-03-28T14:40:32.999Z</time></trkpt><trkpt lat="45.65385200601011" lon="8.840439971425534"><ele>253.2</ele><time>2026-03-28T14:40:33.999Z</time></trkpt><trkpt lat="45.65395686271873" lon="8.840375160016908"><ele>252.6</ele><time>2026-03-28T14:40:34.999Z</time></trkpt><trkpt lat="45.65407006949253" lon="8.840332089234753"><ele>252.0</ele><time>2026-03-28T14:40:35.999Z</time></trkpt><trkpt lat="45.65419324085928" lon="8.84031535954341"><ele>252.0</ele><time>2026-03-28T14:40:36.999Z</time></trkpt><trkpt lat="45.654328459223265" lon="8.84032003061841"><ele>252.0</ele><time>2026-03-28T14:40:37.999Z</time></trkpt><trkpt lat="45.65445429355842" lon="8.840325962016266"><ele>252.0</ele><time>2026-03-28T14:40:38.999Z</time></trkpt><trkpt lat="45.65457374501648" lon="8.840315851744064"><ele>252.0</ele><time>2026-03-28T14:40:39.999Z</time></trkpt><trkpt lat="45.65467673350143" lon="8.840290485708358"><ele>252.66666666666666</ele><time>2026-03-28T14:40:40.999Z</time></trkpt><trkpt lat="45.65475343543003" lon="8.84028008074234"><ele>253.33333333333331</ele><time>2026-03-28T14:40:41.999Z</time></trkpt><trkpt lat="45.654829558262485" lon="8.84027370658627"><ele>254.0</ele><time>2026-03-28T14:40:42.999Z</time></trkpt><trkpt lat="45.654921169976156" lon="8.840272446984985"><ele>254.66666666666666</ele><time>2026-03-28T14:40:44.999Z</time></trkpt><trkpt lat="45.65498414222069" lon="8.84034605050699"><ele>255.33333333333331</ele><time>2026-03-28T14:40:46.999Z</time></trkpt><trkpt lat="45.65498335123418" lon="8.840493302378563"><ele>256.0</ele><time>2026-03-28T14:40:48.999Z</time></trkpt><trkpt lat="45.65494749385622" lon="8.840656090530784"><ele>255.99999999999997</ele><time>2026-03-28T14:40:50.999Z</time></trkpt><trkpt lat="45.6549391697672" lon="8.840754753964491"><ele>256.0</ele><time>2026-03-28T14:40:52.999Z</time></trkpt><trkpt lat="45.6550279091777" lon="8.840834522121012"><ele>256.0</ele><time>2026-03-28T14:40:54.999Z</time></trkpt><trkpt lat="45.65508502039788" lon="8.84092918336875"><ele>256.0</ele><time>2026-03-28T14:40:56.999Z</time></trkpt><trkpt lat="45.655043916944365" lon="8.841040999011016"><ele>255.99999999999997</ele><time>2026-03-28T14:40:58.999Z</time></trkpt><trkpt lat="45.65495580215437" lon="8.841028304453891"><ele>256.0</ele><time>2026-03-28T14:41:00.999Z</time></trkpt><trkpt lat="45.654904672903605" lon="8.840882292082583"><ele>255.99999999999997</ele><time>2026-03-28T14:41:02.999Z</time></trkpt><trkpt lat="45.65489027666633" lon="8.840778374860854"><ele>256.0</ele><time>2026-03-28T14:41:03.999Z</time></trkpt><trkpt lat="45.654855449299326" lon="8.840654146825662"><ele>256.0</ele><time>2026-03-28T14:41:04.999Z</time></trkpt><trkpt lat="45.65481785374381" lon="8.840536223887131"><ele>256.0</ele><time>2026-03-28T14:41:05.999Z</time></trkpt><trkpt lat="45.65478592021226" lon="8.840450050061252"><ele>255.99999999999997</ele><time>2026-03-28T14:41:06.999Z</time></trkpt><trkpt lat="45.65470661883325" lon="8.840374314036564"><ele>256.0</ele><time>2026-03-28T14:41:08.999Z</time></trkpt><trkpt lat="45.65463607431978" lon="8.840370482701397"><ele>256.0</ele><time>2026-03-28T14:41:09.999Z</time></trkpt><trkpt lat="45.65455145668059" lon="8.84040364172991"><ele>256.0</ele><time>2026-03-28T14:41:10.999Z</time></trkpt><trkpt lat="45.654459540585506" lon="8.84044589863924"><ele>256.0</ele><time>2026-03-28T14:41:11.999Z</time></trkpt><trkpt lat="45.65438835900601" lon="8.840471582123582"><ele>256.0</ele><time>2026-03-28T14:41:12.999Z</time></trkpt><trkpt lat="45.654242824906824" lon="8.840505309386701"><ele>256.0</ele><time>2026-03-28T14:41:14.999Z</time></trkpt><trkpt lat="45.65413030167024" lon="8.840511919685042"><ele>255.33333333333331</ele><time>2026-03-28T14:41:15.999Z</time></trkpt><trkpt lat="45.65403380600928" lon="8.840520713285617"><ele>254.66666666666666</ele><time>2026-03-28T14:41:16.999Z</time></trkpt><trkpt lat="45.65396313263257" lon="8.840529024044235"><ele>254.0</ele><time>2026-03-28T14:41:17.999Z</time></trkpt><trkpt lat="45.653880251880686" lon="8.84055855603557"><ele>253.33333333333331</ele><time>2026-03-28T14:41:19.999Z</time></trkpt><trkpt lat="45.65386022933928" lon="8.840657958464005"><ele>252.66666666666666</ele><time>2026-03-28T14:41:21.999Z</time></trkpt><trkpt lat="45.653912802453235" lon="8.840731834150361"><ele>252.0</ele><time>2026-03-28T14:41:23.999Z</time></trkpt><trkpt lat="45.65400406610846" lon="8.840685429235768"><ele>252.0</ele><time>2026-03-28T14:41:25.999Z</time></trkpt><trkpt lat="45.654097567805685" lon="8.84059839282353"><ele>252.0</ele><time>2026-03-28T14:41:27.999Z</time></trkpt><trkpt lat="45.65416416639733" lon="8.840600790798348"><ele>252.0</ele><time>2026-03-28T14:41:28.999Z</time></trkpt><trkpt lat="45.65423913703122" lon="8.840609876443255"><ele>252.0</ele><time>2026-03-28T14:41:29.999Z</time></trkpt><trkpt lat="45.65430900779364" lon="8.840605333994304"><ele>252.0</ele><time>2026-03-28T14:41:30.999Z</time></trkpt><trkpt lat="45.6544037510782" lon="8.84058903681886"><ele>252.0</ele><time>2026-03-28T14:41:32.999Z</time></trkpt><trkpt lat="45.65450088310053" lon="8.84060037346901"><ele>252.0</ele><time>2026-03-28T14:41:34.999Z</time></trkpt><trkpt lat="45.65450472119097" lon="8.840697919790214"><ele>252.0</ele><time>2026-03-28T14:41:36.999Z</time></trkpt><trkpt lat="45.65440372997783" lon="8.840750964733811"><ele>252.0</ele><time>2026-03-28T14:41:38.999Z</time></trkpt><trkpt lat="45.654315572950736" lon="8.840818805258634"><ele>252.0</ele><time>2026-03-28T14:41:40.999Z</time></trkpt><trkpt lat="45.65430457120084" lon="8.840953325847863"><ele>252.0</ele><time>2026-03-28T14:41:42.999Z</time></trkpt><trkpt lat="45.654372670112814" lon="8.840974077941354"><ele>252.0</ele><time>2026-03-28T14:41:45.999Z</time></trkpt><trkpt lat="45.65442476102057" lon="8.840865871638899"><ele>252.8</ele><time>2026-03-28T14:41:47.999Z</time></trkpt><trkpt lat="45.65449725826231" lon="8.840782033766327"><ele>253.6</ele><time>2026-03-28T14:41:49.999Z</time></trkpt><trkpt lat="45.65457269084836" lon="8.840726574160273"><ele>254.40000000000003</ele><time>2026-03-28T14:41:51.999Z</time></trkpt><trkpt lat="45.65459160200127" lon="8.840598622018497"><ele>255.20000000000002</ele><time>2026-03-28T14:41:53.999Z</time></trkpt><trkpt lat="45.65465804350077" lon="8.840492583681947"><ele>256.0</ele><time>2026-03-28T14:41:55.999Z</time></trkpt><trkpt lat="45.6547478573113" lon="8.840558178422468"><ele>256.0</ele><time>2026-03-28T14:41:57.999Z</time></trkpt><trkpt lat="45.65482091069763" lon="8.840729855665344"><ele>256.0</ele><time>2026-03-28T14:41:59.999Z</time></trkpt><trkpt lat="45.65485352610434" lon="8.84084091600644"><ele>256.0</ele><time>2026-03-28T14:42:00.999Z</time></trkpt><trkpt lat="45.654876467303716" lon="8.840927345903593"><ele>256.0</ele><time>2026-03-28T14:42:01.999Z</time></trkpt><trkpt lat="45.65490779080303" lon="8.84104793823847"><ele>256.0</ele><time>2026-03-28T14:42:02.999Z</time></trkpt><trkpt lat="45.65492134982064" lon="8.84114851624772"><ele>255.99999999999997</ele><time>2026-03-28T14:42:04.999Z</time></trkpt><trkpt lat="45.65484401905723" lon="8.841137352785298"><ele>256.0</ele><time>2026-03-28T14:42:06.999Z</time></trkpt><trkpt lat="45.65479342866406" lon="8.840986709561355"><ele>256.0</ele><time>2026-03-28T14:42:08.999Z</time></trkpt><trkpt lat="45.654754344596974" lon="8.840887666511586"><ele>256.0</ele><time>2026-03-28T14:42:09.999Z</time></trkpt><trkpt lat="45.6546620166234" lon="8.84082350607576"><ele>255.99999999999997</ele><time>2026-03-28T14:42:11.999Z</time></trkpt><trkpt lat="45.65460077280826" lon="8.840850199397778"><ele>256.0</ele><time>2026-03-28T14:42:12.999Z</time></trkpt><trkpt lat="45.65452761863169" lon="8.840894661719805"><ele>255.99999999999997</ele><time>2026-03-28T14:42:13.999Z</time></trkpt><trkpt lat="45.65447671445347" lon="8.84096605418375"><ele>256.0</ele><time>2026-03-28T14:42:15.999Z</time></trkpt><trkpt lat="45.65455568391101" lon="8.841025667143914"><ele>256.0</ele><time>2026-03-28T14:42:19.999Z</time></trkpt><trkpt lat="45.654650550092484" lon="8.840924428807147"><ele>256.0</ele><time>2026-03-28T14:42:21.999Z</time></trkpt><trkpt lat="45.65471477986121" lon="8.840918176402537"><ele>255.99999999999997</ele><time>2026-03-28T14:42:23.999Z</time></trkpt><trkpt lat="45.65472035183529" lon="8.84104919933414"><ele>256.0</ele><time>2026-03-28T14:42:25.999Z</time></trkpt><trkpt lat="45.654613296144895" lon="8.841089236699904"><ele>256.16666666666663</ele><time>2026-03-28T14:42:27.999Z</time></trkpt><trkpt lat="45.65453201158939" lon="8.841086129612782"><ele>256.3333333333333</ele><time>2026-03-28T14:42:28.999Z</time></trkpt><trkpt lat="45.65443390638151" lon="8.841083253592226"><ele>256.5</ele><time>2026-03-28T14:42:29.999Z</time></trkpt><trkpt lat="45.65435793762312" lon="8.841086038686509"><ele>256.6666666666667</ele><time>2026-03-28T14:42:30.999Z</time></trkpt><trkpt lat="45.65427811152836" lon="8.841094940510795"><ele>256.83333333333337</ele><time>2026-03-28T14:42:31.999Z</time></trkpt><trkpt lat="45.654209456676874" lon="8.841113646956861"><ele>257.0</ele><time>2026-03-28T14:42:32.999Z</time></trkpt><trkpt lat="45.65412532823626" lon="8.841162212511165"><ele>257.0</ele><time>2026-03-28T14:42:34.999Z</time></trkpt><trkpt lat="45.654125155410725" lon="8.841259197915244"><ele>257.0</ele><time>2026-03-28T14:42:37.999Z</time></trkpt><trkpt lat="45.654184431377054" lon="8.841296363630837"><ele>257.0</ele><time>2026-03-28T14:42:39.999Z</time></trkpt><trkpt lat="45.654312957610394" lon="8.841264348108583"><ele>257.0</ele><time>2026-03-28T14:42:41.999Z</time></trkpt><trkpt lat="45.6543830930088" lon="8.841229936977136"><ele>257.0</ele><time>2026-03-28T14:42:42.999Z</time></trkpt><trkpt lat="45.654539027646464" lon="8.841171401095123"><ele>257.0</ele><time>2026-03-28T14:42:44.999Z</time></trkpt><trkpt lat="45.654649114423556" lon="8.841126698224997"><ele>257.0</ele><time>2026-03-28T14:42:45.999Z</time></trkpt><trkpt lat="45.654718012684725" lon="8.841095279564149"><ele>257.0</ele><time>2026-03-28T14:42:46.999Z</time></trkpt><trkpt lat="45.6547903935262" lon="8.841073457516758"><ele>257.0</ele><time>2026-03-28T14:42:48.999Z</time></trkpt><trkpt lat="45.65482652791786" lon="8.841173996603283"><ele>257.0</ele><time>2026-03-28T14:42:50.999Z</time></trkpt><trkpt lat="45.65473257024612" lon="8.841275613622916"><ele>257.0</ele><time>2026-03-28T14:42:52.999Z</time></trkpt><trkpt lat="45.654640160744485" lon="8.841300969805213"><ele>257.0</ele><time>2026-03-28T14:42:53.999Z</time></trkpt><trkpt lat="45.65454072229391" lon="8.841313401364257"><ele>257.0</ele><time>2026-03-28T14:42:54.999Z</time></trkpt><trkpt lat="45.6544189902593" lon="8.841343072980274"><ele>257.0</ele><time>2026-03-28T14:42:55.999Z</time></trkpt><trkpt lat="45.6543027781428" lon="8.841383479410686"><ele>257.0</ele><time>2026-03-28T14:42:56.999Z</time></trkpt><trkpt lat="45.65417177788829" lon="8.841427194538944"><ele>256.6</ele><time>2026-03-28T14:42:57.999Z</time></trkpt><trkpt lat="45.654055066298696" lon="8.841464806531542"><ele>256.2</ele><time>2026-03-28T14:42:58.999Z</time></trkpt><trkpt lat="45.65395891148319" lon="8.841494336525862"><ele>255.8</ele><time>2026-03-28T14:42:59.999Z</time></trkpt><trkpt lat="45.65389179749025" lon="8.841511040790635"><ele>255.4</ele><time>2026-03-28T14:43:00.999Z</time></trkpt><trkpt lat="45.65379519636868" lon="8.841520334342398"><ele>255.0</ele><time>2026-03-28T14:43:02.999Z</time></trkpt><trkpt lat="45.65374151926819" lon="8.841448765474766"><ele>255.0</ele><time>2026-03-28T14:43:04.999Z</time></trkpt><trkpt lat="45.653712043610994" lon="8.841258599973306"><ele>255.0</ele><time>2026-03-28T14:43:06.999Z</time></trkpt><trkpt lat="45.65370807908443" lon="8.841115957109405"><ele>255.0</ele><time>2026-03-28T14:43:07.999Z</time></trkpt><trkpt lat="45.653698986007136" lon="8.84096417929705"><ele>255.0</ele><time>2026-03-28T14:43:08.999Z</time></trkpt><trkpt lat="45.65369037441" lon="8.840808286020627"><ele>254.4</ele><time>2026-03-28T14:43:09.999Z</time></trkpt><trkpt lat="45.65370831350239" lon="8.840674097094002"><ele>253.8</ele><time>2026-03-28T14:43:10.999Z</time></trkpt><trkpt lat="45.65375701778177" lon="8.840552840965183"><ele>253.2</ele><time>2026-03-28T14:43:11.999Z</time></trkpt><trkpt lat="45.65383601812142" lon="8.840453460108119"><ele>252.6</ele><time>2026-03-28T14:43:12.999Z</time></trkpt><trkpt lat="45.653937072985435" lon="8.840380744651844"><ele>252.0</ele><time>2026-03-28T14:43:13.999Z</time></trkpt><trkpt lat="45.654056355617556" lon="8.840334753328314"><ele>252.0</ele><time>2026-03-28T14:43:14.999Z</time></trkpt><trkpt lat="45.65419100261263" lon="8.840309701993142"><ele>252.0</ele><time>2026-03-28T14:43:15.999Z</time></trkpt><trkpt lat="45.65432298191425" lon="8.840314534048387"><ele>252.0</ele><time>2026-03-28T14:43:16.999Z</time></trkpt><trkpt lat="45.654440721657245" lon="8.84032266639529"><ele>252.0</ele><time>2026-03-28T14:43:17.999Z</time></trkpt><trkpt lat="45.65455334720834" lon="8.840316228640015"><ele>252.66666666666666</ele><time>2026-03-28T14:43:18.999Z</time></trkpt><trkpt lat="45.65466054834092" lon="8.84029673976762"><ele>253.33333333333331</ele><time>2026-03-28T14:43:19.999Z</time></trkpt><trkpt lat="45.65476554921875" lon="8.840273928318839"><ele>254.0</ele><time>2026-03-28T14:43:20.999Z</time></trkpt><trkpt lat="45.654844579314585" lon="8.840264172541275"><ele>254.66666666666666</ele><time>2026-03-28T14:43:21.999Z</time></trkpt><trkpt lat="45.65491962515052" lon="8.840263632507911"><ele>255.33333333333331</ele><time>2026-03-28T14:43:23.999Z</time></trkpt><trkpt lat="45.65497743487052" lon="8.840317524468658"><ele>256.0</ele><time>2026-03-28T14:43:25.999Z</time></trkpt><trkpt lat="45.654991223032766" lon="8.840417918086102"><ele>256.0</ele><time>2026-03-28T14:43:27.999Z</time></trkpt><trkpt lat="45.65498175840591" lon="8.84055882974871"><ele>256.0</ele><time>2026-03-28T14:43:29.999Z</time></trkpt><trkpt lat="45.65493479607661" lon="8.8406882506609"><ele>256.0</ele><time>2026-03-28T14:43:31.999Z</time></trkpt><trkpt lat="45.65496691195696" lon="8.840781646114003"><ele>256.0</ele><time>2026-03-28T14:43:33.999Z</time></trkpt><trkpt lat="45.655062434559326" lon="8.840857201278657"><ele>256.0</ele><time>2026-03-28T14:43:35.999Z</time></trkpt><trkpt lat="45.65508087336677" lon="8.840982175030152"><ele>256.0</ele><time>2026-03-28T14:43:37.999Z</time></trkpt><trkpt lat="45.65500942432951" lon="8.841062540903023"><ele>256.0</ele><time>2026-03-28T14:43:39.999Z</time></trkpt><trkpt lat="45.65493756649274" lon="8.840998671896335"><ele>256.0</ele><time>2026-03-28T14:43:41.999Z</time></trkpt><trkpt lat="45.654895780239116" lon="8.840820209763326"><ele>256.0</ele><time>2026-03-28T14:43:43.999Z</time></trkpt><trkpt lat="45.65486460817747" lon="8.840686733851342"><ele>256.0</ele><time>2026-03-28T14:43:44.999Z</time></trkpt><trkpt lat="45.654831927917236" lon="8.840573270332866"><ele>256.0</ele><time>2026-03-28T14:43:45.999Z</time></trkpt><trkpt lat="45.654776937185765" lon="8.840432779013314"><ele>256.0</ele><time>2026-03-28T14:43:47.999Z</time></trkpt><trkpt lat="45.65468148495231" lon="8.840360929073737"><ele>256.0</ele><time>2026-03-28T14:43:49.999Z</time></trkpt><trkpt lat="45.65461646928556" lon="8.840376234193787"><ele>256.0</ele><time>2026-03-28T14:43:51Z</time></trkpt><trkpt lat="45.654529391592874" lon="8.840416726037178"><ele>256.0</ele><time>2026-03-28T14:43:52Z</time></trkpt><trkpt lat="45.65444173500403" lon="8.84045282682305"><ele>255.20000000000002</ele><time>2026-03-28T14:43:53Z</time></trkpt><trkpt lat="45.65431976085302" lon="8.840475497594294"><ele>254.40000000000003</ele><time>2026-03-28T14:43:55Z</time></trkpt><trkpt lat="45.65420659103954" lon="8.840506995492898"><ele>253.6</ele><time>2026-03-28T14:43:56Z</time></trkpt><trkpt lat="45.65409995611118" lon="8.840513548093456"><ele>252.8</ele><time>2026-03-28T14:43:57Z</time></trkpt><trkpt lat="45.654012195129894" lon="8.840515583886928"><ele>252.0</ele><time>2026-03-28T14:43:58Z</time></trkpt><trkpt lat="45.653943687741226" lon="8.840523113283366"><ele>252.0</ele><time>2026-03-28T14:43:59Z</time></trkpt><trkpt lat="45.65387272155771" lon="8.840575552133265"><ele>252.0</ele><time>2026-03-28T14:44:01Z</time></trkpt><trkpt lat="45.653870302761455" lon="8.840684370112523"><ele>252.0</ele><time>2026-03-28T14:44:03Z</time></trkpt><trkpt lat="45.65394713104243" lon="8.840734260029247"><ele>252.0</ele><time>2026-03-28T14:44:05Z</time></trkpt><trkpt lat="45.65401951165822" lon="8.840667000803327"><ele>252.0</ele><time>2026-03-28T14:44:07Z</time></trkpt><trkpt lat="45.65410464814177" lon="8.84059505819219"><ele>252.0</ele><time>2026-03-28T14:44:09Z</time></trkpt><trkpt lat="45.654176997788284" lon="8.84059775544605"><ele>252.0</ele><time>2026-03-28T14:44:10Z</time></trkpt><trkpt lat="45.65424703576948" lon="8.840606929425809"><ele>252.0</ele><time>2026-03-28T14:44:11Z</time></trkpt><trkpt lat="45.65432502378646" lon="8.840600286484447"><ele>252.0</ele><time>2026-03-28T14:44:12Z</time></trkpt><trkpt lat="45.65441177255987" lon="8.840590591743487"><ele>252.0</ele><time>2026-03-28T14:44:14Z</time></trkpt><trkpt lat="45.654503683864014" lon="8.84060574842304"><ele>252.0</ele><time>2026-03-28T14:44:16Z</time></trkpt><trkpt lat="45.654491425626176" lon="8.840708104314396"><ele>252.0</ele><time>2026-03-28T14:44:18Z</time></trkpt><trkpt lat="45.654392083817044" lon="8.840754226949304"><ele>252.0</ele><time>2026-03-28T14:44:20Z</time></trkpt><trkpt lat="45.65430955700364" lon="8.840826503422816"><ele>252.0</ele><time>2026-03-28T14:44:22Z</time></trkpt><trkpt lat="45.65430822100507" lon="8.840959609113149"><ele>252.0</ele><time>2026-03-28T14:44:24Z</time></trkpt><trkpt lat="45.654384105540274" lon="8.840974067386734"><ele>252.0</ele><time>2026-03-28T14:44:27Z</time></trkpt><trkpt lat="45.65443095271612" lon="8.840849129904237"><ele>252.0</ele><time>2026-03-28T14:44:29Z</time></trkpt><trkpt lat="45.65450970829923" lon="8.840785000606008"><ele>252.8</ele><time>2026-03-28T14:44:31Z</time></trkpt><trkpt lat="45.654574762998955" lon="8.840723740230437"><ele>253.6</ele><time>2026-03-28T14:44:33Z</time></trkpt><trkpt lat="45.654600167504015" lon="8.840578639418162"><ele>254.40000000000003</ele><time>2026-03-28T14:44:35Z</time></trkpt><trkpt lat="45.6546672362915" lon="8.840492919228957"><ele>255.20000000000002</ele><time>2026-03-28T14:44:37Z</time></trkpt><trkpt lat="45.654753649775756" lon="8.840573096577591"><ele>256.0</ele><time>2026-03-28T14:44:39Z</time></trkpt><trkpt lat="45.65480535050025" lon="8.840679248023244"><ele>256.0</ele><time>2026-03-28T14:44:40Z</time></trkpt><trkpt lat="45.65484532563178" lon="8.840798054565083"><ele>256.0</ele><time>2026-03-28T14:44:41Z</time></trkpt><trkpt lat="45.65488505865368" lon="8.840970200315578"><ele>256.0</ele><time>2026-03-28T14:44:43Z</time></trkpt><trkpt lat="45.654913217089614" lon="8.841061190600136"><ele>256.0</ele><time>2026-03-28T14:44:44Z</time></trkpt><trkpt lat="45.654874995335405" lon="8.841154418504104"><ele>256.0</ele><time>2026-03-28T14:44:47Z</time></trkpt><trkpt lat="45.65480836705312" lon="8.841060442555376"><ele>255.99999999999997</ele><time>2026-03-28T14:44:49Z</time></trkpt><trkpt lat="45.654783257575815" lon="8.84096229029783"><ele>256.0</ele><time>2026-03-28T14:44:50Z</time></trkpt><trkpt lat="45.65471430245003" lon="8.840851058825606"><ele>256.0</ele><time>2026-03-28T14:44:52Z</time></trkpt><trkpt lat="45.65460111811231" lon="8.840850468895132"><ele>256.0</ele><time>2026-03-28T14:44:54Z</time></trkpt><trkpt lat="45.654525637470876" lon="8.84089732118913"><ele>255.99999999999997</ele><time>2026-03-28T14:44:55Z</time></trkpt><trkpt lat="45.6544721131021" lon="8.840961922894847"><ele>256.0</ele><time>2026-03-28T14:44:57Z</time></trkpt><trkpt lat="45.6545166499315" lon="8.84102866739753"><ele>255.99999999999997</ele><time>2026-03-28T14:45:00Z</time></trkpt><trkpt lat="45.65460177753755" lon="8.840992851888974"><ele>256.0</ele><time>2026-03-28T14:45:02Z</time></trkpt><trkpt lat="45.654652700113054" lon="8.840917965142324"><ele>256.0</ele><time>2026-03-28T14:45:03Z</time></trkpt><trkpt lat="45.65471987327712" lon="8.840932295426722"><ele>256.0</ele><time>2026-03-28T14:45:05Z</time></trkpt><trkpt lat="45.654710401279964" lon="8.84105928532255"><ele>255.99999999999997</ele><time>2026-03-28T14:45:06.999Z</time></trkpt><trkpt lat="45.654585813628145" lon="8.841092472592269"><ele>256.0</ele><time>2026-03-28T14:45:08.999Z</time></trkpt><trkpt lat="45.65450243772373" lon="8.841081904206751"><ele>255.83333333333331</ele><time>2026-03-28T14:45:09.999Z</time></trkpt><trkpt lat="45.6544069387453" lon="8.841086424526246"><ele>255.66666666666666</ele><time>2026-03-28T14:45:10.999Z</time></trkpt><trkpt lat="45.6542977964308" lon="8.841094575958179"><ele>255.5</ele><time>2026-03-28T14:45:11.999Z</time></trkpt><trkpt lat="45.654222240973695" lon="8.841113633040157"><ele>255.33333333333331</ele><time>2026-03-28T14:45:12.999Z</time></trkpt><trkpt lat="45.65413835816306" lon="8.84114660105064"><ele>255.16666666666666</ele><time>2026-03-28T14:45:14.999Z</time></trkpt><trkpt lat="45.654116643921405" lon="8.84123530667729"><ele>255.0</ele><time>2026-03-28T14:45:16.999Z</time></trkpt><trkpt lat="45.6541933882862" lon="8.841292381684582"><ele>255.0</ele><time>2026-03-28T14:45:19.999Z</time></trkpt><trkpt lat="45.65432700104517" lon="8.841263821695003"><ele>255.0</ele><time>2026-03-28T14:45:21.999Z</time></trkpt><trkpt lat="45.65441227714506" lon="8.841214389834883"><ele>255.0</ele><time>2026-03-28T14:45:23.999Z</time></trkpt><trkpt lat="45.65448842019901" lon="8.841186459514805"><ele>255.0</ele><time>2026-03-28T14:45:24.999Z</time></trkpt><trkpt lat="45.654598642140314" lon="8.841146259113987"><ele>255.0</ele><time>2026-03-28T14:45:25.999Z</time></trkpt><trkpt lat="45.654685074546" lon="8.841110734299894"><ele>255.33333333333334</ele><time>2026-03-28T14:45:26.999Z</time></trkpt><trkpt lat="45.65477134469558" lon="8.841072841074798"><ele>255.66666666666669</ele><time>2026-03-28T14:45:28.999Z</time></trkpt><trkpt lat="45.65482443693349" lon="8.841130720077272"><ele>256.0</ele><time>2026-03-28T14:45:30.999Z</time></trkpt><trkpt lat="45.654767247410796" lon="8.841265139303147"><ele>256.33333333333337</ele><time>2026-03-28T14:45:32.999Z</time></trkpt><trkpt lat="45.654696137405786" lon="8.841288855397524"><ele>256.6666666666667</ele><time>2026-03-28T14:45:33.999Z</time></trkpt><trkpt lat="45.654601765682685" lon="8.841298749236405"><ele>257.0</ele><time>2026-03-28T14:45:34.999Z</time></trkpt><trkpt lat="45.6544758378344" lon="8.841321165493131"><ele>256.6</ele><time>2026-03-28T14:45:35.999Z</time></trkpt><trkpt lat="45.65437073779923" lon="8.84135653469843"><ele>256.2</ele><time>2026-03-28T14:45:36.999Z</time></trkpt><trkpt lat="45.65427395393114" lon="8.841383221809782"><ele>255.8</ele><time>2026-03-28T14:45:37.999Z</time></trkpt><trkpt lat="45.65416168653629" lon="8.841424061605627"><ele>255.4</ele><time>2026-03-28T14:45:38.999Z</time></trkpt><trkpt lat="45.65406385284469" lon="8.841458180633845"><ele>255.0</ele><time>2026-03-28T14:45:39.999Z</time></trkpt><trkpt lat="45.65397581001336" lon="8.841487627443414"><ele>255.0</ele><time>2026-03-28T14:45:40.999Z</time></trkpt><trkpt lat="45.6539026723338" lon="8.841503581114793"><ele>255.0</ele><time>2026-03-28T14:45:42Z</time></trkpt><trkpt lat="45.65379289369457" lon="8.841513399443597"><ele>255.0</ele><time>2026-03-28T14:45:44Z</time></trkpt><trkpt lat="45.65372973576876" lon="8.841432859785197"><ele>255.0</ele><time>2026-03-28T14:45:46Z</time></trkpt><trkpt lat="45.653712377267695" lon="8.841341998429067"><ele>255.0</ele><time>2026-03-28T14:45:47Z</time></trkpt><trkpt lat="45.65370761132958" lon="8.841211110594779"><ele>255.0</ele><time>2026-03-28T14:45:48Z</time></trkpt><trkpt lat="45.65369842328989" lon="8.841061195751973"><ele>254.5</ele><time>2026-03-28T14:45:49Z</time></trkpt><trkpt lat="45.65368218162263" lon="8.84096522101949"><ele>254.0</ele><time>2026-03-28T14:45:50Z</time></trkpt><trkpt lat="45.6536600655873" lon="8.840875642899698"><ele>253.5</ele><time>2026-03-28T14:45:52Z</time></trkpt><trkpt lat="45.653670749657785" lon="8.840724129136488"><ele>253.0</ele><time>2026-03-28T14:54:04.001Z</time></trkpt><trkpt lat="45.65369852890398" lon="8.84063720416157"><ele>252.5</ele><time>2026-03-28T14:54:05Z</time></trkpt><trkpt lat="45.65375487577493" lon="8.84054618738774"><ele>252.0</ele><time>2026-03-28T14:54:06Z</time></trkpt><trkpt lat="45.653827696552995" lon="8.840461062608687"><ele>252.0</ele><time>2026-03-28T14:54:07Z</time></trkpt><trkpt lat="45.65391301691099" lon="8.84039361412557"><ele>252.0</ele><time>2026-03-28T14:54:08Z</time></trkpt><trkpt lat="45.654010792902376" lon="8.84034133008928"><ele>252.0</ele><time>2026-03-28T14:54:09Z</time></trkpt><trkpt lat="45.65411774366978" lon="8.840317703591188"><ele>252.0</ele><time>2026-03-28T14:54:10Z</time></trkpt><trkpt lat="45.654224847834485" lon="8.840311317551732"><ele>252.0</ele><time>2026-03-28T14:54:11Z</time></trkpt><trkpt lat="45.65434393119206" lon="8.840319477648752"><ele>252.8</ele><time>2026-03-28T14:54:12Z</time></trkpt><trkpt lat="45.65446391761768" lon="8.840321890672948"><ele>253.6</ele><time>2026-03-28T14:54:13Z</time></trkpt><trkpt lat="45.654568405649314" lon="8.84030958259689"><ele>254.40000000000003</ele><time>2026-03-28T14:54:14Z</time></trkpt><trkpt lat="45.65466579616609" lon="8.840290889874508"><ele>255.20000000000002</ele><time>2026-03-28T14:54:15Z</time></trkpt><trkpt lat="45.6547598256552" lon="8.840275519789916"><ele>256.0</ele><time>2026-03-28T14:54:16Z</time></trkpt><trkpt lat="45.65484428979785" lon="8.840266472154527"><ele>256.0</ele><time>2026-03-28T14:54:17Z</time></trkpt><trkpt lat="45.65493435880105" lon="8.84026058179901"><ele>256.0</ele><time>2026-03-28T14:54:19Z</time></trkpt><trkpt lat="45.65499454385493" lon="8.840316776443778"><ele>256.0</ele><time>2026-03-28T14:54:21Z</time></trkpt><trkpt lat="45.654993302982106" lon="8.84045207272962"><ele>256.0</ele><time>2026-03-28T14:54:23Z</time></trkpt><trkpt lat="45.654984729861056" lon="8.840551936424136"><ele>256.0</ele><time>2026-03-28T14:54:24Z</time></trkpt><trkpt lat="45.65402894545329" lon="8.840508127684421"><ele>255.33333333333331</ele><time>2026-03-28T14:55:25Z</time></trkpt><trkpt lat="45.65395382099609" lon="8.840517714848422"><ele>254.66666666666666</ele><time>2026-03-28T14:55:26Z</time></trkpt><trkpt lat="45.65387143247297" lon="8.840563404868542"><ele>254.0</ele><time>2026-03-28T14:55:28Z</time></trkpt><trkpt lat="45.65385782551519" lon="8.840666907878322"><ele>253.33333333333331</ele><time>2026-03-28T14:55:30Z</time></trkpt><trkpt lat="45.653921160675374" lon="8.840724438962926"><ele>252.66666666666666</ele><time>2026-03-28T14:55:32Z</time></trkpt><trkpt lat="45.65400532326452" lon="8.840664795029014"><ele>252.0</ele><time>2026-03-28T14:55:34Z</time></trkpt><trkpt lat="45.654063518787865" lon="8.840611060400043"><ele>252.0</ele><time>2026-03-28T14:55:35Z</time></trkpt><trkpt lat="45.65418421598738" lon="8.840599716707088"><ele>252.0</ele><time>2026-03-28T14:55:37Z</time></trkpt><trkpt lat="45.65429762606191" lon="8.840599498095086"><ele>252.0</ele><time>2026-03-28T14:55:39Z</time></trkpt><trkpt lat="45.65438863234756" lon="8.840584700000669"><ele>252.0</ele><time>2026-03-28T14:55:41Z</time></trkpt><trkpt lat="45.65448039105538" lon="8.840589927831191"><ele>252.0</ele><time>2026-03-28T14:55:43Z</time></trkpt><trkpt lat="45.65449196486569" lon="8.840706137752308"><ele>252.0</ele><time>2026-03-28T14:55:46Z</time></trkpt><trkpt lat="45.65439957380211" lon="8.840751377253808"><ele>252.0</ele><time>2026-03-28T14:55:48Z</time></trkpt><trkpt lat="45.654320725083124" lon="8.840814464772793"><ele>252.0</ele><time>2026-03-28T14:55:50Z</time></trkpt><trkpt lat="45.654305735898205" lon="8.840945155752904"><ele>252.0</ele><time>2026-03-28T14:55:52Z</time></trkpt><trkpt lat="45.65438188743678" lon="8.840957779597847"><ele>252.0</ele><time>2026-03-28T14:55:56Z</time></trkpt><trkpt lat="45.65444057260811" lon="8.840829083025664"><ele>252.66666666666666</ele><time>2026-03-28T14:55:58Z</time></trkpt><trkpt lat="45.65452755528165" lon="8.84077881384171"><ele>253.33333333333331</ele><time>2026-03-28T14:56:00Z</time></trkpt><trkpt lat="45.6545762197757" lon="8.840700177169433"><ele>254.0</ele><time>2026-03-28T14:56:02Z</time></trkpt><trkpt lat="45.65459034197968" lon="8.840589376624484"><ele>254.66666666666666</ele><time>2026-03-28T14:56:04Z</time></trkpt><trkpt lat="45.65465197764345" lon="8.84049427545638"><ele>255.33333333333331</ele><time>2026-03-28T14:56:06Z</time></trkpt><trkpt lat="45.65473942659359" lon="8.840554240822843"><ele>256.0</ele><time>2026-03-28T14:56:08Z</time></trkpt><trkpt lat="45.654783606235306" lon="8.84064595095678"><ele>256.0</ele><time>2026-03-28T14:56:09Z</time></trkpt><trkpt lat="45.65482582351857" lon="8.840762411117579"><ele>256.0</ele><time>2026-03-28T14:56:10Z</time></trkpt><trkpt lat="45.65485226125886" lon="8.840853924980198"><ele>256.0</ele><time>2026-03-28T14:56:11Z</time></trkpt><trkpt lat="45.654900621933" lon="8.841042357799259"><ele>256.0</ele><time>2026-03-28T14:56:13Z</time></trkpt><trkpt lat="45.65488665996488" lon="8.841153667875936"><ele>256.0</ele><time>2026-03-28T14:56:16Z</time></trkpt><trkpt lat="45.65482144163072" lon="8.841095642176535"><ele>256.0</ele><time>2026-03-28T14:56:18Z</time></trkpt><trkpt lat="45.654791003102744" lon="8.841013978995985"><ele>256.0</ele><time>2026-03-28T14:56:19Z</time></trkpt><trkpt lat="45.65476722382571" lon="8.840912156341705"><ele>256.0</ele><time>2026-03-28T14:56:20Z</time></trkpt><trkpt lat="45.65469062732582" lon="8.840830737722703"><ele>256.0</ele><time>2026-03-28T14:56:22Z</time></trkpt><trkpt lat="45.65457576658273" lon="8.840861536233005"><ele>256.0</ele><time>2026-03-28T14:56:24Z</time></trkpt><trkpt lat="45.653862085187804" lon="8.840430336527874"><ele>255.0</ele><time>2026-03-28T14:57:25Z</time></trkpt><trkpt lat="45.65395866771631" lon="8.840375678208126"><ele>254.0</ele><time>2026-03-28T14:57:26Z</time></trkpt><trkpt lat="45.65407260284715" lon="8.840339097843538"><ele>253.0</ele><time>2026-03-28T14:57:27Z</time></trkpt><trkpt lat="45.654197427467665" lon="8.840316701526117"><ele>252.0</ele><time>2026-03-28T14:57:28Z</time></trkpt><trkpt lat="45.654329179208105" lon="8.840316583703139"><ele>252.0</ele><time>2026-03-28T14:57:29Z</time></trkpt><trkpt lat="45.65444278646026" lon="8.840327776140613"><ele>252.0</ele><time>2026-03-28T14:57:30Z</time></trkpt><trkpt lat="45.65453543771137" lon="8.840323743715622"><ele>252.0</ele><time>2026-03-28T14:57:31Z</time></trkpt><trkpt lat="45.65462413038648" lon="8.840303979278445"><ele>252.0</ele><time>2026-03-28T14:57:32Z</time></trkpt><trkpt lat="45.654708895240475" lon="8.840289197490948"><ele>252.0</ele><time>2026-03-28T14:57:33Z</time></trkpt><trkpt lat="45.654802124800064" lon="8.84027263688687"><ele>252.8</ele><time>2026-03-28T14:57:34Z</time></trkpt><trkpt lat="45.65490985925099" lon="8.840266291747682"><ele>253.6</ele><time>2026-03-28T14:57:36Z</time></trkpt><trkpt lat="45.65497297560542" lon="8.840301808430812"><ele>254.40000000000003</ele><time>2026-03-28T14:57:38Z</time></trkpt><trkpt lat="45.65498977102198" lon="8.8404138274034"><ele>255.20000000000002</ele><time>2026-03-28T14:57:40Z</time></trkpt><trkpt lat="45.654976785868435" lon="8.84060214307096"><ele>256.0</ele><time>2026-03-28T14:57:42Z</time></trkpt><trkpt lat="45.654929129119374" lon="8.840711362417423"><ele>256.0</ele><time>2026-03-28T14:57:44Z</time></trkpt><trkpt lat="45.654978166432784" lon="8.840801743709143"><ele>256.0</ele><time>2026-03-28T14:57:46Z</time></trkpt><trkpt lat="45.655078299997" lon="8.840887814178013"><ele>256.0</ele><time>2026-03-28T14:57:48Z</time></trkpt><trkpt lat="45.655066648631184" lon="8.84100998074857"><ele>256.0</ele><time>2026-03-28T14:57:50Z</time></trkpt><trkpt lat="45.654988939854924" lon="8.841063510375115"><ele>256.0</ele><time>2026-03-28T14:57:52Z</time></trkpt><trkpt lat="45.65492668392042" lon="8.840976005878685"><ele>255.99999999999997</ele><time>2026-03-28T14:57:54Z</time></trkpt><trkpt lat="45.65489823465065" lon="8.840879167015862"><ele>256.0</ele><time>2026-03-28T14:57:55Z</time></trkpt><trkpt lat="45.65488722084375" lon="8.840775731019678"><ele>256.0</ele><time>2026-03-28T14:57:56Z</time></trkpt><trkpt lat="45.65485581135628" lon="8.84064933950762"><ele>256.0</ele><time>2026-03-28T14:57:57Z</time></trkpt><trkpt lat="45.65482837044075" lon="8.84054810144354"><ele>255.99999999999997</ele><time>2026-03-28T14:57:58Z</time></trkpt><trkpt lat="45.65479662950891" lon="8.840467232765105"><ele>256.0</ele><time>2026-03-28T14:57:59Z</time></trkpt><trkpt lat="45.654709920319" lon="8.840374959582112"><ele>256.0</ele><time>2026-03-28T14:58:01Z</time></trkpt><trkpt lat="45.654577859386464" lon="8.840398893140584"><ele>256.0</ele><time>2026-03-28T14:58:03Z</time></trkpt><trkpt lat="45.654474864829474" lon="8.840439228610796"><ele>256.0</ele><time>2026-03-28T14:58:04Z</time></trkpt><trkpt lat="45.65439135405098" lon="8.840465150523578"><ele>256.0</ele><time>2026-03-28T14:58:05Z</time></trkpt><trkpt lat="45.654266800264196" lon="8.840486033497154"><ele>255.20000000000002</ele><time>2026-03-28T14:58:07Z</time></trkpt><trkpt lat="45.654139638618815" lon="8.840513186563571"><ele>254.40000000000003</ele><time>2026-03-28T14:58:08Z</time></trkpt><trkpt lat="45.65403968842955" lon="8.840517734797716"><ele>253.6</ele><time>2026-03-28T14:58:09Z</time></trkpt><trkpt lat="45.65395968585189" lon="8.840523670171505"><ele>252.8</ele><time>2026-03-28T14:58:10Z</time></trkpt><trkpt lat="45.65388344911269" lon="8.84055331636324"><ele>252.0</ele><time>2026-03-28T14:58:12Z</time></trkpt><trkpt lat="45.65386184856573" lon="8.840644071962801"><ele>252.0</ele><time>2026-03-28T14:58:14Z</time></trkpt><trkpt lat="45.65391008098583" lon="8.840727245973511"><ele>252.0</ele><time>2026-03-28T14:58:16Z</time></trkpt><trkpt lat="45.653997267260905" lon="8.84068090483136"><ele>252.0</ele><time>2026-03-28T14:58:18Z</time></trkpt><trkpt lat="45.65405078587815" lon="8.840622094560803"><ele>252.0</ele><time>2026-03-28T14:58:19Z</time></trkpt><trkpt lat="45.65411296777677" lon="8.840586805416162"><ele>252.0</ele><time>2026-03-28T14:58:20Z</time></trkpt><trkpt lat="45.65418144682037" lon="8.840594458066242"><ele>252.0</ele><time>2026-03-28T14:58:21Z</time></trkpt><trkpt lat="45.654249023131506" lon="8.840605691263384"><ele>252.0</ele><time>2026-03-28T14:58:22Z</time></trkpt><trkpt lat="45.654315260846865" lon="8.840599902994265"><ele>253.5</ele><time>2026-03-28T14:58:23Z</time></trkpt><trkpt lat="45.65422329603179" lon="8.84111084200658"><ele>255.0</ele><time>2026-03-28T14:59:24.999Z</time></trkpt><trkpt lat="45.654144161606105" lon="8.841146518094135"><ele>255.0</ele><time>2026-03-28T14:59:26.999Z</time></trkpt><trkpt lat="45.65413699639164" lon="8.841272640347954"><ele>255.0</ele><time>2026-03-28T14:59:29.999Z</time></trkpt><trkpt lat="45.65421524584085" lon="8.841301597541499"><ele>255.0</ele><time>2026-03-28T14:59:31.999Z</time></trkpt><trkpt lat="45.65428708809677" lon="8.84128319620906"><ele>255.0</ele><time>2026-03-28T14:59:32.999Z</time></trkpt><trkpt lat="45.65436437690593" lon="8.841244374132641"><ele>255.0</ele><time>2026-03-28T14:59:33.999Z</time></trkpt><trkpt lat="45.65450065173749" lon="8.841189554229599"><ele>255.4</ele><time>2026-03-28T14:59:35.999Z</time></trkpt><trkpt lat="45.65460844522856" lon="8.84115338285584"><ele>255.8</ele><time>2026-03-28T14:59:36.999Z</time></trkpt><trkpt lat="45.65468113851584" lon="8.841112455618559"><ele>256.2</ele><time>2026-03-28T14:59:37.999Z</time></trkpt><trkpt lat="45.65478461236216" lon="8.841073033147051"><ele>256.6</ele><time>2026-03-28T14:59:39.999Z</time></trkpt><trkpt lat="45.654825309863746" lon="8.841146141352406"><ele>257.0</ele><time>2026-03-28T14:59:41.999Z</time></trkpt><trkpt lat="45.654766879315204" lon="8.841263329661793"><ele>257.0</ele><time>2026-03-28T14:59:43.999Z</time></trkpt><trkpt lat="45.65470133557075" lon="8.841287563117717"><ele>257.0</ele><time>2026-03-28T14:59:44.999Z</time></trkpt><trkpt lat="45.654608042644234" lon="8.841302982946582"><ele>257.0</ele><time>2026-03-28T14:59:45.999Z</time></trkpt><trkpt lat="45.65449685603615" lon="8.841324566445374"><ele>257.0</ele><time>2026-03-28T14:59:46.999Z</time></trkpt><trkpt lat="45.65436756212572" lon="8.841361364166604"><ele>257.0</ele><time>2026-03-28T14:59:47.999Z</time></trkpt><trkpt lat="45.654241039143066" lon="8.841406147972952"><ele>256.6</ele><time>2026-03-28T14:59:48.999Z</time></trkpt><trkpt lat="45.65412100066806" lon="8.84144729515765"><ele>256.2</ele><time>2026-03-28T14:59:49.999Z</time></trkpt><trkpt lat="45.65401309268351" lon="8.841480454888721"><ele>255.8</ele><time>2026-03-28T14:59:50.999Z</time></trkpt><trkpt lat="45.653931983135784" lon="8.841501060930232"><ele>255.4</ele><time>2026-03-28T14:59:51.999Z</time></trkpt><trkpt lat="45.65386667758338" lon="8.841517781472222"><ele>255.0</ele><time>2026-03-28T14:59:52.999Z</time></trkpt><trkpt lat="45.653766556874004" lon="8.841507778535387"><ele>255.0</ele><time>2026-03-28T14:59:55Z</time></trkpt><trkpt lat="45.6537074393214" lon="8.841375189129348"><ele>255.0</ele><time>2026-03-28T14:59:57Z</time></trkpt><trkpt lat="45.65370292694696" lon="8.841271467460505"><ele>255.0</ele><time>2026-03-28T14:59:58Z</time></trkpt><trkpt lat="45.65369727167643" lon="8.841135911666699"><ele>255.0</ele><time>2026-03-28T14:59:59Z</time></trkpt><trkpt lat="45.65368345785295" lon="8.840984977093742"><ele>255.0</ele><time>2026-03-28T15:00:00Z</time></trkpt><trkpt lat="45.65367900052361" lon="8.840838408275633"><ele>254.4</ele><time>2026-03-28T15:00:01Z</time></trkpt><trkpt lat="45.65369892784668" lon="8.840703985383351"><ele>253.8</ele><time>2026-03-28T15:00:02Z</time></trkpt><trkpt lat="45.653741374896576" lon="8.840584668307647"><ele>253.2</ele><time>2026-03-28T15:00:03Z</time></trkpt><trkpt lat="45.65380651034236" lon="8.84048686165887"><ele>252.6</ele><time>2026-03-28T15:00:04Z</time></trkpt><trkpt lat="45.65389720611311" lon="8.840405885299115"><ele>252.0</ele><time>2026-03-28T15:00:05Z</time></trkpt><trkpt lat="45.654001891426894" lon="8.840351739567064"><ele>252.0</ele><time>2026-03-28T15:00:06Z</time></trkpt><trkpt lat="45.65412387319526" lon="8.840321259615957"><ele>252.0</ele><time>2026-03-28T15:00:07Z</time></trkpt><trkpt lat="45.654260275308985" lon="8.840313443628562"><ele>252.0</ele><time>2026-03-28T15:00:08Z</time></trkpt><trkpt lat="45.65439209702605" lon="8.84032354488381"><ele>252.0</ele><time>2026-03-28T15:00:09Z</time></trkpt><trkpt lat="45.65451673742595" lon="8.840324144027079"><ele>252.8</ele><time>2026-03-28T15:00:10Z</time></trkpt><trkpt lat="45.65463212347176" lon="8.840309039130208"><ele>253.6</ele><time>2026-03-28T15:00:11Z</time></trkpt><trkpt lat="45.65473433858419" lon="8.840282194212453"><ele>254.40000000000003</ele><time>2026-03-28T15:00:12Z</time></trkpt><trkpt lat="45.65481261034594" lon="8.840272549263446"><ele>255.20000000000002</ele><time>2026-03-28T15:00:13Z</time></trkpt><trkpt lat="45.65490245229693" lon="8.84026310332017"><ele>256.0</ele><time>2026-03-28T15:00:15Z</time></trkpt><trkpt lat="45.65496896456327" lon="8.840315038628855"><ele>256.0</ele><time>2026-03-28T15:00:17Z</time></trkpt><trkpt lat="45.654994882819736" lon="8.840464968171656"><ele>256.0</ele><time>2026-03-28T15:00:19Z</time></trkpt><trkpt lat="45.654982954008794" lon="8.84057845704821"><ele>256.0</ele><time>2026-03-28T15:00:20Z</time></trkpt><trkpt lat="45.654932001875274" lon="8.840711660432087"><ele>256.0</ele><time>2026-03-28T15:00:22Z</time></trkpt><trkpt lat="45.654970217365566" lon="8.840797208575875"><ele>256.0</ele><time>2026-03-28T15:00:24Z</time></trkpt><trkpt lat="45.65460250231383" lon="8.840573540928869"><ele>256.0</ele><time>2026-03-28T15:01:24.999Z</time></trkpt><trkpt lat="45.65472662270417" lon="8.840535834500193"><ele>256.0</ele><time>2026-03-28T15:01:27.999Z</time></trkpt><trkpt lat="45.65479430330876" lon="8.840687119043967"><ele>256.0</ele><time>2026-03-28T15:01:29.999Z</time></trkpt><trkpt lat="45.654832470710474" lon="8.840797483867114"><ele>256.0</ele><time>2026-03-28T15:01:30.999Z</time></trkpt><trkpt lat="45.65485805760457" lon="8.840890780899594"><ele>256.0</ele><time>2026-03-28T15:01:31.999Z</time></trkpt><trkpt lat="45.65488138402248" lon="8.84098298355639"><ele>255.99999999999997</ele><time>2026-03-28T15:01:32.999Z</time></trkpt><trkpt lat="45.65490769267904" lon="8.841066413724171"><ele>256.0</ele><time>2026-03-28T15:01:33.999Z</time></trkpt><trkpt lat="45.65487344553086" lon="8.84115981389025"><ele>256.0</ele><time>2026-03-28T15:01:36.999Z</time></trkpt><trkpt lat="45.65480894960303" lon="8.841077004173208"><ele>256.0</ele><time>2026-03-28T15:01:38.999Z</time></trkpt><trkpt lat="45.654778121091525" lon="8.840965438046895"><ele>255.99999999999997</ele><time>2026-03-28T15:01:39.999Z</time></trkpt><trkpt lat="45.654742032339605" lon="8.840870235792458"><ele>256.0</ele><time>2026-03-28T15:01:40.999Z</time></trkpt><trkpt lat="45.65466321039071" lon="8.840826568692636"><ele>255.99999999999997</ele><time>2026-03-28T15:01:42.999Z</time></trkpt><trkpt lat="45.654599842976765" lon="8.840845502531735"><ele>256.0</ele><time>2026-03-28T15:01:43.999Z</time></trkpt><trkpt lat="45.65452467611244" lon="8.840891276403246"><ele>256.0</ele><time>2026-03-28T15:01:44.999Z</time></trkpt><trkpt lat="45.654470016599205" lon="8.840955742439895"><ele>256.0</ele><time>2026-03-28T15:01:46.999Z</time></trkpt><trkpt lat="45.654509445206294" lon="8.841026912529609"><ele>255.99999999999997</ele><time>2026-03-28T15:01:49.999Z</time></trkpt><trkpt lat="45.65460140112048" lon="8.840996166149141"><ele>256.0</ele><time>2026-03-28T15:01:51.999Z</time></trkpt><trkpt lat="45.65465494101352" lon="8.840912341576121"><ele>256.2</ele><time>2026-03-28T15:01:52.999Z</time></trkpt><trkpt lat="45.654731059590645" lon="8.840971047289539"><ele>256.40000000000003</ele><time>2026-03-28T15:01:55.999Z</time></trkpt><trkpt lat="45.65467947923785" lon="8.841088999212536"><ele>256.6</ele><time>2026-03-28T15:01:57.999Z</time></trkpt><trkpt lat="45.65461236704824" lon="8.841094957969611"><ele>256.8</ele><time>2026-03-28T15:01:58.999Z</time></trkpt><trkpt lat="45.65451909090824" lon="8.841085195380096"><ele>257.0</ele><time>2026-03-28T15:02:00Z</time></trkpt><trkpt lat="45.65439875582006" lon="8.841089470187535"><ele>256.6666666666667</ele><time>2026-03-28T15:02:01Z</time></trkpt><trkpt lat="45.65428599253417" lon="8.841105449390616"><ele>256.33333333333337</ele><time>2026-03-28T15:02:02Z</time></trkpt><trkpt lat="45.654207578376585" lon="8.841117020509671"><ele>256.0</ele><time>2026-03-28T15:02:03Z</time></trkpt><trkpt lat="45.654134781667395" lon="8.841152437276657"><ele>255.66666666666669</ele><time>2026-03-28T15:02:05Z</time></trkpt><trkpt lat="45.65414173782402" lon="8.841277423240125"><ele>255.33333333333334</ele><time>2026-03-28T15:02:08Z</time></trkpt><trkpt lat="45.65423053641765" lon="8.841306241915648"><ele>255.0</ele><time>2026-03-28T15:02:10Z</time></trkpt><trkpt lat="45.65430045407591" lon="8.841277871041047"><ele>255.0</ele><time>2026-03-28T15:02:11Z</time></trkpt><trkpt lat="45.6543759781752" lon="8.84123803548216"><ele>255.0</ele><time>2026-03-28T15:02:12Z</time></trkpt><trkpt lat="45.65452942697789" lon="8.841186314090688"><ele>255.0</ele><time>2026-03-28T15:02:14Z</time></trkpt><trkpt lat="45.65463577848832" lon="8.841139880258028"><ele>255.0</ele><time>2026-03-28T15:02:15Z</time></trkpt><trkpt lat="45.65470876764497" lon="8.84110825032359"><ele>255.0</ele><time>2026-03-28T15:02:16Z</time></trkpt><trkpt lat="45.65479226952492" lon="8.841083819702394"><ele>255.4</ele><time>2026-03-28T15:02:18Z</time></trkpt><trkpt lat="45.654819024505635" lon="8.84118587445772"><ele>255.8</ele><time>2026-03-28T15:02:20Z</time></trkpt><trkpt lat="45.65471598493524" lon="8.841289744404873"><ele>256.2</ele><time>2026-03-28T15:02:22Z</time></trkpt><trkpt lat="45.654625378300906" lon="8.841316494612897"><ele>256.6</ele><time>2026-03-28T15:02:23Z</time></trkpt><trkpt lat="45.65454309330136" lon="8.841324036191082"><ele>257.0</ele><time>2026-03-28T15:02:24Z</time></trkpt><trkpt lat="45.654125944765426" lon="8.840517656865993"><ele>256.1666666666667</ele><time>2026-03-28T15:03:24.999Z</time></trkpt><trkpt lat="45.65402132287374" lon="8.840524771117574"><ele>255.33333333333334</ele><time>2026-03-28T15:03:25.999Z</time></trkpt><trkpt lat="45.65394683371929" lon="8.840531395307519"><ele>254.5</ele><time>2026-03-28T15:03:26.999Z</time></trkpt><trkpt lat="45.65387454047684" lon="8.840568744536235"><ele>253.66666666666669</ele><time>2026-03-28T15:03:28.999Z</time></trkpt><trkpt lat="45.653859379973206" lon="8.840657163697704"><ele>252.83333333333334</ele><time>2026-03-28T15:03:30.999Z</time></trkpt><trkpt lat="45.65391926259313" lon="8.840729552320864"><ele>252.0</ele><time>2026-03-28T15:03:32.999Z</time></trkpt><trkpt lat="45.654020770502186" lon="8.84065678703127"><ele>252.0</ele><time>2026-03-28T15:03:34.999Z</time></trkpt><trkpt lat="45.65408552612619" lon="8.840594603616715"><ele>252.0</ele><time>2026-03-28T15:03:35.999Z</time></trkpt><trkpt lat="45.65421226493591" lon="8.840599165498478"><ele>252.0</ele><time>2026-03-28T15:03:37.999Z</time></trkpt><trkpt lat="45.65427570359827" lon="8.840606480058348"><ele>252.0</ele><time>2026-03-28T15:03:38.999Z</time></trkpt><trkpt lat="45.65434089460817" lon="8.84059191844989"><ele>252.0</ele><time>2026-03-28T15:03:39.999Z</time></trkpt><trkpt lat="45.6544079445031" lon="8.84058969411246"><ele>252.0</ele><time>2026-03-28T15:03:41.999Z</time></trkpt><trkpt lat="45.654498612645234" lon="8.84060026028672"><ele>252.0</ele><time>2026-03-28T15:03:43.999Z</time></trkpt><trkpt lat="45.654498547228" lon="8.840698158407767"><ele>252.0</ele><time>2026-03-28T15:03:45.999Z</time></trkpt><trkpt lat="45.65439846200557" lon="8.84074988244154"><ele>252.0</ele><time>2026-03-28T15:03:47.999Z</time></trkpt><trkpt lat="45.654310799273496" lon="8.84083060915341"><ele>252.0</ele><time>2026-03-28T15:03:49.999Z</time></trkpt><trkpt lat="45.65430310323073" lon="8.840960952053551"><ele>252.0</ele><time>2026-03-28T15:03:51.999Z</time></trkpt><trkpt lat="45.65437135463424" lon="8.840965172364298"><ele>252.0</ele><time>2026-03-28T15:03:55.999Z</time></trkpt><trkpt lat="45.65442512981264" lon="8.840881323344327"><ele>252.8</ele><time>2026-03-28T15:03:57.999Z</time></trkpt><trkpt lat="45.654461009244464" lon="8.840793616306824"><ele>253.6</ele><time>2026-03-28T15:03:58.999Z</time></trkpt><trkpt lat="45.654560004145914" lon="8.840766890726428"><ele>254.40000000000003</ele><time>2026-03-28T15:04:00.999Z</time></trkpt><trkpt lat="45.65458949312957" lon="8.84062029370947"><ele>255.20000000000002</ele><time>2026-03-28T15:04:03.999Z</time></trkpt><trkpt lat="45.65464646063906" lon="8.840496321230194"><ele>256.0</ele><time>2026-03-28T15:04:06Z</time></trkpt><trkpt lat="45.65474231231754" lon="8.840539696160581"><ele>255.99999999999997</ele><time>2026-03-28T15:04:08Z</time></trkpt><trkpt lat="45.65478613698678" lon="8.84063313872487"><ele>256.0</ele><time>2026-03-28T15:04:09Z</time></trkpt><trkpt lat="45.65482832944391" lon="8.840740041014323"><ele>256.0</ele><time>2026-03-28T15:04:10Z</time></trkpt><trkpt lat="45.654848448841406" lon="8.84083298009284"><ele>256.0</ele><time>2026-03-28T15:04:11Z</time></trkpt><trkpt lat="45.65489409679596" lon="8.84100654052242"><ele>255.99999999999997</ele><time>2026-03-28T15:04:13Z</time></trkpt><trkpt lat="45.65491972962155" lon="8.841118598623343"><ele>256.0</ele><time>2026-03-28T15:04:15Z</time></trkpt><trkpt lat="45.654838686752456" lon="8.841120127054026"><ele>256.0</ele><time>2026-03-28T15:04:18Z</time></trkpt><trkpt lat="45.654775855678494" lon="8.84096393426713"><ele>256.0</ele><time>2026-03-28T15:04:20Z</time></trkpt><trkpt lat="45.65474452018523" lon="8.840873648696498"><ele>256.0</ele><time>2026-03-28T15:04:21Z</time></trkpt><trkpt lat="45.65466760225803" lon="8.840824110595287"><ele>256.0</ele><time>2026-03-28T15:04:23Z</time></trkpt><trkpt lat="45.653903962609505" lon="8.840393819314384"><ele>255.0</ele><time>2026-03-28T15:05:25Z</time></trkpt><trkpt lat="45.654015101479985" lon="8.840345376792659"><ele>254.0</ele><time>2026-03-28T15:05:26Z</time></trkpt><trkpt lat="45.65414299807671" lon="8.840323838123089"><ele>253.0</ele><time>2026-03-28T15:05:27Z</time></trkpt><trkpt lat="45.65428770983221" lon="8.8403181131111"><ele>252.0</ele><time>2026-03-28T15:05:28Z</time></trkpt><trkpt lat="45.654421126561445" lon="8.84032774865971"><ele>252.8</ele><time>2026-03-28T15:05:29Z</time></trkpt><trkpt lat="45.654541892738216" lon="8.840321367694326"><ele>253.6</ele><time>2026-03-28T15:05:30Z</time></trkpt><trkpt lat="45.654653846321644" lon="8.840302365166403"><ele>254.40000000000003</ele><time>2026-03-28T15:05:31Z</time></trkpt><trkpt lat="45.65475373471717" lon="8.84028482428066"><ele>255.20000000000002</ele><time>2026-03-28T15:05:32Z</time></trkpt><trkpt lat="45.654826097016425" lon="8.840277884370844"><ele>256.0</ele><time>2026-03-28T15:05:33Z</time></trkpt><trkpt lat="45.65490951411309" lon="8.840269693897309"><ele>255.99999999999997</ele><time>2026-03-28T15:05:35Z</time></trkpt><trkpt lat="45.65497668784617" lon="8.84033659954893"><ele>256.0</ele><time>2026-03-28T15:05:37Z</time></trkpt><trkpt lat="45.65498268297707" lon="8.84047914995534"><ele>256.0</ele><time>2026-03-28T15:05:39Z</time></trkpt><trkpt lat="45.65497561802215" lon="8.840582171659019"><ele>256.0</ele><time>2026-03-28T15:05:40Z</time></trkpt><trkpt lat="45.65493398842462" lon="8.840700292395672"><ele>255.99999999999997</ele><time>2026-03-28T15:05:42Z</time></trkpt><trkpt lat="45.65496723774705" lon="8.840792139708112"><ele>256.0</ele><time>2026-03-28T15:05:44Z</time></trkpt><trkpt lat="45.65507308806761" lon="8.840870738907311"><ele>255.99999999999997</ele><time>2026-03-28T15:05:46Z</time></trkpt><trkpt lat="45.65507734042498" lon="8.841003574763086"><ele>256.0</ele><time>2026-03-28T15:05:47.999Z</time></trkpt><trkpt lat="45.65499681939265" lon="8.841062901948446"><ele>256.0</ele><time>2026-03-28T15:05:49.999Z</time></trkpt><trkpt lat="45.65492891051722" lon="8.840990218334923"><ele>256.0</ele><time>2026-03-28T15:05:51.999Z</time></trkpt><trkpt lat="45.65490417187167" lon="8.840887105629324"><ele>255.99999999999997</ele><time>2026-03-28T15:05:52.999Z</time></trkpt><trkpt lat="45.65487968286162" lon="8.84076404813582"><ele>256.0</ele><time>2026-03-28T15:05:53.999Z</time></trkpt><trkpt lat="45.6548453006765" lon="8.840636290434071"><ele>256.0</ele><time>2026-03-28T15:05:54.999Z</time></trkpt><trkpt lat="45.654815151427066" lon="8.840527527565122"><ele>256.0</ele><time>2026-03-28T15:05:55.999Z</time></trkpt><trkpt lat="45.65475090596153" lon="8.840402309888512"><ele>256.0</ele><time>2026-03-28T15:05:57.999Z</time></trkpt><trkpt lat="45.6546387163112" lon="8.840368305018533"><ele>256.0</ele><time>2026-03-28T15:05:59.999Z</time></trkpt><trkpt lat="45.654560045016176" lon="8.840395589369319"><ele>256.0</ele><time>2026-03-28T15:06:00.999Z</time></trkpt><trkpt lat="45.654448016578094" lon="8.84044381388225"><ele>255.20000000000002</ele><time>2026-03-28T15:06:01.999Z</time></trkpt><trkpt lat="45.65437584472687" lon="8.84047404394822"><ele>254.40000000000003</ele><time>2026-03-28T15:06:02.999Z</time></trkpt><trkpt lat="45.65423368216433" lon="8.840499729405325"><ele>253.6</ele><time>2026-03-28T15:06:04.999Z</time></trkpt><trkpt lat="45.654116019520785" lon="8.840510253910537"><ele>252.8</ele><time>2026-03-28T15:06:05.999Z</time></trkpt><trkpt lat="45.65401410032246" lon="8.840516749182623"><ele>252.0</ele><time>2026-03-28T15:06:06.999Z</time></trkpt><trkpt lat="45.65393795911979" lon="8.84053236806092"><ele>252.0</ele><time>2026-03-28T15:06:07.999Z</time></trkpt><trkpt lat="45.65386975286448" lon="8.840570643445353"><ele>252.0</ele><time>2026-03-28T15:06:09.999Z</time></trkpt><trkpt lat="45.65386122425147" lon="8.840678899296448"><ele>252.0</ele><time>2026-03-28T15:06:12Z</time></trkpt><trkpt lat="45.65393251147141" lon="8.840737572139119"><ele>252.0</ele><time>2026-03-28T15:06:14Z</time></trkpt><trkpt lat="45.654015356205775" lon="8.840662381158399"><ele>252.0</ele><time>2026-03-28T15:06:16Z</time></trkpt><trkpt lat="45.65412684735315" lon="8.840598650937032"><ele>252.0</ele><time>2026-03-28T15:06:18Z</time></trkpt><trkpt lat="45.65419602096101" lon="8.840605104172969"><ele>252.0</ele><time>2026-03-28T15:06:19Z</time></trkpt><trkpt lat="45.65426711976061" lon="8.840614358146714"><ele>252.0</ele><time>2026-03-28T15:06:20Z</time></trkpt><trkpt lat="45.65434311400764" lon="8.840599561520055"><ele>252.0</ele><time>2026-03-28T15:06:21Z</time></trkpt><trkpt lat="45.65443588759567" lon="8.840597481663066"><ele>252.0</ele><time>2026-03-28T15:06:23Z</time></trkpt><trkpt lat="45.6541176396471" lon="8.841182925953923"><ele>252.5</ele><time>2026-03-28T15:07:25Z</time></trkpt><trkpt lat="45.65412778830323" lon="8.841272493040345"><ele>253.0</ele><time>2026-03-28T15:07:27Z</time></trkpt><trkpt lat="45.65420276525723" lon="8.841298399787288"><ele>253.5</ele><time>2026-03-28T15:07:29Z</time></trkpt><trkpt lat="45.65428191020257" lon="8.84128617894161"><ele>254.0</ele><time>2026-03-28T15:07:30Z</time></trkpt><trkpt lat="45.65435677408" lon="8.84124969787398"><ele>254.5</ele><time>2026-03-28T15:07:31Z</time></trkpt><trkpt lat="45.6544193327776" lon="8.84121650644111"><ele>255.0</ele><time>2026-03-28T15:07:32Z</time></trkpt><trkpt lat="45.65450203389896" lon="8.841182374736036"><ele>255.4</ele><time>2026-03-28T15:07:33Z</time></trkpt><trkpt lat="45.65461204542936" lon="8.841145830377274"><ele>255.8</ele><time>2026-03-28T15:07:34Z</time></trkpt><trkpt lat="45.65468699630189" lon="8.841114376000652"><ele>256.2</ele><time>2026-03-28T15:07:35Z</time></trkpt><trkpt lat="45.654776864978786" lon="8.841080781875622"><ele>256.6</ele><time>2026-03-28T15:07:37Z</time></trkpt><trkpt lat="45.65482229103057" lon="8.841159940874872"><ele>257.0</ele><time>2026-03-28T15:07:39Z</time></trkpt><trkpt lat="45.65474384369285" lon="8.841283014233962"><ele>257.0</ele><time>2026-03-28T15:07:41Z</time></trkpt><trkpt lat="45.654657108426605" lon="8.841298325667388"><ele>257.0</ele><time>2026-03-28T15:07:42Z</time></trkpt><trkpt lat="45.65452263678605" lon="8.84131999452347"><ele>257.0</ele><time>2026-03-28T15:07:43Z</time></trkpt><trkpt lat="45.65438965401152" lon="8.841353893905373"><ele>257.0</ele><time>2026-03-28T15:07:44Z</time></trkpt><trkpt lat="45.65424921799306" lon="8.841404136081204"><ele>256.6</ele><time>2026-03-28T15:07:45Z</time></trkpt><trkpt lat="45.654118909769586" lon="8.84144929537845"><ele>256.2</ele><time>2026-03-28T15:07:46Z</time></trkpt><trkpt lat="45.65401635275875" lon="8.84147801843972"><ele>255.8</ele><time>2026-03-28T15:07:47Z</time></trkpt><trkpt lat="45.6539302993129" lon="8.841500150964507"><ele>255.4</ele><time>2026-03-28T15:07:48Z</time></trkpt><trkpt lat="45.65381189872817" lon="8.841521628092863"><ele>255.0</ele><time>2026-03-28T15:07:50Z</time></trkpt><trkpt lat="45.65373027139115" lon="8.841453554623731"><ele>255.0</ele><time>2026-03-28T15:07:52Z</time></trkpt><trkpt lat="45.65371321674596" lon="8.841365691449212"><ele>255.0</ele><time>2026-03-28T15:07:52.999Z</time></trkpt><trkpt lat="45.653703099417775" lon="8.841233080830548"><ele>255.0</ele><time>2026-03-28T15:07:53.999Z</time></trkpt><trkpt lat="45.65369312147443" lon="8.841085921594512"><ele>255.0</ele><time>2026-03-28T15:07:54.999Z</time></trkpt><trkpt lat="45.65367895932398" lon="8.840983625320412"><ele>255.0</ele><time>2026-03-28T15:07:55.999Z</time></trkpt><trkpt lat="45.65366083578387" lon="8.840833323169667"><ele>255.0</ele><time>2026-03-28T15:07:57.999Z</time></trkpt><trkpt lat="45.653665474386536" lon="8.840731825425236"><ele>252.0</ele><time>2026-03-28T15:07:59.999Z</time></trkpt></trkseg><trkseg><trkpt lat="45.65409058540855" lon="8.840508084669986"><ele>252.0</ele><time>2026-03-28T15:19:26Z</time></trkpt><trkpt lat="45.6540088883194" lon="8.840509388726687"><ele>252.0</ele><time>2026-03-28T15:19:27Z</time></trkpt><trkpt lat="45.653906888283956" lon="8.840528123383574"><ele>252.0</ele><time>2026-03-28T15:19:29Z</time></trkpt><trkpt lat="45.65385299698442" lon="8.840599886171567"><ele>252.0</ele><time>2026-03-28T15:19:31Z</time></trkpt><trkpt lat="45.653886380177106" lon="8.840708076144402"><ele>252.0</ele><time>2026-03-28T15:19:33Z</time></trkpt><trkpt lat="45.6539685043774" lon="8.840710633213927"><ele>252.0</ele><time>2026-03-28T15:19:35Z</time></trkpt><trkpt lat="45.65404183153138" lon="8.840611063728636"><ele>252.0</ele><time>2026-03-28T15:19:37Z</time></trkpt><trkpt lat="45.654161467703126" lon="8.84058863283171"><ele>252.0</ele><time>2026-03-28T15:19:39Z</time></trkpt><trkpt lat="45.654280272686336" lon="8.840599739878341"><ele>252.0</ele><time>2026-03-28T15:19:41Z</time></trkpt><trkpt lat="45.654346238083846" lon="8.840586251043016"><ele>252.0</ele><time>2026-03-28T15:19:42Z</time></trkpt><trkpt lat="45.65443809355429" lon="8.840584455919629"><ele>252.0</ele><time>2026-03-28T15:19:44Z</time></trkpt><trkpt lat="45.654501054524104" lon="8.840623074365801"><ele>252.0</ele><time>2026-03-28T15:19:46Z</time></trkpt><trkpt lat="45.654473076457855" lon="8.840721261915089"><ele>252.0</ele><time>2026-03-28T15:19:48Z</time></trkpt><trkpt lat="45.6543613329808" lon="8.840746007294719"><ele>252.0</ele><time>2026-03-28T15:19:49.999Z</time></trkpt><trkpt lat="45.65429714993781" lon="8.840856492453197"><ele>252.0</ele><time>2026-03-28T15:19:51.999Z</time></trkpt><trkpt lat="45.654309247557656" lon="8.840970341602567"><ele>252.0</ele><time>2026-03-28T15:19:53.999Z</time></trkpt><trkpt lat="45.654385749416" lon="8.84094441468263"><ele>252.0</ele><time>2026-03-28T15:19:56.999Z</time></trkpt><trkpt lat="45.65443987716797" lon="8.840800835213"><ele>252.8</ele><time>2026-03-28T15:19:58.999Z</time></trkpt><trkpt lat="45.654525892573055" lon="8.840775301291844"><ele>253.6</ele><time>2026-03-28T15:20:00.999Z</time></trkpt><trkpt lat="45.65456881840415" lon="8.840685912144595"><ele>254.40000000000003</ele><time>2026-03-28T15:20:02.999Z</time></trkpt><trkpt lat="45.65460433142874" lon="8.840540924723987"><ele>255.20000000000002</ele><time>2026-03-28T15:20:04.999Z</time></trkpt><trkpt lat="45.65468544898902" lon="8.840488491666285"><ele>256.0</ele><time>2026-03-28T15:20:06.999Z</time></trkpt><trkpt lat="45.65477112400692" lon="8.840613034803228"><ele>256.0</ele><time>2026-03-28T15:20:08.999Z</time></trkpt><trkpt lat="45.654816673303365" lon="8.840724541337842"><ele>255.99999999999997</ele><time>2026-03-28T15:20:09.999Z</time></trkpt><trkpt lat="45.654844166870745" lon="8.840824713471957"><ele>256.0</ele><time>2026-03-28T15:20:10.999Z</time></trkpt><trkpt lat="45.65486921785941" lon="8.840912481913948"><ele>256.0</ele><time>2026-03-28T15:20:11.999Z</time></trkpt><trkpt lat="45.65488957406705" lon="8.841006594797147"><ele>255.99999999999997</ele><time>2026-03-28T15:20:12.999Z</time></trkpt><trkpt lat="45.654914463506714" lon="8.841117771106662"><ele>256.0</ele><time>2026-03-28T15:20:14.999Z</time></trkpt><trkpt lat="45.6548494337372" lon="8.841139617710136"><ele>256.0</ele><time>2026-03-28T15:20:16.999Z</time></trkpt><trkpt lat="45.654784261061096" lon="8.841008740859904"><ele>256.0</ele><time>2026-03-28T15:20:18.999Z</time></trkpt><trkpt lat="45.65475180543828" lon="8.840901471454458"><ele>256.0</ele><time>2026-03-28T15:20:19.999Z</time></trkpt><trkpt lat="45.65468622843848" lon="8.840820475122609"><ele>256.0</ele><time>2026-03-28T15:20:21.999Z</time></trkpt><trkpt lat="45.654568984243255" lon="8.840848076015664"><ele>256.0</ele><time>2026-03-28T15:20:23.999Z</time></trkpt><trkpt lat="45.65388702057894" lon="8.840398685488218"><ele>255.0</ele><time>2026-03-28T15:21:24.999Z</time></trkpt><trkpt lat="45.65400179906006" lon="8.840342696519919"><ele>254.0</ele><time>2026-03-28T15:21:25.999Z</time></trkpt><trkpt lat="45.654128976268304" lon="8.840314371793701"><ele>253.0</ele><time>2026-03-28T15:21:26.999Z</time></trkpt><trkpt lat="45.654277061374415" lon="8.84030793719269"><ele>252.0</ele><time>2026-03-28T15:21:27.999Z</time></trkpt><trkpt lat="45.65442875679945" lon="8.840314279140703"><ele>252.8</ele><time>2026-03-28T15:21:28.999Z</time></trkpt><trkpt lat="45.654549363916104" lon="8.840308959128366"><ele>253.6</ele><time>2026-03-28T15:21:29.999Z</time></trkpt><trkpt lat="45.65465583206026" lon="8.840290933406278"><ele>254.40000000000003</ele><time>2026-03-28T15:21:30.999Z</time></trkpt><trkpt lat="45.6547541266009" lon="8.840268678819664"><ele>255.20000000000002</ele><time>2026-03-28T15:21:31.999Z</time></trkpt><trkpt lat="45.65483656006003" lon="8.84025894121807"><ele>256.0</ele><time>2026-03-28T15:21:32.999Z</time></trkpt><trkpt lat="45.654921631046165" lon="8.840264247361354"><ele>255.99999999999997</ele><time>2026-03-28T15:21:34.999Z</time></trkpt><trkpt lat="45.65498304928039" lon="8.840331843997303"><ele>256.0</ele><time>2026-03-28T15:21:36.999Z</time></trkpt><trkpt lat="45.65499590614544" lon="8.840462514913163"><ele>256.0</ele><time>2026-03-28T15:21:38.999Z</time></trkpt><trkpt lat="45.65498310024728" lon="8.840570527081683"><ele>256.0</ele><time>2026-03-28T15:21:39.999Z</time></trkpt><trkpt lat="45.65493221540886" lon="8.84070024968724"><ele>255.99999999999997</ele><time>2026-03-28T15:21:41.999Z</time></trkpt><trkpt lat="45.6549749487391" lon="8.84078991628599"><ele>256.0</ele><time>2026-03-28T15:21:43.999Z</time></trkpt><trkpt lat="45.65507215943944" lon="8.8408763445694"><ele>256.0</ele><time>2026-03-28T15:21:45.999Z</time></trkpt><trkpt lat="45.655068369441224" lon="8.840985842664386"><ele>256.0</ele><time>2026-03-28T15:21:47.999Z</time></trkpt><trkpt lat="45.654995573133625" lon="8.841050419153248"><ele>256.0</ele><time>2026-03-28T15:21:49.999Z</time></trkpt><trkpt lat="45.65492325027527" lon="8.840981525474277"><ele>256.0</ele><time>2026-03-28T15:21:51.999Z</time></trkpt><trkpt lat="45.65488561838071" lon="8.840791386130928"><ele>256.0</ele><time>2026-03-28T15:21:53.999Z</time></trkpt><trkpt lat="45.65485175873548" lon="8.84065743563247"><ele>256.0</ele><time>2026-03-28T15:21:54.999Z</time></trkpt><trkpt lat="45.65481691019592" lon="8.84054156975557"><ele>256.0</ele><time>2026-03-28T15:21:55.999Z</time></trkpt><trkpt lat="45.654781699730854" lon="8.840454449048332"><ele>256.0</ele><time>2026-03-28T15:21:56.999Z</time></trkpt><trkpt lat="45.654705857131326" lon="8.84036392836563"><ele>256.0</ele><time>2026-03-28T15:21:58.999Z</time></trkpt><trkpt lat="45.654583718604094" lon="8.84038053787196"><ele>256.0</ele><time>2026-03-28T15:22:00.999Z</time></trkpt><trkpt lat="45.65448966946615" lon="8.84041809311052"><ele>255.0</ele><time>2026-03-28T15:22:01.999Z</time></trkpt><trkpt lat="45.65440535672094" lon="8.84045003448696"><ele>254.0</ele><time>2026-03-28T15:22:02.999Z</time></trkpt><trkpt lat="45.65428042873438" lon="8.840482707343995"><ele>253.0</ele><time>2026-03-28T15:22:04.999Z</time></trkpt><trkpt lat="45.6541495413345" lon="8.840499570442498"><ele>252.0</ele><time>2026-03-28T15:22:05.999Z</time></trkpt><trkpt lat="45.65403788534055" lon="8.840509662236688"><ele>252.0</ele><time>2026-03-28T15:22:06.999Z</time></trkpt><trkpt lat="45.65395672556417" lon="8.840513352181574"><ele>252.0</ele><time>2026-03-28T15:22:07.999Z</time></trkpt><trkpt lat="45.65387558356839" lon="8.840559757432597"><ele>252.0</ele><time>2026-03-28T15:22:09.999Z</time></trkpt><trkpt lat="45.65385864803469" lon="8.840660551450316"><ele>252.0</ele><time>2026-03-28T15:22:11.999Z</time></trkpt><trkpt lat="45.65392259065843" lon="8.84072778761465"><ele>252.0</ele><time>2026-03-28T15:22:13.999Z</time></trkpt><trkpt lat="45.65399793517245" lon="8.840672118049584"><ele>252.0</ele><time>2026-03-28T15:22:15.999Z</time></trkpt><trkpt lat="45.65409081843736" lon="8.840585003676159"><ele>252.0</ele><time>2026-03-28T15:22:17.999Z</time></trkpt><trkpt lat="45.65416790655999" lon="8.840586100425035"><ele>252.0</ele><time>2026-03-28T15:22:18.999Z</time></trkpt><trkpt lat="45.65424186797271" lon="8.840602005629083"><ele>252.0</ele><time>2026-03-28T15:22:19.999Z</time></trkpt><trkpt lat="45.65430627521774" lon="8.840596776328763"><ele>252.0</ele><time>2026-03-28T15:22:20.999Z</time></trkpt><trkpt lat="45.65437245714625" lon="8.840582748509386"><ele>252.0</ele><time>2026-03-28T15:22:21.999Z</time></trkpt><trkpt lat="45.65446635459089" lon="8.840584214050187"><ele>252.0</ele><time>2026-03-28T15:22:23.999Z</time></trkpt><trkpt lat="45.654128683024304" lon="8.841272315492695"><ele>252.6</ele><time>2026-03-28T15:23:24.999Z</time></trkpt><trkpt lat="45.65423164511974" lon="8.841293779303106"><ele>253.2</ele><time>2026-03-28T15:23:27.999Z</time></trkpt><trkpt lat="45.654295646902966" lon="8.8412647017427"><ele>253.8</ele><time>2026-03-28T15:23:28.999Z</time></trkpt><trkpt lat="45.65435597879768" lon="8.841232306225486"><ele>254.4</ele><time>2026-03-28T15:23:29.999Z</time></trkpt><trkpt lat="45.65449021652256" lon="8.841178852182749"><ele>255.0</ele><time>2026-03-28T15:23:31.999Z</time></trkpt><trkpt lat="45.65460801675959" lon="8.841129195280793"><ele>255.33333333333334</ele><time>2026-03-28T15:23:32.999Z</time></trkpt><trkpt lat="45.654703313894125" lon="8.841064940215045"><ele>255.66666666666669</ele><time>2026-03-28T15:23:33.999Z</time></trkpt><trkpt lat="45.65477824701864" lon="8.841054535733539"><ele>256.0</ele><time>2026-03-28T15:23:35.999Z</time></trkpt><trkpt lat="45.65482293100226" lon="8.841127998780987"><ele>256.33333333333337</ele><time>2026-03-28T15:23:37.999Z</time></trkpt><trkpt lat="45.65475049326417" lon="8.841254566728644"><ele>256.6666666666667</ele><time>2026-03-28T15:23:39.999Z</time></trkpt><trkpt lat="45.65467109838254" lon="8.841280428350831"><ele>257.0</ele><time>2026-03-28T15:23:40.999Z</time></trkpt><trkpt lat="45.65456305036623" lon="8.84129522298337"><ele>256.5</ele><time>2026-03-28T15:23:41.999Z</time></trkpt><trkpt lat="45.65441880774141" lon="8.841324449367944"><ele>256.0</ele><time>2026-03-28T15:23:42.999Z</time></trkpt><trkpt lat="45.65427617180188" lon="8.841374252324862"><ele>255.5</ele><time>2026-03-28T15:23:43.999Z</time></trkpt><trkpt lat="45.65414185383941" lon="8.841427397718865"><ele>255.0</ele><time>2026-03-28T15:23:44.999Z</time></trkpt><trkpt lat="45.6540219871062" lon="8.841457710626544"><ele>255.0</ele><time>2026-03-28T15:23:45.999Z</time></trkpt><trkpt lat="45.6539301112899" lon="8.841479643414887"><ele>255.0</ele><time>2026-03-28T15:23:46.999Z</time></trkpt><trkpt lat="45.65385248812979" lon="8.841506821911189"><ele>255.0</ele><time>2026-03-28T15:23:47.999Z</time></trkpt><trkpt lat="45.65378678081683" lon="8.841517927642357"><ele>255.0</ele><time>2026-03-28T15:23:48.999Z</time></trkpt><trkpt lat="45.65371629461976" lon="8.841452295262968"><ele>255.0</ele><time>2026-03-28T15:23:50.999Z</time></trkpt><trkpt lat="45.65369743155419" lon="8.841244661072068"><ele>255.0</ele><time>2026-03-28T15:23:52.999Z</time></trkpt><trkpt lat="45.65368533743681" lon="8.841066527546584"><ele>255.0</ele><time>2026-03-28T15:23:53.999Z</time></trkpt><trkpt lat="45.65367463269088" lon="8.84089451206731"><ele>255.0</ele><time>2026-03-28T15:23:54.999Z</time></trkpt><trkpt lat="45.653678144113194" lon="8.84073897531423"><ele>255.0</ele><time>2026-03-28T15:23:55.999Z</time></trkpt><trkpt lat="45.653716920199614" lon="8.84061243250615"><ele>254.4</ele><time>2026-03-28T15:23:56.999Z</time></trkpt><trkpt lat="45.65377617894718" lon="8.840503907083436"><ele>253.8</ele><time>2026-03-28T15:23:57.999Z</time></trkpt><trkpt lat="45.65386797038683" lon="8.840418128068364"><ele>253.2</ele><time>2026-03-28T15:23:58.999Z</time></trkpt><trkpt lat="45.65397160797867" lon="8.840351895189627"><ele>252.6</ele><time>2026-03-28T15:23:59.999Z</time></trkpt><trkpt lat="45.6540727562657" lon="8.840322323107378"><ele>252.0</ele><time>2026-03-28T15:24:00.999Z</time></trkpt><trkpt lat="45.65418799632858" lon="8.840304346346008"><ele>252.0</ele><time>2026-03-28T15:24:01.999Z</time></trkpt><trkpt lat="45.65432110478914" lon="8.840314108810315"><ele>252.0</ele><time>2026-03-28T15:24:02.999Z</time></trkpt><trkpt lat="45.654466799028874" lon="8.840319163847456"><ele>252.0</ele><time>2026-03-28T15:24:03.999Z</time></trkpt><trkpt lat="45.65459518517488" lon="8.84030218092393"><ele>252.0</ele><time>2026-03-28T15:24:04.999Z</time></trkpt><trkpt lat="45.654702102899755" lon="8.840272924097231"><ele>252.66666666666666</ele><time>2026-03-28T15:24:05.999Z</time></trkpt><trkpt lat="45.65479170993401" lon="8.840264183922704"><ele>253.33333333333331</ele><time>2026-03-28T15:24:06.999Z</time></trkpt><trkpt lat="45.65485842949971" lon="8.840259635587655"><ele>254.0</ele><time>2026-03-28T15:24:07.999Z</time></trkpt><trkpt lat="45.65492432539103" lon="8.840268081908864"><ele>254.66666666666666</ele><time>2026-03-28T15:24:09.999Z</time></trkpt><trkpt lat="45.654986150224985" lon="8.840349289244894"><ele>255.33333333333331</ele><time>2026-03-28T15:24:11.999Z</time></trkpt><trkpt lat="45.65498313330232" lon="8.840543883772579"><ele>256.0</ele><time>2026-03-28T15:24:13.999Z</time></trkpt><trkpt lat="45.65495750020846" lon="8.840626809155435"><ele>256.0</ele><time>2026-03-28T15:24:14.999Z</time></trkpt><trkpt lat="45.654929778335294" lon="8.840746550354053"><ele>256.0</ele><time>2026-03-28T15:24:16.999Z</time></trkpt><trkpt lat="45.65502896647191" lon="8.840826650426461"><ele>256.0</ele><time>2026-03-28T15:24:18.999Z</time></trkpt><trkpt lat="45.65507975388231" lon="8.84093850741209"><ele>256.0</ele><time>2026-03-28T15:24:20.999Z</time></trkpt><trkpt lat="45.65502554775427" lon="8.84104918468997"><ele>256.0</ele><time>2026-03-28T15:24:22.999Z</time></trkpt><trkpt lat="45.65380336003897" lon="8.841518271852832"><ele>255.8</ele><time>2026-03-28T15:26:24.999Z</time></trkpt><trkpt lat="45.65372700617406" lon="8.84144238133471"><ele>255.60000000000002</ele><time>2026-03-28T15:26:26.999Z</time></trkpt><trkpt lat="45.653707767697874" lon="8.841247880305175"><ele>255.4</ele><time>2026-03-28T15:26:28.999Z</time></trkpt><trkpt lat="45.65369827335958" lon="8.841121906580389"><ele>255.2</ele><time>2026-03-28T15:26:29.999Z</time></trkpt><trkpt lat="45.65367777518128" lon="8.841005244811832"><ele>255.0</ele><time>2026-03-28T15:26:30.999Z</time></trkpt><trkpt lat="45.653664789896204" lon="8.84090356485195"><ele>254.5</ele><time>2026-03-28T15:26:31.999Z</time></trkpt><trkpt lat="45.65365265028462" lon="8.840808021145836"><ele>254.0</ele><time>2026-03-28T15:26:33.999Z</time></trkpt><trkpt lat="45.65368690196231" lon="8.840691908563045"><ele>253.5</ele><time>2026-03-28T15:29:41Z</time></trkpt><trkpt lat="45.65372894423882" lon="8.840596951968969"><ele>253.0</ele><time>2026-03-28T15:29:42Z</time></trkpt><trkpt lat="45.653778051397396" lon="8.840513314360036"><ele>252.5</ele><time>2026-03-28T15:29:43Z</time></trkpt><trkpt lat="45.653854776015145" lon="8.840446030149545"><ele>252.0</ele><time>2026-03-28T15:29:44Z</time></trkpt><trkpt lat="45.653942866811995" lon="8.840385269663884"><ele>252.0</ele><time>2026-03-28T15:29:45Z</time></trkpt><trkpt lat="45.6540423007739" lon="8.840337627840531"><ele>252.0</ele><time>2026-03-28T15:29:46Z</time></trkpt><trkpt lat="45.654149120553065" lon="8.840305190107797"><ele>252.0</ele><time>2026-03-28T15:29:47Z</time></trkpt><trkpt lat="45.654262537725856" lon="8.84030349748687"><ele>252.0</ele><time>2026-03-28T15:29:48Z</time></trkpt><trkpt lat="45.65438478898843" lon="8.84031070585101"><ele>252.8</ele><time>2026-03-28T15:29:49Z</time></trkpt><trkpt lat="45.65450779995105" lon="8.840306165403907"><ele>253.6</ele><time>2026-03-28T15:29:50Z</time></trkpt><trkpt lat="45.65461176428793" lon="8.840288100553508"><ele>254.40000000000003</ele><time>2026-03-28T15:29:51Z</time></trkpt><trkpt lat="45.6546971869282" lon="8.8402720337443"><ele>255.20000000000002</ele><time>2026-03-28T15:29:52Z</time></trkpt><trkpt lat="45.6547754111539" lon="8.840262824587512"><ele>256.0</ele><time>2026-03-28T15:29:53Z</time></trkpt><trkpt lat="45.654846120543866" lon="8.840259386485707"><ele>255.99999999999997</ele><time>2026-03-28T15:29:54Z</time></trkpt><trkpt lat="45.65491698272434" lon="8.84026171532361"><ele>256.0</ele><time>2026-03-28T15:29:56Z</time></trkpt><trkpt lat="45.65498120930596" lon="8.840333889347663"><ele>256.0</ele><time>2026-03-28T15:29:57.999Z</time></trkpt><trkpt lat="45.65497689874572" lon="8.840488309576472"><ele>256.0</ele><time>2026-03-28T15:29:59.999Z</time></trkpt><trkpt lat="45.65496937032207" lon="8.840584397034904"><ele>255.99999999999997</ele><time>2026-03-28T15:30:00.999Z</time></trkpt><trkpt lat="45.654928388750214" lon="8.8406993686588"><ele>256.0</ele><time>2026-03-28T15:30:02.999Z</time></trkpt><trkpt lat="45.654973960412725" lon="8.840785430303937"><ele>255.99999999999997</ele><time>2026-03-28T15:30:04.999Z</time></trkpt><trkpt lat="45.65506840211312" lon="8.840866114172307"><ele>256.0</ele><time>2026-03-28T15:30:06.999Z</time></trkpt><trkpt lat="45.655068751774486" lon="8.841000763122812"><ele>256.0</ele><time>2026-03-28T15:30:08.999Z</time></trkpt><trkpt lat="45.65499521292879" lon="8.8410524986555"><ele>256.0</ele><time>2026-03-28T15:30:10.999Z</time></trkpt><trkpt lat="45.654934650144384" lon="8.840991576110438"><ele>255.99999999999997</ele><time>2026-03-28T15:30:12.999Z</time></trkpt><trkpt lat="45.65490389676153" lon="8.840904211392726"><ele>256.0</ele><time>2026-03-28T15:30:13.999Z</time></trkpt><trkpt lat="45.654883641509436" lon="8.840789405414684"><ele>256.0</ele><time>2026-03-28T15:30:14.999Z</time></trkpt><trkpt lat="45.654853591985415" lon="8.840658511055429"><ele>256.0</ele><time>2026-03-28T15:30:15.999Z</time></trkpt><trkpt lat="45.65482370103945" lon="8.840556761004525"><ele>256.0</ele><time>2026-03-28T15:30:16.999Z</time></trkpt><trkpt lat="45.654791296371634" lon="8.84046728293955"><ele>256.0</ele><time>2026-03-28T15:30:17.999Z</time></trkpt><trkpt lat="45.65471112096844" lon="8.840363215045416"><ele>256.0</ele><time>2026-03-28T15:30:19.999Z</time></trkpt><trkpt lat="45.65458418424795" lon="8.840376225069607"><ele>256.0</ele><time>2026-03-28T15:30:21.999Z</time></trkpt><trkpt lat="45.65449521936214" lon="8.840415468548187"><ele>256.0</ele><time>2026-03-28T15:30:22.999Z</time></trkpt><trkpt lat="45.65441347508814" lon="8.84045054287873"><ele>256.0</ele><time>2026-03-28T15:30:23.999Z</time></trkpt><trkpt lat="45.65472089958783" lon="8.840843977286541"><ele>256.0</ele><time>2026-03-28T15:31:25Z</time></trkpt><trkpt lat="45.654636774501625" lon="8.840813124153971"><ele>255.99999999999997</ele><time>2026-03-28T15:31:27Z</time></trkpt><trkpt lat="45.65457547374787" lon="8.840836451767675"><ele>256.0</ele><time>2026-03-28T15:31:28Z</time></trkpt><trkpt lat="45.654508880888955" lon="8.84088953209014"><ele>256.0</ele><time>2026-03-28T15:31:29Z</time></trkpt><trkpt lat="45.654467272665826" lon="8.840973892037722"><ele>255.99999999999997</ele><time>2026-03-28T15:31:32Z</time></trkpt><trkpt lat="45.65452314189984" lon="8.841017362881885"><ele>256.0</ele><time>2026-03-28T15:31:35Z</time></trkpt><trkpt lat="45.65458098960604" lon="8.840962612333366"><ele>256.0</ele><time>2026-03-28T15:31:38Z</time></trkpt><trkpt lat="45.65466579949784" lon="8.840875129021816"><ele>256.0</ele><time>2026-03-28T15:31:40Z</time></trkpt><trkpt lat="45.65472892022017" lon="8.840941541398527"><ele>256.0</ele><time>2026-03-28T15:31:42Z</time></trkpt><trkpt lat="45.65470514947329" lon="8.841075574141577"><ele>256.0</ele><time>2026-03-28T15:31:44Z</time></trkpt><trkpt lat="45.654572194050026" lon="8.841092689152223"><ele>256.0</ele><time>2026-03-28T15:31:46Z</time></trkpt><trkpt lat="45.65446273821359" lon="8.841079760276404"><ele>256.0</ele><time>2026-03-28T15:31:47Z</time></trkpt><trkpt lat="45.6543457015635" lon="8.841084436110398"><ele>255.83333333333331</ele><time>2026-03-28T15:31:48Z</time></trkpt><trkpt lat="45.654262917560835" lon="8.841095090103359"><ele>255.66666666666666</ele><time>2026-03-28T15:31:49Z</time></trkpt><trkpt lat="45.65419014484743" lon="8.841104512216386"><ele>255.5</ele><time>2026-03-28T15:31:50Z</time></trkpt><trkpt lat="45.65412364793102" lon="8.841140434634351"><ele>255.33333333333331</ele><time>2026-03-28T15:31:52Z</time></trkpt><trkpt lat="45.65411066826296" lon="8.841229569917706"><ele>255.16666666666666</ele><time>2026-03-28T15:31:54Z</time></trkpt><trkpt lat="45.65418240689828" lon="8.841285216891828"><ele>255.0</ele><time>2026-03-28T15:31:57Z</time></trkpt><trkpt lat="45.654326821684975" lon="8.841249831908168"><ele>255.0</ele><time>2026-03-28T15:31:58.999Z</time></trkpt><trkpt lat="45.6543969897242" lon="8.841220138036501"><ele>255.0</ele><time>2026-03-28T15:31:59.999Z</time></trkpt><trkpt lat="45.6544587487706" lon="8.841195722363286"><ele>255.0</ele><time>2026-03-28T15:32:00.999Z</time></trkpt><trkpt lat="45.65455393493535" lon="8.841162369057335"><ele>255.0</ele><time>2026-03-28T15:32:01.999Z</time></trkpt><trkpt lat="45.65464846005155" lon="8.841119604840001"><ele>255.0</ele><time>2026-03-28T15:32:02.999Z</time></trkpt><trkpt lat="45.65471774784739" lon="8.841086620838196"><ele>255.0</ele><time>2026-03-28T15:32:03.999Z</time></trkpt><trkpt lat="45.654796060476926" lon="8.841065852933607"><ele>255.4</ele><time>2026-03-28T15:32:05.999Z</time></trkpt><trkpt lat="45.65481597174838" lon="8.841184860557618"><ele>255.8</ele><time>2026-03-28T15:32:07.999Z</time></trkpt><trkpt lat="45.654773755621264" lon="8.841252342229298"><ele>256.2</ele><time>2026-03-28T15:32:08.999Z</time></trkpt><trkpt lat="45.65469820140649" lon="8.841282760165765"><ele>256.6</ele><time>2026-03-28T15:32:09.999Z</time></trkpt><trkpt lat="45.65460167311617" lon="8.841292343424469"><ele>257.0</ele><time>2026-03-28T15:32:10.999Z</time></trkpt><trkpt lat="45.65446890024668" lon="8.84132017235785"><ele>256.5</ele><time>2026-03-28T15:32:11.999Z</time></trkpt><trkpt lat="45.654336868496756" lon="8.841359809806187"><ele>256.0</ele><time>2026-03-28T15:32:12.999Z</time></trkpt><trkpt lat="45.654201802240635" lon="8.841403803404301"><ele>255.5</ele><time>2026-03-28T15:32:14Z</time></trkpt><trkpt lat="45.65407571715264" lon="8.84145581203237"><ele>255.0</ele><time>2026-03-28T15:32:15Z</time></trkpt><trkpt lat="45.65396018167831" lon="8.841486147511775"><ele>255.0</ele><time>2026-03-28T15:32:16Z</time></trkpt><trkpt lat="45.653876168084565" lon="8.841511390438914"><ele>255.0</ele><time>2026-03-28T15:32:17Z</time></trkpt><trkpt lat="45.65377399477399" lon="8.841508371006194"><ele>255.0</ele><time>2026-03-28T15:32:19Z</time></trkpt><trkpt lat="45.65370948887636" lon="8.84140900405166"><ele>255.0</ele><time>2026-03-28T15:32:21Z</time></trkpt><trkpt lat="45.653700759137934" lon="8.841311058290474"><ele>255.0</ele><time>2026-03-28T15:32:22Z</time></trkpt><trkpt lat="45.65369636501418" lon="8.841185186289271"><ele>255.0</ele><time>2026-03-28T15:32:23Z</time></trkpt><trkpt lat="45.65367924129687" lon="8.84107593812372"><ele>255.0</ele><time>2026-03-28T15:32:24Z</time></trkpt></trkseg></trk></gpx>